<?xml version='1.0' encoding='UTF-8'?><gpx version="1.1" creator="JPX - https://github.com/jenetics/jpx" xmlns="http://www.topografix.com/GPX/1/1"><trk><trkseg><trkpt lat="45.0118225" lon="9.2518658"><ele>136.0</ele><time>2026-04-25T06:40:53.994Z</time></trkpt><trkpt lat="45.0117392" lon="9.2519119"><ele>136.0</ele><time>2026-04-25T06:40:57.007Z</time></trkpt><trkpt lat="45.0116924" lon="9.2519771"><ele>136.0</ele><time>2026-04-25T06:40:59.999Z</time></trkpt><trkpt lat="45.0116924" lon="9.2520726"><ele>136.0</ele><time>2026-04-25T06:41:03Z</time></trkpt><trkpt lat="45.0116254" lon="9.2521476"><ele>136.0</ele><time>2026-04-25T06:41:06.061Z</time></trkpt><trkpt lat="45.0115645" lon="9.2521731"><ele>136.0</ele><time>2026-04-25T06:41:08.008Z</time></trkpt><trkpt lat="45.0114808" lon="9.25221"><ele>136.16666666666669</ele><time>2026-04-25T06:41:10.997Z</time></trkpt><trkpt lat="45.0113986" lon="9.2522695"><ele>136.33333333333334</ele><time>2026-04-25T06:41:14.005Z</time></trkpt><trkpt lat="45.0113243" lon="9.2523195"><ele>136.5</ele><time>2026-04-25T06:41:16.994Z</time></trkpt><trkpt lat="45.0112591" lon="9.2522593"><ele>136.66666666666666</ele><time>2026-04-25T06:41:19.99Z</time></trkpt><trkpt lat="45.0112068" lon="9.2521656"><ele>136.83333333333331</ele><time>2026-04-25T06:41:22.997Z</time></trkpt><trkpt lat="45.0111306" lon="9.2520957"><ele>137.0</ele><time>2026-04-25T06:41:25.993Z</time></trkpt><trkpt lat="45.011063" lon="9.2520856"><ele>137.0</ele><time>2026-04-25T06:41:27.992Z</time></trkpt><trkpt lat="45.0109795" lon="9.2521328"><ele>137.0</ele><time>2026-04-25T06:41:31.085Z</time></trkpt><trkpt lat="45.0109131" lon="9.2521564"><ele>137.0</ele><time>2026-04-25T06:41:32.998Z</time></trkpt><trkpt lat="45.0108467" lon="9.2521891"><ele>137.0</ele><time>2026-04-25T06:41:35.001Z</time></trkpt><trkpt lat="45.0107795" lon="9.2522159"><ele>137.0</ele><time>2026-04-25T06:41:37.003Z</time></trkpt><trkpt lat="45.010707" lon="9.2522376"><ele>137.0</ele><time>2026-04-25T06:41:39.004Z</time></trkpt><trkpt lat="45.0106214" lon="9.2522702"><ele>137.66666666666666</ele><time>2026-04-25T06:41:42.001Z</time></trkpt><trkpt lat="45.0105378" lon="9.2523118"><ele>138.33333333333331</ele><time>2026-04-25T06:41:45.017Z</time></trkpt><trkpt lat="45.0104547" lon="9.2523497"><ele>139.0</ele><time>2026-04-25T06:41:48.002Z</time></trkpt><trkpt lat="45.0103657" lon="9.2523823"><ele>139.66666666666666</ele><time>2026-04-25T06:41:50.999Z</time></trkpt><trkpt lat="45.0102847" lon="9.2524352"><ele>140.33333333333334</ele><time>2026-04-25T06:41:54.003Z</time></trkpt><trkpt lat="45.010224" lon="9.2524606"><ele>141.0</ele><time>2026-04-25T06:41:56Z</time></trkpt><trkpt lat="45.0101292" lon="9.2524965"><ele>141.0</ele><time>2026-04-25T06:41:58.995Z</time></trkpt><trkpt lat="45.0100687" lon="9.2525233"><ele>141.0</ele><time>2026-04-25T06:42:00.997Z</time></trkpt><trkpt lat="45.0100054" lon="9.2525642"><ele>141.0</ele><time>2026-04-25T06:42:03.004Z</time></trkpt><trkpt lat="45.0099442" lon="9.2525993"><ele>141.0</ele><time>2026-04-25T06:42:04.996Z</time></trkpt><trkpt lat="45.0098792" lon="9.2526346"><ele>141.0</ele><time>2026-04-25T06:42:06.999Z</time></trkpt><trkpt lat="45.0098154" lon="9.2526555"><ele>141.0</ele><time>2026-04-25T06:42:09.013Z</time></trkpt><trkpt lat="45.0097493" lon="9.2526931"><ele>141.0</ele><time>2026-04-25T06:42:10.997Z</time></trkpt><trkpt lat="45.0096888" lon="9.2527211"><ele>142.57142857142858</ele><time>2026-04-25T06:42:12.999Z</time></trkpt><trkpt lat="45.0096155" lon="9.2527519"><ele>144.14285714285714</ele><time>2026-04-25T06:42:15Z</time></trkpt><trkpt lat="45.0095489" lon="9.2527803"><ele>145.71428571428572</ele><time>2026-04-25T06:42:16.999Z</time></trkpt><trkpt lat="45.0094832" lon="9.2528003"><ele>147.28571428571428</ele><time>2026-04-25T06:42:19.004Z</time></trkpt><trkpt lat="45.0093943" lon="9.2528383"><ele>148.85714285714286</ele><time>2026-04-25T06:42:21.996Z</time></trkpt><trkpt lat="45.0093327" lon="9.2528699"><ele>150.42857142857142</ele><time>2026-04-25T06:42:24.001Z</time></trkpt><trkpt lat="45.0092646" lon="9.2529037"><ele>152.0</ele><time>2026-04-25T06:42:25.997Z</time></trkpt><trkpt lat="45.0092014" lon="9.2529302"><ele>153.14285714285714</ele><time>2026-04-25T06:42:28.011Z</time></trkpt><trkpt lat="45.0091126" lon="9.2529746"><ele>154.2857142857143</ele><time>2026-04-25T06:42:30.999Z</time></trkpt><trkpt lat="45.0090485" lon="9.2530019"><ele>155.42857142857144</ele><time>2026-04-25T06:42:32.998Z</time></trkpt><trkpt lat="45.0089852" lon="9.2530338"><ele>156.57142857142856</ele><time>2026-04-25T06:42:35Z</time></trkpt><trkpt lat="45.0089186" lon="9.2530579"><ele>157.71428571428572</ele><time>2026-04-25T06:42:36.997Z</time></trkpt><trkpt lat="45.0088476" lon="9.253091"><ele>158.85714285714286</ele><time>2026-04-25T06:42:39.007Z</time></trkpt><trkpt lat="45.0087825" lon="9.253124"><ele>160.0</ele><time>2026-04-25T06:42:41.028Z</time></trkpt><trkpt lat="45.0087158" lon="9.2531552"><ele>160.0</ele><time>2026-04-25T06:42:43Z</time></trkpt><trkpt lat="45.0086506" lon="9.2531747"><ele>160.0</ele><time>2026-04-25T06:42:44.999Z</time></trkpt><trkpt lat="45.0085785" lon="9.2531966"><ele>160.0</ele><time>2026-04-25T06:42:47.001Z</time></trkpt><trkpt lat="45.0085015" lon="9.2532147"><ele>160.0</ele><time>2026-04-25T06:42:49.005Z</time></trkpt><trkpt lat="45.0084353" lon="9.2531954"><ele>160.0</ele><time>2026-04-25T06:42:51.027Z</time></trkpt><trkpt lat="45.0083698" lon="9.253133"><ele>160.0</ele><time>2026-04-25T06:42:52.999Z</time></trkpt><trkpt lat="45.0083133" lon="9.2530324"><ele>160.57142857142856</ele><time>2026-04-25T06:42:54.997Z</time></trkpt><trkpt lat="45.0082779" lon="9.2529302"><ele>161.14285714285714</ele><time>2026-04-25T06:42:56.998Z</time></trkpt><trkpt lat="45.0082699" lon="9.2528384"><ele>161.71428571428572</ele><time>2026-04-25T06:42:58.999Z</time></trkpt><trkpt lat="45.00829" lon="9.2527413"><ele>162.28571428571428</ele><time>2026-04-25T06:43:00.989Z</time></trkpt><trkpt lat="45.0083087" lon="9.2526449"><ele>162.85714285714286</ele><time>2026-04-25T06:43:02.996Z</time></trkpt><trkpt lat="45.0083249" lon="9.2525441"><ele>163.42857142857142</ele><time>2026-04-25T06:43:05Z</time></trkpt><trkpt lat="45.0083371" lon="9.252453"><ele>164.0</ele><time>2026-04-25T06:43:07.01Z</time></trkpt><trkpt lat="45.0083581" lon="9.2523517"><ele>164.7142857142857</ele><time>2026-04-25T06:43:08.998Z</time></trkpt><trkpt lat="45.0083673" lon="9.2522586"><ele>165.42857142857142</ele><time>2026-04-25T06:43:11.01Z</time></trkpt><trkpt lat="45.0083827" lon="9.2521655"><ele>166.14285714285714</ele><time>2026-04-25T06:43:13.058Z</time></trkpt><trkpt lat="45.0083921" lon="9.2520715"><ele>166.85714285714283</ele><time>2026-04-25T06:43:15.008Z</time></trkpt><trkpt lat="45.0084028" lon="9.2519778"><ele>167.57142857142856</ele><time>2026-04-25T06:43:16.989Z</time></trkpt><trkpt lat="45.0084157" lon="9.2518842"><ele>168.28571428571428</ele><time>2026-04-25T06:43:19.002Z</time></trkpt><trkpt lat="45.0084274" lon="9.251788"><ele>169.0</ele><time>2026-04-25T06:43:20.99Z</time></trkpt><trkpt lat="45.0084405" lon="9.2516894"><ele>169.0</ele><time>2026-04-25T06:43:23.002Z</time></trkpt><trkpt lat="45.0084509" lon="9.2515831"><ele>169.0</ele><time>2026-04-25T06:43:24.997Z</time></trkpt><trkpt lat="45.0084625" lon="9.2514952"><ele>169.0</ele><time>2026-04-25T06:43:26.996Z</time></trkpt><trkpt lat="45.0084638" lon="9.2513587"><ele>169.0</ele><time>2026-04-25T06:43:29.992Z</time></trkpt><trkpt lat="45.0084545" lon="9.2512627"><ele>169.0</ele><time>2026-04-25T06:43:31.993Z</time></trkpt><trkpt lat="45.008401" lon="9.2511554"><ele>169.0</ele><time>2026-04-25T06:43:34.994Z</time></trkpt><trkpt lat="45.0083153" lon="9.251124"><ele>171.83333333333334</ele><time>2026-04-25T06:43:37.987Z</time></trkpt><trkpt lat="45.0082328" lon="9.2511774"><ele>174.66666666666669</ele><time>2026-04-25T06:43:40.993Z</time></trkpt><trkpt lat="45.0081869" lon="9.2512499"><ele>177.5</ele><time>2026-04-25T06:43:42.997Z</time></trkpt><trkpt lat="45.0081353" lon="9.2513185"><ele>180.33333333333334</ele><time>2026-04-25T06:43:45.002Z</time></trkpt><trkpt lat="45.0080871" lon="9.2513843"><ele>183.16666666666666</ele><time>2026-04-25T06:43:47.001Z</time></trkpt><trkpt lat="45.0080336" lon="9.2514739"><ele>186.0</ele><time>2026-04-25T06:43:48.998Z</time></trkpt><trkpt lat="45.0079911" lon="9.2515558"><ele>186.0</ele><time>2026-04-25T06:43:50.998Z</time></trkpt><trkpt lat="45.0079281" lon="9.2516365"><ele>186.0</ele><time>2026-04-25T06:43:52.993Z</time></trkpt><trkpt lat="45.0078796" lon="9.2517188"><ele>186.0</ele><time>2026-04-25T06:43:55.007Z</time></trkpt><trkpt lat="45.0078262" lon="9.2518053"><ele>186.0</ele><time>2026-04-25T06:43:57.003Z</time></trkpt><trkpt lat="45.0077743" lon="9.2518707"><ele>186.0</ele><time>2026-04-25T06:43:58.998Z</time></trkpt><trkpt lat="45.0077282" lon="9.2519423"><ele>186.0</ele><time>2026-04-25T06:44:00.999Z</time></trkpt><trkpt lat="45.0076844" lon="9.2520207"><ele>186.00000000000003</ele><time>2026-04-25T06:44:03.021Z</time></trkpt><trkpt lat="45.0076372" lon="9.2521018"><ele>186.0</ele><time>2026-04-25T06:44:05.003Z</time></trkpt><trkpt lat="45.007585" lon="9.2521699"><ele>186.0</ele><time>2026-04-25T06:44:07.001Z</time></trkpt><trkpt lat="45.0075178" lon="9.2522323"><ele>186.0</ele><time>2026-04-25T06:44:08.995Z</time></trkpt><trkpt lat="45.0074447" lon="9.2522479"><ele>186.0</ele><time>2026-04-25T06:44:11.01Z</time></trkpt><trkpt lat="45.0073793" lon="9.2522008"><ele>186.00000000000003</ele><time>2026-04-25T06:44:12.99Z</time></trkpt><trkpt lat="45.0073502" lon="9.2521153"><ele>186.0</ele><time>2026-04-25T06:44:14.996Z</time></trkpt><trkpt lat="45.0073366" lon="9.2520131"><ele>187.85714285714286</ele><time>2026-04-25T06:44:17.068Z</time></trkpt><trkpt lat="45.0073273" lon="9.2518995"><ele>189.71428571428572</ele><time>2026-04-25T06:44:18.998Z</time></trkpt><trkpt lat="45.0073324" lon="9.2518035"><ele>191.57142857142856</ele><time>2026-04-25T06:44:21.002Z</time></trkpt><trkpt lat="45.0073355" lon="9.2517089"><ele>193.42857142857144</ele><time>2026-04-25T06:44:22.991Z</time></trkpt><trkpt lat="45.0073408" lon="9.2516009"><ele>195.28571428571428</ele><time>2026-04-25T06:44:25Z</time></trkpt><trkpt lat="45.0073504" lon="9.2515073"><ele>197.14285714285714</ele><time>2026-04-25T06:44:27.002Z</time></trkpt><trkpt lat="45.0073581" lon="9.2514134"><ele>199.0</ele><time>2026-04-25T06:44:28.999Z</time></trkpt><trkpt lat="45.0073571" lon="9.2513044"><ele>200.33333333333331</ele><time>2026-04-25T06:44:31.004Z</time></trkpt><trkpt lat="45.007358" lon="9.2512032"><ele>201.66666666666666</ele><time>2026-04-25T06:44:32.988Z</time></trkpt><trkpt lat="45.0073613" lon="9.2510961"><ele>203.0</ele><time>2026-04-25T06:44:34.996Z</time></trkpt><trkpt lat="45.0073614" lon="9.2509831"><ele>204.33333333333331</ele><time>2026-04-25T06:44:36.999Z</time></trkpt><trkpt lat="45.0073689" lon="9.2508851"><ele>205.66666666666666</ele><time>2026-04-25T06:44:39Z</time></trkpt><trkpt lat="45.0073718" lon="9.2507765"><ele>207.0</ele><time>2026-04-25T06:44:40.989Z</time></trkpt><trkpt lat="45.0073721" lon="9.2506602"><ele>207.0</ele><time>2026-04-25T06:44:42.989Z</time></trkpt><trkpt lat="45.0073676" lon="9.2505484"><ele>207.0</ele><time>2026-04-25T06:44:45.001Z</time></trkpt><trkpt lat="45.0073502" lon="9.2504614"><ele>207.0</ele><time>2026-04-25T06:44:46.995Z</time></trkpt><trkpt lat="45.0072886" lon="9.2503584"><ele>207.0</ele><time>2026-04-25T06:44:50.006Z</time></trkpt><trkpt lat="45.0072286" lon="9.250329"><ele>207.0</ele><time>2026-04-25T06:44:51.996Z</time></trkpt><trkpt lat="45.0071456" lon="9.2503546"><ele>207.0</ele><time>2026-04-25T06:44:53.994Z</time></trkpt><trkpt lat="45.0070828" lon="9.2504206"><ele>207.00000000000003</ele><time>2026-04-25T06:44:56.065Z</time></trkpt><trkpt lat="45.0070519" lon="9.250508"><ele>207.0</ele><time>2026-04-25T06:44:58Z</time></trkpt><trkpt lat="45.0070208" lon="9.2506007"><ele>207.0</ele><time>2026-04-25T06:44:59.996Z</time></trkpt><trkpt lat="45.0069906" lon="9.2506925"><ele>207.0</ele><time>2026-04-25T06:45:01.986Z</time></trkpt><trkpt lat="45.0069537" lon="9.2507882"><ele>207.0</ele><time>2026-04-25T06:45:04.013Z</time></trkpt><trkpt lat="45.0069163" lon="9.2508736"><ele>207.00000000000003</ele><time>2026-04-25T06:45:06.004Z</time></trkpt><trkpt lat="45.0068807" lon="9.2509768"><ele>207.0</ele><time>2026-04-25T06:45:07.995Z</time></trkpt><trkpt lat="45.0068373" lon="9.2510753"><ele>207.0</ele><time>2026-04-25T06:45:10Z</time></trkpt><trkpt lat="45.0067864" lon="9.2511585"><ele>207.0</ele><time>2026-04-25T06:45:11.998Z</time></trkpt><trkpt lat="45.0067321" lon="9.2512203"><ele>207.0</ele><time>2026-04-25T06:45:13.995Z</time></trkpt><trkpt lat="45.0066548" lon="9.2512725"><ele>207.0</ele><time>2026-04-25T06:45:15.996Z</time></trkpt><trkpt lat="45.0065716" lon="9.2512888"><ele>207.0</ele><time>2026-04-25T06:45:18Z</time></trkpt><trkpt lat="45.0064951" lon="9.2512699"><ele>207.0</ele><time>2026-04-25T06:45:20.004Z</time></trkpt><trkpt lat="45.0064267" lon="9.2512505"><ele>208.83333333333334</ele><time>2026-04-25T06:45:22.073Z</time></trkpt><trkpt lat="45.0063488" lon="9.2512242"><ele>210.66666666666669</ele><time>2026-04-25T06:45:24.014Z</time></trkpt><trkpt lat="45.0062734" lon="9.2512033"><ele>212.5</ele><time>2026-04-25T06:45:26.003Z</time></trkpt><trkpt lat="45.0062043" lon="9.2511859"><ele>214.33333333333334</ele><time>2026-04-25T06:45:27.999Z</time></trkpt><trkpt lat="45.0061364" lon="9.2511505"><ele>216.16666666666669</ele><time>2026-04-25T06:45:30Z</time></trkpt><trkpt lat="45.0060613" lon="9.2511224"><ele>218.0</ele><time>2026-04-25T06:45:31.998Z</time></trkpt><trkpt lat="45.0059822" lon="9.2510978"><ele>218.0</ele><time>2026-04-25T06:45:34.001Z</time></trkpt><trkpt lat="45.0059118" lon="9.2510593"><ele>218.0</ele><time>2026-04-25T06:45:35.995Z</time></trkpt><trkpt lat="45.0058407" lon="9.2510227"><ele>218.0</ele><time>2026-04-25T06:45:38.007Z</time></trkpt><trkpt lat="45.0057714" lon="9.2509749"><ele>218.0</ele><time>2026-04-25T06:45:39.995Z</time></trkpt><trkpt lat="45.0057161" lon="9.250909"><ele>218.0</ele><time>2026-04-25T06:45:42.002Z</time></trkpt><trkpt lat="45.0056943" lon="9.2508114"><ele>218.0</ele><time>2026-04-25T06:45:43.997Z</time></trkpt><trkpt lat="45.0057242" lon="9.2507206"><ele>218.0</ele><time>2026-04-25T06:45:45.995Z</time></trkpt><trkpt lat="45.0057719" lon="9.2506304"><ele>218.57142857142858</ele><time>2026-04-25T06:45:48Z</time></trkpt><trkpt lat="45.0058416" lon="9.2505841"><ele>219.14285714285717</ele><time>2026-04-25T06:45:49.996Z</time></trkpt><trkpt lat="45.0059211" lon="9.2505633"><ele>219.71428571428572</ele><time>2026-04-25T06:45:51.994Z</time></trkpt><trkpt lat="45.0060027" lon="9.2505496"><ele>220.28571428571428</ele><time>2026-04-25T06:45:53.996Z</time></trkpt><trkpt lat="45.0060686" lon="9.2505102"><ele>220.85714285714286</ele><time>2026-04-25T06:45:56.01Z</time></trkpt><trkpt lat="45.0061305" lon="9.2504604"><ele>221.42857142857142</ele><time>2026-04-25T06:45:57.994Z</time></trkpt><trkpt lat="45.0061614" lon="9.2503802"><ele>222.0</ele><time>2026-04-25T06:45:59.992Z</time></trkpt><trkpt lat="45.0061712" lon="9.2502885"><ele>222.0</ele><time>2026-04-25T06:46:01.991Z</time></trkpt><trkpt lat="45.0061394" lon="9.2501941"><ele>222.0</ele><time>2026-04-25T06:46:03.996Z</time></trkpt><trkpt lat="45.006091" lon="9.2501176"><ele>222.0</ele><time>2026-04-25T06:46:06.003Z</time></trkpt><trkpt lat="45.0060142" lon="9.2500729"><ele>222.0</ele><time>2026-04-25T06:46:08.005Z</time></trkpt><trkpt lat="45.0059361" lon="9.250054"><ele>222.0</ele><time>2026-04-25T06:46:09.995Z</time></trkpt><trkpt lat="45.0058652" lon="9.2500236"><ele>222.0</ele><time>2026-04-25T06:46:11.996Z</time></trkpt><trkpt lat="45.0057573" lon="9.249995"><ele>223.83333333333334</ele><time>2026-04-25T06:46:14.993Z</time></trkpt><trkpt lat="45.0056864" lon="9.2499801"><ele>225.66666666666669</ele><time>2026-04-25T06:46:16.998Z</time></trkpt><trkpt lat="45.0056135" lon="9.2499623"><ele>227.5</ele><time>2026-04-25T06:46:18.997Z</time></trkpt><trkpt lat="45.005529" lon="9.2499299"><ele>229.33333333333334</ele><time>2026-04-25T06:46:20.997Z</time></trkpt><trkpt lat="45.0054419" lon="9.2499081"><ele>231.16666666666669</ele><time>2026-04-25T06:46:22.993Z</time></trkpt><trkpt lat="45.0053666" lon="9.2498772"><ele>233.0</ele><time>2026-04-25T06:46:25Z</time></trkpt><trkpt lat="45.0052891" lon="9.2498575"><ele>233.00000000000003</ele><time>2026-04-25T06:46:27.06Z</time></trkpt><trkpt lat="45.0052166" lon="9.2498351"><ele>233.0</ele><time>2026-04-25T06:46:29.004Z</time></trkpt><trkpt lat="45.0051411" lon="9.2497969"><ele>233.0</ele><time>2026-04-25T06:46:30.992Z</time></trkpt><trkpt lat="45.005068" lon="9.2497755"><ele>233.0</ele><time>2026-04-25T06:46:33.001Z</time></trkpt><trkpt lat="45.0049908" lon="9.2497637"><ele>233.00000000000003</ele><time>2026-04-25T06:46:35.003Z</time></trkpt><trkpt lat="45.0049151" lon="9.249744"><ele>233.0</ele><time>2026-04-25T06:46:37.004Z</time></trkpt><trkpt lat="45.0048465" lon="9.2497153"><ele>235.33333333333334</ele><time>2026-04-25T06:46:39.007Z</time></trkpt><trkpt lat="45.0047675" lon="9.2496809"><ele>237.66666666666669</ele><time>2026-04-25T06:46:40.999Z</time></trkpt><trkpt lat="45.0046902" lon="9.2496334"><ele>240.0</ele><time>2026-04-25T06:46:42.996Z</time></trkpt><trkpt lat="45.0046118" lon="9.2495879"><ele>242.33333333333331</ele><time>2026-04-25T06:46:44.995Z</time></trkpt><trkpt lat="45.004551" lon="9.2495409"><ele>244.66666666666666</ele><time>2026-04-25T06:46:46.999Z</time></trkpt><trkpt lat="45.0044904" lon="9.2494606"><ele>247.0</ele><time>2026-04-25T06:46:48.995Z</time></trkpt><trkpt lat="45.0044462" lon="9.2493677"><ele>246.99999999999997</ele><time>2026-04-25T06:46:50.997Z</time></trkpt><trkpt lat="45.0043857" lon="9.2492873"><ele>247.0</ele><time>2026-04-25T06:46:52.999Z</time></trkpt><trkpt lat="45.0043504" lon="9.2491907"><ele>247.0</ele><time>2026-04-25T06:46:54.999Z</time></trkpt><trkpt lat="45.0043234" lon="9.2490819"><ele>247.0</ele><time>2026-04-25T06:46:57.001Z</time></trkpt><trkpt lat="45.0042971" lon="9.24898"><ele>246.99999999999997</ele><time>2026-04-25T06:46:58.999Z</time></trkpt><trkpt lat="45.0042917" lon="9.2488817"><ele>247.0</ele><time>2026-04-25T06:47:00.999Z</time></trkpt><trkpt lat="45.0042878" lon="9.2487775"><ele>248.16666666666666</ele><time>2026-04-25T06:47:03.011Z</time></trkpt><trkpt lat="45.0042842" lon="9.2486703"><ele>249.33333333333331</ele><time>2026-04-25T06:47:04.993Z</time></trkpt><trkpt lat="45.0042893" lon="9.2485529"><ele>250.5</ele><time>2026-04-25T06:47:06.998Z</time></trkpt><trkpt lat="45.004291" lon="9.2484391"><ele>251.66666666666669</ele><time>2026-04-25T06:47:08.993Z</time></trkpt><trkpt lat="45.0043016" lon="9.2483263"><ele>252.83333333333334</ele><time>2026-04-25T06:47:10.996Z</time></trkpt><trkpt lat="45.0043071" lon="9.2482314"><ele>254.0</ele><time>2026-04-25T06:47:13Z</time></trkpt><trkpt lat="45.0042781" lon="9.2481222"><ele>254.16666666666669</ele><time>2026-04-25T06:47:15.993Z</time></trkpt><trkpt lat="45.0042005" lon="9.2481118"><ele>254.33333333333334</ele><time>2026-04-25T06:47:18.998Z</time></trkpt><trkpt lat="45.0041464" lon="9.2481796"><ele>254.5</ele><time>2026-04-25T06:47:21.003Z</time></trkpt><trkpt lat="45.004104" lon="9.2482757"><ele>254.66666666666669</ele><time>2026-04-25T06:47:23.003Z</time></trkpt><trkpt lat="45.0040621" lon="9.2483736"><ele>254.83333333333334</ele><time>2026-04-25T06:47:25.005Z</time></trkpt><trkpt lat="45.0040013" lon="9.2484497"><ele>255.0</ele><time>2026-04-25T06:47:26.991Z</time></trkpt><trkpt lat="45.0039361" lon="9.2485085"><ele>256.8333333333333</ele><time>2026-04-25T06:47:28.997Z</time></trkpt><trkpt lat="45.003868" lon="9.2485495"><ele>258.6666666666667</ele><time>2026-04-25T06:47:31Z</time></trkpt><trkpt lat="45.0037987" lon="9.2485774"><ele>260.5</ele><time>2026-04-25T06:47:33Z</time></trkpt><trkpt lat="45.00373" lon="9.2486038"><ele>262.33333333333337</ele><time>2026-04-25T06:47:34.999Z</time></trkpt><trkpt lat="45.003652" lon="9.2486189"><ele>264.1666666666667</ele><time>2026-04-25T06:47:37.008Z</time></trkpt><trkpt lat="45.0035705" lon="9.2486565"><ele>266.0</ele><time>2026-04-25T06:47:39.015Z</time></trkpt><trkpt lat="45.0034948" lon="9.2486865"><ele>266.0</ele><time>2026-04-25T06:47:41.012Z</time></trkpt><trkpt lat="45.0034114" lon="9.2487231"><ele>266.0</ele><time>2026-04-25T06:47:43.003Z</time></trkpt><trkpt lat="45.0033277" lon="9.2487562"><ele>266.0</ele><time>2026-04-25T06:47:45.003Z</time></trkpt><trkpt lat="45.0032578" lon="9.2487658"><ele>266.0</ele><time>2026-04-25T06:47:46.994Z</time></trkpt><trkpt lat="45.00319" lon="9.2487187"><ele>266.0</ele><time>2026-04-25T06:47:49.001Z</time></trkpt><trkpt lat="45.0031606" lon="9.2486163"><ele>266.0</ele><time>2026-04-25T06:47:50.989Z</time></trkpt><trkpt lat="45.0031801" lon="9.2485151"><ele>266.0</ele><time>2026-04-25T06:47:53.001Z</time></trkpt><trkpt lat="45.0032323" lon="9.2484262"><ele>266.0</ele><time>2026-04-25T06:47:54.999Z</time></trkpt><trkpt lat="45.0032777" lon="9.2483488"><ele>266.0</ele><time>2026-04-25T06:47:56.999Z</time></trkpt><trkpt lat="45.0033312" lon="9.2482665"><ele>266.0</ele><time>2026-04-25T06:47:59Z</time></trkpt><trkpt lat="45.0033837" lon="9.2481754"><ele>266.0</ele><time>2026-04-25T06:48:00.997Z</time></trkpt><trkpt lat="45.0034364" lon="9.2480859"><ele>266.0</ele><time>2026-04-25T06:48:02.993Z</time></trkpt><trkpt lat="45.0034746" lon="9.2479946"><ele>265.6666666666667</ele><time>2026-04-25T06:48:04.999Z</time></trkpt><trkpt lat="45.0034661" lon="9.2478995"><ele>265.33333333333337</ele><time>2026-04-25T06:48:07.007Z</time></trkpt><trkpt lat="45.0034347" lon="9.2477979"><ele>265.0</ele><time>2026-04-25T06:48:08.997Z</time></trkpt><trkpt lat="45.003373" lon="9.2477614"><ele>264.6666666666667</ele><time>2026-04-25T06:48:11.002Z</time></trkpt><trkpt lat="45.0032969" lon="9.2477538"><ele>264.3333333333333</ele><time>2026-04-25T06:48:12.993Z</time></trkpt><trkpt lat="45.003216" lon="9.2477665"><ele>264.0</ele><time>2026-04-25T06:48:15.005Z</time></trkpt><trkpt lat="45.0031368" lon="9.2478067"><ele>266.3333333333333</ele><time>2026-04-25T06:48:16.995Z</time></trkpt><trkpt lat="45.0030553" lon="9.2478356"><ele>268.6666666666667</ele><time>2026-04-25T06:48:18.996Z</time></trkpt><trkpt lat="45.0029739" lon="9.2478437"><ele>271.0</ele><time>2026-04-25T06:48:21.003Z</time></trkpt><trkpt lat="45.0028978" lon="9.2478547"><ele>273.33333333333337</ele><time>2026-04-25T06:48:22.999Z</time></trkpt><trkpt lat="45.0028164" lon="9.2478459"><ele>275.6666666666667</ele><time>2026-04-25T06:48:24.997Z</time></trkpt><trkpt lat="45.0027322" lon="9.2478287"><ele>278.0</ele><time>2026-04-25T06:48:26.999Z</time></trkpt><trkpt lat="45.0026584" lon="9.2478006"><ele>278.0</ele><time>2026-04-25T06:48:29.007Z</time></trkpt><trkpt lat="45.0025767" lon="9.2477604"><ele>278.0</ele><time>2026-04-25T06:48:30.996Z</time></trkpt><trkpt lat="45.0024985" lon="9.2477269"><ele>278.0</ele><time>2026-04-25T06:48:33.004Z</time></trkpt><trkpt lat="45.0024288" lon="9.2476777"><ele>278.0</ele><time>2026-04-25T06:48:35.003Z</time></trkpt><trkpt lat="45.0023539" lon="9.2476557"><ele>278.0</ele><time>2026-04-25T06:48:37.006Z</time></trkpt><trkpt lat="45.0022776" lon="9.2476202"><ele>278.0</ele><time>2026-04-25T06:48:39.004Z</time></trkpt><trkpt lat="45.0021979" lon="9.2475933"><ele>279.6666666666667</ele><time>2026-04-25T06:48:40.999Z</time></trkpt><trkpt lat="45.0021237" lon="9.2475695"><ele>281.33333333333337</ele><time>2026-04-25T06:48:42.996Z</time></trkpt><trkpt lat="45.0020539" lon="9.2475327"><ele>283.0</ele><time>2026-04-25T06:48:45Z</time></trkpt><trkpt lat="45.0019778" lon="9.2475019"><ele>284.6666666666667</ele><time>2026-04-25T06:48:47.002Z</time></trkpt><trkpt lat="45.0018921" lon="9.2475085"><ele>286.3333333333333</ele><time>2026-04-25T06:48:49.006Z</time></trkpt><trkpt lat="45.0018092" lon="9.2475272"><ele>288.0</ele><time>2026-04-25T06:48:50.991Z</time></trkpt><trkpt lat="45.0017351" lon="9.2475595"><ele>290.6666666666667</ele><time>2026-04-25T06:48:53.001Z</time></trkpt><trkpt lat="45.0016628" lon="9.2476024"><ele>293.3333333333333</ele><time>2026-04-25T06:48:55.001Z</time></trkpt><trkpt lat="45.0015856" lon="9.247649"><ele>296.0</ele><time>2026-04-25T06:48:57.002Z</time></trkpt><trkpt lat="45.0015128" lon="9.2477156"><ele>298.66666666666663</ele><time>2026-04-25T06:48:58.994Z</time></trkpt><trkpt lat="45.0014393" lon="9.2477698"><ele>301.3333333333333</ele><time>2026-04-25T06:49:01Z</time></trkpt><trkpt lat="45.0013591" lon="9.247817"><ele>304.0</ele><time>2026-04-25T06:49:03.076Z</time></trkpt><trkpt lat="45.0012911" lon="9.2478632"><ele>304.0</ele><time>2026-04-25T06:49:05.004Z</time></trkpt><trkpt lat="45.0012189" lon="9.2479133"><ele>304.0</ele><time>2026-04-25T06:49:07.001Z</time></trkpt><trkpt lat="45.0011469" lon="9.2479651"><ele>304.0</ele><time>2026-04-25T06:49:08.997Z</time></trkpt><trkpt lat="45.0010731" lon="9.2480178"><ele>304.0</ele><time>2026-04-25T06:49:11.007Z</time></trkpt><trkpt lat="45.0009954" lon="9.2480666"><ele>304.0</ele><time>2026-04-25T06:49:13.015Z</time></trkpt><trkpt lat="45.0009255" lon="9.2481101"><ele>304.0</ele><time>2026-04-25T06:49:14.994Z</time></trkpt><trkpt lat="45.0008666" lon="9.2481436"><ele>303.16666666666663</ele><time>2026-04-25T06:49:16.991Z</time></trkpt><trkpt lat="45.0008045" lon="9.2481902"><ele>302.3333333333333</ele><time>2026-04-25T06:49:19.007Z</time></trkpt><trkpt lat="45.0007247" lon="9.2482143"><ele>301.5</ele><time>2026-04-25T06:49:20.999Z</time></trkpt><trkpt lat="45.0006377" lon="9.2482022"><ele>300.6666666666667</ele><time>2026-04-25T06:49:22.998Z</time></trkpt><trkpt lat="45.000554" lon="9.2481911"><ele>299.83333333333337</ele><time>2026-04-25T06:49:24.991Z</time></trkpt><trkpt lat="45.0004782" lon="9.2481754"><ele>299.0</ele><time>2026-04-25T06:49:26.999Z</time></trkpt><trkpt lat="45.0004101" lon="9.2481517"><ele>299.6666666666667</ele><time>2026-04-25T06:49:28.998Z</time></trkpt><trkpt lat="45.0003437" lon="9.2480909"><ele>300.33333333333337</ele><time>2026-04-25T06:49:30.998Z</time></trkpt><trkpt lat="45.0002919" lon="9.2480144"><ele>301.0</ele><time>2026-04-25T06:49:32.998Z</time></trkpt><trkpt lat="45.0002487" lon="9.2479031"><ele>301.6666666666667</ele><time>2026-04-25T06:49:34.999Z</time></trkpt><trkpt lat="45.0002326" lon="9.2477932"><ele>302.3333333333333</ele><time>2026-04-25T06:49:36.987Z</time></trkpt><trkpt lat="45.00021" lon="9.2476663"><ele>303.0</ele><time>2026-04-25T06:49:39.004Z</time></trkpt><trkpt lat="45.0002015" lon="9.2475731"><ele>303.0</ele><time>2026-04-25T06:49:41.003Z</time></trkpt><trkpt lat="45.0001996" lon="9.2474804"><ele>303.0</ele><time>2026-04-25T06:49:43.004Z</time></trkpt><trkpt lat="45.000197" lon="9.2473846"><ele>303.0</ele><time>2026-04-25T06:49:45.001Z</time></trkpt><trkpt lat="45.0001911" lon="9.2472923"><ele>303.0</ele><time>2026-04-25T06:49:46.999Z</time></trkpt><trkpt lat="45.0001487" lon="9.2472264"><ele>303.0</ele><time>2026-04-25T06:49:49.003Z</time></trkpt><trkpt lat="45.0000769" lon="9.2471929"><ele>303.0</ele><time>2026-04-25T06:49:51.001Z</time></trkpt><trkpt lat="44.9999852" lon="9.2471805"><ele>303.0</ele><time>2026-04-25T06:49:53.007Z</time></trkpt><trkpt lat="44.9999093" lon="9.2471678"><ele>302.5</ele><time>2026-04-25T06:49:55.077Z</time></trkpt><trkpt lat="44.9998132" lon="9.2471751"><ele>302.0</ele><time>2026-04-25T06:49:56.999Z</time></trkpt><trkpt lat="44.9997283" lon="9.2471688"><ele>301.5</ele><time>2026-04-25T06:49:58.998Z</time></trkpt><trkpt lat="44.9996493" lon="9.2471686"><ele>301.0</ele><time>2026-04-25T06:50:00.999Z</time></trkpt><trkpt lat="44.9995654" lon="9.2471696"><ele>300.5</ele><time>2026-04-25T06:50:02.998Z</time></trkpt><trkpt lat="44.9994861" lon="9.247174"><ele>300.0</ele><time>2026-04-25T06:50:05Z</time></trkpt><trkpt lat="44.9994059" lon="9.2471764"><ele>300.0</ele><time>2026-04-25T06:50:07.003Z</time></trkpt><trkpt lat="44.9993276" lon="9.2471769"><ele>300.0</ele><time>2026-04-25T06:50:09.084Z</time></trkpt><trkpt lat="44.9992424" lon="9.2471721"><ele>300.0</ele><time>2026-04-25T06:50:11.015Z</time></trkpt><trkpt lat="44.999164" lon="9.2471752"><ele>300.0</ele><time>2026-04-25T06:50:12.998Z</time></trkpt><trkpt lat="44.99908" lon="9.2471656"><ele>300.0</ele><time>2026-04-25T06:50:15Z</time></trkpt><trkpt lat="44.9990022" lon="9.247166"><ele>300.0</ele><time>2026-04-25T06:50:17.006Z</time></trkpt><trkpt lat="44.9989238" lon="9.2471514"><ele>300.6666666666667</ele><time>2026-04-25T06:50:18.998Z</time></trkpt><trkpt lat="44.998842" lon="9.2471465"><ele>301.3333333333333</ele><time>2026-04-25T06:50:20.99Z</time></trkpt><trkpt lat="44.9987611" lon="9.2471276"><ele>302.0</ele><time>2026-04-25T06:50:22.998Z</time></trkpt><trkpt lat="44.9986838" lon="9.2470939"><ele>302.66666666666663</ele><time>2026-04-25T06:50:25.004Z</time></trkpt><trkpt lat="44.9986082" lon="9.247053"><ele>303.3333333333333</ele><time>2026-04-25T06:50:27.014Z</time></trkpt><trkpt lat="44.9985387" lon="9.24701"><ele>304.0</ele><time>2026-04-25T06:50:28.995Z</time></trkpt><trkpt lat="44.9984625" lon="9.2469691"><ele>304.0</ele><time>2026-04-25T06:50:31.007Z</time></trkpt><trkpt lat="44.9983905" lon="9.2469367"><ele>304.0</ele><time>2026-04-25T06:50:33.072Z</time></trkpt><trkpt lat="44.9983127" lon="9.2469125"><ele>304.0</ele><time>2026-04-25T06:50:35.078Z</time></trkpt><trkpt lat="44.9982284" lon="9.246894"><ele>304.0</ele><time>2026-04-25T06:50:36.999Z</time></trkpt><trkpt lat="44.9981498" lon="9.2468734"><ele>304.0</ele><time>2026-04-25T06:50:38.997Z</time></trkpt><trkpt lat="44.9980752" lon="9.246842"><ele>304.0</ele><time>2026-04-25T06:50:41.006Z</time></trkpt><trkpt lat="44.9979962" lon="9.2468133"><ele>306.16666666666663</ele><time>2026-04-25T06:50:43.004Z</time></trkpt><trkpt lat="44.9979217" lon="9.2467741"><ele>308.3333333333333</ele><time>2026-04-25T06:50:45.011Z</time></trkpt><trkpt lat="44.9978456" lon="9.2467369"><ele>310.5</ele><time>2026-04-25T06:50:47.001Z</time></trkpt><trkpt lat="44.9977625" lon="9.2467206"><ele>312.6666666666667</ele><time>2026-04-25T06:50:48.999Z</time></trkpt><trkpt lat="44.9976907" lon="9.2467053"><ele>314.83333333333337</ele><time>2026-04-25T06:50:51.007Z</time></trkpt><trkpt lat="44.9976169" lon="9.2466947"><ele>317.0</ele><time>2026-04-25T06:50:53.014Z</time></trkpt><trkpt lat="44.9975397" lon="9.2466844"><ele>318.5</ele><time>2026-04-25T06:50:54.996Z</time></trkpt><trkpt lat="44.9974641" lon="9.246662"><ele>320.0</ele><time>2026-04-25T06:50:56.994Z</time></trkpt><trkpt lat="44.9973859" lon="9.2466537"><ele>321.5</ele><time>2026-04-25T06:50:59.069Z</time></trkpt><trkpt lat="44.9973071" lon="9.2466403"><ele>323.0</ele><time>2026-04-25T06:51:01.012Z</time></trkpt><trkpt lat="44.997232" lon="9.2466212"><ele>324.5</ele><time>2026-04-25T06:51:02.992Z</time></trkpt><trkpt lat="44.997151" lon="9.2466033"><ele>326.0</ele><time>2026-04-25T06:51:05.005Z</time></trkpt><trkpt lat="44.9970673" lon="9.2465525"><ele>326.5</ele><time>2026-04-25T06:51:08.001Z</time></trkpt><trkpt lat="44.9970155" lon="9.2464514"><ele>327.0</ele><time>2026-04-25T06:51:10.002Z</time></trkpt><trkpt lat="44.9969893" lon="9.2463469"><ele>327.5</ele><time>2026-04-25T06:51:11.997Z</time></trkpt><trkpt lat="44.9969797" lon="9.2462438"><ele>328.0</ele><time>2026-04-25T06:51:14Z</time></trkpt><trkpt lat="44.9969619" lon="9.246139"><ele>328.5</ele><time>2026-04-25T06:51:15.999Z</time></trkpt><trkpt lat="44.9969544" lon="9.2460267"><ele>329.0</ele><time>2026-04-25T06:51:18.004Z</time></trkpt><trkpt lat="44.9969506" lon="9.2459157"><ele>329.0</ele><time>2026-04-25T06:51:20.01Z</time></trkpt><trkpt lat="44.996939" lon="9.245803"><ele>329.0</ele><time>2026-04-25T06:51:21.996Z</time></trkpt><trkpt lat="44.9969225" lon="9.2457023"><ele>329.0</ele><time>2026-04-25T06:51:23.996Z</time></trkpt><trkpt lat="44.9969028" lon="9.2455969"><ele>329.0</ele><time>2026-04-25T06:51:25.994Z</time></trkpt><trkpt lat="44.9968892" lon="9.2454861"><ele>329.0</ele><time>2026-04-25T06:51:28.004Z</time></trkpt><trkpt lat="44.9968715" lon="9.2453775"><ele>329.0</ele><time>2026-04-25T06:51:29.995Z</time></trkpt><trkpt lat="44.9968411" lon="9.2452778"><ele>329.6666666666667</ele><time>2026-04-25T06:51:32.002Z</time></trkpt><trkpt lat="44.9968155" lon="9.2451897"><ele>330.33333333333337</ele><time>2026-04-25T06:51:33.999Z</time></trkpt><trkpt lat="44.9967617" lon="9.2450877"><ele>331.0</ele><time>2026-04-25T06:51:37.008Z</time></trkpt><trkpt lat="44.9967128" lon="9.2450197"><ele>331.6666666666667</ele><time>2026-04-25T06:51:39Z</time></trkpt><trkpt lat="44.9966514" lon="9.2449283"><ele>332.3333333333333</ele><time>2026-04-25T06:51:40.999Z</time></trkpt><trkpt lat="44.9966007" lon="9.2448199"><ele>333.0</ele><time>2026-04-25T06:51:43.007Z</time></trkpt><trkpt lat="44.9965645" lon="9.244739"><ele>333.0</ele><time>2026-04-25T06:51:45.007Z</time></trkpt><trkpt lat="44.9965364" lon="9.2446537"><ele>333.0</ele><time>2026-04-25T06:51:47.002Z</time></trkpt><trkpt lat="44.9964906" lon="9.2445421"><ele>333.0</ele><time>2026-04-25T06:51:49.997Z</time></trkpt><trkpt lat="44.9964436" lon="9.2444301"><ele>333.0</ele><time>2026-04-25T06:51:52.997Z</time></trkpt><trkpt lat="44.9964028" lon="9.2443587"><ele>333.0</ele><time>2026-04-25T06:51:55.003Z</time></trkpt><trkpt lat="44.9963573" lon="9.2442563"><ele>333.0</ele><time>2026-04-25T06:51:57.007Z</time></trkpt><trkpt lat="44.9962985" lon="9.244154"><ele>333.0</ele><time>2026-04-25T06:51:58.996Z</time></trkpt><trkpt lat="44.9962444" lon="9.2440672"><ele>333.0</ele><time>2026-04-25T06:52:01.005Z</time></trkpt><trkpt lat="44.9961974" lon="9.2439773"><ele>333.0</ele><time>2026-04-25T06:52:03.003Z</time></trkpt><trkpt lat="44.9961499" lon="9.243904"><ele>333.0</ele><time>2026-04-25T06:52:05.001Z</time></trkpt><trkpt lat="44.9961044" lon="9.2438025"><ele>333.0</ele><time>2026-04-25T06:52:07Z</time></trkpt><trkpt lat="44.9960624" lon="9.243719"><ele>333.0</ele><time>2026-04-25T06:52:09.001Z</time></trkpt><trkpt lat="44.9960166" lon="9.2436253"><ele>332.5</ele><time>2026-04-25T06:52:12.004Z</time></trkpt><trkpt lat="44.9959811" lon="9.243551"><ele>332.0</ele><time>2026-04-25T06:52:13.996Z</time></trkpt><trkpt lat="44.9959195" lon="9.2434811"><ele>331.5</ele><time>2026-04-25T06:52:17.004Z</time></trkpt><trkpt lat="44.9958466" lon="9.2434316"><ele>331.0</ele><time>2026-04-25T06:52:20.008Z</time></trkpt><trkpt lat="44.9957719" lon="9.2433891"><ele>330.5</ele><time>2026-04-25T06:52:22.996Z</time></trkpt><trkpt lat="44.9956953" lon="9.2433681"><ele>330.0</ele><time>2026-04-25T06:52:25.997Z</time></trkpt><trkpt lat="44.9956113" lon="9.2433257"><ele>331.8571428571429</ele><time>2026-04-25T06:52:29.001Z</time></trkpt><trkpt lat="44.995555" lon="9.2432757"><ele>333.7142857142857</ele><time>2026-04-25T06:52:31.01Z</time></trkpt><trkpt lat="44.9955046" lon="9.2432088"><ele>335.57142857142856</ele><time>2026-04-25T06:52:32.995Z</time></trkpt><trkpt lat="44.9954485" lon="9.2431325"><ele>337.42857142857144</ele><time>2026-04-25T06:52:35.001Z</time></trkpt><trkpt lat="44.9953928" lon="9.2430351"><ele>339.2857142857143</ele><time>2026-04-25T06:52:37.016Z</time></trkpt><trkpt lat="44.9953447" lon="9.242943"><ele>341.14285714285717</ele><time>2026-04-25T06:52:39Z</time></trkpt><trkpt lat="44.9953066" lon="9.2428684"><ele>343.0</ele><time>2026-04-25T06:52:41.003Z</time></trkpt><trkpt lat="44.9952651" lon="9.2427836"><ele>343.0</ele><time>2026-04-25T06:52:43.081Z</time></trkpt><trkpt lat="44.9952291" lon="9.2427002"><ele>343.0</ele><time>2026-04-25T06:52:45Z</time></trkpt><trkpt lat="44.9951893" lon="9.2426214"><ele>343.0</ele><time>2026-04-25T06:52:46.998Z</time></trkpt><trkpt lat="44.9951538" lon="9.2425251"><ele>343.0</ele><time>2026-04-25T06:52:49Z</time></trkpt><trkpt lat="44.995121" lon="9.2424301"><ele>343.0</ele><time>2026-04-25T06:52:50.999Z</time></trkpt><trkpt lat="44.9950764" lon="9.2423387"><ele>343.0</ele><time>2026-04-25T06:52:52.998Z</time></trkpt><trkpt lat="44.9950437" lon="9.2422571"><ele>343.0</ele><time>2026-04-25T06:52:55Z</time></trkpt><trkpt lat="44.9949958" lon="9.2421292"><ele>346.5</ele><time>2026-04-25T06:52:58Z</time></trkpt><trkpt lat="44.9949625" lon="9.2420366"><ele>350.0</ele><time>2026-04-25T06:52:59.995Z</time></trkpt><trkpt lat="44.9949342" lon="9.2419417"><ele>353.5</ele><time>2026-04-25T06:53:02.007Z</time></trkpt><trkpt lat="44.9949209" lon="9.2418344"><ele>357.0</ele><time>2026-04-25T06:53:04.003Z</time></trkpt><trkpt lat="44.9949032" lon="9.2417218"><ele>360.5</ele><time>2026-04-25T06:53:06.008Z</time></trkpt><trkpt lat="44.9949021" lon="9.241618"><ele>364.0</ele><time>2026-04-25T06:53:08.002Z</time></trkpt><trkpt lat="44.9948846" lon="9.2415152"><ele>364.16666666666663</ele><time>2026-04-25T06:53:10.001Z</time></trkpt><trkpt lat="44.9948583" lon="9.2414078"><ele>364.3333333333333</ele><time>2026-04-25T06:53:12.003Z</time></trkpt><trkpt lat="44.9948139" lon="9.2413038"><ele>364.5</ele><time>2026-04-25T06:53:14.004Z</time></trkpt><trkpt lat="44.9947748" lon="9.2412243"><ele>364.6666666666667</ele><time>2026-04-25T06:53:15.992Z</time></trkpt><trkpt lat="44.9947386" lon="9.2411321"><ele>364.83333333333337</ele><time>2026-04-25T06:53:18Z</time></trkpt><trkpt lat="44.9946911" lon="9.2410379"><ele>365.0</ele><time>2026-04-25T06:53:20.006Z</time></trkpt><trkpt lat="44.9946502" lon="9.2409408"><ele>365.0</ele><time>2026-04-25T06:53:22.077Z</time></trkpt><trkpt lat="44.994607" lon="9.2408241"><ele>365.0</ele><time>2026-04-25T06:53:25.001Z</time></trkpt><trkpt lat="44.9945788" lon="9.2407229"><ele>365.0</ele><time>2026-04-25T06:53:27.003Z</time></trkpt><trkpt lat="44.9945475" lon="9.2406083"><ele>365.0</ele><time>2026-04-25T06:53:29.033Z</time></trkpt><trkpt lat="44.9945264" lon="9.2404877"><ele>365.0</ele><time>2026-04-25T06:53:31.007Z</time></trkpt><trkpt lat="44.9945147" lon="9.2403846"><ele>365.0</ele><time>2026-04-25T06:53:33.002Z</time></trkpt><trkpt lat="44.9945124" lon="9.2402952"><ele>365.33333333333337</ele><time>2026-04-25T06:53:35.076Z</time></trkpt><trkpt lat="44.9944916" lon="9.2401878"><ele>365.6666666666667</ele><time>2026-04-25T06:53:38Z</time></trkpt><trkpt lat="44.9945064" lon="9.2400793"><ele>366.0</ele><time>2026-04-25T06:53:41.007Z</time></trkpt><trkpt lat="44.9945051" lon="9.2399852"><ele>366.3333333333333</ele><time>2026-04-25T06:53:43.003Z</time></trkpt><trkpt lat="44.9945053" lon="9.239877"><ele>366.66666666666663</ele><time>2026-04-25T06:53:44.992Z</time></trkpt><trkpt lat="44.9944987" lon="9.2397225"><ele>367.0</ele><time>2026-04-25T06:53:46.996Z</time></trkpt><trkpt lat="44.9944855" lon="9.2395747"><ele>368.1428571428571</ele><time>2026-04-25T06:53:48.998Z</time></trkpt><trkpt lat="44.994504" lon="9.2394697"><ele>369.28571428571433</ele><time>2026-04-25T06:53:50.994Z</time></trkpt><trkpt lat="44.9945406" lon="9.2393941"><ele>370.42857142857144</ele><time>2026-04-25T06:53:52.999Z</time></trkpt><trkpt lat="44.9945779" lon="9.2393223"><ele>371.57142857142856</ele><time>2026-04-25T06:53:55.012Z</time></trkpt><trkpt lat="44.9946109" lon="9.2392341"><ele>372.71428571428567</ele><time>2026-04-25T06:53:56.992Z</time></trkpt><trkpt lat="44.9946495" lon="9.2391311"><ele>373.8571428571429</ele><time>2026-04-25T06:53:58.996Z</time></trkpt><trkpt lat="44.9946966" lon="9.2390242"><ele>375.0</ele><time>2026-04-25T06:54:01.072Z</time></trkpt><trkpt lat="44.9947343" lon="9.2389161"><ele>376.6666666666667</ele><time>2026-04-25T06:54:03.019Z</time></trkpt><trkpt lat="44.9947732" lon="9.2388126"><ele>378.33333333333337</ele><time>2026-04-25T06:54:04.999Z</time></trkpt><trkpt lat="44.9948111" lon="9.2387212"><ele>380.0</ele><time>2026-04-25T06:54:06.992Z</time></trkpt><trkpt lat="44.9948534" lon="9.2386262"><ele>381.6666666666667</ele><time>2026-04-25T06:54:08.996Z</time></trkpt><trkpt lat="44.9948895" lon="9.2385338"><ele>383.33333333333337</ele><time>2026-04-25T06:54:11.007Z</time></trkpt><trkpt lat="44.9949251" lon="9.2384488"><ele>385.0</ele><time>2026-04-25T06:54:12.995Z</time></trkpt><trkpt lat="44.9949626" lon="9.2383264"><ele>385.0</ele><time>2026-04-25T06:54:15.993Z</time></trkpt><trkpt lat="44.9949818" lon="9.2382389"><ele>385.0</ele><time>2026-04-25T06:54:17.991Z</time></trkpt><trkpt lat="44.9950002" lon="9.2381453"><ele>385.0</ele><time>2026-04-25T06:54:19.998Z</time></trkpt><trkpt lat="44.9950141" lon="9.2380484"><ele>385.0</ele><time>2026-04-25T06:54:21.994Z</time></trkpt><trkpt lat="44.9950268" lon="9.2379488"><ele>385.0</ele><time>2026-04-25T06:54:23.998Z</time></trkpt><trkpt lat="44.995034" lon="9.2378388"><ele>385.0</ele><time>2026-04-25T06:54:26.007Z</time></trkpt><trkpt lat="44.9950286" lon="9.2377335"><ele>385.0</ele><time>2026-04-25T06:54:27.995Z</time></trkpt><trkpt lat="44.9950317" lon="9.2376404"><ele>385.33333333333337</ele><time>2026-04-25T06:54:29.998Z</time></trkpt><trkpt lat="44.9950279" lon="9.2375472"><ele>385.6666666666667</ele><time>2026-04-25T06:54:31.997Z</time></trkpt><trkpt lat="44.9949989" lon="9.2374278"><ele>386.0</ele><time>2026-04-25T06:54:35.001Z</time></trkpt><trkpt lat="44.9949867" lon="9.2373397"><ele>386.33333333333337</ele><time>2026-04-25T06:54:37.005Z</time></trkpt><trkpt lat="44.9949524" lon="9.2372249"><ele>386.6666666666667</ele><time>2026-04-25T06:54:39.017Z</time></trkpt><trkpt lat="44.9949215" lon="9.2371088"><ele>387.0</ele><time>2026-04-25T06:54:41.003Z</time></trkpt><trkpt lat="44.9948937" lon="9.2370015"><ele>387.14285714285717</ele><time>2026-04-25T06:54:43.999Z</time></trkpt><trkpt lat="44.9948892" lon="9.2368865"><ele>387.28571428571433</ele><time>2026-04-25T06:54:46.999Z</time></trkpt><trkpt lat="44.9949024" lon="9.2367626"><ele>387.42857142857144</ele><time>2026-04-25T06:54:50.003Z</time></trkpt><trkpt lat="44.9949103" lon="9.2366711"><ele>387.57142857142856</ele><time>2026-04-25T06:54:51.995Z</time></trkpt><trkpt lat="44.9949142" lon="9.2365796"><ele>387.7142857142857</ele><time>2026-04-25T06:54:53.997Z</time></trkpt><trkpt lat="44.9949144" lon="9.2364892"><ele>387.85714285714283</ele><time>2026-04-25T06:54:55.995Z</time></trkpt><trkpt lat="44.9949127" lon="9.2363875"><ele>388.0</ele><time>2026-04-25T06:54:58Z</time></trkpt><trkpt lat="44.994878" lon="9.2362815"><ele>388.00000000000006</ele><time>2026-04-25T06:55:00.014Z</time></trkpt><trkpt lat="44.9948661" lon="9.2361635"><ele>388.0</ele><time>2026-04-25T06:55:01.999Z</time></trkpt><trkpt lat="44.9948569" lon="9.2360603"><ele>388.0</ele><time>2026-04-25T06:55:03.999Z</time></trkpt><trkpt lat="44.9948525" lon="9.2359466"><ele>388.0</ele><time>2026-04-25T06:55:05.999Z</time></trkpt><trkpt lat="44.994838" lon="9.2358376"><ele>388.00000000000006</ele><time>2026-04-25T06:55:07.993Z</time></trkpt><trkpt lat="44.9948217" lon="9.2357395"><ele>388.0</ele><time>2026-04-25T06:55:10Z</time></trkpt><trkpt lat="44.9948121" lon="9.2356276"><ele>388.33333333333337</ele><time>2026-04-25T06:55:11.996Z</time></trkpt><trkpt lat="44.9947888" lon="9.2355263"><ele>388.6666666666667</ele><time>2026-04-25T06:55:14.006Z</time></trkpt><trkpt lat="44.994777" lon="9.23543"><ele>389.0</ele><time>2026-04-25T06:55:16.001Z</time></trkpt><trkpt lat="44.9947627" lon="9.2353367"><ele>389.33333333333337</ele><time>2026-04-25T06:55:17.993Z</time></trkpt><trkpt lat="44.9947477" lon="9.2352082"><ele>389.6666666666667</ele><time>2026-04-25T06:55:21.01Z</time></trkpt><trkpt lat="44.9947418" lon="9.2351175"><ele>390.0</ele><time>2026-04-25T06:55:22.998Z</time></trkpt><trkpt lat="44.9947207" lon="9.2349932"><ele>390.0</ele><time>2026-04-25T06:55:26.003Z</time></trkpt><trkpt lat="44.9947023" lon="9.2349035"><ele>390.0</ele><time>2026-04-25T06:55:28.002Z</time></trkpt><trkpt lat="44.9946674" lon="9.2347848"><ele>390.0</ele><time>2026-04-25T06:55:31.003Z</time></trkpt><trkpt lat="44.994632" lon="9.2347053"><ele>390.0</ele><time>2026-04-25T06:55:33.086Z</time></trkpt><trkpt lat="44.9945889" lon="9.2346396"><ele>390.0</ele><time>2026-04-25T06:55:34.996Z</time></trkpt><trkpt lat="44.9945373" lon="9.234583"><ele>390.0</ele><time>2026-04-25T06:55:36.995Z</time></trkpt><trkpt lat="44.9944811" lon="9.2345273"><ele>390.0</ele><time>2026-04-25T06:55:38.985Z</time></trkpt><trkpt lat="44.9944191" lon="9.2344961"><ele>389.3333333333333</ele><time>2026-04-25T06:55:41.004Z</time></trkpt><trkpt lat="44.994342" lon="9.2344466"><ele>388.66666666666663</ele><time>2026-04-25T06:55:44.004Z</time></trkpt><trkpt lat="44.9942739" lon="9.2344025"><ele>388.0</ele><time>2026-04-25T06:55:46.994Z</time></trkpt><trkpt lat="44.994214" lon="9.234351"><ele>387.3333333333333</ele><time>2026-04-25T06:55:50.008Z</time></trkpt><trkpt lat="44.9941638" lon="9.2342915"><ele>386.66666666666663</ele><time>2026-04-25T06:55:52.009Z</time></trkpt><trkpt lat="44.9940803" lon="9.2342333"><ele>386.0</ele><time>2026-04-25T06:55:55.004Z</time></trkpt><trkpt lat="44.994017" lon="9.2341609"><ele>385.8333333333333</ele><time>2026-04-25T06:55:56.99Z</time></trkpt><trkpt lat="44.9939393" lon="9.2340758"><ele>385.66666666666663</ele><time>2026-04-25T06:55:58.997Z</time></trkpt><trkpt lat="44.9938466" lon="9.2339696"><ele>385.5</ele><time>2026-04-25T06:56:01.004Z</time></trkpt><trkpt lat="44.9937993" lon="9.2339016"><ele>385.33333333333337</ele><time>2026-04-25T06:56:01.994Z</time></trkpt><trkpt lat="44.993746" lon="9.2338248"><ele>385.1666666666667</ele><time>2026-04-25T06:56:02.998Z</time></trkpt><trkpt lat="44.9936966" lon="9.2337473"><ele>385.0</ele><time>2026-04-25T06:56:03.999Z</time></trkpt><trkpt lat="44.9936401" lon="9.233664"><ele>385.00000000000006</ele><time>2026-04-25T06:56:04.994Z</time></trkpt><trkpt lat="44.993587" lon="9.2335775"><ele>385.0</ele><time>2026-04-25T06:56:05.992Z</time></trkpt><trkpt lat="44.9935383" lon="9.2334994"><ele>385.0</ele><time>2026-04-25T06:56:06.995Z</time></trkpt><trkpt lat="44.993491" lon="9.2334165"><ele>385.0</ele><time>2026-04-25T06:56:07.997Z</time></trkpt><trkpt lat="44.9934456" lon="9.2333373"><ele>385.00000000000006</ele><time>2026-04-25T06:56:08.993Z</time></trkpt><trkpt lat="44.9934003" lon="9.2332467"><ele>385.0</ele><time>2026-04-25T06:56:09.996Z</time></trkpt><trkpt lat="44.9933519" lon="9.2331631"><ele>384.6666666666667</ele><time>2026-04-25T06:56:11.073Z</time></trkpt><trkpt lat="44.9933057" lon="9.2330716"><ele>384.33333333333337</ele><time>2026-04-25T06:56:11.992Z</time></trkpt><trkpt lat="44.9932598" lon="9.2329735"><ele>384.0</ele><time>2026-04-25T06:56:12.991Z</time></trkpt><trkpt lat="44.993211" lon="9.232873"><ele>383.6666666666667</ele><time>2026-04-25T06:56:13.991Z</time></trkpt><trkpt lat="44.9931608" lon="9.2327782"><ele>383.33333333333337</ele><time>2026-04-25T06:56:15.003Z</time></trkpt><trkpt lat="44.9931087" lon="9.2326917"><ele>383.0</ele><time>2026-04-25T06:56:15.998Z</time></trkpt><trkpt lat="44.9930521" lon="9.2326043"><ele>383.0</ele><time>2026-04-25T06:56:16.991Z</time></trkpt><trkpt lat="44.9929897" lon="9.2325205"><ele>383.0</ele><time>2026-04-25T06:56:17.996Z</time></trkpt><trkpt lat="44.9929238" lon="9.2324376"><ele>383.0</ele><time>2026-04-25T06:56:18.991Z</time></trkpt><trkpt lat="44.9928532" lon="9.2323635"><ele>383.0</ele><time>2026-04-25T06:56:20.002Z</time></trkpt><trkpt lat="44.9927744" lon="9.232295"><ele>383.0</ele><time>2026-04-25T06:56:21.003Z</time></trkpt><trkpt lat="44.9926974" lon="9.2322373"><ele>383.0</ele><time>2026-04-25T06:56:21.99Z</time></trkpt><trkpt lat="44.9926147" lon="9.2321784"><ele>382.0</ele><time>2026-04-25T06:56:22.991Z</time></trkpt><trkpt lat="44.9925351" lon="9.232127"><ele>381.0</ele><time>2026-04-25T06:56:24.002Z</time></trkpt><trkpt lat="44.9924563" lon="9.2320858"><ele>380.0</ele><time>2026-04-25T06:56:25.003Z</time></trkpt><trkpt lat="44.9923886" lon="9.232056"><ele>379.0</ele><time>2026-04-25T06:56:25.995Z</time></trkpt><trkpt lat="44.9923228" lon="9.2320284"><ele>378.0</ele><time>2026-04-25T06:56:27.024Z</time></trkpt><trkpt lat="44.9922578" lon="9.2319944"><ele>377.0</ele><time>2026-04-25T06:56:27.988Z</time></trkpt><trkpt lat="44.9921954" lon="9.2319561"><ele>376.0</ele><time>2026-04-25T06:56:28.993Z</time></trkpt><trkpt lat="44.9920874" lon="9.2318796"><ele>376.0</ele><time>2026-04-25T06:56:30.997Z</time></trkpt><trkpt lat="44.9920032" lon="9.2317905"><ele>376.0</ele><time>2026-04-25T06:56:32.983Z</time></trkpt><trkpt lat="44.9919235" lon="9.2316888"><ele>376.0</ele><time>2026-04-25T06:56:34.994Z</time></trkpt><trkpt lat="44.9918343" lon="9.2316141"><ele>376.0</ele><time>2026-04-25T06:56:37.005Z</time></trkpt><trkpt lat="44.991757" lon="9.2315472"><ele>376.0</ele><time>2026-04-25T06:56:38.993Z</time></trkpt><trkpt lat="44.9916751" lon="9.2315013"><ele>375.16666666666663</ele><time>2026-04-25T06:56:41.005Z</time></trkpt><trkpt lat="44.9915925" lon="9.2314697"><ele>374.3333333333333</ele><time>2026-04-25T06:56:42.998Z</time></trkpt><trkpt lat="44.9915154" lon="9.2314567"><ele>373.5</ele><time>2026-04-25T06:56:45.032Z</time></trkpt><trkpt lat="44.991446" lon="9.2314355"><ele>372.6666666666667</ele><time>2026-04-25T06:56:47Z</time></trkpt><trkpt lat="44.9913786" lon="9.231413"><ele>371.83333333333337</ele><time>2026-04-25T06:56:48.996Z</time></trkpt><trkpt lat="44.9912929" lon="9.2313899"><ele>371.0</ele><time>2026-04-25T06:56:51.997Z</time></trkpt><trkpt lat="44.9912063" lon="9.2313503"><ele>371.0</ele><time>2026-04-25T06:56:54.992Z</time></trkpt><trkpt lat="44.9911384" lon="9.2313095"><ele>371.0</ele><time>2026-04-25T06:56:56.992Z</time></trkpt><trkpt lat="44.9910646" lon="9.231262"><ele>371.0</ele><time>2026-04-25T06:56:58.998Z</time></trkpt><trkpt lat="44.9909959" lon="9.2312011"><ele>371.0</ele><time>2026-04-25T06:57:01Z</time></trkpt><trkpt lat="44.9909436" lon="9.2311337"><ele>371.0</ele><time>2026-04-25T06:57:02.997Z</time></trkpt><trkpt lat="44.990876" lon="9.2310562"><ele>371.0</ele><time>2026-04-25T06:57:04.995Z</time></trkpt><trkpt lat="44.9908113" lon="9.2309992"><ele>370.5</ele><time>2026-04-25T06:57:06.995Z</time></trkpt><trkpt lat="44.9907504" lon="9.2309336"><ele>370.0</ele><time>2026-04-25T06:57:08.991Z</time></trkpt><trkpt lat="44.9906847" lon="9.2308644"><ele>369.5</ele><time>2026-04-25T06:57:11Z</time></trkpt><trkpt lat="44.9906166" lon="9.2307862"><ele>369.0</ele><time>2026-04-25T06:57:13.014Z</time></trkpt><trkpt lat="44.9905526" lon="9.2307176"><ele>368.5</ele><time>2026-04-25T06:57:15Z</time></trkpt><trkpt lat="44.9904891" lon="9.2306465"><ele>368.0</ele><time>2026-04-25T06:57:16.998Z</time></trkpt><trkpt lat="44.9904215" lon="9.2305773"><ele>368.0</ele><time>2026-04-25T06:57:18.997Z</time></trkpt><trkpt lat="44.9903549" lon="9.2305085"><ele>368.0</ele><time>2026-04-25T06:57:20.994Z</time></trkpt><trkpt lat="44.9902931" lon="9.2304358"><ele>368.0</ele><time>2026-04-25T06:57:23.001Z</time></trkpt><trkpt lat="44.9902294" lon="9.2303645"><ele>368.0</ele><time>2026-04-25T06:57:24.999Z</time></trkpt><trkpt lat="44.9901689" lon="9.2303096"><ele>368.0</ele><time>2026-04-25T06:57:26.998Z</time></trkpt><trkpt lat="44.9901039" lon="9.230233"><ele>368.0</ele><time>2026-04-25T06:57:28.997Z</time></trkpt><trkpt lat="44.9900369" lon="9.2301503"><ele>367.5</ele><time>2026-04-25T06:57:30.997Z</time></trkpt><trkpt lat="44.9899656" lon="9.2300673"><ele>367.0</ele><time>2026-04-25T06:57:32.989Z</time></trkpt><trkpt lat="44.9898995" lon="9.229993"><ele>366.5</ele><time>2026-04-25T06:57:35.003Z</time></trkpt><trkpt lat="44.9898231" lon="9.2299281"><ele>366.0</ele><time>2026-04-25T06:57:36.999Z</time></trkpt><trkpt lat="44.9897466" lon="9.2298676"><ele>365.5</ele><time>2026-04-25T06:57:38.994Z</time></trkpt><trkpt lat="44.9896668" lon="9.2298002"><ele>365.0</ele><time>2026-04-25T06:57:41.015Z</time></trkpt><trkpt lat="44.9895935" lon="9.2297501"><ele>365.0</ele><time>2026-04-25T06:57:42.996Z</time></trkpt><trkpt lat="44.9895292" lon="9.2297118"><ele>365.0</ele><time>2026-04-25T06:57:45Z</time></trkpt><trkpt lat="44.9894688" lon="9.2296707"><ele>365.0</ele><time>2026-04-25T06:57:47.001Z</time></trkpt><trkpt lat="44.9893971" lon="9.2296206"><ele>365.0</ele><time>2026-04-25T06:57:48.995Z</time></trkpt><trkpt lat="44.9893312" lon="9.229573"><ele>365.0</ele><time>2026-04-25T06:57:50.998Z</time></trkpt><trkpt lat="44.9892601" lon="9.2295204"><ele>365.0</ele><time>2026-04-25T06:57:53.01Z</time></trkpt><trkpt lat="44.9891814" lon="9.2294734"><ele>367.6</ele><time>2026-04-25T06:57:54.995Z</time></trkpt><trkpt lat="44.9891001" lon="9.2294143"><ele>370.2</ele><time>2026-04-25T06:57:56.993Z</time></trkpt><trkpt lat="44.9890187" lon="9.2293503"><ele>372.79999999999995</ele><time>2026-04-25T06:57:59.011Z</time></trkpt><trkpt lat="44.9889317" lon="9.2292853"><ele>375.4</ele><time>2026-04-25T06:58:01.009Z</time></trkpt><trkpt lat="44.9888371" lon="9.2292132"><ele>378.0</ele><time>2026-04-25T06:58:03.003Z</time></trkpt><trkpt lat="44.9887398" lon="9.2291365"><ele>378.0</ele><time>2026-04-25T06:58:04.998Z</time></trkpt><trkpt lat="44.9886385" lon="9.2290692"><ele>378.0</ele><time>2026-04-25T06:58:06.999Z</time></trkpt><trkpt lat="44.9885356" lon="9.229001"><ele>378.0</ele><time>2026-04-25T06:58:09.009Z</time></trkpt><trkpt lat="44.988413" lon="9.2289548"><ele>378.0</ele><time>2026-04-25T06:58:11.069Z</time></trkpt><trkpt lat="44.9883517" lon="9.2289316"><ele>378.0</ele><time>2026-04-25T06:58:11.998Z</time></trkpt><trkpt lat="44.9882311" lon="9.2288896"><ele>376.3333333333333</ele><time>2026-04-25T06:58:14.013Z</time></trkpt><trkpt lat="44.9881658" lon="9.2288709"><ele>374.6666666666667</ele><time>2026-04-25T06:58:14.995Z</time></trkpt><trkpt lat="44.9880977" lon="9.2288574"><ele>373.0</ele><time>2026-04-25T06:58:16.014Z</time></trkpt><trkpt lat="44.9880336" lon="9.228844"><ele>371.33333333333337</ele><time>2026-04-25T06:58:16.999Z</time></trkpt><trkpt lat="44.9879178" lon="9.2288446"><ele>369.6666666666667</ele><time>2026-04-25T06:58:19.001Z</time></trkpt><trkpt lat="44.9878061" lon="9.2288454"><ele>368.0</ele><time>2026-04-25T06:58:21.006Z</time></trkpt><trkpt lat="44.987689" lon="9.2288556"><ele>368.0</ele><time>2026-04-25T06:58:22.999Z</time></trkpt><trkpt lat="44.9875733" lon="9.2288614"><ele>368.0</ele><time>2026-04-25T06:58:25.001Z</time></trkpt><trkpt lat="44.9874507" lon="9.2288658"><ele>368.0</ele><time>2026-04-25T06:58:26.992Z</time></trkpt><trkpt lat="44.9873274" lon="9.2288837"><ele>368.0</ele><time>2026-04-25T06:58:29.006Z</time></trkpt><trkpt lat="44.9872526" lon="9.2288873"><ele>368.0</ele><time>2026-04-25T06:58:30.004Z</time></trkpt><trkpt lat="44.9871898" lon="9.2288986"><ele>367.6666666666667</ele><time>2026-04-25T06:58:30.999Z</time></trkpt><trkpt lat="44.9870692" lon="9.2289123"><ele>367.33333333333337</ele><time>2026-04-25T06:58:33Z</time></trkpt><trkpt lat="44.9869503" lon="9.2289217"><ele>367.0</ele><time>2026-04-25T06:58:35.025Z</time></trkpt><trkpt lat="44.9868846" lon="9.2289236"><ele>366.6666666666667</ele><time>2026-04-25T06:58:35.996Z</time></trkpt><trkpt lat="44.986818" lon="9.2289289"><ele>366.3333333333333</ele><time>2026-04-25T06:58:37.001Z</time></trkpt><trkpt lat="44.986751" lon="9.2289369"><ele>366.0</ele><time>2026-04-25T06:58:38.002Z</time></trkpt><trkpt lat="44.9866817" lon="9.2289443"><ele>366.6</ele><time>2026-04-25T06:58:38.993Z</time></trkpt><trkpt lat="44.9866155" lon="9.2289558"><ele>367.20000000000005</ele><time>2026-04-25T06:58:39.992Z</time></trkpt><trkpt lat="44.9864948" lon="9.2289662"><ele>367.79999999999995</ele><time>2026-04-25T06:58:42Z</time></trkpt><trkpt lat="44.9863689" lon="9.2289743"><ele>368.4</ele><time>2026-04-25T06:58:43.989Z</time></trkpt><trkpt lat="44.9863047" lon="9.228977"><ele>369.0</ele><time>2026-04-25T06:58:44.991Z</time></trkpt><trkpt lat="44.9861848" lon="9.2289678"><ele>367.6</ele><time>2026-04-25T06:58:46.992Z</time></trkpt><trkpt lat="44.9860729" lon="9.2289644"><ele>366.2</ele><time>2026-04-25T06:58:48.997Z</time></trkpt><trkpt lat="44.9859638" lon="9.2289582"><ele>364.8</ele><time>2026-04-25T06:58:51.004Z</time></trkpt><trkpt lat="44.9858604" lon="9.2289504"><ele>363.40000000000003</ele><time>2026-04-25T06:58:53.001Z</time></trkpt><trkpt lat="44.9857588" lon="9.2289406"><ele>362.0</ele><time>2026-04-25T06:58:55Z</time></trkpt><trkpt lat="44.9856512" lon="9.2289255"><ele>361.8</ele><time>2026-04-25T06:58:56.997Z</time></trkpt><trkpt lat="44.9855473" lon="9.2288926"><ele>361.6</ele><time>2026-04-25T06:58:59Z</time></trkpt><trkpt lat="44.9854389" lon="9.2288486"><ele>361.40000000000003</ele><time>2026-04-25T06:59:01.073Z</time></trkpt><trkpt lat="44.9853407" lon="9.2287794"><ele>361.20000000000005</ele><time>2026-04-25T06:59:03.006Z</time></trkpt><trkpt lat="44.9852537" lon="9.2286983"><ele>361.0</ele><time>2026-04-25T06:59:04.995Z</time></trkpt><trkpt lat="44.9851656" lon="9.2286069"><ele>361.0</ele><time>2026-04-25T06:59:07.003Z</time></trkpt><trkpt lat="44.985066" lon="9.2285282"><ele>361.0</ele><time>2026-04-25T06:59:08.988Z</time></trkpt><trkpt lat="44.9849701" lon="9.228435"><ele>361.0</ele><time>2026-04-25T06:59:10.993Z</time></trkpt><trkpt lat="44.9848812" lon="9.2283336"><ele>361.0</ele><time>2026-04-25T06:59:12.993Z</time></trkpt><trkpt lat="44.9847951" lon="9.2282097"><ele>360.75</ele><time>2026-04-25T06:59:14.989Z</time></trkpt><trkpt lat="44.9847112" lon="9.2280866"><ele>360.5</ele><time>2026-04-25T06:59:16.995Z</time></trkpt><trkpt lat="44.9846253" lon="9.2279649"><ele>360.25</ele><time>2026-04-25T06:59:19.012Z</time></trkpt><trkpt lat="44.9845379" lon="9.227843"><ele>360.0</ele><time>2026-04-25T06:59:20.999Z</time></trkpt><trkpt lat="44.9844584" lon="9.2277178"><ele>360.0</ele><time>2026-04-25T06:59:22.991Z</time></trkpt><trkpt lat="44.9843785" lon="9.2276007"><ele>360.0</ele><time>2026-04-25T06:59:25.001Z</time></trkpt><trkpt lat="44.984295" lon="9.227494"><ele>360.0</ele><time>2026-04-25T06:59:26.995Z</time></trkpt><trkpt lat="44.9842216" lon="9.227399"><ele>360.0</ele><time>2026-04-25T06:59:29.007Z</time></trkpt><trkpt lat="44.9841471" lon="9.2273095"><ele>360.0</ele><time>2026-04-25T06:59:30.996Z</time></trkpt><trkpt lat="44.984072" lon="9.2272126"><ele>361.0</ele><time>2026-04-25T06:59:33.013Z</time></trkpt><trkpt lat="44.9839916" lon="9.2271008"><ele>362.0</ele><time>2026-04-25T06:59:34.994Z</time></trkpt><trkpt lat="44.9839062" lon="9.2269928"><ele>363.0</ele><time>2026-04-25T06:59:36.998Z</time></trkpt><trkpt lat="44.9838245" lon="9.2268867"><ele>364.0</ele><time>2026-04-25T06:59:38.997Z</time></trkpt><trkpt lat="44.9837416" lon="9.2267805"><ele>364.0</ele><time>2026-04-25T06:59:41.066Z</time></trkpt><trkpt lat="44.9836646" lon="9.2267014"><ele>364.0</ele><time>2026-04-25T06:59:43.014Z</time></trkpt><trkpt lat="44.9835847" lon="9.2266127"><ele>364.0</ele><time>2026-04-25T06:59:44.994Z</time></trkpt><trkpt lat="44.9834949" lon="9.2265484"><ele>364.0</ele><time>2026-04-25T06:59:46.989Z</time></trkpt><trkpt lat="44.9833951" lon="9.2265034"><ele>364.0</ele><time>2026-04-25T06:59:48.988Z</time></trkpt><trkpt lat="44.9832785" lon="9.2264864"><ele>364.2</ele><time>2026-04-25T06:59:50.996Z</time></trkpt><trkpt lat="44.9831662" lon="9.2264785"><ele>364.4</ele><time>2026-04-25T06:59:52.993Z</time></trkpt><trkpt lat="44.9830631" lon="9.2264744"><ele>364.6</ele><time>2026-04-25T06:59:55.001Z</time></trkpt><trkpt lat="44.9829743" lon="9.2264828"><ele>364.8</ele><time>2026-04-25T06:59:57Z</time></trkpt><trkpt lat="44.9828951" lon="9.2264938"><ele>365.0</ele><time>2026-04-25T06:59:59.003Z</time></trkpt><trkpt lat="44.9828126" lon="9.2265012"><ele>365.0</ele><time>2026-04-25T07:00:00.999Z</time></trkpt><trkpt lat="44.9827195" lon="9.2264897"><ele>365.0</ele><time>2026-04-25T07:00:03.009Z</time></trkpt><trkpt lat="44.9826187" lon="9.2264859"><ele>365.0</ele><time>2026-04-25T07:00:05.064Z</time></trkpt><trkpt lat="44.9825159" lon="9.2264832"><ele>365.0</ele><time>2026-04-25T07:00:07.06Z</time></trkpt><trkpt lat="44.9824129" lon="9.2264569"><ele>365.0</ele><time>2026-04-25T07:00:08.999Z</time></trkpt><trkpt lat="44.982311" lon="9.2264161"><ele>365.0</ele><time>2026-04-25T07:00:10.993Z</time></trkpt><trkpt lat="44.982224" lon="9.2263668"><ele>365.0</ele><time>2026-04-25T07:00:12.995Z</time></trkpt><trkpt lat="44.9821227" lon="9.2263399"><ele>365.0</ele><time>2026-04-25T07:00:15.001Z</time></trkpt><trkpt lat="44.9820302" lon="9.2262821"><ele>365.0</ele><time>2026-04-25T07:00:16.998Z</time></trkpt><trkpt lat="44.9819308" lon="9.2261989"><ele>365.0</ele><time>2026-04-25T07:00:18.998Z</time></trkpt><trkpt lat="44.9818489" lon="9.2261144"><ele>365.0</ele><time>2026-04-25T07:00:21.005Z</time></trkpt><trkpt lat="44.9817816" lon="9.2260197"><ele>365.0</ele><time>2026-04-25T07:00:22.992Z</time></trkpt><trkpt lat="44.9817104" lon="9.2259259"><ele>365.0</ele><time>2026-04-25T07:00:25.002Z</time></trkpt><trkpt lat="44.981638" lon="9.22583"><ele>365.0</ele><time>2026-04-25T07:00:27.002Z</time></trkpt><trkpt lat="44.9815575" lon="9.2257394"><ele>365.0</ele><time>2026-04-25T07:00:29.002Z</time></trkpt><trkpt lat="44.9814745" lon="9.2256392"><ele>364.6</ele><time>2026-04-25T07:00:30.996Z</time></trkpt><trkpt lat="44.9814029" lon="9.2255347"><ele>364.2</ele><time>2026-04-25T07:00:33.078Z</time></trkpt><trkpt lat="44.9813242" lon="9.2254424"><ele>363.79999999999995</ele><time>2026-04-25T07:00:35.006Z</time></trkpt><trkpt lat="44.981243" lon="9.2253417"><ele>363.4</ele><time>2026-04-25T07:00:37.003Z</time></trkpt><trkpt lat="44.9811624" lon="9.2252352"><ele>363.0</ele><time>2026-04-25T07:00:39.018Z</time></trkpt><trkpt lat="44.9810852" lon="9.2251338"><ele>363.0</ele><time>2026-04-25T07:00:40.996Z</time></trkpt><trkpt lat="44.981005" lon="9.2250358"><ele>363.0</ele><time>2026-04-25T07:00:42.989Z</time></trkpt><trkpt lat="44.9809256" lon="9.2249366"><ele>363.0</ele><time>2026-04-25T07:00:44.997Z</time></trkpt><trkpt lat="44.9808422" lon="9.2248469"><ele>363.0</ele><time>2026-04-25T07:00:47Z</time></trkpt><trkpt lat="44.9807643" lon="9.2247651"><ele>363.0</ele><time>2026-04-25T07:00:49.008Z</time></trkpt><trkpt lat="44.9806745" lon="9.2246876"><ele>364.59999999999997</ele><time>2026-04-25T07:00:50.999Z</time></trkpt><trkpt lat="44.9805906" lon="9.224623"><ele>366.2</ele><time>2026-04-25T07:00:52.996Z</time></trkpt><trkpt lat="44.9805018" lon="9.2245622"><ele>367.8</ele><time>2026-04-25T07:00:55.009Z</time></trkpt><trkpt lat="44.9804121" lon="9.2245099"><ele>369.4</ele><time>2026-04-25T07:00:57.011Z</time></trkpt><trkpt lat="44.9803286" lon="9.2244469"><ele>371.0</ele><time>2026-04-25T07:00:59.002Z</time></trkpt><trkpt lat="44.9802413" lon="9.2243936"><ele>371.0</ele><time>2026-04-25T07:01:00.994Z</time></trkpt><trkpt lat="44.9801501" lon="9.2243421"><ele>371.0</ele><time>2026-04-25T07:01:02.994Z</time></trkpt><trkpt lat="44.9800547" lon="9.224307"><ele>371.0</ele><time>2026-04-25T07:01:04.997Z</time></trkpt><trkpt lat="44.9799564" lon="9.2242595"><ele>371.0</ele><time>2026-04-25T07:01:06.999Z</time></trkpt><trkpt lat="44.9798675" lon="9.2242018"><ele>371.0</ele><time>2026-04-25T07:01:08.998Z</time></trkpt><trkpt lat="44.979781" lon="9.2241534"><ele>370.8</ele><time>2026-04-25T07:01:11.002Z</time></trkpt><trkpt lat="44.9796932" lon="9.2241013"><ele>370.6</ele><time>2026-04-25T07:01:13.022Z</time></trkpt><trkpt lat="44.9796097" lon="9.2240616"><ele>370.4</ele><time>2026-04-25T07:01:15.001Z</time></trkpt><trkpt lat="44.9795197" lon="9.2240138"><ele>370.2</ele><time>2026-04-25T07:01:17.003Z</time></trkpt><trkpt lat="44.9794293" lon="9.2239632"><ele>370.0</ele><time>2026-04-25T07:01:18.999Z</time></trkpt><trkpt lat="44.9793407" lon="9.2239133"><ele>370.0</ele><time>2026-04-25T07:01:20.999Z</time></trkpt><trkpt lat="44.9792594" lon="9.223865"><ele>370.0</ele><time>2026-04-25T07:01:22.994Z</time></trkpt><trkpt lat="44.9791612" lon="9.2238241"><ele>370.0</ele><time>2026-04-25T07:01:25Z</time></trkpt><trkpt lat="44.9790757" lon="9.2237801"><ele>370.0</ele><time>2026-04-25T07:01:26.996Z</time></trkpt><trkpt lat="44.9789977" lon="9.2237242"><ele>370.0</ele><time>2026-04-25T07:01:29.004Z</time></trkpt><trkpt lat="44.9789169" lon="9.2236437"><ele>372.5</ele><time>2026-04-25T07:01:31.002Z</time></trkpt><trkpt lat="44.9788376" lon="9.2235675"><ele>375.0</ele><time>2026-04-25T07:01:32.992Z</time></trkpt><trkpt lat="44.9787665" lon="9.2234887"><ele>377.5</ele><time>2026-04-25T07:01:35.031Z</time></trkpt><trkpt lat="44.9786948" lon="9.2234062"><ele>380.0</ele><time>2026-04-25T07:01:36.999Z</time></trkpt><trkpt lat="44.9786215" lon="9.2233387"><ele>382.50000000000006</ele><time>2026-04-25T07:01:39.001Z</time></trkpt><trkpt lat="44.9785521" lon="9.223282"><ele>385.0</ele><time>2026-04-25T07:01:40.997Z</time></trkpt><trkpt lat="44.9784627" lon="9.2232316"><ele>385.0</ele><time>2026-04-25T07:01:42.99Z</time></trkpt><trkpt lat="44.9783644" lon="9.2231978"><ele>385.0</ele><time>2026-04-25T07:01:45.013Z</time></trkpt><trkpt lat="44.9782683" lon="9.2231645"><ele>385.0</ele><time>2026-04-25T07:01:47.002Z</time></trkpt><trkpt lat="44.9781753" lon="9.2231427"><ele>385.0</ele><time>2026-04-25T07:01:48.996Z</time></trkpt><trkpt lat="44.978081" lon="9.2231149"><ele>385.0</ele><time>2026-04-25T07:01:50.994Z</time></trkpt><trkpt lat="44.9779911" lon="9.2230836"><ele>386.8</ele><time>2026-04-25T07:01:53.003Z</time></trkpt><trkpt lat="44.977899" lon="9.2230478"><ele>388.6</ele><time>2026-04-25T07:01:54.998Z</time></trkpt><trkpt lat="44.9778062" lon="9.2230192"><ele>390.4</ele><time>2026-04-25T07:01:56.993Z</time></trkpt><trkpt lat="44.9777108" lon="9.2229959"><ele>392.2</ele><time>2026-04-25T07:01:58.996Z</time></trkpt><trkpt lat="44.9776166" lon="9.2229686"><ele>394.0</ele><time>2026-04-25T07:02:00.996Z</time></trkpt><trkpt lat="44.9775185" lon="9.2229412"><ele>395.0</ele><time>2026-04-25T07:02:03Z</time></trkpt><trkpt lat="44.9774249" lon="9.2229044"><ele>396.0</ele><time>2026-04-25T07:02:05.014Z</time></trkpt><trkpt lat="44.9773353" lon="9.2228545"><ele>397.0</ele><time>2026-04-25T07:02:06.999Z</time></trkpt><trkpt lat="44.9772433" lon="9.2228103"><ele>398.0</ele><time>2026-04-25T07:02:08.995Z</time></trkpt><trkpt lat="44.9771548" lon="9.2227469"><ele>399.0</ele><time>2026-04-25T07:02:10.994Z</time></trkpt><trkpt lat="44.9770822" lon="9.2226719"><ele>399.0</ele><time>2026-04-25T07:02:12.998Z</time></trkpt><trkpt lat="44.9770152" lon="9.2225763"><ele>399.0</ele><time>2026-04-25T07:02:14.996Z</time></trkpt><trkpt lat="44.9769571" lon="9.2224687"><ele>399.0</ele><time>2026-04-25T07:02:16.993Z</time></trkpt><trkpt lat="44.9769237" lon="9.2223474"><ele>399.0</ele><time>2026-04-25T07:02:19.077Z</time></trkpt><trkpt lat="44.9769067" lon="9.2222252"><ele>399.0</ele><time>2026-04-25T07:02:21.011Z</time></trkpt><trkpt lat="44.9769089" lon="9.2220994"><ele>398.1666666666667</ele><time>2026-04-25T07:02:22.99Z</time></trkpt><trkpt lat="44.9769067" lon="9.2219792"><ele>397.33333333333337</ele><time>2026-04-25T07:02:24.996Z</time></trkpt><trkpt lat="44.9769005" lon="9.2218421"><ele>396.5</ele><time>2026-04-25T07:02:26.993Z</time></trkpt><trkpt lat="44.9769035" lon="9.2217166"><ele>395.6666666666667</ele><time>2026-04-25T07:02:28.998Z</time></trkpt><trkpt lat="44.9768975" lon="9.2216006"><ele>394.83333333333337</ele><time>2026-04-25T07:02:30.998Z</time></trkpt><trkpt lat="44.9768933" lon="9.2214802"><ele>394.0</ele><time>2026-04-25T07:02:32.998Z</time></trkpt><trkpt lat="44.9768972" lon="9.221344"><ele>393.79999999999995</ele><time>2026-04-25T07:02:34.989Z</time></trkpt><trkpt lat="44.9768989" lon="9.2211935"><ele>393.59999999999997</ele><time>2026-04-25T07:02:37.009Z</time></trkpt><trkpt lat="44.9768929" lon="9.2210515"><ele>393.4</ele><time>2026-04-25T07:02:39.005Z</time></trkpt><trkpt lat="44.9768891" lon="9.2209047"><ele>393.2</ele><time>2026-04-25T07:02:40.999Z</time></trkpt><trkpt lat="44.9768822" lon="9.2207453"><ele>393.0</ele><time>2026-04-25T07:02:43.003Z</time></trkpt><trkpt lat="44.9768745" lon="9.2205741"><ele>392.6666666666667</ele><time>2026-04-25T07:02:45.006Z</time></trkpt><trkpt lat="44.9768695" lon="9.2203945"><ele>392.33333333333337</ele><time>2026-04-25T07:02:47.065Z</time></trkpt><trkpt lat="44.9768682" lon="9.2203018"><ele>392.0</ele><time>2026-04-25T07:02:48.002Z</time></trkpt><trkpt lat="44.9768683" lon="9.220198"><ele>391.6666666666667</ele><time>2026-04-25T07:02:49Z</time></trkpt><trkpt lat="44.9768646" lon="9.2201009"><ele>391.33333333333337</ele><time>2026-04-25T07:02:49.992Z</time></trkpt><trkpt lat="44.9768628" lon="9.2200053"><ele>391.0</ele><time>2026-04-25T07:02:51.006Z</time></trkpt><trkpt lat="44.9768592" lon="9.2198195"><ele>390.71428571428567</ele><time>2026-04-25T07:02:53.003Z</time></trkpt><trkpt lat="44.9768559" lon="9.2197234"><ele>390.42857142857144</ele><time>2026-04-25T07:02:53.999Z</time></trkpt><trkpt lat="44.9768556" lon="9.2196239"><ele>390.1428571428571</ele><time>2026-04-25T07:02:55.005Z</time></trkpt><trkpt lat="44.9768555" lon="9.2195187"><ele>389.85714285714283</ele><time>2026-04-25T07:02:55.995Z</time></trkpt><trkpt lat="44.9768553" lon="9.219411"><ele>389.57142857142856</ele><time>2026-04-25T07:02:57.012Z</time></trkpt><trkpt lat="44.9768513" lon="9.2193037"><ele>389.2857142857143</ele><time>2026-04-25T07:02:58.07Z</time></trkpt><trkpt lat="44.9768444" lon="9.2191977"><ele>389.0</ele><time>2026-04-25T07:02:59Z</time></trkpt><trkpt lat="44.9768425" lon="9.2190979"><ele>388.99999999999994</ele><time>2026-04-25T07:03:00.076Z</time></trkpt><trkpt lat="44.9768385" lon="9.2189929"><ele>389.0</ele><time>2026-04-25T07:03:00.998Z</time></trkpt><trkpt lat="44.9768416" lon="9.218896"><ele>389.0</ele><time>2026-04-25T07:03:01.995Z</time></trkpt><trkpt lat="44.976845" lon="9.2187955"><ele>389.0</ele><time>2026-04-25T07:03:02.996Z</time></trkpt><trkpt lat="44.9768533" lon="9.2186975"><ele>388.99999999999994</ele><time>2026-04-25T07:03:04.001Z</time></trkpt><trkpt lat="44.9768661" lon="9.2186079"><ele>389.0</ele><time>2026-04-25T07:03:04.995Z</time></trkpt><trkpt lat="44.9768916" lon="9.2184421"><ele>388.79999999999995</ele><time>2026-04-25T07:03:06.996Z</time></trkpt><trkpt lat="44.9769144" lon="9.2183563"><ele>388.59999999999997</ele><time>2026-04-25T07:03:07.997Z</time></trkpt><trkpt lat="44.9769466" lon="9.2181976"><ele>388.4</ele><time>2026-04-25T07:03:09.999Z</time></trkpt><trkpt lat="44.9769805" lon="9.218038"><ele>388.2</ele><time>2026-04-25T07:03:12.001Z</time></trkpt><trkpt lat="44.9770107" lon="9.2178871"><ele>388.0</ele><time>2026-04-25T07:03:13.995Z</time></trkpt><trkpt lat="44.9770462" lon="9.2177414"><ele>387.79999999999995</ele><time>2026-04-25T07:03:16.002Z</time></trkpt><trkpt lat="44.9770775" lon="9.2175984"><ele>387.6</ele><time>2026-04-25T07:03:17.994Z</time></trkpt><trkpt lat="44.9771012" lon="9.2174608"><ele>387.4</ele><time>2026-04-25T07:03:19.997Z</time></trkpt><trkpt lat="44.97712" lon="9.2173239"><ele>387.20000000000005</ele><time>2026-04-25T07:03:22.003Z</time></trkpt><trkpt lat="44.9771434" lon="9.2171997"><ele>387.0</ele><time>2026-04-25T07:03:24.001Z</time></trkpt><trkpt lat="44.9771814" lon="9.2170813"><ele>386.8</ele><time>2026-04-25T07:03:26.076Z</time></trkpt><trkpt lat="44.9772081" lon="9.2169271"><ele>386.6</ele><time>2026-04-25T07:03:27.999Z</time></trkpt><trkpt lat="44.9772481" lon="9.2168188"><ele>386.40000000000003</ele><time>2026-04-25T07:03:29.992Z</time></trkpt><trkpt lat="44.9772961" lon="9.2167031"><ele>386.20000000000005</ele><time>2026-04-25T07:03:32.002Z</time></trkpt><trkpt lat="44.9773416" lon="9.2165965"><ele>386.0</ele><time>2026-04-25T07:03:34.004Z</time></trkpt><trkpt lat="44.9773951" lon="9.2164827"><ele>386.0</ele><time>2026-04-25T07:03:36Z</time></trkpt><trkpt lat="44.9774439" lon="9.2163695"><ele>386.0</ele><time>2026-04-25T07:03:37.996Z</time></trkpt><trkpt lat="44.9774982" lon="9.2162645"><ele>386.0</ele><time>2026-04-25T07:03:40.003Z</time></trkpt><trkpt lat="44.9775494" lon="9.2161679"><ele>386.0</ele><time>2026-04-25T07:03:41.997Z</time></trkpt><trkpt lat="44.9775981" lon="9.2160584"><ele>386.0</ele><time>2026-04-25T07:03:43.997Z</time></trkpt><trkpt lat="44.9776449" lon="9.2159493"><ele>385.6</ele><time>2026-04-25T07:03:46.008Z</time></trkpt><trkpt lat="44.9777036" lon="9.2158522"><ele>385.20000000000005</ele><time>2026-04-25T07:03:47.993Z</time></trkpt><trkpt lat="44.9777596" lon="9.2157357"><ele>384.79999999999995</ele><time>2026-04-25T07:03:49.996Z</time></trkpt><trkpt lat="44.9778176" lon="9.2156184"><ele>384.4</ele><time>2026-04-25T07:03:52.003Z</time></trkpt><trkpt lat="44.9778817" lon="9.2154932"><ele>384.0</ele><time>2026-04-25T07:03:54.002Z</time></trkpt><trkpt lat="44.9779321" lon="9.2153728"><ele>384.0</ele><time>2026-04-25T07:03:56.017Z</time></trkpt><trkpt lat="44.9779813" lon="9.2152539"><ele>384.0</ele><time>2026-04-25T07:03:57.998Z</time></trkpt><trkpt lat="44.9780362" lon="9.2151398"><ele>384.0</ele><time>2026-04-25T07:04:00.003Z</time></trkpt><trkpt lat="44.9780835" lon="9.2150215"><ele>384.0</ele><time>2026-04-25T07:04:01.996Z</time></trkpt><trkpt lat="44.9781315" lon="9.2149056"><ele>384.0</ele><time>2026-04-25T07:04:04.002Z</time></trkpt><trkpt lat="44.9781755" lon="9.214781"><ele>384.6</ele><time>2026-04-25T07:04:06.067Z</time></trkpt><trkpt lat="44.9782239" lon="9.2146567"><ele>385.2</ele><time>2026-04-25T07:04:07.998Z</time></trkpt><trkpt lat="44.9782569" lon="9.2145204"><ele>385.8</ele><time>2026-04-25T07:04:09.996Z</time></trkpt><trkpt lat="44.9782796" lon="9.2143853"><ele>386.40000000000003</ele><time>2026-04-25T07:04:11.999Z</time></trkpt><trkpt lat="44.978299" lon="9.2142501"><ele>387.0</ele><time>2026-04-25T07:04:14.001Z</time></trkpt><trkpt lat="44.9783169" lon="9.2141153"><ele>387.0</ele><time>2026-04-25T07:04:15.998Z</time></trkpt><trkpt lat="44.9783226" lon="9.213973"><ele>387.0</ele><time>2026-04-25T07:04:17.995Z</time></trkpt><trkpt lat="44.9783352" lon="9.2138311"><ele>387.0</ele><time>2026-04-25T07:04:20.001Z</time></trkpt><trkpt lat="44.9783562" lon="9.2136849"><ele>387.0</ele><time>2026-04-25T07:04:22.006Z</time></trkpt><trkpt lat="44.978356" lon="9.2135403"><ele>387.0</ele><time>2026-04-25T07:04:23.999Z</time></trkpt><trkpt lat="44.9783761" lon="9.2134095"><ele>385.6</ele><time>2026-04-25T07:04:25.997Z</time></trkpt><trkpt lat="44.9783887" lon="9.2132612"><ele>384.20000000000005</ele><time>2026-04-25T07:04:28.002Z</time></trkpt><trkpt lat="44.9784136" lon="9.2131213"><ele>382.8</ele><time>2026-04-25T07:04:29.993Z</time></trkpt><trkpt lat="44.9784415" lon="9.2129743"><ele>381.4</ele><time>2026-04-25T07:04:32.001Z</time></trkpt><trkpt lat="44.9784595" lon="9.2128305"><ele>380.0</ele><time>2026-04-25T07:04:33.999Z</time></trkpt><trkpt lat="44.9784871" lon="9.2126893"><ele>380.0</ele><time>2026-04-25T07:04:35.999Z</time></trkpt><trkpt lat="44.9785188" lon="9.2125531"><ele>380.0</ele><time>2026-04-25T07:04:38Z</time></trkpt><trkpt lat="44.97856" lon="9.2124212"><ele>380.0</ele><time>2026-04-25T07:04:39.995Z</time></trkpt><trkpt lat="44.9786003" lon="9.2122838"><ele>380.0</ele><time>2026-04-25T07:04:42.001Z</time></trkpt><trkpt lat="44.9786413" lon="9.212149"><ele>380.0</ele><time>2026-04-25T07:04:44.001Z</time></trkpt><trkpt lat="44.9786788" lon="9.2120092"><ele>380.8</ele><time>2026-04-25T07:04:45.995Z</time></trkpt><trkpt lat="44.9787186" lon="9.2118773"><ele>381.6</ele><time>2026-04-25T07:04:48.002Z</time></trkpt><trkpt lat="44.9787544" lon="9.2117554"><ele>382.4</ele><time>2026-04-25T07:04:49.996Z</time></trkpt><trkpt lat="44.9787924" lon="9.2116346"><ele>383.2</ele><time>2026-04-25T07:04:51.997Z</time></trkpt><trkpt lat="44.9788328" lon="9.2115047"><ele>384.0</ele><time>2026-04-25T07:04:53.998Z</time></trkpt><trkpt lat="44.9788763" lon="9.2113747"><ele>384.2</ele><time>2026-04-25T07:04:55.994Z</time></trkpt><trkpt lat="44.9789266" lon="9.2112477"><ele>384.4</ele><time>2026-04-25T07:04:58.004Z</time></trkpt><trkpt lat="44.9789767" lon="9.2111067"><ele>384.6</ele><time>2026-04-25T07:04:59.999Z</time></trkpt><trkpt lat="44.9790165" lon="9.2109681"><ele>384.8</ele><time>2026-04-25T07:05:02.001Z</time></trkpt><trkpt lat="44.9790607" lon="9.2108378"><ele>385.0</ele><time>2026-04-25T07:05:03.999Z</time></trkpt><trkpt lat="44.9791012" lon="9.2107097"><ele>383.75</ele><time>2026-04-25T07:05:06.001Z</time></trkpt><trkpt lat="44.9791511" lon="9.2105722"><ele>382.5</ele><time>2026-04-25T07:05:07.995Z</time></trkpt><trkpt lat="44.9792011" lon="9.2104109"><ele>381.25</ele><time>2026-04-25T07:05:10.002Z</time></trkpt><trkpt lat="44.9792371" lon="9.2102569"><ele>380.0</ele><time>2026-04-25T07:05:11.993Z</time></trkpt><trkpt lat="44.9792662" lon="9.2101005"><ele>379.0</ele><time>2026-04-25T07:05:14.005Z</time></trkpt><trkpt lat="44.9793026" lon="9.209936"><ele>378.0</ele><time>2026-04-25T07:05:15.994Z</time></trkpt><trkpt lat="44.9793378" lon="9.2097705"><ele>377.0</ele><time>2026-04-25T07:05:17.998Z</time></trkpt><trkpt lat="44.9793653" lon="9.2096506"><ele>376.0</ele><time>2026-04-25T07:05:19.995Z</time></trkpt><trkpt lat="44.9793734" lon="9.2095461"><ele>375.0</ele><time>2026-04-25T07:05:21.993Z</time></trkpt><trkpt lat="44.9792976" lon="9.2094624"><ele>375.0</ele><time>2026-04-25T07:05:25Z</time></trkpt><trkpt lat="44.9791914" lon="9.2094432"><ele>375.0</ele><time>2026-04-25T07:05:27.022Z</time></trkpt><trkpt lat="44.9790833" lon="9.2094312"><ele>375.0</ele><time>2026-04-25T07:05:28.999Z</time></trkpt><trkpt lat="44.9789498" lon="9.2094238"><ele>375.0</ele><time>2026-04-25T07:05:31.001Z</time></trkpt><trkpt lat="44.978866" lon="9.2094196"><ele>375.0</ele><time>2026-04-25T07:05:31.997Z</time></trkpt><trkpt lat="44.97878" lon="9.2094248"><ele>375.6</ele><time>2026-04-25T07:05:33.002Z</time></trkpt><trkpt lat="44.978696" lon="9.2094175"><ele>376.2</ele><time>2026-04-25T07:05:34Z</time></trkpt><trkpt lat="44.9786019" lon="9.2094136"><ele>376.79999999999995</ele><time>2026-04-25T07:05:34.996Z</time></trkpt><trkpt lat="44.9785102" lon="9.2094101"><ele>377.4</ele><time>2026-04-25T07:05:36.068Z</time></trkpt><trkpt lat="44.9784088" lon="9.2093973"><ele>378.0</ele><time>2026-04-25T07:05:36.993Z</time></trkpt><trkpt lat="44.978309" lon="9.2093858"><ele>375.4</ele><time>2026-04-25T07:05:37.994Z</time></trkpt><trkpt lat="44.9782092" lon="9.2093824"><ele>372.79999999999995</ele><time>2026-04-25T07:05:38.992Z</time></trkpt><trkpt lat="44.9781125" lon="9.2093729"><ele>370.2</ele><time>2026-04-25T07:05:40Z</time></trkpt><trkpt lat="44.9780183" lon="9.2093637"><ele>367.6</ele><time>2026-04-25T07:05:40.997Z</time></trkpt><trkpt lat="44.9779244" lon="9.2093604"><ele>365.0</ele><time>2026-04-25T07:05:41.995Z</time></trkpt><trkpt lat="44.9778298" lon="9.2093569"><ele>365.0</ele><time>2026-04-25T07:05:42.985Z</time></trkpt><trkpt lat="44.9777305" lon="9.2093574"><ele>365.0</ele><time>2026-04-25T07:05:43.99Z</time></trkpt><trkpt lat="44.9776306" lon="9.2093434"><ele>365.0</ele><time>2026-04-25T07:05:44.992Z</time></trkpt><trkpt lat="44.9775406" lon="9.2093348"><ele>365.0</ele><time>2026-04-25T07:05:45.99Z</time></trkpt><trkpt lat="44.9774505" lon="9.209315"><ele>365.0</ele><time>2026-04-25T07:05:46.992Z</time></trkpt><trkpt lat="44.977375" lon="9.2093105"><ele>363.1666666666667</ele><time>2026-04-25T07:05:48.008Z</time></trkpt><trkpt lat="44.9773029" lon="9.209302"><ele>361.33333333333337</ele><time>2026-04-25T07:05:48.994Z</time></trkpt><trkpt lat="44.9772256" lon="9.2092892"><ele>359.5</ele><time>2026-04-25T07:05:49.995Z</time></trkpt><trkpt lat="44.9771508" lon="9.2092572"><ele>357.6666666666667</ele><time>2026-04-25T07:05:50.998Z</time></trkpt><trkpt lat="44.977073" lon="9.2092083"><ele>355.8333333333333</ele><time>2026-04-25T07:05:51.994Z</time></trkpt><trkpt lat="44.9769967" lon="9.2091637"><ele>354.0</ele><time>2026-04-25T07:05:52.993Z</time></trkpt><trkpt lat="44.9769125" lon="9.209115"><ele>354.0</ele><time>2026-04-25T07:05:53.989Z</time></trkpt><trkpt lat="44.9768279" lon="9.2090742"><ele>354.0</ele><time>2026-04-25T07:05:54.996Z</time></trkpt><trkpt lat="44.9767351" lon="9.2090464"><ele>354.0</ele><time>2026-04-25T07:05:55.989Z</time></trkpt><trkpt lat="44.9766405" lon="9.209037"><ele>354.0</ele><time>2026-04-25T07:05:56.993Z</time></trkpt><trkpt lat="44.9765387" lon="9.2090312"><ele>354.0</ele><time>2026-04-25T07:05:58.001Z</time></trkpt><trkpt lat="44.9764419" lon="9.2090128"><ele>350.79999999999995</ele><time>2026-04-25T07:05:58.993Z</time></trkpt><trkpt lat="44.9763564" lon="9.2089789"><ele>347.59999999999997</ele><time>2026-04-25T07:06:00.02Z</time></trkpt><trkpt lat="44.9762687" lon="9.2089289"><ele>344.4</ele><time>2026-04-25T07:06:00.993Z</time></trkpt><trkpt lat="44.9761776" lon="9.2088638"><ele>341.2</ele><time>2026-04-25T07:06:01.989Z</time></trkpt><trkpt lat="44.9760902" lon="9.2087946"><ele>338.0</ele><time>2026-04-25T07:06:03Z</time></trkpt><trkpt lat="44.9760104" lon="9.2087249"><ele>338.0</ele><time>2026-04-25T07:06:03.994Z</time></trkpt><trkpt lat="44.9759375" lon="9.2086687"><ele>338.0</ele><time>2026-04-25T07:06:05.006Z</time></trkpt><trkpt lat="44.975873" lon="9.2086649"><ele>338.0</ele><time>2026-04-25T07:06:05.99Z</time></trkpt><trkpt lat="44.9758078" lon="9.2086757"><ele>338.0</ele><time>2026-04-25T07:06:06.998Z</time></trkpt><trkpt lat="44.9757451" lon="9.208714"><ele>338.0</ele><time>2026-04-25T07:06:07.995Z</time></trkpt><trkpt lat="44.9756789" lon="9.2087569"><ele>338.0</ele><time>2026-04-25T07:06:08.986Z</time></trkpt><trkpt lat="44.9756216" lon="9.2088145"><ele>338.0</ele><time>2026-04-25T07:06:10.002Z</time></trkpt><trkpt lat="44.9755528" lon="9.2088658"><ele>336.33333333333337</ele><time>2026-04-25T07:06:11.001Z</time></trkpt><trkpt lat="44.9754875" lon="9.2089181"><ele>334.6666666666667</ele><time>2026-04-25T07:06:11.996Z</time></trkpt><trkpt lat="44.9754183" lon="9.2089581"><ele>333.0</ele><time>2026-04-25T07:06:12.99Z</time></trkpt><trkpt lat="44.9753375" lon="9.2089743"><ele>331.3333333333333</ele><time>2026-04-25T07:06:13.992Z</time></trkpt><trkpt lat="44.9752574" lon="9.208974"><ele>329.66666666666663</ele><time>2026-04-25T07:06:14.987Z</time></trkpt><trkpt lat="44.9751742" lon="9.2089594"><ele>328.0</ele><time>2026-04-25T07:06:15.995Z</time></trkpt><trkpt lat="44.9750836" lon="9.2089259"><ele>326.0</ele><time>2026-04-25T07:06:16.995Z</time></trkpt><trkpt lat="44.9749964" lon="9.2088919"><ele>324.0</ele><time>2026-04-25T07:06:17.995Z</time></trkpt><trkpt lat="44.9749087" lon="9.2088615"><ele>322.0</ele><time>2026-04-25T07:06:19Z</time></trkpt><trkpt lat="44.974814" lon="9.2088342"><ele>320.0</ele><time>2026-04-25T07:06:19.988Z</time></trkpt><trkpt lat="44.9747226" lon="9.2088047"><ele>318.0</ele><time>2026-04-25T07:06:21.003Z</time></trkpt><trkpt lat="44.9746292" lon="9.2087768"><ele>318.0</ele><time>2026-04-25T07:06:21.994Z</time></trkpt><trkpt lat="44.9745411" lon="9.2087656"><ele>318.0</ele><time>2026-04-25T07:06:22.992Z</time></trkpt><trkpt lat="44.974466" lon="9.2087634"><ele>318.0</ele><time>2026-04-25T07:06:23.996Z</time></trkpt><trkpt lat="44.9743945" lon="9.2087879"><ele>318.0</ele><time>2026-04-25T07:06:24.999Z</time></trkpt><trkpt lat="44.9743281" lon="9.208835"><ele>318.0</ele><time>2026-04-25T07:06:25.995Z</time></trkpt><trkpt lat="44.9742666" lon="9.2088848"><ele>318.0</ele><time>2026-04-25T07:06:26.995Z</time></trkpt><trkpt lat="44.9742096" lon="9.2089335"><ele>318.0</ele><time>2026-04-25T07:06:28.004Z</time></trkpt><trkpt lat="44.9741103" lon="9.20899"><ele>317.6666666666667</ele><time>2026-04-25T07:06:29.999Z</time></trkpt><trkpt lat="44.9740264" lon="9.2089837"><ele>317.3333333333333</ele><time>2026-04-25T07:06:31.995Z</time></trkpt><trkpt lat="44.9739498" lon="9.2089082"><ele>317.0</ele><time>2026-04-25T07:06:33.993Z</time></trkpt><trkpt lat="44.9738973" lon="9.208845"><ele>316.66666666666663</ele><time>2026-04-25T07:06:36.002Z</time></trkpt><trkpt lat="44.9738382" lon="9.2087616"><ele>316.3333333333333</ele><time>2026-04-25T07:06:38.993Z</time></trkpt><trkpt lat="44.9737834" lon="9.2086635"><ele>316.0</ele><time>2026-04-25T07:06:41.995Z</time></trkpt><trkpt lat="44.9737339" lon="9.2085666"><ele>316.0</ele><time>2026-04-25T07:06:44.01Z</time></trkpt><trkpt lat="44.9737054" lon="9.2084529"><ele>316.0</ele><time>2026-04-25T07:06:46.003Z</time></trkpt><trkpt lat="44.9736811" lon="9.2083363"><ele>316.0</ele><time>2026-04-25T07:06:48.002Z</time></trkpt><trkpt lat="44.9737045" lon="9.2082013"><ele>316.0</ele><time>2026-04-25T07:06:49.998Z</time></trkpt><trkpt lat="44.9737739" lon="9.2080624"><ele>316.0</ele><time>2026-04-25T07:06:51.997Z</time></trkpt><trkpt lat="44.9738068" lon="9.2079788"><ele>315.0</ele><time>2026-04-25T07:06:52.999Z</time></trkpt><trkpt lat="44.9738317" lon="9.2078882"><ele>314.0</ele><time>2026-04-25T07:06:53.994Z</time></trkpt><trkpt lat="44.9738512" lon="9.2077897"><ele>313.0</ele><time>2026-04-25T07:06:55.005Z</time></trkpt><trkpt lat="44.97386" lon="9.2076955"><ele>312.0</ele><time>2026-04-25T07:06:55.995Z</time></trkpt><trkpt lat="44.9738416" lon="9.2075231"><ele>311.0</ele><time>2026-04-25T07:06:58.068Z</time></trkpt><trkpt lat="44.973817" lon="9.2074283"><ele>310.0</ele><time>2026-04-25T07:06:58.995Z</time></trkpt><trkpt lat="44.9737852" lon="9.2073274"><ele>309.3333333333333</ele><time>2026-04-25T07:06:59.998Z</time></trkpt><trkpt lat="44.9737509" lon="9.2072208"><ele>308.66666666666663</ele><time>2026-04-25T07:07:00.996Z</time></trkpt><trkpt lat="44.9737163" lon="9.2071121"><ele>308.0</ele><time>2026-04-25T07:07:01.998Z</time></trkpt><trkpt lat="44.9736833" lon="9.2069891"><ele>307.3333333333333</ele><time>2026-04-25T07:07:03.009Z</time></trkpt><trkpt lat="44.9736684" lon="9.2068662"><ele>306.6666666666667</ele><time>2026-04-25T07:07:03.995Z</time></trkpt><trkpt lat="44.9736599" lon="9.2067442"><ele>306.0</ele><time>2026-04-25T07:07:04.996Z</time></trkpt><trkpt lat="44.9736551" lon="9.206627"><ele>306.0</ele><time>2026-04-25T07:07:05.996Z</time></trkpt><trkpt lat="44.9736416" lon="9.2065206"><ele>306.0</ele><time>2026-04-25T07:07:07.003Z</time></trkpt><trkpt lat="44.9736146" lon="9.2064305"><ele>306.0</ele><time>2026-04-25T07:07:07.997Z</time></trkpt><trkpt lat="44.9735707" lon="9.2063346"><ele>306.0</ele><time>2026-04-25T07:07:09.075Z</time></trkpt><trkpt lat="44.9735071" lon="9.2062563"><ele>306.0</ele><time>2026-04-25T07:07:09.998Z</time></trkpt><trkpt lat="44.9734363" lon="9.2061789"><ele>306.0</ele><time>2026-04-25T07:07:11.003Z</time></trkpt><trkpt lat="44.9733654" lon="9.2060973"><ele>303.40000000000003</ele><time>2026-04-25T07:07:11.997Z</time></trkpt><trkpt lat="44.9732871" lon="9.206016"><ele>300.8</ele><time>2026-04-25T07:07:12.998Z</time></trkpt><trkpt lat="44.9732119" lon="9.2059298"><ele>298.20000000000005</ele><time>2026-04-25T07:07:13.997Z</time></trkpt><trkpt lat="44.9731381" lon="9.2058385"><ele>295.6</ele><time>2026-04-25T07:07:14.992Z</time></trkpt><trkpt lat="44.9730638" lon="9.2057498"><ele>293.0</ele><time>2026-04-25T07:07:15.998Z</time></trkpt><trkpt lat="44.972988" lon="9.2056599"><ele>292.33333333333337</ele><time>2026-04-25T07:07:16.996Z</time></trkpt><trkpt lat="44.9729196" lon="9.2055704"><ele>291.6666666666667</ele><time>2026-04-25T07:07:17.999Z</time></trkpt><trkpt lat="44.9728585" lon="9.2054786"><ele>291.0</ele><time>2026-04-25T07:07:19.007Z</time></trkpt><trkpt lat="44.972815" lon="9.2053871"><ele>290.3333333333333</ele><time>2026-04-25T07:07:20.005Z</time></trkpt><trkpt lat="44.9727891" lon="9.2052802"><ele>289.66666666666663</ele><time>2026-04-25T07:07:20.995Z</time></trkpt><trkpt lat="44.9727643" lon="9.2051775"><ele>289.0</ele><time>2026-04-25T07:07:21.999Z</time></trkpt><trkpt lat="44.9727393" lon="9.2050662"><ele>289.0</ele><time>2026-04-25T07:07:22.989Z</time></trkpt><trkpt lat="44.9727063" lon="9.204957"><ele>289.0</ele><time>2026-04-25T07:07:23.998Z</time></trkpt><trkpt lat="44.9726641" lon="9.2048421"><ele>289.0</ele><time>2026-04-25T07:07:24.99Z</time></trkpt><trkpt lat="44.9726152" lon="9.20473"><ele>289.0</ele><time>2026-04-25T07:07:25.998Z</time></trkpt><trkpt lat="44.9725572" lon="9.2046144"><ele>289.0</ele><time>2026-04-25T07:07:27.007Z</time></trkpt><trkpt lat="44.9724919" lon="9.2045037"><ele>286.4</ele><time>2026-04-25T07:07:27.996Z</time></trkpt><trkpt lat="44.9724318" lon="9.204398"><ele>283.79999999999995</ele><time>2026-04-25T07:07:29.007Z</time></trkpt><trkpt lat="44.9723704" lon="9.2043049"><ele>281.20000000000005</ele><time>2026-04-25T07:07:29.999Z</time></trkpt><trkpt lat="44.9722995" lon="9.2042315"><ele>278.6</ele><time>2026-04-25T07:07:31.005Z</time></trkpt><trkpt lat="44.9722176" lon="9.2041882"><ele>276.0</ele><time>2026-04-25T07:07:32.006Z</time></trkpt><trkpt lat="44.9721251" lon="9.2041575"><ele>276.0</ele><time>2026-04-25T07:07:33.007Z</time></trkpt><trkpt lat="44.9720332" lon="9.2041329"><ele>276.0</ele><time>2026-04-25T07:07:34.003Z</time></trkpt><trkpt lat="44.9719311" lon="9.204112"><ele>276.0</ele><time>2026-04-25T07:07:34.999Z</time></trkpt><trkpt lat="44.9718287" lon="9.2041033"><ele>276.0</ele><time>2026-04-25T07:07:35.995Z</time></trkpt><trkpt lat="44.9717202" lon="9.2040919"><ele>276.0</ele><time>2026-04-25T07:07:36.997Z</time></trkpt><trkpt lat="44.9716192" lon="9.2040844"><ele>274.2</ele><time>2026-04-25T07:07:37.995Z</time></trkpt><trkpt lat="44.9715197" lon="9.2040827"><ele>272.40000000000003</ele><time>2026-04-25T07:07:38.993Z</time></trkpt><trkpt lat="44.9714235" lon="9.2040696"><ele>270.6</ele><time>2026-04-25T07:07:39.992Z</time></trkpt><trkpt lat="44.9713262" lon="9.2040565"><ele>268.8</ele><time>2026-04-25T07:07:41Z</time></trkpt><trkpt lat="44.9712279" lon="9.2040482"><ele>267.0</ele><time>2026-04-25T07:07:41.999Z</time></trkpt><trkpt lat="44.9711277" lon="9.20404"><ele>267.0</ele><time>2026-04-25T07:07:42.993Z</time></trkpt><trkpt lat="44.971028" lon="9.2040323"><ele>267.0</ele><time>2026-04-25T07:07:43.989Z</time></trkpt><trkpt lat="44.9709269" lon="9.2040239"><ele>267.0</ele><time>2026-04-25T07:07:44.997Z</time></trkpt><trkpt lat="44.970827" lon="9.2040167"><ele>267.0</ele><time>2026-04-25T07:07:45.988Z</time></trkpt><trkpt lat="44.9707278" lon="9.2040162"><ele>267.0</ele><time>2026-04-25T07:07:46.994Z</time></trkpt><trkpt lat="44.9706294" lon="9.2040095"><ele>264.2</ele><time>2026-04-25T07:07:48.004Z</time></trkpt><trkpt lat="44.9705325" lon="9.2040028"><ele>261.4</ele><time>2026-04-25T07:07:49.002Z</time></trkpt><trkpt lat="44.9704356" lon="9.203995"><ele>258.6</ele><time>2026-04-25T07:07:49.995Z</time></trkpt><trkpt lat="44.9703395" lon="9.2039841"><ele>255.8</ele><time>2026-04-25T07:07:50.993Z</time></trkpt><trkpt lat="44.9702424" lon="9.2039804"><ele>253.0</ele><time>2026-04-25T07:07:51.998Z</time></trkpt><trkpt lat="44.9701504" lon="9.2039728"><ele>251.99999999999997</ele><time>2026-04-25T07:07:53.005Z</time></trkpt><trkpt lat="44.9700595" lon="9.2039711"><ele>251.0</ele><time>2026-04-25T07:07:53.993Z</time></trkpt><trkpt lat="44.969969" lon="9.2039664"><ele>250.0</ele><time>2026-04-25T07:07:54.993Z</time></trkpt><trkpt lat="44.9698806" lon="9.2039619"><ele>249.0</ele><time>2026-04-25T07:07:55.999Z</time></trkpt><trkpt lat="44.9697913" lon="9.2039551"><ele>247.99999999999997</ele><time>2026-04-25T07:07:57.001Z</time></trkpt><trkpt lat="44.9697107" lon="9.2039416"><ele>247.0</ele><time>2026-04-25T07:07:58Z</time></trkpt><trkpt lat="44.9696273" lon="9.203924"><ele>245.16666666666666</ele><time>2026-04-25T07:07:59.068Z</time></trkpt><trkpt lat="44.9695449" lon="9.203897"><ele>243.33333333333331</ele><time>2026-04-25T07:07:59.999Z</time></trkpt><trkpt lat="44.9694629" lon="9.2038647"><ele>241.5</ele><time>2026-04-25T07:08:01.008Z</time></trkpt><trkpt lat="44.969387" lon="9.203816"><ele>239.66666666666669</ele><time>2026-04-25T07:08:02.001Z</time></trkpt><trkpt lat="44.9693084" lon="9.2037711"><ele>237.83333333333334</ele><time>2026-04-25T07:08:02.994Z</time></trkpt><trkpt lat="44.9692303" lon="9.2037266"><ele>236.0</ele><time>2026-04-25T07:08:03.998Z</time></trkpt><trkpt lat="44.9691474" lon="9.2036819"><ele>234.50000000000003</ele><time>2026-04-25T07:08:05.001Z</time></trkpt><trkpt lat="44.9690619" lon="9.203631"><ele>233.0</ele><time>2026-04-25T07:08:05.991Z</time></trkpt><trkpt lat="44.968981" lon="9.2035965"><ele>231.5</ele><time>2026-04-25T07:08:06.997Z</time></trkpt><trkpt lat="44.9688926" lon="9.2035536"><ele>230.0</ele><time>2026-04-25T07:08:08.009Z</time></trkpt><trkpt lat="44.9688062" lon="9.2035233"><ele>228.50000000000003</ele><time>2026-04-25T07:08:08.995Z</time></trkpt><trkpt lat="44.9687196" lon="9.2034917"><ele>227.0</ele><time>2026-04-25T07:08:10.002Z</time></trkpt><trkpt lat="44.9686331" lon="9.2034767"><ele>227.0</ele><time>2026-04-25T07:08:11.019Z</time></trkpt><trkpt lat="44.9685412" lon="9.2034704"><ele>227.0</ele><time>2026-04-25T07:08:11.999Z</time></trkpt><trkpt lat="44.9684432" lon="9.2034759"><ele>227.0</ele><time>2026-04-25T07:08:13.015Z</time></trkpt><trkpt lat="44.9683478" lon="9.2034754"><ele>227.0</ele><time>2026-04-25T07:08:13.989Z</time></trkpt><trkpt lat="44.9682488" lon="9.2034744"><ele>227.0</ele><time>2026-04-25T07:08:15Z</time></trkpt><trkpt lat="44.9681469" lon="9.2034764"><ele>225.8</ele><time>2026-04-25T07:08:16.018Z</time></trkpt><trkpt lat="44.9680442" lon="9.203469"><ele>224.6</ele><time>2026-04-25T07:08:16.991Z</time></trkpt><trkpt lat="44.967943" lon="9.2034669"><ele>223.40000000000003</ele><time>2026-04-25T07:08:17.996Z</time></trkpt><trkpt lat="44.9678436" lon="9.2034597"><ele>222.20000000000002</ele><time>2026-04-25T07:08:19.001Z</time></trkpt><trkpt lat="44.9677394" lon="9.2034572"><ele>221.0</ele><time>2026-04-25T07:08:19.988Z</time></trkpt><trkpt lat="44.9676384" lon="9.2034441"><ele>221.00000000000003</ele><time>2026-04-25T07:08:21.022Z</time></trkpt><trkpt lat="44.9675486" lon="9.2034357"><ele>221.0</ele><time>2026-04-25T07:08:22.007Z</time></trkpt><trkpt lat="44.9674621" lon="9.2034371"><ele>221.0</ele><time>2026-04-25T07:08:22.998Z</time></trkpt><trkpt lat="44.9673758" lon="9.2034501"><ele>221.0</ele><time>2026-04-25T07:08:24.081Z</time></trkpt><trkpt lat="44.9672927" lon="9.2034611"><ele>221.00000000000003</ele><time>2026-04-25T07:08:25.002Z</time></trkpt><trkpt lat="44.9672149" lon="9.2034733"><ele>221.0</ele><time>2026-04-25T07:08:26.007Z</time></trkpt><trkpt lat="44.9671282" lon="9.2034938"><ele>219.33333333333334</ele><time>2026-04-25T07:08:26.999Z</time></trkpt><trkpt lat="44.9670566" lon="9.2035215"><ele>217.66666666666669</ele><time>2026-04-25T07:08:27.995Z</time></trkpt><trkpt lat="44.9669895" lon="9.2035559"><ele>216.0</ele><time>2026-04-25T07:08:28.986Z</time></trkpt><trkpt lat="44.966917" lon="9.2035953"><ele>214.33333333333331</ele><time>2026-04-25T07:08:30Z</time></trkpt><trkpt lat="44.9668466" lon="9.2036355"><ele>212.66666666666666</ele><time>2026-04-25T07:08:31.001Z</time></trkpt><trkpt lat="44.9667732" lon="9.2036869"><ele>211.0</ele><time>2026-04-25T07:08:31.996Z</time></trkpt><trkpt lat="44.966694" lon="9.2037375"><ele>209.83333333333331</ele><time>2026-04-25T07:08:32.995Z</time></trkpt><trkpt lat="44.9666163" lon="9.203789"><ele>208.66666666666666</ele><time>2026-04-25T07:08:34.01Z</time></trkpt><trkpt lat="44.966541" lon="9.2038297"><ele>207.5</ele><time>2026-04-25T07:08:35Z</time></trkpt><trkpt lat="44.9664684" lon="9.203872"><ele>206.33333333333331</ele><time>2026-04-25T07:08:35.997Z</time></trkpt><trkpt lat="44.9663999" lon="9.2039062"><ele>205.16666666666666</ele><time>2026-04-25T07:08:36.996Z</time></trkpt><trkpt lat="44.9663314" lon="9.2039382"><ele>204.0</ele><time>2026-04-25T07:08:38Z</time></trkpt><trkpt lat="44.9662298" lon="9.203933"><ele>204.0</ele><time>2026-04-25T07:08:39.995Z</time></trkpt><trkpt lat="44.9661582" lon="9.2038815"><ele>204.0</ele><time>2026-04-25T07:08:41.992Z</time></trkpt><trkpt lat="44.9661103" lon="9.2037976"><ele>204.0</ele><time>2026-04-25T07:08:45.003Z</time></trkpt><trkpt lat="44.9660535" lon="9.203716"><ele>204.0</ele><time>2026-04-25T07:08:47.999Z</time></trkpt><trkpt lat="44.9660034" lon="9.203651"><ele>204.0</ele><time>2026-04-25T07:08:49.993Z</time></trkpt><trkpt lat="44.9659549" lon="9.2035244"><ele>204.0</ele><time>2026-04-25T07:08:52Z</time></trkpt><trkpt lat="44.9659037" lon="9.2033999"><ele>203.0</ele><time>2026-04-25T07:08:53.995Z</time></trkpt><trkpt lat="44.9658475" lon="9.2032934"><ele>202.0</ele><time>2026-04-25T07:08:55.998Z</time></trkpt><trkpt lat="44.9657871" lon="9.203175"><ele>201.0</ele><time>2026-04-25T07:08:57.995Z</time></trkpt><trkpt lat="44.9657241" lon="9.2030509"><ele>200.0</ele><time>2026-04-25T07:08:59.998Z</time></trkpt><trkpt lat="44.9656489" lon="9.2028903"><ele>199.0</ele><time>2026-04-25T07:09:01.995Z</time></trkpt><trkpt lat="44.9656002" lon="9.2028087"><ele>198.49999999999997</ele><time>2026-04-25T07:09:03.001Z</time></trkpt><trkpt lat="44.9655487" lon="9.2027272"><ele>198.0</ele><time>2026-04-25T07:09:04.012Z</time></trkpt><trkpt lat="44.9654894" lon="9.202652"><ele>197.5</ele><time>2026-04-25T07:09:04.998Z</time></trkpt><trkpt lat="44.9654373" lon="9.2025715"><ele>197.0</ele><time>2026-04-25T07:09:05.993Z</time></trkpt><trkpt lat="44.9653896" lon="9.2024855"><ele>196.49999999999997</ele><time>2026-04-25T07:09:06.996Z</time></trkpt><trkpt lat="44.9653546" lon="9.2023974"><ele>196.0</ele><time>2026-04-25T07:09:07.997Z</time></trkpt><trkpt lat="44.9653264" lon="9.202312"><ele>195.0</ele><time>2026-04-25T07:09:08.997Z</time></trkpt><trkpt lat="44.9652834" lon="9.2021646"><ele>194.0</ele><time>2026-04-25T07:09:10.998Z</time></trkpt><trkpt lat="44.965237" lon="9.2020427"><ele>193.0</ele><time>2026-04-25T07:09:13Z</time></trkpt><trkpt lat="44.9651933" lon="9.201937"><ele>192.0</ele><time>2026-04-25T07:09:15.009Z</time></trkpt><trkpt lat="44.9651598" lon="9.2018323"><ele>191.0</ele><time>2026-04-25T07:09:16.994Z</time></trkpt><trkpt lat="44.9651279" lon="9.2017045"><ele>191.0</ele><time>2026-04-25T07:09:18.997Z</time></trkpt><trkpt lat="44.9651064" lon="9.2015762"><ele>191.0</ele><time>2026-04-25T07:09:21.07Z</time></trkpt><trkpt lat="44.9650967" lon="9.2014448"><ele>191.0</ele><time>2026-04-25T07:09:23.015Z</time></trkpt><trkpt lat="44.9650996" lon="9.2013335"><ele>191.0</ele><time>2026-04-25T07:09:24.997Z</time></trkpt><trkpt lat="44.9651071" lon="9.2012433"><ele>191.0</ele><time>2026-04-25T07:09:26.995Z</time></trkpt><trkpt lat="44.965114" lon="9.2011426"><ele>191.0</ele><time>2026-04-25T07:09:29.003Z</time></trkpt><trkpt lat="44.965121" lon="9.2010136"><ele>191.0</ele><time>2026-04-25T07:09:31.994Z</time></trkpt><trkpt lat="44.9651323" lon="9.200917"><ele>191.0</ele><time>2026-04-25T07:09:33.992Z</time></trkpt><trkpt lat="44.9651348" lon="9.2008043"><ele>191.0</ele><time>2026-04-25T07:09:35.991Z</time></trkpt><trkpt lat="44.9651398" lon="9.2006981"><ele>191.0</ele><time>2026-04-25T07:09:37.997Z</time></trkpt><trkpt lat="44.965142" lon="9.2005585"><ele>191.0</ele><time>2026-04-25T07:09:40.999Z</time></trkpt><trkpt lat="44.9651409" lon="9.2004498"><ele>191.0</ele><time>2026-04-25T07:09:42.995Z</time></trkpt><trkpt lat="44.9651299" lon="9.2003211"><ele>191.0</ele><time>2026-04-25T07:09:45.997Z</time></trkpt><trkpt lat="44.9651234" lon="9.2002272"><ele>191.0</ele><time>2026-04-25T07:09:47.997Z</time></trkpt><trkpt lat="44.9651154" lon="9.2001059"><ele>191.0</ele><time>2026-04-25T07:09:51Z</time></trkpt><trkpt lat="44.9650942" lon="9.1999739"><ele>191.0</ele><time>2026-04-25T07:09:54.001Z</time></trkpt><trkpt lat="44.9650737" lon="9.1998874"><ele>191.0</ele><time>2026-04-25T07:09:55.997Z</time></trkpt><trkpt lat="44.965047" lon="9.199768"><ele>191.0</ele><time>2026-04-25T07:09:58.992Z</time></trkpt><trkpt lat="44.9650286" lon="9.1996567"><ele>194.66666666666666</ele><time>2026-04-25T07:10:01.992Z</time></trkpt><trkpt lat="44.9650064" lon="9.1995411"><ele>198.33333333333331</ele><time>2026-04-25T07:10:05.002Z</time></trkpt><trkpt lat="44.9649814" lon="9.1994256"><ele>202.0</ele><time>2026-04-25T07:10:08Z</time></trkpt><trkpt lat="44.9649549" lon="9.1993085"><ele>205.66666666666666</ele><time>2026-04-25T07:10:11.011Z</time></trkpt><trkpt lat="44.9649355" lon="9.1992238"><ele>209.33333333333334</ele><time>2026-04-25T07:10:12.999Z</time></trkpt><trkpt lat="44.9648974" lon="9.1991233"><ele>213.0</ele><time>2026-04-25T07:10:16.069Z</time></trkpt><trkpt lat="44.9648612" lon="9.1990504"><ele>213.0</ele><time>2026-04-25T07:10:18.004Z</time></trkpt><trkpt lat="44.964798" lon="9.1989775"><ele>213.0</ele><time>2026-04-25T07:10:20.996Z</time></trkpt><trkpt lat="44.9647279" lon="9.1990124"><ele>213.0</ele><time>2026-04-25T07:10:23.997Z</time></trkpt><trkpt lat="44.9646655" lon="9.1990972"><ele>213.0</ele><time>2026-04-25T07:10:26.996Z</time></trkpt><trkpt lat="44.9646045" lon="9.1991886"><ele>213.0</ele><time>2026-04-25T07:10:30.002Z</time></trkpt><trkpt lat="44.9645382" lon="9.1992775"><ele>213.0</ele><time>2026-04-25T07:10:33.001Z</time></trkpt><trkpt lat="44.964458" lon="9.1993567"><ele>213.0</ele><time>2026-04-25T07:10:36.007Z</time></trkpt><trkpt lat="44.9643995" lon="9.1994086"><ele>213.0</ele><time>2026-04-25T07:10:37.996Z</time></trkpt><trkpt lat="44.9643191" lon="9.1994692"><ele>213.0</ele><time>2026-04-25T07:10:40.997Z</time></trkpt><trkpt lat="44.9642461" lon="9.1995322"><ele>213.0</ele><time>2026-04-25T07:10:43.991Z</time></trkpt><trkpt lat="44.9641742" lon="9.1996033"><ele>213.0</ele><time>2026-04-25T07:10:46.986Z</time></trkpt><trkpt lat="44.9640909" lon="9.1996402"><ele>213.0</ele><time>2026-04-25T07:10:49.992Z</time></trkpt><trkpt lat="44.9640036" lon="9.1996507"><ele>217.16666666666666</ele><time>2026-04-25T07:10:53.007Z</time></trkpt><trkpt lat="44.9639153" lon="9.1996258"><ele>221.33333333333331</ele><time>2026-04-25T07:10:55.997Z</time></trkpt><trkpt lat="44.9638518" lon="9.1996"><ele>225.5</ele><time>2026-04-25T07:10:57.992Z</time></trkpt><trkpt lat="44.9637651" lon="9.199557"><ele>229.66666666666666</ele><time>2026-04-25T07:11:00.999Z</time></trkpt><trkpt lat="44.9637041" lon="9.1995185"><ele>233.83333333333331</ele><time>2026-04-25T07:11:02.992Z</time></trkpt><trkpt lat="44.9636326" lon="9.1994995"><ele>238.0</ele><time>2026-04-25T07:11:06.068Z</time></trkpt><trkpt lat="44.963581" lon="9.1994178"><ele>237.99999999999997</ele><time>2026-04-25T07:11:08.998Z</time></trkpt><trkpt lat="44.9635943" lon="9.1993267"><ele>238.0</ele><time>2026-04-25T07:11:10.996Z</time></trkpt><trkpt lat="44.9636468" lon="9.1992272"><ele>238.0</ele><time>2026-04-25T07:11:13.999Z</time></trkpt><trkpt lat="44.9636321" lon="9.1991169"><ele>238.0</ele><time>2026-04-25T07:11:17.003Z</time></trkpt><trkpt lat="44.9635755" lon="9.1990187"><ele>237.99999999999997</ele><time>2026-04-25T07:11:20.011Z</time></trkpt><trkpt lat="44.9635057" lon="9.1989558"><ele>238.0</ele><time>2026-04-25T07:11:23.003Z</time></trkpt><trkpt lat="44.9634409" lon="9.1988951"><ele>237.33333333333331</ele><time>2026-04-25T07:11:25.997Z</time></trkpt><trkpt lat="44.9633716" lon="9.1988422"><ele>236.66666666666666</ele><time>2026-04-25T07:11:28.992Z</time></trkpt><trkpt lat="44.9632904" lon="9.1987943"><ele>236.0</ele><time>2026-04-25T07:11:31.991Z</time></trkpt><trkpt lat="44.9632143" lon="9.1987284"><ele>235.33333333333331</ele><time>2026-04-25T07:11:34.997Z</time></trkpt><trkpt lat="44.9631363" lon="9.1986744"><ele>234.66666666666666</ele><time>2026-04-25T07:11:37.997Z</time></trkpt><trkpt lat="44.9630582" lon="9.1985999"><ele>234.0</ele><time>2026-04-25T07:11:40.991Z</time></trkpt><trkpt lat="44.9629883" lon="9.1985445"><ele>237.0</ele><time>2026-04-25T07:11:44Z</time></trkpt><trkpt lat="44.9629174" lon="9.1984642"><ele>240.0</ele><time>2026-04-25T07:11:47.06Z</time></trkpt><trkpt lat="44.9628443" lon="9.1984025"><ele>243.0</ele><time>2026-04-25T07:11:49.989Z</time></trkpt><trkpt lat="44.9627721" lon="9.1983373"><ele>246.0</ele><time>2026-04-25T07:11:52.992Z</time></trkpt><trkpt lat="44.9626973" lon="9.1982863"><ele>249.0</ele><time>2026-04-25T07:11:55.99Z</time></trkpt><trkpt lat="44.9626195" lon="9.198229"><ele>252.0</ele><time>2026-04-25T07:11:59.005Z</time></trkpt><trkpt lat="44.962561" lon="9.1981903"><ele>255.33333333333334</ele><time>2026-04-25T07:12:00.995Z</time></trkpt><trkpt lat="44.9624802" lon="9.1981568"><ele>258.6666666666667</ele><time>2026-04-25T07:12:04.002Z</time></trkpt><trkpt lat="44.9624158" lon="9.198113"><ele>262.0</ele><time>2026-04-25T07:12:06.998Z</time></trkpt><trkpt lat="44.9623401" lon="9.1980672"><ele>265.33333333333337</ele><time>2026-04-25T07:12:09.996Z</time></trkpt><trkpt lat="44.9622627" lon="9.1980171"><ele>268.6666666666667</ele><time>2026-04-25T07:12:12.992Z</time></trkpt><trkpt lat="44.9621882" lon="9.1979458"><ele>272.0</ele><time>2026-04-25T07:12:16.012Z</time></trkpt><trkpt lat="44.9621203" lon="9.197859"><ele>272.0</ele><time>2026-04-25T07:12:18.985Z</time></trkpt><trkpt lat="44.9620598" lon="9.1977672"><ele>272.0</ele><time>2026-04-25T07:12:21.998Z</time></trkpt><trkpt lat="44.9619958" lon="9.1976716"><ele>272.0</ele><time>2026-04-25T07:12:25.001Z</time></trkpt><trkpt lat="44.9619536" lon="9.1976032"><ele>272.0</ele><time>2026-04-25T07:12:27Z</time></trkpt><trkpt lat="44.9618952" lon="9.197508"><ele>272.0</ele><time>2026-04-25T07:12:29.998Z</time></trkpt><trkpt lat="44.9618429" lon="9.1974162"><ele>272.0</ele><time>2026-04-25T07:12:33.004Z</time></trkpt><trkpt lat="44.9618011" lon="9.1973102"><ele>272.5</ele><time>2026-04-25T07:12:36.001Z</time></trkpt><trkpt lat="44.9617652" lon="9.1972014"><ele>273.0</ele><time>2026-04-25T07:12:38.996Z</time></trkpt><trkpt lat="44.9617217" lon="9.1970935"><ele>273.5</ele><time>2026-04-25T07:12:41.996Z</time></trkpt><trkpt lat="44.9616902" lon="9.1969886"><ele>274.0</ele><time>2026-04-25T07:12:45.005Z</time></trkpt><trkpt lat="44.9616555" lon="9.1968928"><ele>274.5</ele><time>2026-04-25T07:12:47.998Z</time></trkpt><trkpt lat="44.9616233" lon="9.1967977"><ele>275.0</ele><time>2026-04-25T07:12:50.993Z</time></trkpt><trkpt lat="44.9615722" lon="9.1967294"><ele>277.6666666666667</ele><time>2026-04-25T07:12:53.998Z</time></trkpt><trkpt lat="44.9615028" lon="9.1967021"><ele>280.33333333333337</ele><time>2026-04-25T07:12:57Z</time></trkpt><trkpt lat="44.9614313" lon="9.1966807"><ele>283.0</ele><time>2026-04-25T07:12:59Z</time></trkpt><trkpt lat="44.9613636" lon="9.1966668"><ele>285.6666666666667</ele><time>2026-04-25T07:13:00.992Z</time></trkpt><trkpt lat="44.9612967" lon="9.1966436"><ele>288.3333333333333</ele><time>2026-04-25T07:13:01.996Z</time></trkpt><trkpt lat="44.9611976" lon="9.1966081"><ele>291.0</ele><time>2026-04-25T07:13:03.993Z</time></trkpt><trkpt lat="44.9611308" lon="9.196599"><ele>291.0</ele><time>2026-04-25T07:13:05.988Z</time></trkpt><trkpt lat="44.9610433" lon="9.1966025"><ele>291.0</ele><time>2026-04-25T07:13:07.996Z</time></trkpt><trkpt lat="44.9609677" lon="9.1965838"><ele>291.0</ele><time>2026-04-25T07:13:10.986Z</time></trkpt><trkpt lat="44.9609071" lon="9.1965065"><ele>291.0</ele><time>2026-04-25T07:13:13.987Z</time></trkpt><trkpt lat="44.960876" lon="9.1964243"><ele>291.0</ele><time>2026-04-25T07:13:16.078Z</time></trkpt><trkpt lat="44.960835" lon="9.1963366"><ele>291.0</ele><time>2026-04-25T07:13:18.071Z</time></trkpt><trkpt lat="44.9607841" lon="9.1962426"><ele>293.1666666666667</ele><time>2026-04-25T07:13:20.08Z</time></trkpt><trkpt lat="44.9607213" lon="9.1961811"><ele>295.3333333333333</ele><time>2026-04-25T07:13:21.999Z</time></trkpt><trkpt lat="44.9606529" lon="9.1961644"><ele>297.5</ele><time>2026-04-25T07:13:24.995Z</time></trkpt><trkpt lat="44.9605768" lon="9.1962031"><ele>299.66666666666663</ele><time>2026-04-25T07:13:27.998Z</time></trkpt><trkpt lat="44.9605116" lon="9.196275"><ele>301.8333333333333</ele><time>2026-04-25T07:13:30.995Z</time></trkpt><trkpt lat="44.9604536" lon="9.196367"><ele>304.0</ele><time>2026-04-25T07:13:32.995Z</time></trkpt><trkpt lat="44.960353" lon="9.1964494"><ele>304.0</ele><time>2026-04-25T07:13:34.997Z</time></trkpt><trkpt lat="44.9602864" lon="9.196491"><ele>304.0</ele><time>2026-04-25T07:13:36.995Z</time></trkpt><trkpt lat="44.9602252" lon="9.1965322"><ele>304.0</ele><time>2026-04-25T07:13:38.996Z</time></trkpt><trkpt lat="44.9601501" lon="9.1965765"><ele>304.0</ele><time>2026-04-25T07:13:41.991Z</time></trkpt><trkpt lat="44.9600746" lon="9.1966136"><ele>304.0</ele><time>2026-04-25T07:13:44.995Z</time></trkpt><trkpt lat="44.9600049" lon="9.1966964"><ele>304.0</ele><time>2026-04-25T07:13:47.989Z</time></trkpt><trkpt lat="44.9599685" lon="9.1967763"><ele>303.3333333333333</ele><time>2026-04-25T07:13:49.993Z</time></trkpt><trkpt lat="44.9599276" lon="9.1968713"><ele>302.66666666666663</ele><time>2026-04-25T07:13:52.986Z</time></trkpt><trkpt lat="44.9598922" lon="9.1969925"><ele>302.0</ele><time>2026-04-25T07:13:55.993Z</time></trkpt><trkpt lat="44.9598913" lon="9.197103"><ele>301.3333333333333</ele><time>2026-04-25T07:13:59.046Z</time></trkpt><trkpt lat="44.9598987" lon="9.1972114"><ele>300.6666666666667</ele><time>2026-04-25T07:14:01.993Z</time></trkpt><trkpt lat="44.9599217" lon="9.1973143"><ele>300.0</ele><time>2026-04-25T07:14:04.991Z</time></trkpt><trkpt lat="44.9599625" lon="9.1974054"><ele>298.8333333333333</ele><time>2026-04-25T07:14:08.002Z</time></trkpt><trkpt lat="44.9599787" lon="9.1974991"><ele>297.6666666666667</ele><time>2026-04-25T07:14:11.031Z</time></trkpt><trkpt lat="44.9599393" lon="9.1975984"><ele>296.5</ele><time>2026-04-25T07:14:14.991Z</time></trkpt><trkpt lat="44.9598756" lon="9.1976535"><ele>295.33333333333337</ele><time>2026-04-25T07:14:17.991Z</time></trkpt><trkpt lat="44.959802" lon="9.1977054"><ele>294.1666666666667</ele><time>2026-04-25T07:14:21.008Z</time></trkpt><trkpt lat="44.9597303" lon="9.1977604"><ele>293.0</ele><time>2026-04-25T07:14:23.991Z</time></trkpt><trkpt lat="44.9596678" lon="9.1977962"><ele>292.99999999999994</ele><time>2026-04-25T07:14:26.085Z</time></trkpt><trkpt lat="44.9595843" lon="9.1978474"><ele>293.0</ele><time>2026-04-25T07:14:27.988Z</time></trkpt><trkpt lat="44.9595202" lon="9.1978976"><ele>293.0</ele><time>2026-04-25T07:14:29.991Z</time></trkpt><trkpt lat="44.9594667" lon="9.1979472"><ele>293.0</ele><time>2026-04-25T07:14:31.991Z</time></trkpt><trkpt lat="44.9594105" lon="9.198014"><ele>293.0</ele><time>2026-04-25T07:14:34.997Z</time></trkpt><trkpt lat="44.9593673" lon="9.1980892"><ele>292.99999999999994</ele><time>2026-04-25T07:14:37.991Z</time></trkpt><trkpt lat="44.9593637" lon="9.1981793"><ele>293.0</ele><time>2026-04-25T07:15:00.99Z</time></trkpt><trkpt lat="44.9593124" lon="9.1982349"><ele>292.99999999999994</ele><time>2026-04-25T07:15:21.996Z</time></trkpt><trkpt lat="44.9592677" lon="9.1983222"><ele>293.0</ele><time>2026-04-25T07:15:45.993Z</time></trkpt><trkpt lat="44.9592404" lon="9.1984029"><ele>293.0</ele><time>2026-04-25T07:15:48.991Z</time></trkpt><trkpt lat="44.9591795" lon="9.1984471"><ele>293.0</ele><time>2026-04-25T07:15:59.996Z</time></trkpt><trkpt lat="44.9592273" lon="9.1983693"><ele>293.0</ele><time>2026-04-25T07:16:29.986Z</time></trkpt><trkpt lat="44.9592788" lon="9.1982901"><ele>292.99999999999994</ele><time>2026-04-25T07:16:34.981Z</time></trkpt><trkpt lat="44.9593224" lon="9.198211"><ele>293.0</ele><time>2026-04-25T07:16:43.985Z</time></trkpt><trkpt lat="44.9593418" lon="9.1981218"><ele>293.0</ele><time>2026-04-25T07:17:04.993Z</time></trkpt><trkpt lat="44.9593752" lon="9.1980463"><ele>293.0</ele><time>2026-04-25T07:17:13.995Z</time></trkpt><trkpt lat="44.959422" lon="9.1979831"><ele>293.0</ele><time>2026-04-25T07:17:17.989Z</time></trkpt><trkpt lat="44.9594791" lon="9.1979135"><ele>293.0</ele><time>2026-04-25T07:17:21.004Z</time></trkpt><trkpt lat="44.9595505" lon="9.1978564"><ele>293.0</ele><time>2026-04-25T07:17:23.994Z</time></trkpt><trkpt lat="44.9596311" lon="9.1978105"><ele>293.0</ele><time>2026-04-25T07:17:27.995Z</time></trkpt><trkpt lat="44.9597029" lon="9.1977624"><ele>292.99999999999994</ele><time>2026-04-25T07:17:30.988Z</time></trkpt><trkpt lat="44.9597788" lon="9.1977084"><ele>293.0</ele><time>2026-04-25T07:17:33.994Z</time></trkpt><trkpt lat="44.9598475" lon="9.1976608"><ele>293.0</ele><time>2026-04-25T07:17:36.995Z</time></trkpt><trkpt lat="44.9599071" lon="9.1976189"><ele>293.0</ele><time>2026-04-25T07:17:40.072Z</time></trkpt><trkpt lat="44.9599581" lon="9.1975616"><ele>293.0</ele><time>2026-04-25T07:17:42.991Z</time></trkpt><trkpt lat="44.9599681" lon="9.1974551"><ele>292.99999999999994</ele><time>2026-04-25T07:17:46.983Z</time></trkpt><trkpt lat="44.9599233" lon="9.1973794"><ele>293.0</ele><time>2026-04-25T07:17:49.99Z</time></trkpt><trkpt lat="44.9598909" lon="9.1972901"><ele>293.99999999999994</ele><time>2026-04-25T07:17:52.998Z</time></trkpt><trkpt lat="44.9598877" lon="9.1971834"><ele>295.0</ele><time>2026-04-25T07:17:55.993Z</time></trkpt><trkpt lat="44.9598972" lon="9.197083"><ele>296.0</ele><time>2026-04-25T07:17:58.989Z</time></trkpt><trkpt lat="44.9598806" lon="9.1969765"><ele>297.0</ele><time>2026-04-25T07:18:01.986Z</time></trkpt><trkpt lat="44.9598954" lon="9.1968806"><ele>298.0</ele><time>2026-04-25T07:18:04.982Z</time></trkpt><trkpt lat="44.9599321" lon="9.1967853"><ele>298.99999999999994</ele><time>2026-04-25T07:18:08Z</time></trkpt><trkpt lat="44.9599722" lon="9.1966963"><ele>300.0</ele><time>2026-04-25T07:18:11Z</time></trkpt><trkpt lat="44.9600285" lon="9.1966153"><ele>300.6666666666667</ele><time>2026-04-25T07:18:14.994Z</time></trkpt><trkpt lat="44.9601136" lon="9.1965621"><ele>301.3333333333333</ele><time>2026-04-25T07:18:17.993Z</time></trkpt><trkpt lat="44.9601808" lon="9.1965553"><ele>302.0</ele><time>2026-04-25T07:18:20.994Z</time></trkpt><trkpt lat="44.9602448" lon="9.1965136"><ele>302.66666666666663</ele><time>2026-04-25T07:18:23.993Z</time></trkpt><trkpt lat="44.9603135" lon="9.1964877"><ele>303.3333333333333</ele><time>2026-04-25T07:18:25.996Z</time></trkpt><trkpt lat="44.9603865" lon="9.1964413"><ele>304.0</ele><time>2026-04-25T07:18:28.99Z</time></trkpt><trkpt lat="44.9604443" lon="9.1963684"><ele>304.0</ele><time>2026-04-25T07:18:32.052Z</time></trkpt><trkpt lat="44.9604909" lon="9.1963"><ele>304.0</ele><time>2026-04-25T07:18:34.993Z</time></trkpt><trkpt lat="44.9605552" lon="9.1962327"><ele>304.0</ele><time>2026-04-25T07:18:37.989Z</time></trkpt><trkpt lat="44.9606149" lon="9.1961559"><ele>304.0</ele><time>2026-04-25T07:18:40.997Z</time></trkpt><trkpt lat="44.9606454" lon="9.1960486"><ele>304.0</ele><time>2026-04-25T07:18:44.072Z</time></trkpt><trkpt lat="44.9606871" lon="9.1959579"><ele>304.0</ele><time>2026-04-25T07:18:46.992Z</time></trkpt><trkpt lat="44.9607103" lon="9.1958369"><ele>304.0</ele><time>2026-04-25T07:18:50.99Z</time></trkpt><trkpt lat="44.9607188" lon="9.1957317"><ele>304.0</ele><time>2026-04-25T07:18:53.992Z</time></trkpt><trkpt lat="44.9607116" lon="9.1956405"><ele>304.0</ele><time>2026-04-25T07:18:57.993Z</time></trkpt><trkpt lat="44.9607375" lon="9.1957389"><ele>304.0</ele><time>2026-04-25T07:19:14.985Z</time></trkpt><trkpt lat="44.960722" lon="9.1958436"><ele>304.0</ele><time>2026-04-25T07:19:18.992Z</time></trkpt><trkpt lat="44.9606978" lon="9.1959632"><ele>304.0</ele><time>2026-04-25T07:19:23.068Z</time></trkpt><trkpt lat="44.9606849" lon="9.1960698"><ele>304.0</ele><time>2026-04-25T07:19:25.992Z</time></trkpt><trkpt lat="44.9606829" lon="9.1961684"><ele>304.0</ele><time>2026-04-25T07:19:29.998Z</time></trkpt><trkpt lat="44.9607515" lon="9.1962003"><ele>304.0</ele><time>2026-04-25T07:19:33.987Z</time></trkpt><trkpt lat="44.9608113" lon="9.1962521"><ele>304.0</ele><time>2026-04-25T07:19:38.003Z</time></trkpt><trkpt lat="44.9608519" lon="9.196329"><ele>304.0</ele><time>2026-04-25T07:19:40.995Z</time></trkpt><trkpt lat="44.9608956" lon="9.1964444"><ele>304.0</ele><time>2026-04-25T07:19:43.988Z</time></trkpt><trkpt lat="44.9609493" lon="9.1965341"><ele>301.8333333333333</ele><time>2026-04-25T07:19:46.99Z</time></trkpt><trkpt lat="44.961039" lon="9.196576"><ele>299.66666666666663</ele><time>2026-04-25T07:19:49.99Z</time></trkpt><trkpt lat="44.9611088" lon="9.1965833"><ele>297.5</ele><time>2026-04-25T07:19:51.99Z</time></trkpt><trkpt lat="44.9611994" lon="9.1965939"><ele>295.3333333333333</ele><time>2026-04-25T07:19:54.991Z</time></trkpt><trkpt lat="44.9612873" lon="9.196617"><ele>293.1666666666667</ele><time>2026-04-25T07:19:57.996Z</time></trkpt><trkpt lat="44.9613542" lon="9.1966335"><ele>291.0</ele><time>2026-04-25T07:20:00.996Z</time></trkpt><trkpt lat="44.9614224" lon="9.1966613"><ele>291.0</ele><time>2026-04-25T07:20:03.99Z</time></trkpt><trkpt lat="44.9614876" lon="9.1966922"><ele>291.0</ele><time>2026-04-25T07:20:06.994Z</time></trkpt><trkpt lat="44.9615636" lon="9.1967133"><ele>291.0</ele><time>2026-04-25T07:20:10.992Z</time></trkpt><trkpt lat="44.9615849" lon="9.1966289"><ele>291.0</ele><time>2026-04-25T07:20:21.996Z</time></trkpt><trkpt lat="44.9615284" lon="9.1965375"><ele>291.0</ele><time>2026-04-25T07:20:24.988Z</time></trkpt><trkpt lat="44.9614658" lon="9.1964422"><ele>291.0</ele><time>2026-04-25T07:20:27.993Z</time></trkpt><trkpt lat="44.9614308" lon="9.1963663"><ele>292.3333333333333</ele><time>2026-04-25T07:20:29.994Z</time></trkpt><trkpt lat="44.9613777" lon="9.1962668"><ele>293.6666666666667</ele><time>2026-04-25T07:20:33.01Z</time></trkpt><trkpt lat="44.9613283" lon="9.1961729"><ele>295.0</ele><time>2026-04-25T07:20:35.998Z</time></trkpt><trkpt lat="44.9612805" lon="9.1960638"><ele>296.33333333333337</ele><time>2026-04-25T07:20:38.988Z</time></trkpt><trkpt lat="44.9612283" lon="9.1959572"><ele>297.6666666666667</ele><time>2026-04-25T07:20:41.983Z</time></trkpt><trkpt lat="44.9611979" lon="9.1958402"><ele>299.0</ele><time>2026-04-25T07:20:44.99Z</time></trkpt><trkpt lat="44.9611656" lon="9.1957343"><ele>299.1666666666667</ele><time>2026-04-25T07:20:47.983Z</time></trkpt><trkpt lat="44.9611342" lon="9.1956188"><ele>299.33333333333337</ele><time>2026-04-25T07:20:51.004Z</time></trkpt><trkpt lat="44.9611048" lon="9.1954951"><ele>299.5</ele><time>2026-04-25T07:20:53.988Z</time></trkpt><trkpt lat="44.9610714" lon="9.1953787"><ele>299.6666666666667</ele><time>2026-04-25T07:20:57.062Z</time></trkpt><trkpt lat="44.9610464" lon="9.1952598"><ele>299.8333333333333</ele><time>2026-04-25T07:20:59.996Z</time></trkpt><trkpt lat="44.9610172" lon="9.1951379"><ele>300.0</ele><time>2026-04-25T07:21:02.99Z</time></trkpt><trkpt lat="44.9609918" lon="9.1950191"><ele>300.0</ele><time>2026-04-25T07:21:05.994Z</time></trkpt><trkpt lat="44.9609668" lon="9.1949018"><ele>300.0</ele><time>2026-04-25T07:21:08.993Z</time></trkpt><trkpt lat="44.9609449" lon="9.1947846"><ele>300.0</ele><time>2026-04-25T07:21:12Z</time></trkpt><trkpt lat="44.9609258" lon="9.194667"><ele>300.0</ele><time>2026-04-25T07:21:14.989Z</time></trkpt><trkpt lat="44.9608852" lon="9.1945688"><ele>300.0</ele><time>2026-04-25T07:21:17.988Z</time></trkpt><trkpt lat="44.9608372" lon="9.1944666"><ele>300.0</ele><time>2026-04-25T07:21:20.989Z</time></trkpt><trkpt lat="44.9607746" lon="9.1943955"><ele>303.1666666666667</ele><time>2026-04-25T07:21:23.999Z</time></trkpt><trkpt lat="44.9607016" lon="9.1943263"><ele>306.3333333333333</ele><time>2026-04-25T07:21:26.99Z</time></trkpt><trkpt lat="44.960625" lon="9.1942743"><ele>309.5</ele><time>2026-04-25T07:21:29.991Z</time></trkpt><trkpt lat="44.9605444" lon="9.1942482"><ele>312.66666666666663</ele><time>2026-04-25T07:21:32.988Z</time></trkpt><trkpt lat="44.9604807" lon="9.1942353"><ele>315.8333333333333</ele><time>2026-04-25T07:21:35.062Z</time></trkpt><trkpt lat="44.9603934" lon="9.194232"><ele>319.0</ele><time>2026-04-25T07:21:37.988Z</time></trkpt><trkpt lat="44.9603256" lon="9.1942328"><ele>319.0</ele><time>2026-04-25T07:21:39.99Z</time></trkpt><trkpt lat="44.9602583" lon="9.19423"><ele>319.0</ele><time>2026-04-25T07:21:41.991Z</time></trkpt><trkpt lat="44.9601831" lon="9.1942261"><ele>319.0</ele><time>2026-04-25T07:21:43.997Z</time></trkpt><trkpt lat="44.9601089" lon="9.1942232"><ele>319.0</ele><time>2026-04-25T07:21:45.997Z</time></trkpt><trkpt lat="44.960032" lon="9.1942118"><ele>319.0</ele><time>2026-04-25T07:21:47.991Z</time></trkpt><trkpt lat="44.9599645" lon="9.1942073"><ele>319.0</ele><time>2026-04-25T07:21:49.984Z</time></trkpt><trkpt lat="44.9598957" lon="9.1941941"><ele>319.0</ele><time>2026-04-25T07:21:51.994Z</time></trkpt><trkpt lat="44.9598288" lon="9.1941738"><ele>320.66666666666663</ele><time>2026-04-25T07:21:53.983Z</time></trkpt><trkpt lat="44.9597669" lon="9.1941512"><ele>322.3333333333333</ele><time>2026-04-25T07:21:55.989Z</time></trkpt><trkpt lat="44.959676" lon="9.194115"><ele>324.0</ele><time>2026-04-25T07:21:59.004Z</time></trkpt><trkpt lat="44.9596109" lon="9.1940971"><ele>325.6666666666667</ele><time>2026-04-25T07:22:01.061Z</time></trkpt><trkpt lat="44.9595279" lon="9.1940591"><ele>327.33333333333337</ele><time>2026-04-25T07:22:04.001Z</time></trkpt><trkpt lat="44.9594432" lon="9.1940044"><ele>329.0</ele><time>2026-04-25T07:22:06.988Z</time></trkpt><trkpt lat="44.9593685" lon="9.1939295"><ele>329.0</ele><time>2026-04-25T07:22:09.991Z</time></trkpt><trkpt lat="44.9593145" lon="9.1938765"><ele>329.0</ele><time>2026-04-25T07:22:11.989Z</time></trkpt><trkpt lat="44.9592602" lon="9.1938217"><ele>329.0</ele><time>2026-04-25T07:22:13.992Z</time></trkpt><trkpt lat="44.9592155" lon="9.1937588"><ele>329.0</ele><time>2026-04-25T07:22:15.987Z</time></trkpt><trkpt lat="44.9591522" lon="9.193687"><ele>329.0</ele><time>2026-04-25T07:22:18.989Z</time></trkpt><trkpt lat="44.9590869" lon="9.1936208"><ele>329.0</ele><time>2026-04-25T07:22:21.994Z</time></trkpt><trkpt lat="44.9590281" lon="9.1935482"><ele>329.0</ele><time>2026-04-25T07:22:24.993Z</time></trkpt><trkpt lat="44.9589769" lon="9.193481"><ele>331.85714285714283</ele><time>2026-04-25T07:22:28.074Z</time></trkpt><trkpt lat="44.9589223" lon="9.1934097"><ele>334.7142857142857</ele><time>2026-04-25T07:22:30.996Z</time></trkpt><trkpt lat="44.9588684" lon="9.1933487"><ele>337.57142857142856</ele><time>2026-04-25T07:22:33.994Z</time></trkpt><trkpt lat="44.958811" lon="9.1932895"><ele>340.42857142857144</ele><time>2026-04-25T07:22:36.997Z</time></trkpt><trkpt lat="44.9587538" lon="9.1932388"><ele>343.2857142857143</ele><time>2026-04-25T07:22:40.993Z</time></trkpt><trkpt lat="44.9586901" lon="9.1932312"><ele>346.1428571428571</ele><time>2026-04-25T07:23:22.986Z</time></trkpt><trkpt lat="44.958659" lon="9.193347"><ele>349.0</ele><time>2026-04-25T07:24:26.995Z</time></trkpt><trkpt lat="44.9586186" lon="9.1934432"><ele>349.0</ele><time>2026-04-25T07:24:29.985Z</time></trkpt><trkpt lat="44.9585776" lon="9.1935479"><ele>349.0</ele><time>2026-04-25T07:24:32.989Z</time></trkpt><trkpt lat="44.9585234" lon="9.1936488"><ele>349.0</ele><time>2026-04-25T07:24:34.99Z</time></trkpt><trkpt lat="44.9584693" lon="9.193807"><ele>349.0</ele><time>2026-04-25T07:24:36.987Z</time></trkpt><trkpt lat="44.9584414" lon="9.1938983"><ele>349.0</ele><time>2026-04-25T07:24:37.986Z</time></trkpt><trkpt lat="44.9584155" lon="9.1939813"><ele>349.0</ele><time>2026-04-25T07:24:38.996Z</time></trkpt><trkpt lat="44.9583901" lon="9.1940706"><ele>348.2857142857143</ele><time>2026-04-25T07:24:39.991Z</time></trkpt><trkpt lat="44.9583634" lon="9.1941597"><ele>347.57142857142856</ele><time>2026-04-25T07:24:40.99Z</time></trkpt><trkpt lat="44.9583344" lon="9.1942441"><ele>346.8571428571429</ele><time>2026-04-25T07:24:41.988Z</time></trkpt><trkpt lat="44.9583057" lon="9.1943313"><ele>346.1428571428571</ele><time>2026-04-25T07:24:42.988Z</time></trkpt><trkpt lat="44.9582729" lon="9.1944111"><ele>345.42857142857144</ele><time>2026-04-25T07:24:43.994Z</time></trkpt><trkpt lat="44.9582443" lon="9.1944967"><ele>344.7142857142857</ele><time>2026-04-25T07:24:44.991Z</time></trkpt><trkpt lat="44.9582182" lon="9.194582"><ele>344.0</ele><time>2026-04-25T07:24:45.984Z</time></trkpt><trkpt lat="44.9581925" lon="9.194669"><ele>344.0</ele><time>2026-04-25T07:24:47.001Z</time></trkpt><trkpt lat="44.9581378" lon="9.1948156"><ele>344.0</ele><time>2026-04-25T07:24:48.989Z</time></trkpt><trkpt lat="44.9580992" lon="9.1949371"><ele>344.0</ele><time>2026-04-25T07:24:50.993Z</time></trkpt><trkpt lat="44.9580718" lon="9.1950287"><ele>344.0</ele><time>2026-04-25T07:24:52.988Z</time></trkpt><trkpt lat="44.9580415" lon="9.1951479"><ele>344.0</ele><time>2026-04-25T07:24:55.998Z</time></trkpt><trkpt lat="44.9580227" lon="9.1952381"><ele>344.0</ele><time>2026-04-25T07:24:57.986Z</time></trkpt><trkpt lat="44.9579859" lon="9.1953471"><ele>342.5</ele><time>2026-04-25T07:25:00.054Z</time></trkpt><trkpt lat="44.9579261" lon="9.1955004"><ele>341.0</ele><time>2026-04-25T07:25:01.997Z</time></trkpt><trkpt lat="44.9578942" lon="9.1955949"><ele>339.5</ele><time>2026-04-25T07:25:02.992Z</time></trkpt><trkpt lat="44.9578611" lon="9.1956955"><ele>338.0</ele><time>2026-04-25T07:25:03.995Z</time></trkpt><trkpt lat="44.957827" lon="9.1957891"><ele>336.5</ele><time>2026-04-25T07:25:04.999Z</time></trkpt><trkpt lat="44.95779" lon="9.1958824"><ele>335.0</ele><time>2026-04-25T07:25:05.994Z</time></trkpt><trkpt lat="44.9577565" lon="9.195978"><ele>331.5</ele><time>2026-04-25T07:25:06.996Z</time></trkpt><trkpt lat="44.9577225" lon="9.1960745"><ele>328.0</ele><time>2026-04-25T07:25:07.989Z</time></trkpt><trkpt lat="44.9574457" lon="9.1968936"><ele>328.0</ele><time>2026-04-25T07:25:16.913Z</time></trkpt><trkpt lat="44.957403" lon="9.1969755"><ele>328.0</ele><time>2026-04-25T07:25:18.981Z</time></trkpt><trkpt lat="44.9573809" lon="9.1970807"><ele>328.0</ele><time>2026-04-25T07:25:21.982Z</time></trkpt><trkpt lat="44.9573521" lon="9.1971709"><ele>328.0</ele><time>2026-04-25T07:25:24.993Z</time></trkpt><trkpt lat="44.9573221" lon="9.1972899"><ele>328.0</ele><time>2026-04-25T07:25:27.99Z</time></trkpt><trkpt lat="44.9572903" lon="9.1974067"><ele>328.0</ele><time>2026-04-25T07:25:30.994Z</time></trkpt><trkpt lat="44.9572526" lon="9.1975056"><ele>328.0</ele><time>2026-04-25T07:25:33.991Z</time></trkpt><trkpt lat="44.9572072" lon="9.1975955"><ele>328.0</ele><time>2026-04-25T07:25:36.987Z</time></trkpt><trkpt lat="44.957173" lon="9.1976846"><ele>328.0</ele><time>2026-04-25T07:25:39.986Z</time></trkpt><trkpt lat="44.9571452" lon="9.1977836"><ele>328.0</ele><time>2026-04-25T07:25:42.983Z</time></trkpt><trkpt lat="44.9571163" lon="9.1978945"><ele>328.0</ele><time>2026-04-25T07:25:45.993Z</time></trkpt><trkpt lat="44.9570946" lon="9.1979819"><ele>328.0</ele><time>2026-04-25T07:25:49.004Z</time></trkpt><trkpt lat="44.9570637" lon="9.1980845"><ele>328.0</ele><time>2026-04-25T07:25:52.995Z</time></trkpt><trkpt lat="44.957031" lon="9.1981905"><ele>328.0</ele><time>2026-04-25T07:25:56.989Z</time></trkpt><trkpt lat="44.956995" lon="9.1982764"><ele>328.0</ele><time>2026-04-25T07:25:59.988Z</time></trkpt><trkpt lat="44.956949" lon="9.1983677"><ele>328.0</ele><time>2026-04-25T07:26:03.99Z</time></trkpt><trkpt lat="44.9568895" lon="9.19844"><ele>328.0</ele><time>2026-04-25T07:26:07.99Z</time></trkpt><trkpt lat="44.9568314" lon="9.1985249"><ele>328.0</ele><time>2026-04-25T07:26:11.989Z</time></trkpt><trkpt lat="44.956784" lon="9.1985864"><ele>328.0</ele><time>2026-04-25T07:26:14.987Z</time></trkpt><trkpt lat="44.9567232" lon="9.1986708"><ele>328.0</ele><time>2026-04-25T07:26:18.998Z</time></trkpt><trkpt lat="44.9566724" lon="9.1987556"><ele>328.0</ele><time>2026-04-25T07:26:22.991Z</time></trkpt><trkpt lat="44.956642" lon="9.1988504"><ele>328.0</ele><time>2026-04-25T07:26:25.991Z</time></trkpt><trkpt lat="44.956633" lon="9.1989634"><ele>328.0</ele><time>2026-04-25T07:26:29.991Z</time></trkpt><trkpt lat="44.9566056" lon="9.1990645"><ele>328.0</ele><time>2026-04-25T07:26:33.993Z</time></trkpt><trkpt lat="44.9565804" lon="9.1991481"><ele>329.66666666666663</ele><time>2026-04-25T07:26:38.989Z</time></trkpt><trkpt lat="44.9565431" lon="9.199237"><ele>331.3333333333333</ele><time>2026-04-25T07:26:49.991Z</time></trkpt><trkpt lat="44.9564846" lon="9.1993234"><ele>333.0</ele><time>2026-04-25T07:26:52.988Z</time></trkpt><trkpt lat="44.9564269" lon="9.1993834"><ele>334.6666666666667</ele><time>2026-04-25T07:26:54.99Z</time></trkpt><trkpt lat="44.9563646" lon="9.1994823"><ele>336.33333333333337</ele><time>2026-04-25T07:26:56.991Z</time></trkpt><trkpt lat="44.9563059" lon="9.1995971"><ele>338.0</ele><time>2026-04-25T07:26:59.001Z</time></trkpt><trkpt lat="44.9562461" lon="9.199738"><ele>337.0</ele><time>2026-04-25T07:27:00.988Z</time></trkpt><trkpt lat="44.956195" lon="9.1998814"><ele>336.0</ele><time>2026-04-25T07:27:03.061Z</time></trkpt><trkpt lat="44.9561628" lon="9.2000241"><ele>335.0</ele><time>2026-04-25T07:27:05.068Z</time></trkpt><trkpt lat="44.9561355" lon="9.2001498"><ele>334.0</ele><time>2026-04-25T07:27:06.984Z</time></trkpt><trkpt lat="44.9561038" lon="9.2002552"><ele>333.0</ele><time>2026-04-25T07:27:08.994Z</time></trkpt><trkpt lat="44.9560816" lon="9.2003575"><ele>333.0</ele><time>2026-04-25T07:27:11.988Z</time></trkpt><trkpt lat="44.9560482" lon="9.2004598"><ele>333.0</ele><time>2026-04-25T07:27:14.985Z</time></trkpt><trkpt lat="44.9559135" lon="9.2008056"><ele>333.0</ele><time>2026-04-25T07:27:23.917Z</time></trkpt><trkpt lat="44.9558469" lon="9.2008917"><ele>333.0</ele><time>2026-04-25T07:27:27.989Z</time></trkpt><trkpt lat="44.9557948" lon="9.2009677"><ele>333.6666666666667</ele><time>2026-04-25T07:27:30.998Z</time></trkpt><trkpt lat="44.9557461" lon="9.2010451"><ele>334.3333333333333</ele><time>2026-04-25T07:27:33.988Z</time></trkpt><trkpt lat="44.9557025" lon="9.2011398"><ele>335.0</ele><time>2026-04-25T07:27:36.992Z</time></trkpt><trkpt lat="44.9556618" lon="9.2012482"><ele>335.66666666666663</ele><time>2026-04-25T07:27:39.983Z</time></trkpt><trkpt lat="44.9556217" lon="9.2013514"><ele>336.3333333333333</ele><time>2026-04-25T07:27:42.996Z</time></trkpt><trkpt lat="44.9555737" lon="9.20145"><ele>337.0</ele><time>2026-04-25T07:27:45.988Z</time></trkpt><trkpt lat="44.9555297" lon="9.2015557"><ele>337.66666666666663</ele><time>2026-04-25T07:27:48.993Z</time></trkpt><trkpt lat="44.9554783" lon="9.2016551"><ele>338.3333333333333</ele><time>2026-04-25T07:27:51.987Z</time></trkpt><trkpt lat="44.9554278" lon="9.201739"><ele>339.0</ele><time>2026-04-25T07:27:54.998Z</time></trkpt><trkpt lat="44.9553717" lon="9.2018288"><ele>339.6666666666667</ele><time>2026-04-25T07:27:57.998Z</time></trkpt><trkpt lat="44.9553094" lon="9.201906"><ele>340.33333333333337</ele><time>2026-04-25T07:28:01.998Z</time></trkpt><trkpt lat="44.9552643" lon="9.2019756"><ele>341.0</ele><time>2026-04-25T07:28:04.991Z</time></trkpt><trkpt lat="44.9551915" lon="9.2020322"><ele>341.0</ele><time>2026-04-25T07:28:07.998Z</time></trkpt><trkpt lat="44.9551185" lon="9.2020712"><ele>341.0</ele><time>2026-04-25T07:28:10.989Z</time></trkpt><trkpt lat="44.9550444" lon="9.2020977"><ele>341.0</ele><time>2026-04-25T07:28:13.997Z</time></trkpt><trkpt lat="44.9549676" lon="9.2021157"><ele>341.0</ele><time>2026-04-25T07:28:16.992Z</time></trkpt><trkpt lat="44.9548973" lon="9.2021346"><ele>341.0</ele><time>2026-04-25T07:28:19.992Z</time></trkpt><trkpt lat="44.9548236" lon="9.2021554"><ele>341.0</ele><time>2026-04-25T07:28:22.998Z</time></trkpt><trkpt lat="44.9547525" lon="9.2021705"><ele>341.33333333333337</ele><time>2026-04-25T07:28:25.99Z</time></trkpt><trkpt lat="44.9546897" lon="9.202197"><ele>341.6666666666667</ele><time>2026-04-25T07:28:27.988Z</time></trkpt><trkpt lat="44.9546239" lon="9.2022204"><ele>342.0</ele><time>2026-04-25T07:28:29.99Z</time></trkpt><trkpt lat="44.9545479" lon="9.2022576"><ele>342.3333333333333</ele><time>2026-04-25T07:28:31.99Z</time></trkpt><trkpt lat="44.9544579" lon="9.2023208"><ele>342.66666666666663</ele><time>2026-04-25T07:28:33.988Z</time></trkpt><trkpt lat="44.9544008" lon="9.2023869"><ele>343.0</ele><time>2026-04-25T07:28:35.994Z</time></trkpt><trkpt lat="44.9543406" lon="9.2024305"><ele>343.66666666666663</ele><time>2026-04-25T07:28:37.982Z</time></trkpt><trkpt lat="44.9542567" lon="9.2024611"><ele>344.3333333333333</ele><time>2026-04-25T07:28:40.998Z</time></trkpt><trkpt lat="44.9541877" lon="9.2024851"><ele>345.0</ele><time>2026-04-25T07:28:43.999Z</time></trkpt><trkpt lat="44.9541168" lon="9.2025264"><ele>345.6666666666667</ele><time>2026-04-25T07:28:46.984Z</time></trkpt><trkpt lat="44.9540399" lon="9.2025533"><ele>346.33333333333337</ele><time>2026-04-25T07:28:49.982Z</time></trkpt><trkpt lat="44.9539655" lon="9.2025782"><ele>347.0</ele><time>2026-04-25T07:28:52.986Z</time></trkpt><trkpt lat="44.9538852" lon="9.2026022"><ele>347.83333333333337</ele><time>2026-04-25T07:28:55.998Z</time></trkpt><trkpt lat="44.9538063" lon="9.202645"><ele>348.6666666666667</ele><time>2026-04-25T07:28:58.991Z</time></trkpt><trkpt lat="44.9537272" lon="9.2027015"><ele>349.5</ele><time>2026-04-25T07:29:01.996Z</time></trkpt><trkpt lat="44.9536456" lon="9.2027603"><ele>350.3333333333333</ele><time>2026-04-25T07:29:04.989Z</time></trkpt><trkpt lat="44.9535636" lon="9.2027995"><ele>351.16666666666663</ele><time>2026-04-25T07:29:07.992Z</time></trkpt><trkpt lat="44.9534884" lon="9.2028175"><ele>352.0</ele><time>2026-04-25T07:29:10.991Z</time></trkpt><trkpt lat="44.9534136" lon="9.2028"><ele>352.3333333333333</ele><time>2026-04-25T07:29:13.994Z</time></trkpt><trkpt lat="44.9533358" lon="9.2027978"><ele>352.6666666666667</ele><time>2026-04-25T07:29:16.986Z</time></trkpt><trkpt lat="44.9532661" lon="9.2028277"><ele>353.0</ele><time>2026-04-25T07:29:19.992Z</time></trkpt><trkpt lat="44.952929" lon="9.2030232"><ele>353.0</ele><time>2026-04-25T07:29:30.925Z</time></trkpt><trkpt lat="44.9528775" lon="9.2030765"><ele>353.0</ele><time>2026-04-25T07:29:32.996Z</time></trkpt><trkpt lat="44.9528065" lon="9.2031529"><ele>353.0</ele><time>2026-04-25T07:29:35.999Z</time></trkpt><trkpt lat="44.9527367" lon="9.2032073"><ele>353.0</ele><time>2026-04-25T07:29:38.992Z</time></trkpt><trkpt lat="44.9526631" lon="9.2032583"><ele>353.0</ele><time>2026-04-25T07:29:41.979Z</time></trkpt><trkpt lat="44.952594" lon="9.2033109"><ele>353.0</ele><time>2026-04-25T07:29:44.986Z</time></trkpt><trkpt lat="44.9525233" lon="9.2033718"><ele>354.33333333333337</ele><time>2026-04-25T07:29:47.992Z</time></trkpt><trkpt lat="44.9524547" lon="9.2034357"><ele>355.6666666666667</ele><time>2026-04-25T07:29:50.996Z</time></trkpt><trkpt lat="44.9523852" lon="9.2034938"><ele>357.0</ele><time>2026-04-25T07:29:53.989Z</time></trkpt><trkpt lat="44.9523175" lon="9.2035632"><ele>358.3333333333333</ele><time>2026-04-25T07:29:56.984Z</time></trkpt><trkpt lat="44.9522493" lon="9.203635"><ele>359.66666666666663</ele><time>2026-04-25T07:29:59.989Z</time></trkpt><trkpt lat="44.9521886" lon="9.2036973"><ele>361.0</ele><time>2026-04-25T07:30:02.999Z</time></trkpt><trkpt lat="44.952122" lon="9.2037654"><ele>361.0</ele><time>2026-04-25T07:30:05.994Z</time></trkpt><trkpt lat="44.9520622" lon="9.2038282"><ele>361.0</ele><time>2026-04-25T07:30:08.993Z</time></trkpt><trkpt lat="44.9520116" lon="9.2038866"><ele>361.0</ele><time>2026-04-25T07:30:11.989Z</time></trkpt><trkpt lat="44.9519583" lon="9.2039415"><ele>361.0</ele><time>2026-04-25T07:30:15.096Z</time></trkpt><trkpt lat="44.9519085" lon="9.2039979"><ele>361.0</ele><time>2026-04-25T07:30:17.982Z</time></trkpt><trkpt lat="44.9518556" lon="9.2040468"><ele>361.0</ele><time>2026-04-25T07:30:20.981Z</time></trkpt><trkpt lat="44.9517883" lon="9.2040712"><ele>361.0</ele><time>2026-04-25T07:30:24.986Z</time></trkpt><trkpt lat="44.9517361" lon="9.2040111"><ele>361.0</ele><time>2026-04-25T07:30:29.993Z</time></trkpt><trkpt lat="44.9516562" lon="9.2039741"><ele>361.0</ele><time>2026-04-25T07:30:33.997Z</time></trkpt><trkpt lat="44.9516028" lon="9.2039183"><ele>361.0</ele><time>2026-04-25T07:30:36.987Z</time></trkpt><trkpt lat="44.9515495" lon="9.2038707"><ele>361.0</ele><time>2026-04-25T07:30:39.989Z</time></trkpt><trkpt lat="44.9514917" lon="9.2038157"><ele>361.0</ele><time>2026-04-25T07:30:42.993Z</time></trkpt><trkpt lat="44.9514211" lon="9.203798"><ele>361.0</ele><time>2026-04-25T07:30:45.989Z</time></trkpt><trkpt lat="44.951351" lon="9.2038142"><ele>361.0</ele><time>2026-04-25T07:30:48.986Z</time></trkpt><trkpt lat="44.9512805" lon="9.2038461"><ele>361.0</ele><time>2026-04-25T07:30:51.987Z</time></trkpt><trkpt lat="44.9512082" lon="9.203873"><ele>361.0</ele><time>2026-04-25T07:30:54.991Z</time></trkpt><trkpt lat="44.9511294" lon="9.2038996"><ele>361.0</ele><time>2026-04-25T07:30:57.989Z</time></trkpt><trkpt lat="44.9510602" lon="9.2039201"><ele>361.0</ele><time>2026-04-25T07:31:00.99Z</time></trkpt><trkpt lat="44.9509808" lon="9.2039343"><ele>361.0</ele><time>2026-04-25T07:31:04.992Z</time></trkpt><trkpt lat="44.9508985" lon="9.203937"><ele>361.0</ele><time>2026-04-25T07:31:08.993Z</time></trkpt><trkpt lat="44.9508193" lon="9.2039386"><ele>364.3333333333333</ele><time>2026-04-25T07:31:12.985Z</time></trkpt><trkpt lat="44.9507501" lon="9.2039394"><ele>367.66666666666663</ele><time>2026-04-25T07:31:15.982Z</time></trkpt><trkpt lat="44.950685" lon="9.2039454"><ele>371.0</ele><time>2026-04-25T07:31:18.987Z</time></trkpt><trkpt lat="44.9506124" lon="9.2039509"><ele>374.3333333333333</ele><time>2026-04-25T07:31:21.987Z</time></trkpt><trkpt lat="44.950543" lon="9.2039711"><ele>377.6666666666667</ele><time>2026-04-25T07:31:24.988Z</time></trkpt><trkpt lat="44.9504694" lon="9.2039845"><ele>381.0</ele><time>2026-04-25T07:31:27.99Z</time></trkpt><trkpt lat="44.9503854" lon="9.2040934"><ele>383.0</ele><time>2026-04-25T07:31:37.92Z</time></trkpt><trkpt lat="44.9503871" lon="9.204226"><ele>385.0</ele><time>2026-04-25T07:31:39.985Z</time></trkpt><trkpt lat="44.9504072" lon="9.2043332"><ele>387.0</ele><time>2026-04-25T07:31:43.984Z</time></trkpt><trkpt lat="44.9504182" lon="9.2044485"><ele>389.0</ele><time>2026-04-25T07:31:47.979Z</time></trkpt><trkpt lat="44.9504372" lon="9.2045414"><ele>391.0</ele><time>2026-04-25T07:31:50.985Z</time></trkpt><trkpt lat="44.9504559" lon="9.2046332"><ele>393.0</ele><time>2026-04-25T07:31:54.041Z</time></trkpt><trkpt lat="44.9504703" lon="9.204735"><ele>393.5714285714286</ele><time>2026-04-25T07:31:56.988Z</time></trkpt><trkpt lat="44.9504658" lon="9.2048355"><ele>394.14285714285717</ele><time>2026-04-25T07:31:59.983Z</time></trkpt><trkpt lat="44.9504438" lon="9.2049236"><ele>394.7142857142857</ele><time>2026-04-25T07:32:02.983Z</time></trkpt><trkpt lat="44.9503934" lon="9.2050243"><ele>395.28571428571433</ele><time>2026-04-25T07:32:06.985Z</time></trkpt><trkpt lat="44.9503473" lon="9.20509"><ele>395.85714285714283</ele><time>2026-04-25T07:32:09.992Z</time></trkpt><trkpt lat="44.9502849" lon="9.2051652"><ele>396.42857142857144</ele><time>2026-04-25T07:32:13.998Z</time></trkpt><trkpt lat="44.9502336" lon="9.2052205"><ele>397.0</ele><time>2026-04-25T07:32:16.986Z</time></trkpt><trkpt lat="44.9501599" lon="9.20526"><ele>397.00000000000006</ele><time>2026-04-25T07:32:19.985Z</time></trkpt><trkpt lat="44.9500965" lon="9.2052962"><ele>397.0</ele><time>2026-04-25T07:32:22.981Z</time></trkpt><trkpt lat="44.9500211" lon="9.2053116"><ele>397.0</ele><time>2026-04-25T07:32:25.986Z</time></trkpt><trkpt lat="44.9499547" lon="9.2053345"><ele>397.0</ele><time>2026-04-25T07:32:28.993Z</time></trkpt><trkpt lat="44.9498913" lon="9.2053796"><ele>397.00000000000006</ele><time>2026-04-25T07:32:31.996Z</time></trkpt><trkpt lat="44.9498064" lon="9.2054454"><ele>397.0</ele><time>2026-04-25T07:32:35.057Z</time></trkpt><trkpt lat="44.9497411" lon="9.2055095"><ele>398.50000000000006</ele><time>2026-04-25T07:32:37.991Z</time></trkpt><trkpt lat="44.9496761" lon="9.2055675"><ele>400.0</ele><time>2026-04-25T07:32:42.99Z</time></trkpt><trkpt lat="44.949621" lon="9.205621"><ele>401.5</ele><time>2026-04-25T07:32:45.989Z</time></trkpt><trkpt lat="44.9495387" lon="9.2056643"><ele>403.0</ele><time>2026-04-25T07:32:48.981Z</time></trkpt><trkpt lat="44.9494575" lon="9.2057116"><ele>404.50000000000006</ele><time>2026-04-25T07:32:50.99Z</time></trkpt><trkpt lat="44.949392" lon="9.2057577"><ele>406.0</ele><time>2026-04-25T07:32:52.989Z</time></trkpt><trkpt lat="44.949327" lon="9.2058463"><ele>406.50000000000006</ele><time>2026-04-25T07:32:55.987Z</time></trkpt><trkpt lat="44.9492696" lon="9.2059077"><ele>407.0</ele><time>2026-04-25T07:32:57.99Z</time></trkpt><trkpt lat="44.9491925" lon="9.2059501"><ele>407.5</ele><time>2026-04-25T07:33:00.994Z</time></trkpt><trkpt lat="44.9491284" lon="9.2059914"><ele>408.0</ele><time>2026-04-25T07:33:03.987Z</time></trkpt><trkpt lat="44.9490449" lon="9.2060355"><ele>408.50000000000006</ele><time>2026-04-25T07:33:06.983Z</time></trkpt><trkpt lat="44.9489654" lon="9.2060805"><ele>409.0</ele><time>2026-04-25T07:33:09.992Z</time></trkpt><trkpt lat="44.9488852" lon="9.2061172"><ele>408.1428571428571</ele><time>2026-04-25T07:33:12.983Z</time></trkpt><trkpt lat="44.9488147" lon="9.206154"><ele>407.28571428571433</ele><time>2026-04-25T07:33:15.995Z</time></trkpt><trkpt lat="44.9487481" lon="9.2061903"><ele>406.42857142857144</ele><time>2026-04-25T07:33:18.986Z</time></trkpt><trkpt lat="44.9486877" lon="9.2062164"><ele>405.57142857142856</ele><time>2026-04-25T07:33:21.989Z</time></trkpt><trkpt lat="44.9486269" lon="9.2062399"><ele>404.71428571428567</ele><time>2026-04-25T07:33:24.988Z</time></trkpt><trkpt lat="44.948562" lon="9.2062482"><ele>403.8571428571429</ele><time>2026-04-25T07:33:27.989Z</time></trkpt><trkpt lat="44.9484955" lon="9.2062706"><ele>403.0</ele><time>2026-04-25T07:33:30.991Z</time></trkpt><trkpt lat="44.9484194" lon="9.2063153"><ele>401.0</ele><time>2026-04-25T07:33:34.99Z</time></trkpt><trkpt lat="44.9481733" lon="9.206602"><ele>399.0</ele><time>2026-04-25T07:33:44.968Z</time></trkpt><trkpt lat="44.9481654" lon="9.2064928"><ele>397.0</ele><time>2026-04-25T07:33:46.987Z</time></trkpt><trkpt lat="44.9481068" lon="9.2065353"><ele>399.0</ele><time>2026-04-25T07:33:49.986Z</time></trkpt><trkpt lat="44.9480322" lon="9.2065636"><ele>401.0</ele><time>2026-04-25T07:33:52.978Z</time></trkpt><trkpt lat="44.9479636" lon="9.2065998"><ele>403.0</ele><time>2026-04-25T07:33:56.982Z</time></trkpt><trkpt lat="44.947898" lon="9.2066296"><ele>405.0</ele><time>2026-04-25T07:34:00.988Z</time></trkpt><trkpt lat="44.9478404" lon="9.2066694"><ele>407.0</ele><time>2026-04-25T07:34:04.991Z</time></trkpt><trkpt lat="44.9477739" lon="9.2067177"><ele>409.0</ele><time>2026-04-25T07:34:08.981Z</time></trkpt><trkpt lat="44.9477072" lon="9.2067668"><ele>411.0</ele><time>2026-04-25T07:34:12.984Z</time></trkpt><trkpt lat="44.9476392" lon="9.2068068"><ele>411.0</ele><time>2026-04-25T07:34:16.988Z</time></trkpt><trkpt lat="44.9475738" lon="9.2068512"><ele>411.0</ele><time>2026-04-25T07:34:19.994Z</time></trkpt><trkpt lat="44.9475007" lon="9.2068796"><ele>411.0</ele><time>2026-04-25T07:34:22.988Z</time></trkpt><trkpt lat="44.9474197" lon="9.2069297"><ele>411.0</ele><time>2026-04-25T07:34:25.985Z</time></trkpt><trkpt lat="44.9473631" lon="9.206969"><ele>411.0</ele><time>2026-04-25T07:34:27.991Z</time></trkpt><trkpt lat="44.9472839" lon="9.2070259"><ele>411.0</ele><time>2026-04-25T07:34:30.985Z</time></trkpt><trkpt lat="44.9472147" lon="9.2070989"><ele>412.0</ele><time>2026-04-25T07:34:33.987Z</time></trkpt><trkpt lat="44.9471527" lon="9.2071578"><ele>413.0</ele><time>2026-04-25T07:34:36.987Z</time></trkpt><trkpt lat="44.9470918" lon="9.2072191"><ele>414.0</ele><time>2026-04-25T07:34:38.985Z</time></trkpt><trkpt lat="44.9470029" lon="9.2072821"><ele>415.0</ele><time>2026-04-25T07:34:40.992Z</time></trkpt><trkpt lat="44.9469178" lon="9.2073362"><ele>416.0</ele><time>2026-04-25T07:34:42.981Z</time></trkpt><trkpt lat="44.946832" lon="9.2073843"><ele>417.0</ele><time>2026-04-25T07:34:44.982Z</time></trkpt><trkpt lat="44.9467553" lon="9.2074331"><ele>417.8333333333333</ele><time>2026-04-25T07:34:46.983Z</time></trkpt><trkpt lat="44.9466958" lon="9.2074907"><ele>418.66666666666663</ele><time>2026-04-25T07:34:48.988Z</time></trkpt><trkpt lat="44.9466287" lon="9.2075641"><ele>419.5</ele><time>2026-04-25T07:34:51.986Z</time></trkpt><trkpt lat="44.9465536" lon="9.2076071"><ele>420.3333333333333</ele><time>2026-04-25T07:34:54.06Z</time></trkpt><trkpt lat="44.9464865" lon="9.2076537"><ele>421.16666666666663</ele><time>2026-04-25T07:34:55.996Z</time></trkpt><trkpt lat="44.9464119" lon="9.2076976"><ele>422.0</ele><time>2026-04-25T07:34:58.992Z</time></trkpt><trkpt lat="44.946334" lon="9.2077357"><ele>422.0</ele><time>2026-04-25T07:35:02.984Z</time></trkpt><trkpt lat="44.9462656" lon="9.2077502"><ele>422.0</ele><time>2026-04-25T07:35:05.981Z</time></trkpt><trkpt lat="44.9461785" lon="9.2077848"><ele>422.0</ele><time>2026-04-25T07:35:08.987Z</time></trkpt><trkpt lat="44.9461213" lon="9.2078224"><ele>422.0</ele><time>2026-04-25T07:35:10.991Z</time></trkpt><trkpt lat="44.9460613" lon="9.2078643"><ele>422.0</ele><time>2026-04-25T07:35:12.982Z</time></trkpt><trkpt lat="44.9460031" lon="9.2079124"><ele>422.0</ele><time>2026-04-25T07:35:14.981Z</time></trkpt><trkpt lat="44.9459445" lon="9.2079493"><ele>422.0</ele><time>2026-04-25T07:35:17.053Z</time></trkpt><trkpt lat="44.945855" lon="9.2080049"><ele>422.3333333333333</ele><time>2026-04-25T07:35:19.991Z</time></trkpt><trkpt lat="44.9457935" lon="9.2080435"><ele>422.66666666666663</ele><time>2026-04-25T07:35:21.991Z</time></trkpt><trkpt lat="44.945718" lon="9.2080854"><ele>423.0</ele><time>2026-04-25T07:35:24.986Z</time></trkpt><trkpt lat="44.9456397" lon="9.2081137"><ele>423.33333333333337</ele><time>2026-04-25T07:35:27.984Z</time></trkpt><trkpt lat="44.9455628" lon="9.2081251"><ele>423.6666666666667</ele><time>2026-04-25T07:35:30.986Z</time></trkpt><trkpt lat="44.9454761" lon="9.208137"><ele>424.0</ele><time>2026-04-25T07:35:33.981Z</time></trkpt><trkpt lat="44.9454026" lon="9.2081678"><ele>423.0</ele><time>2026-04-25T07:35:36.982Z</time></trkpt><trkpt lat="44.9453387" lon="9.2082163"><ele>422.0</ele><time>2026-04-25T07:35:39.982Z</time></trkpt><trkpt lat="44.9452672" lon="9.2082711"><ele>421.0</ele><time>2026-04-25T07:35:43.059Z</time></trkpt><trkpt lat="44.9450307" lon="9.2084447"><ele>420.0</ele><time>2026-04-25T07:35:51.909Z</time></trkpt><trkpt lat="44.9449682" lon="9.208427"><ele>421.57142857142856</ele><time>2026-04-25T07:35:56.978Z</time></trkpt><trkpt lat="44.9449056" lon="9.2084452"><ele>423.1428571428571</ele><time>2026-04-25T07:35:59.989Z</time></trkpt><trkpt lat="44.9448397" lon="9.2084613"><ele>424.7142857142857</ele><time>2026-04-25T07:36:02.981Z</time></trkpt><trkpt lat="44.9447761" lon="9.2085122"><ele>426.2857142857143</ele><time>2026-04-25T07:36:06.981Z</time></trkpt><trkpt lat="44.9447115" lon="9.208513"><ele>427.85714285714283</ele><time>2026-04-25T07:36:10.075Z</time></trkpt><trkpt lat="44.944648" lon="9.2084972"><ele>429.42857142857144</ele><time>2026-04-25T07:36:14.985Z</time></trkpt><trkpt lat="44.9445716" lon="9.2085229"><ele>431.0</ele><time>2026-04-25T07:36:21.995Z</time></trkpt><trkpt lat="44.9445071" lon="9.2085348"><ele>431.0</ele><time>2026-04-25T07:36:26.987Z</time></trkpt><trkpt lat="44.9444465" lon="9.2085649"><ele>431.0</ele><time>2026-04-25T07:36:42.99Z</time></trkpt><trkpt lat="44.9443735" lon="9.20859"><ele>431.0</ele><time>2026-04-25T07:37:01.984Z</time></trkpt><trkpt lat="44.944309" lon="9.2085982"><ele>431.0</ele><time>2026-04-25T07:37:07.987Z</time></trkpt><trkpt lat="44.9442531" lon="9.2086685"><ele>431.0</ele><time>2026-04-25T07:37:13.992Z</time></trkpt><trkpt lat="44.944207" lon="9.2087475"><ele>431.0</ele><time>2026-04-25T07:37:17.981Z</time></trkpt><trkpt lat="44.9441813" lon="9.2088581"><ele>431.0</ele><time>2026-04-25T07:37:22.991Z</time></trkpt><trkpt lat="44.9441685" lon="9.2089612"><ele>433.14285714285717</ele><time>2026-04-25T07:37:25.988Z</time></trkpt><trkpt lat="44.9441626" lon="9.2090581"><ele>435.2857142857143</ele><time>2026-04-25T07:37:28.977Z</time></trkpt><trkpt lat="44.9441336" lon="9.2091638"><ele>437.42857142857144</ele><time>2026-04-25T07:37:33.99Z</time></trkpt><trkpt lat="44.9440948" lon="9.2092352"><ele>439.57142857142856</ele><time>2026-04-25T07:37:37.984Z</time></trkpt><trkpt lat="44.9440427" lon="9.2092885"><ele>441.71428571428567</ele><time>2026-04-25T07:37:41.983Z</time></trkpt><trkpt lat="44.9439844" lon="9.2093476"><ele>443.85714285714283</ele><time>2026-04-25T07:37:45.983Z</time></trkpt><trkpt lat="44.9439345" lon="9.2094253"><ele>446.0</ele><time>2026-04-25T07:37:49.979Z</time></trkpt><trkpt lat="44.9437725" lon="9.2097004"><ele>445.99999999999994</ele><time>2026-04-25T07:37:58.912Z</time></trkpt><trkpt lat="44.9437322" lon="9.2098008"><ele>446.0</ele><time>2026-04-25T07:38:04.987Z</time></trkpt><trkpt lat="44.9436912" lon="9.209892"><ele>446.0</ele><time>2026-04-25T07:38:08.982Z</time></trkpt><trkpt lat="44.943647" lon="9.209981"><ele>446.0</ele><time>2026-04-25T07:38:12.983Z</time></trkpt><trkpt lat="44.9436101" lon="9.2100809"><ele>445.99999999999994</ele><time>2026-04-25T07:38:16.977Z</time></trkpt><trkpt lat="44.94356" lon="9.2101554"><ele>446.0</ele><time>2026-04-25T07:38:20.982Z</time></trkpt><trkpt lat="44.9434878" lon="9.2101853"><ele>445.85714285714283</ele><time>2026-04-25T07:38:24.987Z</time></trkpt><trkpt lat="44.943416" lon="9.210206"><ele>445.71428571428567</ele><time>2026-04-25T07:38:29.118Z</time></trkpt><trkpt lat="44.9433454" lon="9.2102503"><ele>445.57142857142856</ele><time>2026-04-25T07:38:32.986Z</time></trkpt><trkpt lat="44.9432955" lon="9.2103126"><ele>445.42857142857144</ele><time>2026-04-25T07:38:35.992Z</time></trkpt><trkpt lat="44.9432279" lon="9.2103577"><ele>445.2857142857143</ele><time>2026-04-25T07:38:39.995Z</time></trkpt><trkpt lat="44.9431588" lon="9.2103778"><ele>445.14285714285717</ele><time>2026-04-25T07:38:43.001Z</time></trkpt><trkpt lat="44.9430937" lon="9.2103934"><ele>445.0</ele><time>2026-04-25T07:38:45.984Z</time></trkpt><trkpt lat="44.9430212" lon="9.2104198"><ele>446.57142857142856</ele><time>2026-04-25T07:38:49.991Z</time></trkpt><trkpt lat="44.9429572" lon="9.2104491"><ele>448.1428571428571</ele><time>2026-04-25T07:38:52.994Z</time></trkpt><trkpt lat="44.9428956" lon="9.2104867"><ele>449.71428571428567</ele><time>2026-04-25T07:38:55.998Z</time></trkpt><trkpt lat="44.9428311" lon="9.210525"><ele>451.2857142857143</ele><time>2026-04-25T07:38:58.981Z</time></trkpt><trkpt lat="44.9427694" lon="9.2105755"><ele>452.8571428571428</ele><time>2026-04-25T07:39:02.986Z</time></trkpt><trkpt lat="44.9426971" lon="9.2105872"><ele>454.4285714285714</ele><time>2026-04-25T07:39:06.991Z</time></trkpt><trkpt lat="44.9426225" lon="9.2106163"><ele>456.0</ele><time>2026-04-25T07:39:09.98Z</time></trkpt><trkpt lat="44.9425495" lon="9.2106405"><ele>458.2857142857143</ele><time>2026-04-25T07:39:12.982Z</time></trkpt><trkpt lat="44.9424813" lon="9.2106686"><ele>460.57142857142856</ele><time>2026-04-25T07:39:15.986Z</time></trkpt><trkpt lat="44.9424211" lon="9.2107038"><ele>462.85714285714283</ele><time>2026-04-25T07:39:18.984Z</time></trkpt><trkpt lat="44.9423399" lon="9.2107291"><ele>465.1428571428571</ele><time>2026-04-25T07:39:22.98Z</time></trkpt><trkpt lat="44.9422579" lon="9.2107413"><ele>467.42857142857144</ele><time>2026-04-25T07:39:26.98Z</time></trkpt><trkpt lat="44.9421888" lon="9.2107766"><ele>469.71428571428567</ele><time>2026-04-25T07:39:29.991Z</time></trkpt><trkpt lat="44.9421273" lon="9.2107971"><ele>472.0</ele><time>2026-04-25T07:39:32.987Z</time></trkpt><trkpt lat="44.9420573" lon="9.2108332"><ele>472.0</ele><time>2026-04-25T07:39:35.989Z</time></trkpt><trkpt lat="44.9419935" lon="9.210861"><ele>472.0</ele><time>2026-04-25T07:39:38.987Z</time></trkpt><trkpt lat="44.9419256" lon="9.2108788"><ele>472.0</ele><time>2026-04-25T07:39:41.99Z</time></trkpt><trkpt lat="44.9418586" lon="9.2109078"><ele>472.0</ele><time>2026-04-25T07:39:44.989Z</time></trkpt><trkpt lat="44.9417917" lon="9.2109539"><ele>472.0</ele><time>2026-04-25T07:39:48.978Z</time></trkpt><trkpt lat="44.9417269" lon="9.2109763"><ele>472.0</ele><time>2026-04-25T07:39:51.986Z</time></trkpt><trkpt lat="44.9416599" lon="9.2109997"><ele>472.0</ele><time>2026-04-25T07:39:54.991Z</time></trkpt><trkpt lat="44.9414074" lon="9.2111808"><ele>473.71428571428567</ele><time>2026-04-25T07:40:05.915Z</time></trkpt><trkpt lat="44.9413694" lon="9.2112551"><ele>475.42857142857144</ele><time>2026-04-25T07:40:10.057Z</time></trkpt><trkpt lat="44.9413178" lon="9.2113103"><ele>477.1428571428571</ele><time>2026-04-25T07:40:12.983Z</time></trkpt><trkpt lat="44.9412617" lon="9.2113668"><ele>478.85714285714283</ele><time>2026-04-25T07:40:17.98Z</time></trkpt><trkpt lat="44.9411905" lon="9.2113917"><ele>480.57142857142856</ele><time>2026-04-25T07:40:21.979Z</time></trkpt><trkpt lat="44.9411286" lon="9.2114148"><ele>482.2857142857143</ele><time>2026-04-25T07:40:24.992Z</time></trkpt><trkpt lat="44.9410607" lon="9.2114578"><ele>484.0</ele><time>2026-04-25T07:40:28.983Z</time></trkpt><trkpt lat="44.9409855" lon="9.211507"><ele>484.00000000000006</ele><time>2026-04-25T07:40:32.981Z</time></trkpt><trkpt lat="44.9409059" lon="9.2115378"><ele>484.0</ele><time>2026-04-25T07:40:37.999Z</time></trkpt><trkpt lat="44.9408339" lon="9.2115522"><ele>484.0</ele><time>2026-04-25T07:40:42.985Z</time></trkpt><trkpt lat="44.9407562" lon="9.2115564"><ele>484.0</ele><time>2026-04-25T07:40:46.989Z</time></trkpt><trkpt lat="44.9406696" lon="9.2116035"><ele>484.00000000000006</ele><time>2026-04-25T07:40:50.053Z</time></trkpt><trkpt lat="44.9406055" lon="9.2116538"><ele>484.0</ele><time>2026-04-25T07:40:52.98Z</time></trkpt><trkpt lat="44.9405382" lon="9.2117194"><ele>483.83333333333337</ele><time>2026-04-25T07:40:55.987Z</time></trkpt><trkpt lat="44.9404655" lon="9.2117584"><ele>483.6666666666667</ele><time>2026-04-25T07:40:58.987Z</time></trkpt><trkpt lat="44.9403907" lon="9.211822"><ele>483.5</ele><time>2026-04-25T07:41:01.99Z</time></trkpt><trkpt lat="44.940346" lon="9.2118971"><ele>483.33333333333337</ele><time>2026-04-25T07:41:03.986Z</time></trkpt><trkpt lat="44.9402958" lon="9.2119808"><ele>483.1666666666667</ele><time>2026-04-25T07:41:06.99Z</time></trkpt><trkpt lat="44.9402314" lon="9.2120592"><ele>483.0</ele><time>2026-04-25T07:41:09.989Z</time></trkpt><trkpt lat="44.940173" lon="9.2121294"><ele>483.0</ele><time>2026-04-25T07:41:14.059Z</time></trkpt><trkpt lat="44.9401111" lon="9.2122023"><ele>483.0</ele><time>2026-04-25T07:41:16.987Z</time></trkpt><trkpt lat="44.9400362" lon="9.2122533"><ele>483.0</ele><time>2026-04-25T07:41:20.991Z</time></trkpt><trkpt lat="44.9399562" lon="9.2122909"><ele>483.0</ele><time>2026-04-25T07:41:23.986Z</time></trkpt><trkpt lat="44.9398857" lon="9.2123454"><ele>483.0</ele><time>2026-04-25T07:41:27.062Z</time></trkpt><trkpt lat="44.9398259" lon="9.2124002"><ele>483.0</ele><time>2026-04-25T07:41:29.983Z</time></trkpt><trkpt lat="44.9397546" lon="9.2124573"><ele>479.5</ele><time>2026-04-25T07:41:31.985Z</time></trkpt><trkpt lat="44.9396649" lon="9.2124989"><ele>476.0</ele><time>2026-04-25T07:41:33.988Z</time></trkpt><trkpt lat="44.9395996" lon="9.2125491"><ele>472.5</ele><time>2026-04-25T07:41:35.979Z</time></trkpt><trkpt lat="44.9395237" lon="9.2126098"><ele>469.0</ele><time>2026-04-25T07:41:38.983Z</time></trkpt><trkpt lat="44.9394426" lon="9.2126499"><ele>465.5</ele><time>2026-04-25T07:41:42.983Z</time></trkpt><trkpt lat="44.9393806" lon="9.2126835"><ele>462.0</ele><time>2026-04-25T07:41:45.984Z</time></trkpt><trkpt lat="44.9393097" lon="9.2127255"><ele>462.0</ele><time>2026-04-25T07:41:49.991Z</time></trkpt><trkpt lat="44.9392413" lon="9.212767"><ele>462.0</ele><time>2026-04-25T07:41:53.985Z</time></trkpt><trkpt lat="44.9391567" lon="9.2128116"><ele>462.0</ele><time>2026-04-25T07:41:58.986Z</time></trkpt><trkpt lat="44.9390701" lon="9.21283"><ele>462.0</ele><time>2026-04-25T07:42:01.989Z</time></trkpt><trkpt lat="44.9387271" lon="9.2128382"><ele>462.1666666666667</ele><time>2026-04-25T07:42:12.906Z</time></trkpt><trkpt lat="44.9386596" lon="9.2128736"><ele>462.33333333333337</ele><time>2026-04-25T07:42:16.981Z</time></trkpt><trkpt lat="44.938589" lon="9.2129388"><ele>462.5</ele><time>2026-04-25T07:42:20.979Z</time></trkpt><trkpt lat="44.9385267" lon="9.2129942"><ele>462.6666666666667</ele><time>2026-04-25T07:42:23.985Z</time></trkpt><trkpt lat="44.9384647" lon="9.2130323"><ele>462.83333333333337</ele><time>2026-04-25T07:42:26.986Z</time></trkpt><trkpt lat="44.9384022" lon="9.2131006"><ele>463.0</ele><time>2026-04-25T07:42:31.985Z</time></trkpt><trkpt lat="44.9383294" lon="9.2131684"><ele>462.0</ele><time>2026-04-25T07:42:34.987Z</time></trkpt><trkpt lat="44.938282" lon="9.2132352"><ele>460.99999999999994</ele><time>2026-04-25T07:42:37.982Z</time></trkpt><trkpt lat="44.9382404" lon="9.2133118"><ele>460.0</ele><time>2026-04-25T07:42:40.987Z</time></trkpt><trkpt lat="44.938205" lon="9.2133875"><ele>459.0</ele><time>2026-04-25T07:42:42.983Z</time></trkpt><trkpt lat="44.9381499" lon="9.2134538"><ele>457.99999999999994</ele><time>2026-04-25T07:42:44.985Z</time></trkpt><trkpt lat="44.9380797" lon="9.2135142"><ele>457.0</ele><time>2026-04-25T07:42:47.986Z</time></trkpt><trkpt lat="44.938018" lon="9.213536"><ele>456.0</ele><time>2026-04-25T07:42:49.991Z</time></trkpt><trkpt lat="44.9379398" lon="9.2135555"><ele>456.0</ele><time>2026-04-25T07:42:51.984Z</time></trkpt><trkpt lat="44.9378622" lon="9.2135874"><ele>456.0</ele><time>2026-04-25T07:42:53.98Z</time></trkpt><trkpt lat="44.9377971" lon="9.2136394"><ele>456.0</ele><time>2026-04-25T07:42:55.979Z</time></trkpt><trkpt lat="44.937742" lon="9.213718"><ele>456.0</ele><time>2026-04-25T07:42:57.988Z</time></trkpt><trkpt lat="44.9376878" lon="9.2137983"><ele>456.0</ele><time>2026-04-25T07:42:59.992Z</time></trkpt><trkpt lat="44.9376318" lon="9.2138579"><ele>456.0</ele><time>2026-04-25T07:43:01.993Z</time></trkpt><trkpt lat="44.937573" lon="9.2139358"><ele>455.8333333333333</ele><time>2026-04-25T07:43:05.98Z</time></trkpt><trkpt lat="44.9375131" lon="9.2139965"><ele>455.66666666666663</ele><time>2026-04-25T07:43:08.982Z</time></trkpt><trkpt lat="44.9374437" lon="9.2140572"><ele>455.5</ele><time>2026-04-25T07:43:12.981Z</time></trkpt><trkpt lat="44.9373674" lon="9.2140878"><ele>455.3333333333333</ele><time>2026-04-25T07:43:16.98Z</time></trkpt><trkpt lat="44.937312" lon="9.214134"><ele>455.16666666666663</ele><time>2026-04-25T07:43:19.985Z</time></trkpt><trkpt lat="44.9372427" lon="9.2141879"><ele>455.0</ele><time>2026-04-25T07:43:22.998Z</time></trkpt><trkpt lat="44.9371688" lon="9.2142453"><ele>455.0</ele><time>2026-04-25T07:43:25.988Z</time></trkpt><trkpt lat="44.9371097" lon="9.2142898"><ele>455.0</ele><time>2026-04-25T07:43:27.983Z</time></trkpt><trkpt lat="44.937053" lon="9.2143455"><ele>455.0</ele><time>2026-04-25T07:43:29.99Z</time></trkpt><trkpt lat="44.9369949" lon="9.2144009"><ele>455.0</ele><time>2026-04-25T07:43:32.059Z</time></trkpt><trkpt lat="44.936944" lon="9.214465"><ele>455.0</ele><time>2026-04-25T07:43:35.055Z</time></trkpt><trkpt lat="44.9368841" lon="9.2145215"><ele>455.0</ele><time>2026-04-25T07:43:37.985Z</time></trkpt><trkpt lat="44.9368183" lon="9.2145732"><ele>455.0</ele><time>2026-04-25T07:43:40.983Z</time></trkpt><trkpt lat="44.9367523" lon="9.2146369"><ele>455.2857142857143</ele><time>2026-04-25T07:43:43.988Z</time></trkpt><trkpt lat="44.9366989" lon="9.2147223"><ele>455.57142857142856</ele><time>2026-04-25T07:43:47.986Z</time></trkpt><trkpt lat="44.9366554" lon="9.2148022"><ele>455.8571428571429</ele><time>2026-04-25T07:43:51.981Z</time></trkpt><trkpt lat="44.936608" lon="9.2149056"><ele>456.14285714285717</ele><time>2026-04-25T07:43:55.987Z</time></trkpt><trkpt lat="44.9365754" lon="9.2149941"><ele>456.42857142857144</ele><time>2026-04-25T07:43:58.988Z</time></trkpt><trkpt lat="44.9365372" lon="9.2150654"><ele>456.7142857142858</ele><time>2026-04-25T07:44:01.991Z</time></trkpt><trkpt lat="44.936494" lon="9.2151431"><ele>457.00000000000006</ele><time>2026-04-25T07:44:05.984Z</time></trkpt><trkpt lat="44.9364401" lon="9.2152281"><ele>457.0</ele><time>2026-04-25T07:44:09.985Z</time></trkpt><trkpt lat="44.9363371" lon="9.2155992"><ele>457.0</ele><time>2026-04-25T07:44:19.912Z</time></trkpt><trkpt lat="44.9363445" lon="9.2156932"><ele>457.0</ele><time>2026-04-25T07:44:21.989Z</time></trkpt><trkpt lat="44.9363071" lon="9.2157724"><ele>457.0</ele><time>2026-04-25T07:44:23.989Z</time></trkpt><trkpt lat="44.9362485" lon="9.2158441"><ele>456.75</ele><time>2026-04-25T07:44:26.984Z</time></trkpt><trkpt lat="44.9361866" lon="9.215882"><ele>456.5</ele><time>2026-04-25T07:44:29.98Z</time></trkpt><trkpt lat="44.9361191" lon="9.2159206"><ele>456.25</ele><time>2026-04-25T07:44:32.979Z</time></trkpt><trkpt lat="44.9360528" lon="9.215959"><ele>456.0</ele><time>2026-04-25T07:44:35.979Z</time></trkpt><trkpt lat="44.9358045" lon="9.2161864"><ele>456.75</ele><time>2026-04-25T07:44:45.908Z</time></trkpt><trkpt lat="44.9355708" lon="9.2160738"><ele>457.5</ele><time>2026-04-25T07:44:55.9Z</time></trkpt><trkpt lat="44.9355003" lon="9.2160629"><ele>458.25</ele><time>2026-04-25T07:45:01.979Z</time></trkpt><trkpt lat="44.9354353" lon="9.2161155"><ele>459.0</ele><time>2026-04-25T07:45:06.98Z</time></trkpt><trkpt lat="44.9354026" lon="9.2162202"><ele>459.0</ele><time>2026-04-25T07:45:10.98Z</time></trkpt><trkpt lat="44.9353706" lon="9.2163062"><ele>459.0</ele><time>2026-04-25T07:45:12.981Z</time></trkpt><trkpt lat="44.9353259" lon="9.2164122"><ele>459.0</ele><time>2026-04-25T07:45:16.059Z</time></trkpt><trkpt lat="44.9351558" lon="9.2166755"><ele>459.0</ele><time>2026-04-25T07:45:24.91Z</time></trkpt><trkpt lat="44.935099" lon="9.2167533"><ele>459.5</ele><time>2026-04-25T07:45:27.979Z</time></trkpt><trkpt lat="44.9350439" lon="9.216798"><ele>460.0</ele><time>2026-04-25T07:45:29.979Z</time></trkpt><trkpt lat="44.9349874" lon="9.2168373"><ele>460.5</ele><time>2026-04-25T07:45:31.98Z</time></trkpt><trkpt lat="44.934912" lon="9.216882"><ele>461.0</ele><time>2026-04-25T07:45:33.977Z</time></trkpt><trkpt lat="44.9348381" lon="9.2169386"><ele>461.5</ele><time>2026-04-25T07:45:35.972Z</time></trkpt><trkpt lat="44.9347707" lon="9.2170152"><ele>462.0</ele><time>2026-04-25T07:45:37.985Z</time></trkpt><trkpt lat="44.9347094" lon="9.2170818"><ele>462.0</ele><time>2026-04-25T07:45:39.984Z</time></trkpt><trkpt lat="44.9346425" lon="9.2171534"><ele>462.0</ele><time>2026-04-25T07:45:43.045Z</time></trkpt><trkpt lat="44.9345722" lon="9.2172021"><ele>462.0</ele><time>2026-04-25T07:45:45.985Z</time></trkpt><trkpt lat="44.9343234" lon="9.2172906"><ele>462.0</ele><time>2026-04-25T07:45:55.913Z</time></trkpt><trkpt lat="44.9340319" lon="9.2173475"><ele>463.0</ele><time>2026-04-25T07:46:06.9Z</time></trkpt><trkpt lat="44.9338291" lon="9.217397"><ele>464.0</ele><time>2026-04-25T07:46:16.907Z</time></trkpt><trkpt lat="44.933661" lon="9.2174825"><ele>465.0</ele><time>2026-04-25T07:46:25.906Z</time></trkpt><trkpt lat="44.9333886" lon="9.2175897"><ele>466.0</ele><time>2026-04-25T07:46:35.909Z</time></trkpt><trkpt lat="44.933335" lon="9.2175428"><ele>467.0</ele><time>2026-04-25T07:46:40.984Z</time></trkpt><trkpt lat="44.9332591" lon="9.217541"><ele>468.0</ele><time>2026-04-25T07:46:43.978Z</time></trkpt><trkpt lat="44.9331891" lon="9.2175295"><ele>469.0</ele><time>2026-04-25T07:46:46.973Z</time></trkpt><trkpt lat="44.9331166" lon="9.2175159"><ele>470.0</ele><time>2026-04-25T07:46:49.98Z</time></trkpt><trkpt lat="44.9330451" lon="9.2175028"><ele>471.0</ele><time>2026-04-25T07:46:52.972Z</time></trkpt><trkpt lat="44.9329724" lon="9.2174823"><ele>472.0</ele><time>2026-04-25T07:46:55.978Z</time></trkpt><trkpt lat="44.9329015" lon="9.2174484"><ele>472.00000000000006</ele><time>2026-04-25T07:46:58.978Z</time></trkpt><trkpt lat="44.932822" lon="9.2174166"><ele>472.0</ele><time>2026-04-25T07:47:01.977Z</time></trkpt><trkpt lat="44.9327433" lon="9.2174148"><ele>472.0</ele><time>2026-04-25T07:47:04.983Z</time></trkpt><trkpt lat="44.9326812" lon="9.2174549"><ele>472.0</ele><time>2026-04-25T07:47:08.982Z</time></trkpt><trkpt lat="44.9326677" lon="9.2175595"><ele>472.00000000000006</ele><time>2026-04-25T07:47:12.978Z</time></trkpt><trkpt lat="44.9326756" lon="9.2176689"><ele>472.0</ele><time>2026-04-25T07:47:15.984Z</time></trkpt><trkpt lat="44.9326881" lon="9.2177634"><ele>472.0</ele><time>2026-04-25T07:47:18.984Z</time></trkpt><trkpt lat="44.9326896" lon="9.2178611"><ele>472.0</ele><time>2026-04-25T07:47:21.984Z</time></trkpt><trkpt lat="44.9326759" lon="9.217981"><ele>472.0</ele><time>2026-04-25T07:47:24.99Z</time></trkpt><trkpt lat="44.932636" lon="9.2183946"><ele>471.33333333333337</ele><time>2026-04-25T07:47:33.942Z</time></trkpt><trkpt lat="44.9326308" lon="9.2184896"><ele>470.6666666666667</ele><time>2026-04-25T07:47:37.979Z</time></trkpt><trkpt lat="44.9325763" lon="9.2185706"><ele>470.0</ele><time>2026-04-25T07:47:40.984Z</time></trkpt><trkpt lat="44.932512" lon="9.2185195"><ele>469.33333333333337</ele><time>2026-04-25T07:47:43.983Z</time></trkpt><trkpt lat="44.9324748" lon="9.2184055"><ele>468.6666666666667</ele><time>2026-04-25T07:47:46.974Z</time></trkpt><trkpt lat="44.9324543" lon="9.2182948"><ele>468.0</ele><time>2026-04-25T07:47:49.981Z</time></trkpt><trkpt lat="44.9323088" lon="9.2178268"><ele>473.5</ele><time>2026-04-25T07:48:00.908Z</time></trkpt><trkpt lat="44.9322877" lon="9.2174427"><ele>479.0</ele><time>2026-04-25T07:48:10.912Z</time></trkpt><trkpt lat="44.9320305" lon="9.2170302"><ele>478.99999999999994</ele><time>2026-04-25T07:48:20.957Z</time></trkpt><trkpt lat="44.9319824" lon="9.2169363"><ele>479.0</ele><time>2026-04-25T07:48:24.984Z</time></trkpt><trkpt lat="44.9319242" lon="9.2168376"><ele>479.0</ele><time>2026-04-25T07:48:27.983Z</time></trkpt><trkpt lat="44.9318518" lon="9.2167589"><ele>479.0</ele><time>2026-04-25T07:48:30.994Z</time></trkpt><trkpt lat="44.9317922" lon="9.2167251"><ele>478.99999999999994</ele><time>2026-04-25T07:48:32.977Z</time></trkpt><trkpt lat="44.9317155" lon="9.2166995"><ele>479.0</ele><time>2026-04-25T07:48:35.982Z</time></trkpt><trkpt lat="44.9316376" lon="9.2166621"><ele>483.0</ele><time>2026-04-25T07:48:38.975Z</time></trkpt><trkpt lat="44.9315678" lon="9.2165821"><ele>487.0</ele><time>2026-04-25T07:48:41.981Z</time></trkpt><trkpt lat="44.9313351" lon="9.2163458"><ele>491.0</ele><time>2026-04-25T07:48:50.904Z</time></trkpt><trkpt lat="44.9310381" lon="9.216447"><ele>496.5</ele><time>2026-04-25T07:49:00.924Z</time></trkpt><trkpt lat="44.9306478" lon="9.2167423"><ele>502.0</ele><time>2026-04-25T07:49:10.903Z</time></trkpt><trkpt lat="44.9306589" lon="9.2168577"><ele>502.0</ele><time>2026-04-25T07:49:12.982Z</time></trkpt><trkpt lat="44.9305922" lon="9.2168815"><ele>502.0</ele><time>2026-04-25T07:49:16.047Z</time></trkpt><trkpt lat="44.9302831" lon="9.2170595"><ele>502.0</ele><time>2026-04-25T07:49:24.901Z</time></trkpt><trkpt lat="44.9300117" lon="9.2171973"><ele>502.0</ele><time>2026-04-25T07:49:33.911Z</time></trkpt><trkpt lat="44.9302847" lon="9.2170048"><ele>502.0</ele><time>2026-04-25T07:49:43.959Z</time></trkpt><trkpt lat="44.9297155" lon="9.2173248"><ele>502.0</ele><time>2026-04-25T07:49:44.989Z</time></trkpt><trkpt lat="44.9293738" lon="9.217185"><ele>502.0</ele><time>2026-04-25T07:49:53.897Z</time></trkpt><trkpt lat="44.9290863" lon="9.2171745"><ele>504.33333333333337</ele><time>2026-04-25T07:50:05.901Z</time></trkpt><trkpt lat="44.9288298" lon="9.2173374"><ele>506.66666666666663</ele><time>2026-04-25T07:50:15.899Z</time></trkpt><trkpt lat="44.9287791" lon="9.2172844"><ele>509.0</ele><time>2026-04-25T07:50:16.973Z</time></trkpt><trkpt lat="44.9285168" lon="9.2174624"><ele>518.0</ele><time>2026-04-25T07:50:25.901Z</time></trkpt><trkpt lat="44.9282819" lon="9.2175922"><ele>527.0</ele><time>2026-04-25T07:50:36.901Z</time></trkpt><trkpt lat="44.9279515" lon="9.2177821"><ele>527.0</ele><time>2026-04-25T07:50:47.904Z</time></trkpt><trkpt lat="44.9282117" lon="9.2176137"><ele>527.0</ele><time>2026-04-25T07:50:58.907Z</time></trkpt><trkpt lat="44.9276258" lon="9.2178909"><ele>532.5</ele><time>2026-04-25T07:50:59.976Z</time></trkpt><trkpt lat="44.9273083" lon="9.2179834"><ele>538.0</ele><time>2026-04-25T07:51:08.954Z</time></trkpt><trkpt lat="44.9271007" lon="9.2179539"><ele>538.0</ele><time>2026-04-25T07:51:18.924Z</time></trkpt><trkpt lat="44.9270404" lon="9.217886"><ele>538.0</ele><time>2026-04-25T07:51:21.002Z</time></trkpt><trkpt lat="44.9268237" lon="9.2176571"><ele>538.0</ele><time>2026-04-25T07:51:29.905Z</time></trkpt><trkpt lat="44.9267933" lon="9.2175176"><ele>538.0</ele><time>2026-04-25T07:51:31.98Z</time></trkpt><trkpt lat="44.9267302" lon="9.2174192"><ele>538.0</ele><time>2026-04-25T07:51:33.987Z</time></trkpt><trkpt lat="44.9266603" lon="9.2173323"><ele>538.0</ele><time>2026-04-25T07:51:35.978Z</time></trkpt><trkpt lat="44.9265986" lon="9.2172335"><ele>538.0</ele><time>2026-04-25T07:51:37.974Z</time></trkpt><trkpt lat="44.9265273" lon="9.2171568"><ele>538.0</ele><time>2026-04-25T07:51:39.977Z</time></trkpt><trkpt lat="44.9264385" lon="9.2170954"><ele>536.1999999999999</ele><time>2026-04-25T07:51:41.976Z</time></trkpt><trkpt lat="44.9263461" lon="9.2170531"><ele>534.4</ele><time>2026-04-25T07:51:43.986Z</time></trkpt><trkpt lat="44.9262642" lon="9.2169953"><ele>532.5999999999999</ele><time>2026-04-25T07:51:45.991Z</time></trkpt><trkpt lat="44.9261834" lon="9.2169224"><ele>530.8</ele><time>2026-04-25T07:51:47.982Z</time></trkpt><trkpt lat="44.9261235" lon="9.2168658"><ele>529.0</ele><time>2026-04-25T07:51:49.978Z</time></trkpt><trkpt lat="44.9260519" lon="9.2167801"><ele>529.0</ele><time>2026-04-25T07:51:52.97Z</time></trkpt><trkpt lat="44.9259932" lon="9.2167019"><ele>529.0</ele><time>2026-04-25T07:51:55.982Z</time></trkpt><trkpt lat="44.925938" lon="9.2166234"><ele>529.0</ele><time>2026-04-25T07:51:58.977Z</time></trkpt><trkpt lat="44.9258804" lon="9.2165313"><ele>529.0</ele><time>2026-04-25T07:52:01.982Z</time></trkpt><trkpt lat="44.9258411" lon="9.2164448"><ele>529.0</ele><time>2026-04-25T07:52:03.982Z</time></trkpt><trkpt lat="44.9258107" lon="9.216359"><ele>529.0</ele><time>2026-04-25T07:52:05.984Z</time></trkpt><trkpt lat="44.9257736" lon="9.2162845"><ele>529.0</ele><time>2026-04-25T07:52:07.979Z</time></trkpt><trkpt lat="44.9257376" lon="9.216207"><ele>529.0</ele><time>2026-04-25T07:52:09.985Z</time></trkpt><trkpt lat="44.9256665" lon="9.2161429"><ele>529.0</ele><time>2026-04-25T07:52:12.983Z</time></trkpt><trkpt lat="44.9255945" lon="9.2161174"><ele>529.0</ele><time>2026-04-25T07:52:15.98Z</time></trkpt><trkpt lat="44.9255132" lon="9.2161064"><ele>529.0</ele><time>2026-04-25T07:52:18.986Z</time></trkpt><trkpt lat="44.9254351" lon="9.2161177"><ele>529.0</ele><time>2026-04-25T07:52:21.985Z</time></trkpt><trkpt lat="44.9253621" lon="9.2161369"><ele>529.0</ele><time>2026-04-25T07:52:23.989Z</time></trkpt><trkpt lat="44.9252703" lon="9.2161384"><ele>529.0</ele><time>2026-04-25T07:52:25.982Z</time></trkpt><trkpt lat="44.9251747" lon="9.2161462"><ele>529.0</ele><time>2026-04-25T07:52:27.985Z</time></trkpt><trkpt lat="44.925098" lon="9.216152"><ele>529.0</ele><time>2026-04-25T07:52:29.982Z</time></trkpt><trkpt lat="44.9250331" lon="9.2161551"><ele>529.0</ele><time>2026-04-25T07:52:31.982Z</time></trkpt><trkpt lat="44.9246765" lon="9.2160951"><ele>526.0</ele><time>2026-04-25T07:52:41.903Z</time></trkpt><trkpt lat="44.9245995" lon="9.2160648"><ele>523.0</ele><time>2026-04-25T07:52:45.973Z</time></trkpt><trkpt lat="44.9241219" lon="9.2160224"><ele>521.0</ele><time>2026-04-25T07:52:54.898Z</time></trkpt><trkpt lat="44.9240564" lon="9.2159951"><ele>519.0</ele><time>2026-04-25T07:52:56.983Z</time></trkpt><trkpt lat="44.9239655" lon="9.2159786"><ele>517.0</ele><time>2026-04-25T07:52:58.977Z</time></trkpt><trkpt lat="44.923866" lon="9.2159846"><ele>515.0</ele><time>2026-04-25T07:53:00.972Z</time></trkpt><trkpt lat="44.923766" lon="9.215983"><ele>513.0</ele><time>2026-04-25T07:53:02.969Z</time></trkpt><trkpt lat="44.9236492" lon="9.2160072"><ele>513.0</ele><time>2026-04-25T07:53:04.976Z</time></trkpt><trkpt lat="44.9235344" lon="9.2160252"><ele>513.0</ele><time>2026-04-25T07:53:06.982Z</time></trkpt><trkpt lat="44.923439" lon="9.2160404"><ele>513.0</ele><time>2026-04-25T07:53:08.985Z</time></trkpt><trkpt lat="44.9233523" lon="9.2160655"><ele>513.0</ele><time>2026-04-25T07:53:10.985Z</time></trkpt><trkpt lat="44.9232636" lon="9.2160968"><ele>513.0</ele><time>2026-04-25T07:53:12.978Z</time></trkpt><trkpt lat="44.9231852" lon="9.2161129"><ele>511.0</ele><time>2026-04-25T07:53:14.976Z</time></trkpt><trkpt lat="44.9230934" lon="9.2161257"><ele>508.99999999999994</ele><time>2026-04-25T07:53:16.977Z</time></trkpt><trkpt lat="44.9229956" lon="9.216123"><ele>506.99999999999994</ele><time>2026-04-25T07:53:18.978Z</time></trkpt><trkpt lat="44.9228892" lon="9.2161181"><ele>505.0</ele><time>2026-04-25T07:53:20.974Z</time></trkpt><trkpt lat="44.9227701" lon="9.2161236"><ele>503.0</ele><time>2026-04-25T07:53:22.981Z</time></trkpt><trkpt lat="44.9226899" lon="9.2161348"><ele>502.99999999999994</ele><time>2026-04-25T07:53:24.989Z</time></trkpt><trkpt lat="44.922619" lon="9.2161402"><ele>503.0</ele><time>2026-04-25T07:53:27.987Z</time></trkpt><trkpt lat="44.9226021" lon="9.2160515"><ele>503.0</ele><time>2026-04-25T07:53:32.973Z</time></trkpt><trkpt lat="44.922671" lon="9.2159936"><ele>503.0</ele><time>2026-04-25T07:53:36.985Z</time></trkpt><trkpt lat="44.9227232" lon="9.2159228"><ele>502.99999999999994</ele><time>2026-04-25T07:53:39.982Z</time></trkpt><trkpt lat="44.9227891" lon="9.2158547"><ele>503.0</ele><time>2026-04-25T07:53:42.977Z</time></trkpt><trkpt lat="44.9229717" lon="9.2155439"><ele>500.3333333333333</ele><time>2026-04-25T07:53:51.896Z</time></trkpt><trkpt lat="44.9230131" lon="9.2154709"><ele>497.66666666666663</ele><time>2026-04-25T07:53:53.974Z</time></trkpt><trkpt lat="44.9230604" lon="9.2153732"><ele>495.0</ele><time>2026-04-25T07:53:58.043Z</time></trkpt><trkpt lat="44.9231035" lon="9.2152856"><ele>492.33333333333337</ele><time>2026-04-25T07:54:01.978Z</time></trkpt><trkpt lat="44.9231737" lon="9.2152098"><ele>489.6666666666667</ele><time>2026-04-25T07:54:04.979Z</time></trkpt><trkpt lat="44.9232319" lon="9.2151519"><ele>487.0</ele><time>2026-04-25T07:54:07.976Z</time></trkpt><trkpt lat="44.9232952" lon="9.215084"><ele>487.0</ele><time>2026-04-25T07:54:10.976Z</time></trkpt><trkpt lat="44.923358" lon="9.2149935"><ele>487.0</ele><time>2026-04-25T07:54:13.984Z</time></trkpt><trkpt lat="44.923396" lon="9.2149152"><ele>487.0</ele><time>2026-04-25T07:54:15.977Z</time></trkpt><trkpt lat="44.9234534" lon="9.2148457"><ele>487.0</ele><time>2026-04-25T07:54:18.974Z</time></trkpt><trkpt lat="44.9237601" lon="9.2148178"><ele>485.5</ele><time>2026-04-25T07:54:28.908Z</time></trkpt><trkpt lat="44.9240193" lon="9.2148815"><ele>484.0</ele><time>2026-04-25T07:54:38.902Z</time></trkpt><trkpt lat="44.924249" lon="9.2146766"><ele>484.00000000000006</ele><time>2026-04-25T07:54:48.902Z</time></trkpt><trkpt lat="44.9243215" lon="9.2146395"><ele>484.0</ele><time>2026-04-25T07:54:53.974Z</time></trkpt><trkpt lat="44.9243937" lon="9.2145909"><ele>484.0</ele><time>2026-04-25T07:54:56.976Z</time></trkpt><trkpt lat="44.9244585" lon="9.2145367"><ele>484.0</ele><time>2026-04-25T07:55:00.974Z</time></trkpt><trkpt lat="44.9245393" lon="9.2145594"><ele>484.00000000000006</ele><time>2026-04-25T07:55:06.028Z</time></trkpt><trkpt lat="44.9246186" lon="9.2145935"><ele>484.0</ele><time>2026-04-25T07:55:08.978Z</time></trkpt><trkpt lat="44.9249344" lon="9.2145171"><ele>484.0</ele><time>2026-04-25T07:55:18.905Z</time></trkpt><trkpt lat="44.9250418" lon="9.2143177"><ele>484.0</ele><time>2026-04-25T07:55:28.896Z</time></trkpt><trkpt lat="44.924988" lon="9.2142423"><ele>484.0</ele><time>2026-04-25T07:55:39.978Z</time></trkpt><trkpt lat="44.9249621" lon="9.214154"><ele>484.0</ele><time>2026-04-25T07:55:45.973Z</time></trkpt><trkpt lat="44.9248991" lon="9.2140926"><ele>484.0</ele><time>2026-04-25T07:55:51.972Z</time></trkpt><trkpt lat="44.9248726" lon="9.2139908"><ele>482.0</ele><time>2026-04-25T07:56:03.978Z</time></trkpt><trkpt lat="44.9248359" lon="9.2139031"><ele>479.99999999999994</ele><time>2026-04-25T07:56:07.987Z</time></trkpt><trkpt lat="44.9247906" lon="9.2138138"><ele>478.0</ele><time>2026-04-25T07:56:12.98Z</time></trkpt><trkpt lat="44.9247554" lon="9.2137222"><ele>476.0</ele><time>2026-04-25T07:56:17.977Z</time></trkpt><trkpt lat="44.9247183" lon="9.2136329"><ele>473.99999999999994</ele><time>2026-04-25T07:56:22.98Z</time></trkpt><trkpt lat="44.9246907" lon="9.2135408"><ele>472.0</ele><time>2026-04-25T07:56:28.977Z</time></trkpt><trkpt lat="44.9246597" lon="9.2134473"><ele>470.0</ele><time>2026-04-25T07:56:33.988Z</time></trkpt><trkpt lat="44.9246321" lon="9.2133554"><ele>470.0</ele><time>2026-04-25T07:56:38.973Z</time></trkpt><trkpt lat="44.9245974" lon="9.2132787"><ele>470.0</ele><time>2026-04-25T07:56:45.975Z</time></trkpt><trkpt lat="44.9245596" lon="9.2131908"><ele>470.0</ele><time>2026-04-25T07:56:51.984Z</time></trkpt><trkpt lat="44.9244921" lon="9.2131141"><ele>470.0</ele><time>2026-04-25T07:57:08.034Z</time></trkpt><trkpt lat="44.9243564" lon="9.212951"><ele>470.0</ele><time>2026-04-25T07:57:25.97Z</time></trkpt><trkpt lat="44.9243569" lon="9.2128456"><ele>467.99999999999994</ele><time>2026-04-25T07:57:34.976Z</time></trkpt><trkpt lat="44.924359" lon="9.2126517"><ele>466.0</ele><time>2026-04-25T07:58:11.891Z</time></trkpt><trkpt lat="44.9243429" lon="9.2125642"><ele>464.0</ele><time>2026-04-25T07:58:44.193Z</time></trkpt><trkpt lat="44.9243105" lon="9.2124715"><ele>462.0</ele><time>2026-04-25T07:58:54.278Z</time></trkpt><trkpt lat="44.9242786" lon="9.2123499"><ele>459.99999999999994</ele><time>2026-04-25T07:59:01.714Z</time></trkpt><trkpt lat="44.9242448" lon="9.2122466"><ele>458.0</ele><time>2026-04-25T07:59:29.229Z</time></trkpt><trkpt lat="44.9242307" lon="9.2121597"><ele>441.5</ele><time>2026-04-25T07:59:31.752Z</time></trkpt><trkpt lat="44.924102" lon="9.2117847"><ele>425.0</ele><time>2026-04-25T07:59:42.898Z</time></trkpt><trkpt lat="44.9241971" lon="9.2122288"><ele>425.0</ele><time>2026-04-25T07:59:52.899Z</time></trkpt><trkpt lat="44.9240099" lon="9.2115064"><ele>425.0</ele><time>2026-04-25T07:59:53.968Z</time></trkpt><trkpt lat="44.9241752" lon="9.2121417"><ele>410.0</ele><time>2026-04-25T08:00:03.897Z</time></trkpt><trkpt lat="44.9239226" lon="9.2112952"><ele>410.0</ele><time>2026-04-25T08:00:04.974Z</time></trkpt><trkpt lat="44.9239462" lon="9.2112009"><ele>410.0</ele><time>2026-04-25T08:00:12.97Z</time></trkpt><trkpt lat="44.9239413" lon="9.21111"><ele>410.0</ele><time>2026-04-25T08:00:16.972Z</time></trkpt><trkpt lat="44.9239061" lon="9.211024"><ele>410.0</ele><time>2026-04-25T08:00:22.977Z</time></trkpt><trkpt lat="44.9238833" lon="9.2109311"><ele>410.0</ele><time>2026-04-25T08:00:28.982Z</time></trkpt><trkpt lat="44.9238577" lon="9.2108447"><ele>410.0</ele><time>2026-04-25T08:00:35.982Z</time></trkpt><trkpt lat="44.9238347" lon="9.2107593"><ele>410.0</ele><time>2026-04-25T08:00:39.991Z</time></trkpt><trkpt lat="44.9238186" lon="9.2106626"><ele>407.5714285714286</ele><time>2026-04-25T08:00:43.975Z</time></trkpt><trkpt lat="44.9237909" lon="9.2105708"><ele>405.1428571428571</ele><time>2026-04-25T08:00:47.98Z</time></trkpt><trkpt lat="44.923746" lon="9.2104876"><ele>402.7142857142857</ele><time>2026-04-25T08:00:53.977Z</time></trkpt><trkpt lat="44.9236983" lon="9.2104078"><ele>400.28571428571433</ele><time>2026-04-25T08:00:59.982Z</time></trkpt><trkpt lat="44.9236476" lon="9.2103511"><ele>397.8571428571429</ele><time>2026-04-25T08:01:04.974Z</time></trkpt><trkpt lat="44.9236018" lon="9.2102782"><ele>395.42857142857144</ele><time>2026-04-25T08:01:08.99Z</time></trkpt><trkpt lat="44.923561" lon="9.2102085"><ele>393.0</ele><time>2026-04-25T08:01:13.98Z</time></trkpt><trkpt lat="44.9235131" lon="9.210147"><ele>393.00000000000006</ele><time>2026-04-25T08:01:18.98Z</time></trkpt><trkpt lat="44.9234783" lon="9.2100569"><ele>393.0</ele><time>2026-04-25T08:01:22.979Z</time></trkpt><trkpt lat="44.9234476" lon="9.2099775"><ele>393.0</ele><time>2026-04-25T08:01:25.982Z</time></trkpt><trkpt lat="44.9234317" lon="9.2098779"><ele>393.0</ele><time>2026-04-25T08:01:29.976Z</time></trkpt><trkpt lat="44.923406" lon="9.2097879"><ele>393.0</ele><time>2026-04-25T08:01:35.977Z</time></trkpt><trkpt lat="44.9233812" lon="9.2097035"><ele>393.00000000000006</ele><time>2026-04-25T08:01:42.981Z</time></trkpt><trkpt lat="44.9233767" lon="9.2096069"><ele>393.0</ele><time>2026-04-25T08:01:48.976Z</time></trkpt><trkpt lat="44.9233965" lon="9.2095073"><ele>390.0</ele><time>2026-04-25T08:01:53.978Z</time></trkpt><trkpt lat="44.9234379" lon="9.2094228"><ele>387.0</ele><time>2026-04-25T08:01:57.975Z</time></trkpt><trkpt lat="44.9234974" lon="9.2093003"><ele>384.0</ele><time>2026-04-25T08:02:31.977Z</time></trkpt><trkpt lat="44.9235227" lon="9.2091983"><ele>381.0</ele><time>2026-04-25T08:02:34.978Z</time></trkpt><trkpt lat="44.9235659" lon="9.2091196"><ele>378.0</ele><time>2026-04-25T08:02:37.97Z</time></trkpt><trkpt lat="44.9235717" lon="9.2090262"><ele>375.0</ele><time>2026-04-25T08:02:39.971Z</time></trkpt><trkpt lat="44.9236059" lon="9.2089116"><ele>371.8</ele><time>2026-04-25T08:02:41.968Z</time></trkpt><trkpt lat="44.9236751" lon="9.2087897"><ele>368.6</ele><time>2026-04-25T08:02:43.972Z</time></trkpt><trkpt lat="44.9237327" lon="9.2086415"><ele>365.4</ele><time>2026-04-25T08:02:45.973Z</time></trkpt><trkpt lat="44.923787" lon="9.2085204"><ele>362.2</ele><time>2026-04-25T08:02:47.974Z</time></trkpt><trkpt lat="44.9238139" lon="9.2084245"><ele>359.0</ele><time>2026-04-25T08:02:50.047Z</time></trkpt><trkpt lat="44.923837" lon="9.2083371"><ele>359.0</ele><time>2026-04-25T08:02:51.976Z</time></trkpt><trkpt lat="44.9238468" lon="9.2082219"><ele>359.0</ele><time>2026-04-25T08:02:53.976Z</time></trkpt><trkpt lat="44.923873" lon="9.2080993"><ele>359.0</ele><time>2026-04-25T08:02:55.982Z</time></trkpt><trkpt lat="44.9239272" lon="9.2079874"><ele>359.0</ele><time>2026-04-25T08:02:57.97Z</time></trkpt><trkpt lat="44.923985" lon="9.2078775"><ele>359.0</ele><time>2026-04-25T08:02:59.985Z</time></trkpt><trkpt lat="44.9240512" lon="9.2077791"><ele>357.8571428571429</ele><time>2026-04-25T08:03:01.983Z</time></trkpt><trkpt lat="44.9240871" lon="9.2076896"><ele>356.7142857142857</ele><time>2026-04-25T08:03:03.985Z</time></trkpt><trkpt lat="44.9241" lon="9.207602"><ele>355.57142857142856</ele><time>2026-04-25T08:03:05.985Z</time></trkpt><trkpt lat="44.9241175" lon="9.207503"><ele>354.42857142857144</ele><time>2026-04-25T08:03:07.982Z</time></trkpt><trkpt lat="44.9241411" lon="9.2073821"><ele>353.2857142857143</ele><time>2026-04-25T08:03:10.972Z</time></trkpt><trkpt lat="44.9241706" lon="9.2072979"><ele>352.14285714285717</ele><time>2026-04-25T08:03:12.977Z</time></trkpt><trkpt lat="44.9242153" lon="9.2072101"><ele>351.0</ele><time>2026-04-25T08:03:14.987Z</time></trkpt><trkpt lat="44.9242628" lon="9.2071346"><ele>348.8333333333333</ele><time>2026-04-25T08:03:17.972Z</time></trkpt><trkpt lat="44.9243317" lon="9.2071085"><ele>346.6666666666667</ele><time>2026-04-25T08:03:19.977Z</time></trkpt><trkpt lat="44.9244028" lon="9.2070763"><ele>344.5</ele><time>2026-04-25T08:03:21.977Z</time></trkpt><trkpt lat="44.9244906" lon="9.2070138"><ele>342.33333333333337</ele><time>2026-04-25T08:03:24.976Z</time></trkpt><trkpt lat="44.924558" lon="9.2069528"><ele>340.1666666666667</ele><time>2026-04-25T08:03:26.978Z</time></trkpt><trkpt lat="44.924622" lon="9.2068652"><ele>338.0</ele><time>2026-04-25T08:03:29.985Z</time></trkpt><trkpt lat="44.9246589" lon="9.206792"><ele>338.0</ele><time>2026-04-25T08:03:31.97Z</time></trkpt><trkpt lat="44.9247004" lon="9.2067185"><ele>338.0</ele><time>2026-04-25T08:03:33.977Z</time></trkpt><trkpt lat="44.9247443" lon="9.2066539"><ele>338.0</ele><time>2026-04-25T08:03:36.975Z</time></trkpt><trkpt lat="44.9248218" lon="9.2065973"><ele>338.0</ele><time>2026-04-25T08:03:40.976Z</time></trkpt><trkpt lat="44.9248642" lon="9.2065296"><ele>338.0</ele><time>2026-04-25T08:03:42.979Z</time></trkpt><trkpt lat="44.9249281" lon="9.2064283"><ele>338.0</ele><time>2026-04-25T08:03:45.981Z</time></trkpt><trkpt lat="44.9249795" lon="9.2063506"><ele>336.1666666666667</ele><time>2026-04-25T08:03:47.969Z</time></trkpt><trkpt lat="44.9250252" lon="9.2062551"><ele>334.33333333333337</ele><time>2026-04-25T08:03:50.975Z</time></trkpt><trkpt lat="44.9250869" lon="9.2061451"><ele>332.5</ele><time>2026-04-25T08:03:53.979Z</time></trkpt><trkpt lat="44.9251326" lon="9.2060769"><ele>330.6666666666667</ele><time>2026-04-25T08:03:55.981Z</time></trkpt><trkpt lat="44.9251949" lon="9.205986"><ele>328.8333333333333</ele><time>2026-04-25T08:03:57.976Z</time></trkpt><trkpt lat="44.925229" lon="9.2058945"><ele>327.0</ele><time>2026-04-25T08:03:59.977Z</time></trkpt><trkpt lat="44.9251787" lon="9.2058075"><ele>326.8333333333333</ele><time>2026-04-25T08:04:04.988Z</time></trkpt><trkpt lat="44.9251345" lon="9.2057416"><ele>326.6666666666667</ele><time>2026-04-25T08:04:08.045Z</time></trkpt><trkpt lat="44.9250818" lon="9.2056891"><ele>326.5</ele><time>2026-04-25T08:04:10.977Z</time></trkpt><trkpt lat="44.9250098" lon="9.2056605"><ele>326.33333333333337</ele><time>2026-04-25T08:04:13.983Z</time></trkpt><trkpt lat="44.9249177" lon="9.2056345"><ele>326.1666666666667</ele><time>2026-04-25T08:04:16.975Z</time></trkpt><trkpt lat="44.9248336" lon="9.2056081"><ele>326.0</ele><time>2026-04-25T08:04:20.026Z</time></trkpt><trkpt lat="44.9247484" lon="9.2055816"><ele>326.0</ele><time>2026-04-25T08:04:22.981Z</time></trkpt><trkpt lat="44.9246812" lon="9.2055734"><ele>326.0</ele><time>2026-04-25T08:04:26.978Z</time></trkpt><trkpt lat="44.92463" lon="9.205519"><ele>326.0</ele><time>2026-04-25T08:04:37.904Z</time></trkpt><trkpt lat="44.9245586" lon="9.2054915"><ele>326.0</ele><time>2026-04-25T08:04:50.973Z</time></trkpt><trkpt lat="44.92456" lon="9.205392"><ele>326.0</ele><time>2026-04-25T08:04:58.035Z</time></trkpt><trkpt lat="44.924665" lon="9.2051134"><ele>326.0</ele><time>2026-04-25T08:05:08.976Z</time></trkpt><trkpt lat="44.9246759" lon="9.2050184"><ele>326.0</ele><time>2026-04-25T08:05:12.977Z</time></trkpt><trkpt lat="44.9246922" lon="9.2049043"><ele>326.0</ele><time>2026-04-25T08:05:16.98Z</time></trkpt><trkpt lat="44.9246921" lon="9.2048047"><ele>326.0</ele><time>2026-04-25T08:05:19.968Z</time></trkpt><trkpt lat="44.9246754" lon="9.2047136"><ele>326.0</ele><time>2026-04-25T08:05:23.975Z</time></trkpt><trkpt lat="44.924678" lon="9.2046162"><ele>326.0</ele><time>2026-04-25T08:05:31.971Z</time></trkpt><trkpt lat="44.9246557" lon="9.2045089"><ele>326.0</ele><time>2026-04-25T08:05:35.984Z</time></trkpt><trkpt lat="44.9246231" lon="9.2044115"><ele>326.42857142857144</ele><time>2026-04-25T08:05:40.051Z</time></trkpt><trkpt lat="44.9246076" lon="9.2043082"><ele>326.85714285714283</ele><time>2026-04-25T08:05:44.973Z</time></trkpt><trkpt lat="44.9245839" lon="9.2042035"><ele>327.2857142857143</ele><time>2026-04-25T08:05:50.987Z</time></trkpt><trkpt lat="44.9245858" lon="9.2040931"><ele>327.7142857142857</ele><time>2026-04-25T08:05:56.973Z</time></trkpt><trkpt lat="44.9246068" lon="9.2039768"><ele>328.1428571428571</ele><time>2026-04-25T08:06:00.977Z</time></trkpt><trkpt lat="44.9246047" lon="9.2038857"><ele>328.57142857142856</ele><time>2026-04-25T08:06:03.971Z</time></trkpt><trkpt lat="44.9246027" lon="9.2037897"><ele>329.0</ele><time>2026-04-25T08:06:06.996Z</time></trkpt><trkpt lat="44.9245958" lon="9.2036853"><ele>329.0</ele><time>2026-04-25T08:06:09.974Z</time></trkpt><trkpt lat="44.9245724" lon="9.203587"><ele>329.0</ele><time>2026-04-25T08:06:12.983Z</time></trkpt><trkpt lat="44.9245738" lon="9.2034694"><ele>329.0</ele><time>2026-04-25T08:06:16.979Z</time></trkpt><trkpt lat="44.9245598" lon="9.2033502"><ele>329.0</ele><time>2026-04-25T08:06:20.981Z</time></trkpt><trkpt lat="44.924524" lon="9.2032316"><ele>329.0</ele><time>2026-04-25T08:06:23.982Z</time></trkpt><trkpt lat="44.9245114" lon="9.203136"><ele>329.0</ele><time>2026-04-25T08:06:25.976Z</time></trkpt><trkpt lat="44.9245212" lon="9.2030306"><ele>329.0</ele><time>2026-04-25T08:06:28.982Z</time></trkpt><trkpt lat="44.9245451" lon="9.202924"><ele>329.0</ele><time>2026-04-25T08:06:32.982Z</time></trkpt><trkpt lat="44.9245596" lon="9.2028341"><ele>329.0</ele><time>2026-04-25T08:06:35.975Z</time></trkpt><trkpt lat="44.9245722" lon="9.2027241"><ele>329.0</ele><time>2026-04-25T08:06:39.989Z</time></trkpt><trkpt lat="44.9245825" lon="9.2026126"><ele>329.0</ele><time>2026-04-25T08:06:42.978Z</time></trkpt><trkpt lat="44.924589" lon="9.2025109"><ele>329.0</ele><time>2026-04-25T08:06:45.98Z</time></trkpt><trkpt lat="44.9245998" lon="9.2024231"><ele>329.0</ele><time>2026-04-25T08:06:48.99Z</time></trkpt><trkpt lat="44.9246099" lon="9.2023286"><ele>329.4</ele><time>2026-04-25T08:06:51.98Z</time></trkpt><trkpt lat="44.9246381" lon="9.2022399"><ele>329.79999999999995</ele><time>2026-04-25T08:06:54.976Z</time></trkpt><trkpt lat="44.9246762" lon="9.20214"><ele>330.20000000000005</ele><time>2026-04-25T08:06:57.985Z</time></trkpt><trkpt lat="44.9247101" lon="9.2020529"><ele>330.6</ele><time>2026-04-25T08:07:00.982Z</time></trkpt><trkpt lat="44.924736" lon="9.2019551"><ele>331.0</ele><time>2026-04-25T08:07:03.979Z</time></trkpt><trkpt lat="44.9247653" lon="9.2014562"><ele>331.57142857142856</ele><time>2026-04-25T08:07:14.892Z</time></trkpt><trkpt lat="44.9247825" lon="9.2013675"><ele>332.1428571428571</ele><time>2026-04-25T08:07:18.966Z</time></trkpt><trkpt lat="44.9247869" lon="9.2012538"><ele>332.71428571428567</ele><time>2026-04-25T08:07:22.02Z</time></trkpt><trkpt lat="44.9247969" lon="9.2011462"><ele>333.2857142857143</ele><time>2026-04-25T08:07:24.969Z</time></trkpt><trkpt lat="44.9247816" lon="9.2010473"><ele>333.85714285714283</ele><time>2026-04-25T08:07:27.981Z</time></trkpt><trkpt lat="44.9247812" lon="9.2009366"><ele>334.4285714285714</ele><time>2026-04-25T08:07:30.975Z</time></trkpt><trkpt lat="44.9247733" lon="9.2008396"><ele>335.0</ele><time>2026-04-25T08:07:32.981Z</time></trkpt><trkpt lat="44.9247693" lon="9.2007465"><ele>336.1666666666667</ele><time>2026-04-25T08:07:35.042Z</time></trkpt><trkpt lat="44.9247693" lon="9.2006503"><ele>337.33333333333337</ele><time>2026-04-25T08:07:36.973Z</time></trkpt><trkpt lat="44.9247705" lon="9.2005228"><ele>338.5</ele><time>2026-04-25T08:07:39.97Z</time></trkpt><trkpt lat="44.9247724" lon="9.2004052"><ele>339.6666666666667</ele><time>2026-04-25T08:07:42.976Z</time></trkpt><trkpt lat="44.924771" lon="9.2002843"><ele>340.8333333333333</ele><time>2026-04-25T08:07:45.982Z</time></trkpt><trkpt lat="44.9247622" lon="9.2001846"><ele>342.0</ele><time>2026-04-25T08:07:48.986Z</time></trkpt><trkpt lat="44.9247762" lon="9.2000778"><ele>342.0</ele><time>2026-04-25T08:07:51.973Z</time></trkpt><trkpt lat="44.9247846" lon="9.1999618"><ele>342.0</ele><time>2026-04-25T08:07:54.981Z</time></trkpt><trkpt lat="44.9247919" lon="9.1998418"><ele>342.0</ele><time>2026-04-25T08:07:57.972Z</time></trkpt><trkpt lat="44.9247977" lon="9.1997358"><ele>342.0</ele><time>2026-04-25T08:08:00.988Z</time></trkpt><trkpt lat="44.9247997" lon="9.1996358"><ele>342.0</ele><time>2026-04-25T08:08:03.979Z</time></trkpt><trkpt lat="44.9248092" lon="9.1995369"><ele>342.0</ele><time>2026-04-25T08:08:06.974Z</time></trkpt><trkpt lat="44.9248133" lon="9.1994352"><ele>343.1666666666667</ele><time>2026-04-25T08:08:09.974Z</time></trkpt><trkpt lat="44.9248176" lon="9.19934"><ele>344.3333333333333</ele><time>2026-04-25T08:08:12.979Z</time></trkpt><trkpt lat="44.9248249" lon="9.1992278"><ele>345.5</ele><time>2026-04-25T08:08:15.98Z</time></trkpt><trkpt lat="44.9248313" lon="9.1991215"><ele>346.66666666666663</ele><time>2026-04-25T08:08:18.975Z</time></trkpt><trkpt lat="44.9248297" lon="9.1989991"><ele>347.8333333333333</ele><time>2026-04-25T08:08:21.981Z</time></trkpt><trkpt lat="44.9248274" lon="9.1988822"><ele>349.0</ele><time>2026-04-25T08:08:24.976Z</time></trkpt><trkpt lat="44.9248407" lon="9.1987569"><ele>350.8333333333333</ele><time>2026-04-25T08:08:27.978Z</time></trkpt><trkpt lat="44.9248513" lon="9.1986315"><ele>352.66666666666663</ele><time>2026-04-25T08:08:30.975Z</time></trkpt><trkpt lat="44.9248754" lon="9.198527"><ele>354.5</ele><time>2026-04-25T08:08:33.979Z</time></trkpt><trkpt lat="44.9249468" lon="9.1984743"><ele>356.3333333333333</ele><time>2026-04-25T08:08:36.974Z</time></trkpt><trkpt lat="44.9250281" lon="9.1984217"><ele>358.1666666666667</ele><time>2026-04-25T08:08:39.976Z</time></trkpt><trkpt lat="44.9251029" lon="9.1983822"><ele>360.0</ele><time>2026-04-25T08:08:42.984Z</time></trkpt><trkpt lat="44.9251871" lon="9.198327"><ele>360.5</ele><time>2026-04-25T08:08:45.979Z</time></trkpt><trkpt lat="44.9252679" lon="9.1982642"><ele>361.0</ele><time>2026-04-25T08:08:48.971Z</time></trkpt><trkpt lat="44.9253365" lon="9.1981997"><ele>361.5</ele><time>2026-04-25T08:08:51.974Z</time></trkpt><trkpt lat="44.9254001" lon="9.198113"><ele>362.0</ele><time>2026-04-25T08:08:54.967Z</time></trkpt><trkpt lat="44.9254601" lon="9.1980296"><ele>362.5</ele><time>2026-04-25T08:08:57.974Z</time></trkpt><trkpt lat="44.9255197" lon="9.1979443"><ele>363.0</ele><time>2026-04-25T08:09:00.979Z</time></trkpt><trkpt lat="44.9255809" lon="9.1978617"><ele>365.25</ele><time>2026-04-25T08:09:03.975Z</time></trkpt><trkpt lat="44.9256262" lon="9.197798"><ele>367.5</ele><time>2026-04-25T08:09:06.978Z</time></trkpt><trkpt lat="44.925664" lon="9.1977011"><ele>369.75</ele><time>2026-04-25T08:09:09.969Z</time></trkpt><trkpt lat="44.9256919" lon="9.1976024"><ele>372.0</ele><time>2026-04-25T08:09:12.971Z</time></trkpt><trkpt lat="44.9257165" lon="9.1972257"><ele>373.28571428571433</ele><time>2026-04-25T08:09:21.898Z</time></trkpt><trkpt lat="44.9257519" lon="9.1971476"><ele>374.57142857142856</ele><time>2026-04-25T08:09:24.975Z</time></trkpt><trkpt lat="44.9257842" lon="9.1970605"><ele>375.8571428571429</ele><time>2026-04-25T08:09:26.974Z</time></trkpt><trkpt lat="44.9258049" lon="9.1969446"><ele>377.14285714285717</ele><time>2026-04-25T08:09:29.971Z</time></trkpt><trkpt lat="44.9258049" lon="9.1968172"><ele>378.42857142857144</ele><time>2026-04-25T08:09:32.971Z</time></trkpt><trkpt lat="44.9258021" lon="9.1967206"><ele>379.7142857142857</ele><time>2026-04-25T08:09:34.978Z</time></trkpt><trkpt lat="44.9258004" lon="9.19663"><ele>381.0</ele><time>2026-04-25T08:09:36.986Z</time></trkpt><trkpt lat="44.9257979" lon="9.1964986"><ele>383.0</ele><time>2026-04-25T08:09:39.976Z</time></trkpt><trkpt lat="44.9257915" lon="9.1963646"><ele>385.0</ele><time>2026-04-25T08:09:42.977Z</time></trkpt><trkpt lat="44.9257895" lon="9.1962316"><ele>387.0</ele><time>2026-04-25T08:09:45.975Z</time></trkpt><trkpt lat="44.9257916" lon="9.196141"><ele>389.0</ele><time>2026-04-25T08:09:47.977Z</time></trkpt><trkpt lat="44.9257953" lon="9.196018"><ele>391.0</ele><time>2026-04-25T08:09:50.984Z</time></trkpt><trkpt lat="44.9258077" lon="9.1959037"><ele>393.0</ele><time>2026-04-25T08:09:53.976Z</time></trkpt><trkpt lat="44.9258722" lon="9.1958409"><ele>391.4</ele><time>2026-04-25T08:09:56.978Z</time></trkpt><trkpt lat="44.9259353" lon="9.1958553"><ele>389.79999999999995</ele><time>2026-04-25T08:09:58.975Z</time></trkpt><trkpt lat="44.9260164" lon="9.1959058"><ele>388.2</ele><time>2026-04-25T08:10:00.976Z</time></trkpt><trkpt lat="44.9261291" lon="9.1959713"><ele>386.6</ele><time>2026-04-25T08:10:02.977Z</time></trkpt><trkpt lat="44.9261853" lon="9.1960116"><ele>385.0</ele><time>2026-04-25T08:10:03.978Z</time></trkpt><trkpt lat="44.9262888" lon="9.1960974"><ele>385.0</ele><time>2026-04-25T08:10:05.978Z</time></trkpt><trkpt lat="44.9263627" lon="9.1961564"><ele>385.0</ele><time>2026-04-25T08:10:07.985Z</time></trkpt><trkpt lat="44.9264201" lon="9.1962067"><ele>385.0</ele><time>2026-04-25T08:10:09.973Z</time></trkpt><trkpt lat="44.9264876" lon="9.1963043"><ele>385.0</ele><time>2026-04-25T08:10:11.974Z</time></trkpt><trkpt lat="44.9265779" lon="9.1964028"><ele>385.0</ele><time>2026-04-25T08:10:13.97Z</time></trkpt><trkpt lat="44.9266869" lon="9.1964206"><ele>383.57142857142856</ele><time>2026-04-25T08:10:15.97Z</time></trkpt><trkpt lat="44.9267512" lon="9.1964169"><ele>382.1428571428571</ele><time>2026-04-25T08:10:16.981Z</time></trkpt><trkpt lat="44.9268143" lon="9.1964129"><ele>380.7142857142857</ele><time>2026-04-25T08:10:17.972Z</time></trkpt><trkpt lat="44.9268806" lon="9.1964161"><ele>379.2857142857143</ele><time>2026-04-25T08:10:18.978Z</time></trkpt><trkpt lat="44.9269468" lon="9.1964222"><ele>377.85714285714283</ele><time>2026-04-25T08:10:20.043Z</time></trkpt><trkpt lat="44.9270163" lon="9.1964428"><ele>376.42857142857144</ele><time>2026-04-25T08:10:20.981Z</time></trkpt><trkpt lat="44.9270845" lon="9.196473"><ele>375.0</ele><time>2026-04-25T08:10:21.983Z</time></trkpt><trkpt lat="44.9271579" lon="9.1965081"><ele>375.0</ele><time>2026-04-25T08:10:22.97Z</time></trkpt><trkpt lat="44.9272251" lon="9.1965515"><ele>375.0</ele><time>2026-04-25T08:10:23.976Z</time></trkpt><trkpt lat="44.927287" lon="9.1966127"><ele>375.0</ele><time>2026-04-25T08:10:24.981Z</time></trkpt><trkpt lat="44.9273524" lon="9.1966631"><ele>375.0</ele><time>2026-04-25T08:10:25.978Z</time></trkpt><trkpt lat="44.927421" lon="9.1967125"><ele>375.0</ele><time>2026-04-25T08:10:26.978Z</time></trkpt><trkpt lat="44.9274883" lon="9.1967633"><ele>375.0</ele><time>2026-04-25T08:10:27.978Z</time></trkpt><trkpt lat="44.9275493" lon="9.1968306"><ele>373.8333333333333</ele><time>2026-04-25T08:10:28.98Z</time></trkpt><trkpt lat="44.9276115" lon="9.1968881"><ele>372.6666666666667</ele><time>2026-04-25T08:10:29.979Z</time></trkpt><trkpt lat="44.927676" lon="9.1969425"><ele>371.5</ele><time>2026-04-25T08:10:30.978Z</time></trkpt><trkpt lat="44.9277425" lon="9.1970028"><ele>370.33333333333337</ele><time>2026-04-25T08:10:31.981Z</time></trkpt><trkpt lat="44.9278131" lon="9.1970719"><ele>369.1666666666667</ele><time>2026-04-25T08:10:33.034Z</time></trkpt><trkpt lat="44.9278765" lon="9.1971417"><ele>368.0</ele><time>2026-04-25T08:10:33.975Z</time></trkpt><trkpt lat="44.9279293" lon="9.1972096"><ele>368.0</ele><time>2026-04-25T08:10:34.979Z</time></trkpt><trkpt lat="44.9279768" lon="9.1972739"><ele>368.0</ele><time>2026-04-25T08:10:35.978Z</time></trkpt><trkpt lat="44.9280717" lon="9.1973814"><ele>368.0</ele><time>2026-04-25T08:10:37.97Z</time></trkpt><trkpt lat="44.9281857" lon="9.1973898"><ele>368.0</ele><time>2026-04-25T08:10:39.975Z</time></trkpt><trkpt lat="44.9282955" lon="9.1973224"><ele>368.0</ele><time>2026-04-25T08:10:41.966Z</time></trkpt><trkpt lat="44.9283554" lon="9.1972722"><ele>365.7142857142857</ele><time>2026-04-25T08:10:42.97Z</time></trkpt><trkpt lat="44.9284064" lon="9.1972113"><ele>363.4285714285714</ele><time>2026-04-25T08:10:43.974Z</time></trkpt><trkpt lat="44.9284525" lon="9.1971454"><ele>361.1428571428571</ele><time>2026-04-25T08:10:44.98Z</time></trkpt><trkpt lat="44.9284928" lon="9.1970606"><ele>358.8571428571429</ele><time>2026-04-25T08:10:46.042Z</time></trkpt><trkpt lat="44.9285304" lon="9.1969672"><ele>356.57142857142856</ele><time>2026-04-25T08:10:46.973Z</time></trkpt><trkpt lat="44.9285662" lon="9.1968734"><ele>354.2857142857143</ele><time>2026-04-25T08:10:47.97Z</time></trkpt><trkpt lat="44.9286065" lon="9.1967794"><ele>352.0</ele><time>2026-04-25T08:10:48.982Z</time></trkpt><trkpt lat="44.9286433" lon="9.1966864"><ele>352.0</ele><time>2026-04-25T08:10:49.979Z</time></trkpt><trkpt lat="44.9286845" lon="9.1965804"><ele>352.0</ele><time>2026-04-25T08:10:50.98Z</time></trkpt><trkpt lat="44.9287249" lon="9.1964786"><ele>352.0</ele><time>2026-04-25T08:10:51.971Z</time></trkpt><trkpt lat="44.9287592" lon="9.1963902"><ele>352.0</ele><time>2026-04-25T08:10:52.974Z</time></trkpt><trkpt lat="44.9288" lon="9.1963008"><ele>352.0</ele><time>2026-04-25T08:10:53.968Z</time></trkpt><trkpt lat="44.9288382" lon="9.1962208"><ele>352.0</ele><time>2026-04-25T08:10:54.976Z</time></trkpt><trkpt lat="44.9288747" lon="9.1961475"><ele>352.0</ele><time>2026-04-25T08:10:55.976Z</time></trkpt><trkpt lat="44.9289361" lon="9.196015"><ele>352.3333333333333</ele><time>2026-04-25T08:10:57.978Z</time></trkpt><trkpt lat="44.9289729" lon="9.1958843"><ele>352.66666666666663</ele><time>2026-04-25T08:10:59.977Z</time></trkpt><trkpt lat="44.9289622" lon="9.1957697"><ele>353.0</ele><time>2026-04-25T08:11:01.972Z</time></trkpt><trkpt lat="44.9289434" lon="9.1956468"><ele>353.3333333333333</ele><time>2026-04-25T08:11:03.978Z</time></trkpt><trkpt lat="44.9289189" lon="9.1955233"><ele>353.6666666666667</ele><time>2026-04-25T08:11:05.978Z</time></trkpt><trkpt lat="44.9288906" lon="9.195409"><ele>354.0</ele><time>2026-04-25T08:11:07.98Z</time></trkpt><trkpt lat="44.9288326" lon="9.1952826"><ele>354.0</ele><time>2026-04-25T08:11:09.98Z</time></trkpt><trkpt lat="44.9287659" lon="9.1951536"><ele>354.0</ele><time>2026-04-25T08:11:11.977Z</time></trkpt><trkpt lat="44.928696" lon="9.1950203"><ele>354.0</ele><time>2026-04-25T08:11:13.971Z</time></trkpt><trkpt lat="44.9286211" lon="9.1948859"><ele>354.0</ele><time>2026-04-25T08:11:15.969Z</time></trkpt><trkpt lat="44.9285333" lon="9.1947701"><ele>351.0</ele><time>2026-04-25T08:11:17.973Z</time></trkpt><trkpt lat="44.9284154" lon="9.1947153"><ele>348.0</ele><time>2026-04-25T08:11:19.967Z</time></trkpt><trkpt lat="44.9279492" lon="9.1948034"><ele>348.0</ele><time>2026-04-25T08:11:28.89Z</time></trkpt><trkpt lat="44.9279608" lon="9.1946837"><ele>348.0</ele><time>2026-04-25T08:11:30.972Z</time></trkpt><trkpt lat="44.9280205" lon="9.1946024"><ele>348.0</ele><time>2026-04-25T08:11:31.972Z</time></trkpt><trkpt lat="44.9280692" lon="9.1945444"><ele>348.0</ele><time>2026-04-25T08:11:32.972Z</time></trkpt><trkpt lat="44.928172" lon="9.1944547"><ele>348.0</ele><time>2026-04-25T08:11:34.968Z</time></trkpt><trkpt lat="44.9282771" lon="9.1943668"><ele>348.0</ele><time>2026-04-25T08:11:36.971Z</time></trkpt><trkpt lat="44.9283841" lon="9.1942796"><ele>348.0</ele><time>2026-04-25T08:11:38.974Z</time></trkpt><trkpt lat="44.9284391" lon="9.1942232"><ele>348.0</ele><time>2026-04-25T08:11:39.973Z</time></trkpt><trkpt lat="44.928494" lon="9.1941654"><ele>348.0</ele><time>2026-04-25T08:11:40.975Z</time></trkpt><trkpt lat="44.9285484" lon="9.1940987"><ele>348.0</ele><time>2026-04-25T08:11:41.975Z</time></trkpt><trkpt lat="44.9285965" lon="9.194038"><ele>348.0</ele><time>2026-04-25T08:11:42.976Z</time></trkpt><trkpt lat="44.9286372" lon="9.1939645"><ele>346.6666666666667</ele><time>2026-04-25T08:11:43.977Z</time></trkpt><trkpt lat="44.9286656" lon="9.1938747"><ele>345.3333333333333</ele><time>2026-04-25T08:11:44.979Z</time></trkpt><trkpt lat="44.9286967" lon="9.1937821"><ele>344.0</ele><time>2026-04-25T08:11:45.979Z</time></trkpt><trkpt lat="44.9287261" lon="9.193693"><ele>342.66666666666663</ele><time>2026-04-25T08:11:46.985Z</time></trkpt><trkpt lat="44.9287578" lon="9.1936095"><ele>341.3333333333333</ele><time>2026-04-25T08:11:47.975Z</time></trkpt><trkpt lat="44.9288217" lon="9.1934663"><ele>340.0</ele><time>2026-04-25T08:11:49.975Z</time></trkpt><trkpt lat="44.9288792" lon="9.193373"><ele>340.0</ele><time>2026-04-25T08:11:51.979Z</time></trkpt><trkpt lat="44.928909" lon="9.1932812"><ele>340.0</ele><time>2026-04-25T08:11:54.974Z</time></trkpt><trkpt lat="44.9289517" lon="9.1932123"><ele>340.0</ele><time>2026-04-25T08:12:13.975Z</time></trkpt><trkpt lat="44.9290477" lon="9.1931691"><ele>340.0</ele><time>2026-04-25T08:12:16.993Z</time></trkpt><trkpt lat="44.929134" lon="9.1931308"><ele>340.0</ele><time>2026-04-25T08:12:18.974Z</time></trkpt><trkpt lat="44.9292339" lon="9.1931274"><ele>340.0</ele><time>2026-04-25T08:12:20.976Z</time></trkpt><trkpt lat="44.9293504" lon="9.1931848"><ele>339.0</ele><time>2026-04-25T08:12:22.979Z</time></trkpt><trkpt lat="44.9294093" lon="9.1932261"><ele>338.0</ele><time>2026-04-25T08:12:23.98Z</time></trkpt><trkpt lat="44.9294699" lon="9.193267"><ele>337.0</ele><time>2026-04-25T08:12:24.981Z</time></trkpt><trkpt lat="44.9295333" lon="9.1933043"><ele>336.0</ele><time>2026-04-25T08:12:25.978Z</time></trkpt><trkpt lat="44.9295936" lon="9.1933351"><ele>335.0</ele><time>2026-04-25T08:12:26.982Z</time></trkpt><trkpt lat="44.9296646" lon="9.193355"><ele>334.0</ele><time>2026-04-25T08:12:27.982Z</time></trkpt><trkpt lat="44.9297319" lon="9.1933795"><ele>333.0</ele><time>2026-04-25T08:12:28.984Z</time></trkpt><trkpt lat="44.9298014" lon="9.1933933"><ele>333.0</ele><time>2026-04-25T08:12:29.973Z</time></trkpt><trkpt lat="44.929878" lon="9.1934102"><ele>333.0</ele><time>2026-04-25T08:12:30.981Z</time></trkpt><trkpt lat="44.9299549" lon="9.1934323"><ele>333.0</ele><time>2026-04-25T08:12:31.973Z</time></trkpt><trkpt lat="44.9300301" lon="9.1934541"><ele>333.0</ele><time>2026-04-25T08:12:32.976Z</time></trkpt><trkpt lat="44.9301034" lon="9.1934836"><ele>333.0</ele><time>2026-04-25T08:12:33.982Z</time></trkpt><trkpt lat="44.9301641" lon="9.1935136"><ele>333.0</ele><time>2026-04-25T08:12:34.978Z</time></trkpt><trkpt lat="44.9302613" lon="9.1935533"><ele>331.79999999999995</ele><time>2026-04-25T08:12:36.982Z</time></trkpt><trkpt lat="44.9303753" lon="9.1935773"><ele>330.6</ele><time>2026-04-25T08:12:38.982Z</time></trkpt><trkpt lat="44.9304388" lon="9.193596"><ele>329.4</ele><time>2026-04-25T08:12:39.971Z</time></trkpt><trkpt lat="44.930556" lon="9.1936053"><ele>328.20000000000005</ele><time>2026-04-25T08:12:41.983Z</time></trkpt><trkpt lat="44.9306806" lon="9.1935695"><ele>327.0</ele><time>2026-04-25T08:12:43.979Z</time></trkpt><trkpt lat="44.9307508" lon="9.1935588"><ele>327.0</ele><time>2026-04-25T08:12:44.975Z</time></trkpt><trkpt lat="44.9308274" lon="9.1935491"><ele>327.0</ele><time>2026-04-25T08:12:45.975Z</time></trkpt><trkpt lat="44.9308951" lon="9.193536"><ele>327.0</ele><time>2026-04-25T08:12:46.974Z</time></trkpt><trkpt lat="44.9309622" lon="9.1935298"><ele>327.0</ele><time>2026-04-25T08:12:47.974Z</time></trkpt><trkpt lat="44.9310518" lon="9.1935098"><ele>327.0</ele><time>2026-04-25T08:12:49.98Z</time></trkpt><trkpt lat="44.931128" lon="9.1935244"><ele>327.0</ele><time>2026-04-25T08:12:53.064Z</time></trkpt><trkpt lat="44.9311922" lon="9.193626"><ele>324.40000000000003</ele><time>2026-04-25T08:12:55.978Z</time></trkpt><trkpt lat="44.9312773" lon="9.193727"><ele>321.8</ele><time>2026-04-25T08:12:58.981Z</time></trkpt><trkpt lat="44.9313499" lon="9.1938005"><ele>319.2</ele><time>2026-04-25T08:13:00.978Z</time></trkpt><trkpt lat="44.9314222" lon="9.193881"><ele>316.6</ele><time>2026-04-25T08:13:02.978Z</time></trkpt><trkpt lat="44.9315227" lon="9.193954"><ele>314.0</ele><time>2026-04-25T08:13:04.971Z</time></trkpt><trkpt lat="44.9315842" lon="9.1939957"><ele>314.2857142857143</ele><time>2026-04-25T08:13:05.984Z</time></trkpt><trkpt lat="44.9316489" lon="9.194031"><ele>314.57142857142856</ele><time>2026-04-25T08:13:06.981Z</time></trkpt><trkpt lat="44.931721" lon="9.1940709"><ele>314.8571428571429</ele><time>2026-04-25T08:13:07.982Z</time></trkpt><trkpt lat="44.9317923" lon="9.1941074"><ele>315.1428571428571</ele><time>2026-04-25T08:13:08.978Z</time></trkpt><trkpt lat="44.9318599" lon="9.1941456"><ele>315.42857142857144</ele><time>2026-04-25T08:13:09.978Z</time></trkpt><trkpt lat="44.931926" lon="9.1941862"><ele>315.7142857142857</ele><time>2026-04-25T08:13:10.971Z</time></trkpt><trkpt lat="44.9319887" lon="9.1942295"><ele>316.0</ele><time>2026-04-25T08:13:11.981Z</time></trkpt><trkpt lat="44.9320495" lon="9.1942792"><ele>312.8333333333333</ele><time>2026-04-25T08:13:12.979Z</time></trkpt><trkpt lat="44.9321099" lon="9.1943237"><ele>309.66666666666663</ele><time>2026-04-25T08:13:13.982Z</time></trkpt><trkpt lat="44.9321733" lon="9.1943778"><ele>306.5</ele><time>2026-04-25T08:13:14.975Z</time></trkpt><trkpt lat="44.9322429" lon="9.1944397"><ele>303.3333333333333</ele><time>2026-04-25T08:13:15.971Z</time></trkpt><trkpt lat="44.9323086" lon="9.1945032"><ele>300.1666666666667</ele><time>2026-04-25T08:13:16.976Z</time></trkpt><trkpt lat="44.9323691" lon="9.1945697"><ele>297.0</ele><time>2026-04-25T08:13:17.974Z</time></trkpt><trkpt lat="44.9324308" lon="9.1946297"><ele>297.0</ele><time>2026-04-25T08:13:18.974Z</time></trkpt><trkpt lat="44.9324868" lon="9.1946827"><ele>297.0</ele><time>2026-04-25T08:13:19.967Z</time></trkpt><trkpt lat="44.9325809" lon="9.1947651"><ele>297.0</ele><time>2026-04-25T08:13:21.971Z</time></trkpt><trkpt lat="44.9326804" lon="9.1947776"><ele>297.0</ele><time>2026-04-25T08:13:23.974Z</time></trkpt><trkpt lat="44.9327659" lon="9.1947914"><ele>297.0</ele><time>2026-04-25T08:13:26.993Z</time></trkpt><trkpt lat="44.9329084" lon="9.1947076"><ele>294.2</ele><time>2026-04-25T08:13:35.893Z</time></trkpt><trkpt lat="44.9329864" lon="9.1947152"><ele>291.4</ele><time>2026-04-25T08:13:37.978Z</time></trkpt><trkpt lat="44.9330898" lon="9.1946735"><ele>288.6</ele><time>2026-04-25T08:13:39.97Z</time></trkpt><trkpt lat="44.9331739" lon="9.1946542"><ele>285.8</ele><time>2026-04-25T08:13:41.973Z</time></trkpt><trkpt lat="44.9332656" lon="9.1946618"><ele>283.0</ele><time>2026-04-25T08:13:43.968Z</time></trkpt><trkpt lat="44.9333736" lon="9.1946754"><ele>280.8</ele><time>2026-04-25T08:13:45.97Z</time></trkpt><trkpt lat="44.9334781" lon="9.1946785"><ele>278.6</ele><time>2026-04-25T08:13:47.969Z</time></trkpt><trkpt lat="44.9335708" lon="9.1946787"><ele>276.4</ele><time>2026-04-25T08:13:49.967Z</time></trkpt><trkpt lat="44.9336747" lon="9.1946626"><ele>274.2</ele><time>2026-04-25T08:13:51.977Z</time></trkpt><trkpt lat="44.9337877" lon="9.1946829"><ele>272.0</ele><time>2026-04-25T08:13:53.983Z</time></trkpt><trkpt lat="44.9338972" lon="9.1946937"><ele>272.0</ele><time>2026-04-25T08:13:55.971Z</time></trkpt><trkpt lat="44.9339754" lon="9.1947076"><ele>272.0</ele><time>2026-04-25T08:13:57.972Z</time></trkpt><trkpt lat="44.934042" lon="9.1947204"><ele>272.0</ele><time>2026-04-25T08:13:59.978Z</time></trkpt><trkpt lat="44.9341064" lon="9.1947373"><ele>272.0</ele><time>2026-04-25T08:14:01.971Z</time></trkpt><trkpt lat="44.9341788" lon="9.1947571"><ele>272.0</ele><time>2026-04-25T08:14:03.974Z</time></trkpt><trkpt lat="44.9342626" lon="9.1947727"><ele>272.0</ele><time>2026-04-25T08:14:05.986Z</time></trkpt><trkpt lat="44.9343616" lon="9.1947801"><ele>269.4</ele><time>2026-04-25T08:14:07.976Z</time></trkpt><trkpt lat="44.9344537" lon="9.1947871"><ele>266.79999999999995</ele><time>2026-04-25T08:14:09.974Z</time></trkpt><trkpt lat="44.9345422" lon="9.1948097"><ele>264.2</ele><time>2026-04-25T08:14:11.973Z</time></trkpt><trkpt lat="44.9346232" lon="9.1948347"><ele>261.59999999999997</ele><time>2026-04-25T08:14:13.976Z</time></trkpt><trkpt lat="44.934725" lon="9.1948626"><ele>259.0</ele><time>2026-04-25T08:14:15.975Z</time></trkpt><trkpt lat="44.9348242" lon="9.1948707"><ele>258.2</ele><time>2026-04-25T08:14:17.977Z</time></trkpt><trkpt lat="44.9349201" lon="9.1948878"><ele>257.4</ele><time>2026-04-25T08:14:19.978Z</time></trkpt><trkpt lat="44.9350331" lon="9.1949037"><ele>256.6</ele><time>2026-04-25T08:14:21.979Z</time></trkpt><trkpt lat="44.9351265" lon="9.1949078"><ele>255.8</ele><time>2026-04-25T08:14:23.973Z</time></trkpt><trkpt lat="44.9352132" lon="9.1949252"><ele>255.0</ele><time>2026-04-25T08:14:25.974Z</time></trkpt><trkpt lat="44.9353009" lon="9.1949579"><ele>253.5</ele><time>2026-04-25T08:14:27.979Z</time></trkpt><trkpt lat="44.9353777" lon="9.1949894"><ele>252.0</ele><time>2026-04-25T08:14:29.979Z</time></trkpt><trkpt lat="44.935448" lon="9.1950204"><ele>250.5</ele><time>2026-04-25T08:14:31.972Z</time></trkpt><trkpt lat="44.9355303" lon="9.1950534"><ele>249.0</ele><time>2026-04-25T08:14:34.036Z</time></trkpt><trkpt lat="44.9356132" lon="9.1950832"><ele>247.5</ele><time>2026-04-25T08:14:35.974Z</time></trkpt><trkpt lat="44.9356781" lon="9.1951154"><ele>246.0</ele><time>2026-04-25T08:14:37.971Z</time></trkpt><trkpt lat="44.9357457" lon="9.195182"><ele>246.0</ele><time>2026-04-25T08:14:40.973Z</time></trkpt><trkpt lat="44.9358268" lon="9.1952627"><ele>246.0</ele><time>2026-04-25T08:14:43.971Z</time></trkpt><trkpt lat="44.9358982" lon="9.1953388"><ele>246.0</ele><time>2026-04-25T08:14:45.978Z</time></trkpt><trkpt lat="44.9359626" lon="9.1953973"><ele>246.0</ele><time>2026-04-25T08:14:47.976Z</time></trkpt><trkpt lat="44.9360373" lon="9.1954672"><ele>246.0</ele><time>2026-04-25T08:14:49.977Z</time></trkpt><trkpt lat="44.9360897" lon="9.1955221"><ele>246.0</ele><time>2026-04-25T08:14:51.974Z</time></trkpt><trkpt lat="44.9361436" lon="9.1956006"><ele>244.5</ele><time>2026-04-25T08:14:54.972Z</time></trkpt><trkpt lat="44.9362065" lon="9.1956835"><ele>243.0</ele><time>2026-04-25T08:14:57.978Z</time></trkpt><trkpt lat="44.9362575" lon="9.1957412"><ele>241.5</ele><time>2026-04-25T08:14:59.975Z</time></trkpt><trkpt lat="44.9363131" lon="9.1957915"><ele>240.0</ele><time>2026-04-25T08:15:01.97Z</time></trkpt><trkpt lat="44.9363877" lon="9.1958486"><ele>238.5</ele><time>2026-04-25T08:15:04.974Z</time></trkpt><trkpt lat="44.936431" lon="9.1959425"><ele>237.0</ele><time>2026-04-25T08:15:07.97Z</time></trkpt><trkpt lat="44.9364205" lon="9.1960462"><ele>236.99999999999997</ele><time>2026-04-25T08:15:11.976Z</time></trkpt><trkpt lat="44.9363924" lon="9.1961379"><ele>237.0</ele><time>2026-04-25T08:15:15.973Z</time></trkpt><trkpt lat="44.9363769" lon="9.1962438"><ele>236.99999999999997</ele><time>2026-04-25T08:15:19.971Z</time></trkpt><trkpt lat="44.9364224" lon="9.1963287"><ele>236.99999999999997</ele><time>2026-04-25T08:15:24.047Z</time></trkpt><trkpt lat="44.9364977" lon="9.1963"><ele>237.0</ele><time>2026-04-25T08:15:27.974Z</time></trkpt><trkpt lat="44.9365432" lon="9.1962237"><ele>236.99999999999997</ele><time>2026-04-25T08:15:30.969Z</time></trkpt><trkpt lat="44.9365803" lon="9.1961445"><ele>236.99999999999997</ele><time>2026-04-25T08:15:33.979Z</time></trkpt><trkpt lat="44.936796" lon="9.1958227"><ele>237.33333333333334</ele><time>2026-04-25T08:15:42.896Z</time></trkpt><trkpt lat="44.9368222" lon="9.1957347"><ele>237.66666666666669</ele><time>2026-04-25T08:15:43.986Z</time></trkpt><trkpt lat="44.9368829" lon="9.1956924"><ele>238.0</ele><time>2026-04-25T08:15:45.971Z</time></trkpt><trkpt lat="44.9369549" lon="9.1956087"><ele>238.33333333333334</ele><time>2026-04-25T08:15:47.979Z</time></trkpt><trkpt lat="44.9370143" lon="9.1955205"><ele>238.66666666666669</ele><time>2026-04-25T08:15:49.975Z</time></trkpt><trkpt lat="44.9370741" lon="9.1954333"><ele>239.0</ele><time>2026-04-25T08:15:51.98Z</time></trkpt><trkpt lat="44.9371298" lon="9.1953345"><ele>238.33333333333334</ele><time>2026-04-25T08:15:53.979Z</time></trkpt><trkpt lat="44.9371936" lon="9.1952318"><ele>237.66666666666669</ele><time>2026-04-25T08:15:55.975Z</time></trkpt><trkpt lat="44.9372626" lon="9.1951848"><ele>237.0</ele><time>2026-04-25T08:15:57.978Z</time></trkpt><trkpt lat="44.9373381" lon="9.1951517"><ele>236.33333333333331</ele><time>2026-04-25T08:16:00.981Z</time></trkpt><trkpt lat="44.9374182" lon="9.1951166"><ele>235.66666666666666</ele><time>2026-04-25T08:16:03.97Z</time></trkpt><trkpt lat="44.9374919" lon="9.1950968"><ele>235.0</ele><time>2026-04-25T08:16:06.969Z</time></trkpt><trkpt lat="44.93757" lon="9.1950891"><ele>236.14285714285714</ele><time>2026-04-25T08:16:09.974Z</time></trkpt><trkpt lat="44.9376391" lon="9.1951108"><ele>237.28571428571428</ele><time>2026-04-25T08:16:12.978Z</time></trkpt><trkpt lat="44.9377028" lon="9.1951338"><ele>238.42857142857142</ele><time>2026-04-25T08:16:15.976Z</time></trkpt><trkpt lat="44.9377839" lon="9.1951769"><ele>239.57142857142856</ele><time>2026-04-25T08:16:19.982Z</time></trkpt><trkpt lat="44.9378496" lon="9.1952251"><ele>240.71428571428572</ele><time>2026-04-25T08:16:22.977Z</time></trkpt><trkpt lat="44.9379181" lon="9.1952701"><ele>241.85714285714283</ele><time>2026-04-25T08:16:25.979Z</time></trkpt><trkpt lat="44.9379886" lon="9.1953081"><ele>243.0</ele><time>2026-04-25T08:16:28.978Z</time></trkpt><trkpt lat="44.9380602" lon="9.1953524"><ele>243.0</ele><time>2026-04-25T08:16:31.976Z</time></trkpt><trkpt lat="44.9381338" lon="9.1953745"><ele>243.0</ele><time>2026-04-25T08:16:34.966Z</time></trkpt><trkpt lat="44.9382066" lon="9.1953846"><ele>243.0</ele><time>2026-04-25T08:16:37.972Z</time></trkpt><trkpt lat="44.9382768" lon="9.1954116"><ele>243.0</ele><time>2026-04-25T08:16:40.978Z</time></trkpt><trkpt lat="44.9383489" lon="9.1954304"><ele>243.0</ele><time>2026-04-25T08:16:43.973Z</time></trkpt><trkpt lat="44.9384306" lon="9.1954395"><ele>243.0</ele><time>2026-04-25T08:16:47.974Z</time></trkpt><trkpt lat="44.9384866" lon="9.1953986"><ele>243.0</ele><time>2026-04-25T08:16:50.973Z</time></trkpt><trkpt lat="44.9385228" lon="9.1953201"><ele>244.71428571428572</ele><time>2026-04-25T08:16:53.978Z</time></trkpt><trkpt lat="44.9385547" lon="9.1952409"><ele>246.42857142857144</ele><time>2026-04-25T08:16:56.979Z</time></trkpt><trkpt lat="44.9385871" lon="9.1951624"><ele>248.14285714285717</ele><time>2026-04-25T08:16:59.971Z</time></trkpt><trkpt lat="44.9386354" lon="9.1950966"><ele>249.85714285714286</ele><time>2026-04-25T08:17:02.974Z</time></trkpt><trkpt lat="44.938697" lon="9.1950608"><ele>251.5714285714286</ele><time>2026-04-25T08:17:05.973Z</time></trkpt><trkpt lat="44.9387649" lon="9.195046"><ele>253.2857142857143</ele><time>2026-04-25T08:17:08.97Z</time></trkpt><trkpt lat="44.9388335" lon="9.1950432"><ele>255.0</ele><time>2026-04-25T08:17:11.962Z</time></trkpt><trkpt lat="44.938913" lon="9.1950355"><ele>255.0</ele><time>2026-04-25T08:17:14.965Z</time></trkpt><trkpt lat="44.9389841" lon="9.1950431"><ele>255.0</ele><time>2026-04-25T08:17:17.973Z</time></trkpt><trkpt lat="44.9390564" lon="9.1950283"><ele>255.0</ele><time>2026-04-25T08:17:20.975Z</time></trkpt><trkpt lat="44.9391241" lon="9.1950171"><ele>255.0</ele><time>2026-04-25T08:17:23.973Z</time></trkpt><trkpt lat="44.9392073" lon="9.1950125"><ele>255.0</ele><time>2026-04-25T08:17:27.975Z</time></trkpt><trkpt lat="44.9392836" lon="9.1950476"><ele>255.0</ele><time>2026-04-25T08:17:30.973Z</time></trkpt><trkpt lat="44.9393656" lon="9.1950832"><ele>258.6666666666667</ele><time>2026-04-25T08:17:33.976Z</time></trkpt><trkpt lat="44.9394485" lon="9.1951119"><ele>262.33333333333337</ele><time>2026-04-25T08:17:36.975Z</time></trkpt><trkpt lat="44.9395251" lon="9.1951352"><ele>266.0</ele><time>2026-04-25T08:17:39.983Z</time></trkpt><trkpt lat="44.9398159" lon="9.1952625"><ele>266.0</ele><time>2026-04-25T08:17:49.903Z</time></trkpt><trkpt lat="44.9398843" lon="9.1952898"><ele>266.0</ele><time>2026-04-25T08:17:52.984Z</time></trkpt><trkpt lat="44.9399625" lon="9.1953264"><ele>266.0</ele><time>2026-04-25T08:17:55.971Z</time></trkpt><trkpt lat="44.9400299" lon="9.1953393"><ele>266.0</ele><time>2026-04-25T08:17:57.974Z</time></trkpt><trkpt lat="44.9401138" lon="9.1953618"><ele>266.0</ele><time>2026-04-25T08:18:00.98Z</time></trkpt><trkpt lat="44.9401787" lon="9.195368"><ele>266.0</ele><time>2026-04-25T08:18:03.974Z</time></trkpt><trkpt lat="44.94026" lon="9.1953761"><ele>267.0</ele><time>2026-04-25T08:18:06.979Z</time></trkpt><trkpt lat="44.9403414" lon="9.1953675"><ele>268.0</ele><time>2026-04-25T08:18:10.046Z</time></trkpt><trkpt lat="44.940417" lon="9.1953558"><ele>269.0</ele><time>2026-04-25T08:18:12.973Z</time></trkpt><trkpt lat="44.9404831" lon="9.1953301"><ele>270.0</ele><time>2026-04-25T08:18:16.976Z</time></trkpt><trkpt lat="44.9405604" lon="9.1952888"><ele>271.0</ele><time>2026-04-25T08:18:20.972Z</time></trkpt><trkpt lat="44.9406291" lon="9.1952635"><ele>272.0</ele><time>2026-04-25T08:18:23.972Z</time></trkpt><trkpt lat="44.9406961" lon="9.1952402"><ele>273.0</ele><time>2026-04-25T08:18:26.972Z</time></trkpt><trkpt lat="44.9407743" lon="9.19523"><ele>273.0</ele><time>2026-04-25T08:18:29.974Z</time></trkpt><trkpt lat="44.9408517" lon="9.1952447"><ele>273.0</ele><time>2026-04-25T08:18:32.977Z</time></trkpt><trkpt lat="44.9409354" lon="9.1952656"><ele>273.0</ele><time>2026-04-25T08:18:35.968Z</time></trkpt><trkpt lat="44.940999" lon="9.1952783"><ele>273.0</ele><time>2026-04-25T08:18:37.973Z</time></trkpt><trkpt lat="44.9410862" lon="9.1952915"><ele>273.0</ele><time>2026-04-25T08:18:40.97Z</time></trkpt><trkpt lat="44.9411613" lon="9.1953169"><ele>273.0</ele><time>2026-04-25T08:18:43.968Z</time></trkpt><trkpt lat="44.9412362" lon="9.1953437"><ele>273.0</ele><time>2026-04-25T08:18:47.978Z</time></trkpt><trkpt lat="44.94131" lon="9.1953918"><ele>273.0</ele><time>2026-04-25T08:18:51.971Z</time></trkpt><trkpt lat="44.9413799" lon="9.1954518"><ele>273.0</ele><time>2026-04-25T08:18:54.971Z</time></trkpt><trkpt lat="44.9414526" lon="9.1955172"><ele>273.0</ele><time>2026-04-25T08:18:57.973Z</time></trkpt><trkpt lat="44.9415185" lon="9.1955903"><ele>273.0</ele><time>2026-04-25T08:19:00.973Z</time></trkpt><trkpt lat="44.9415827" lon="9.1956634"><ele>273.0</ele><time>2026-04-25T08:19:03.972Z</time></trkpt><trkpt lat="44.9416406" lon="9.1957322"><ele>272.0</ele><time>2026-04-25T08:19:06.975Z</time></trkpt><trkpt lat="44.941693" lon="9.1957918"><ele>271.0</ele><time>2026-04-25T08:19:09.987Z</time></trkpt><trkpt lat="44.9417457" lon="9.1958531"><ele>270.0</ele><time>2026-04-25T08:19:12.966Z</time></trkpt><trkpt lat="44.941807" lon="9.1959305"><ele>269.0</ele><time>2026-04-25T08:19:15.969Z</time></trkpt><trkpt lat="44.9418616" lon="9.1959985"><ele>268.0</ele><time>2026-04-25T08:19:17.971Z</time></trkpt><trkpt lat="44.9419156" lon="9.1960944"><ele>267.0</ele><time>2026-04-25T08:19:19.964Z</time></trkpt><trkpt lat="44.9419643" lon="9.1961965"><ele>267.0</ele><time>2026-04-25T08:19:21.967Z</time></trkpt><trkpt lat="44.9420043" lon="9.1963087"><ele>267.0</ele><time>2026-04-25T08:19:23.974Z</time></trkpt><trkpt lat="44.9420331" lon="9.1964004"><ele>267.0</ele><time>2026-04-25T08:19:25.972Z</time></trkpt><trkpt lat="44.9420667" lon="9.1965016"><ele>267.0</ele><time>2026-04-25T08:19:28.978Z</time></trkpt><trkpt lat="44.9420989" lon="9.1966114"><ele>267.0</ele><time>2026-04-25T08:19:31.975Z</time></trkpt><trkpt lat="44.9421417" lon="9.1967"><ele>267.0</ele><time>2026-04-25T08:19:34.973Z</time></trkpt><trkpt lat="44.9421938" lon="9.1967961"><ele>268.6</ele><time>2026-04-25T08:19:37.978Z</time></trkpt><trkpt lat="44.9422557" lon="9.1968758"><ele>270.2</ele><time>2026-04-25T08:19:39.968Z</time></trkpt><trkpt lat="44.942331" lon="9.1970076"><ele>271.8</ele><time>2026-04-25T08:19:41.97Z</time></trkpt><trkpt lat="44.9423935" lon="9.1971347"><ele>273.4</ele><time>2026-04-25T08:19:43.969Z</time></trkpt><trkpt lat="44.9424414" lon="9.1972655"><ele>275.0</ele><time>2026-04-25T08:19:45.973Z</time></trkpt><trkpt lat="44.9424892" lon="9.1973806"><ele>268.0</ele><time>2026-04-25T08:19:47.975Z</time></trkpt><trkpt lat="44.942794" lon="9.1978754"><ele>268.0</ele><time>2026-04-25T08:19:56.892Z</time></trkpt><trkpt lat="44.9428173" lon="9.1979596"><ele>268.0</ele><time>2026-04-25T08:19:57.98Z</time></trkpt><trkpt lat="44.9428564" lon="9.1980607"><ele>268.0</ele><time>2026-04-25T08:20:00.971Z</time></trkpt><trkpt lat="44.9429067" lon="9.1981332"><ele>268.0</ele><time>2026-04-25T08:20:02.971Z</time></trkpt><trkpt lat="44.9429537" lon="9.1982114"><ele>268.0</ele><time>2026-04-25T08:20:05.042Z</time></trkpt><trkpt lat="44.9430315" lon="9.1982983"><ele>268.0</ele><time>2026-04-25T08:20:07.046Z</time></trkpt><trkpt lat="44.9431308" lon="9.1983659"><ele>268.66666666666663</ele><time>2026-04-25T08:20:08.975Z</time></trkpt><trkpt lat="44.9432378" lon="9.1983939"><ele>269.3333333333333</ele><time>2026-04-25T08:20:10.982Z</time></trkpt><trkpt lat="44.9433202" lon="9.1984211"><ele>270.0</ele><time>2026-04-25T08:20:12.976Z</time></trkpt><trkpt lat="44.9433908" lon="9.1984547"><ele>270.6666666666667</ele><time>2026-04-25T08:20:14.972Z</time></trkpt><trkpt lat="44.9434609" lon="9.1985055"><ele>271.33333333333337</ele><time>2026-04-25T08:20:16.972Z</time></trkpt><trkpt lat="44.9435292" lon="9.1985641"><ele>272.0</ele><time>2026-04-25T08:20:18.976Z</time></trkpt><trkpt lat="44.9435852" lon="9.1986209"><ele>271.71428571428567</ele><time>2026-04-25T08:20:20.968Z</time></trkpt><trkpt lat="44.9436366" lon="9.1986763"><ele>271.42857142857144</ele><time>2026-04-25T08:20:22.972Z</time></trkpt><trkpt lat="44.9436949" lon="9.198727"><ele>271.1428571428571</ele><time>2026-04-25T08:20:24.97Z</time></trkpt><trkpt lat="44.9437548" lon="9.1987836"><ele>270.85714285714283</ele><time>2026-04-25T08:20:26.979Z</time></trkpt><trkpt lat="44.9438027" lon="9.1988437"><ele>270.57142857142856</ele><time>2026-04-25T08:20:28.975Z</time></trkpt><trkpt lat="44.9438571" lon="9.1989028"><ele>270.2857142857143</ele><time>2026-04-25T08:20:30.979Z</time></trkpt><trkpt lat="44.9439117" lon="9.1989667"><ele>270.0</ele><time>2026-04-25T08:20:32.976Z</time></trkpt><trkpt lat="44.9439645" lon="9.1990302"><ele>270.0</ele><time>2026-04-25T08:20:34.976Z</time></trkpt><trkpt lat="44.9440256" lon="9.1991051"><ele>270.0</ele><time>2026-04-25T08:20:36.978Z</time></trkpt><trkpt lat="44.944094" lon="9.1991969"><ele>270.0</ele><time>2026-04-25T08:20:38.979Z</time></trkpt><trkpt lat="44.9441678" lon="9.1992841"><ele>270.0</ele><time>2026-04-25T08:20:40.98Z</time></trkpt><trkpt lat="44.9442293" lon="9.1993979"><ele>270.0</ele><time>2026-04-25T08:20:42.976Z</time></trkpt><trkpt lat="44.9442797" lon="9.1995056"><ele>269.0</ele><time>2026-04-25T08:20:45.054Z</time></trkpt><trkpt lat="44.9443356" lon="9.1996178"><ele>268.0</ele><time>2026-04-25T08:20:46.997Z</time></trkpt><trkpt lat="44.9443874" lon="9.1997267"><ele>267.0</ele><time>2026-04-25T08:20:48.979Z</time></trkpt><trkpt lat="44.944446" lon="9.1998343"><ele>266.0</ele><time>2026-04-25T08:20:50.984Z</time></trkpt><trkpt lat="44.9445145" lon="9.1999336"><ele>265.0</ele><time>2026-04-25T08:20:52.976Z</time></trkpt><trkpt lat="44.9446221" lon="9.2000067"><ele>265.0</ele><time>2026-04-25T08:20:54.981Z</time></trkpt><trkpt lat="44.9446845" lon="9.2000341"><ele>265.0</ele><time>2026-04-25T08:20:55.975Z</time></trkpt><trkpt lat="44.9447442" lon="9.2000663"><ele>265.0</ele><time>2026-04-25T08:20:56.976Z</time></trkpt><trkpt lat="44.9448239" lon="9.2001217"><ele>265.0</ele><time>2026-04-25T08:20:58.971Z</time></trkpt><trkpt lat="44.9449184" lon="9.200195"><ele>265.0</ele><time>2026-04-25T08:21:00.977Z</time></trkpt><trkpt lat="44.9450173" lon="9.2002735"><ele>265.0</ele><time>2026-04-25T08:21:02.978Z</time></trkpt><trkpt lat="44.9450784" lon="9.2003063"><ele>265.6</ele><time>2026-04-25T08:21:03.973Z</time></trkpt><trkpt lat="44.9451927" lon="9.2003451"><ele>266.2</ele><time>2026-04-25T08:21:05.968Z</time></trkpt><trkpt lat="44.9452984" lon="9.2003497"><ele>266.8</ele><time>2026-04-25T08:21:07.976Z</time></trkpt><trkpt lat="44.9454007" lon="9.2002942"><ele>267.4</ele><time>2026-04-25T08:21:10.044Z</time></trkpt><trkpt lat="44.9454912" lon="9.2002484"><ele>268.0</ele><time>2026-04-25T08:21:11.992Z</time></trkpt><trkpt lat="44.9455692" lon="9.2002138"><ele>268.0</ele><time>2026-04-25T08:21:14.973Z</time></trkpt><trkpt lat="44.9456338" lon="9.2001959"><ele>268.0</ele><time>2026-04-25T08:21:17.966Z</time></trkpt><trkpt lat="44.9457144" lon="9.2001511"><ele>268.0</ele><time>2026-04-25T08:21:20.977Z</time></trkpt><trkpt lat="44.9457726" lon="9.2001145"><ele>268.0</ele><time>2026-04-25T08:21:22.979Z</time></trkpt><trkpt lat="44.9458055" lon="9.2000366"><ele>268.0</ele><time>2026-04-25T08:21:24.974Z</time></trkpt><trkpt lat="44.9458203" lon="9.1999417"><ele>268.0</ele><time>2026-04-25T08:21:26.97Z</time></trkpt><trkpt lat="44.9458429" lon="9.1998454"><ele>268.0</ele><time>2026-04-25T08:21:28.976Z</time></trkpt><trkpt lat="44.9458719" lon="9.1997216"><ele>268.3333333333333</ele><time>2026-04-25T08:21:30.971Z</time></trkpt><trkpt lat="44.9459211" lon="9.1996129"><ele>268.66666666666663</ele><time>2026-04-25T08:21:32.968Z</time></trkpt><trkpt lat="44.9459725" lon="9.1995168"><ele>269.0</ele><time>2026-04-25T08:21:34.978Z</time></trkpt><trkpt lat="44.9460283" lon="9.1993932"><ele>269.3333333333333</ele><time>2026-04-25T08:21:36.991Z</time></trkpt><trkpt lat="44.9460789" lon="9.199276"><ele>269.6666666666667</ele><time>2026-04-25T08:21:38.97Z</time></trkpt><trkpt lat="44.9461066" lon="9.1991831"><ele>270.0</ele><time>2026-04-25T08:21:40.975Z</time></trkpt><trkpt lat="44.946177" lon="9.1991485"><ele>270.0</ele><time>2026-04-25T08:21:42.972Z</time></trkpt><trkpt lat="44.9462438" lon="9.199187"><ele>270.0</ele><time>2026-04-25T08:21:45.962Z</time></trkpt><trkpt lat="44.9463018" lon="9.1992262"><ele>270.0</ele><time>2026-04-25T08:21:47.973Z</time></trkpt><trkpt lat="44.9463659" lon="9.1992658"><ele>270.0</ele><time>2026-04-25T08:21:49.964Z</time></trkpt><trkpt lat="44.9464356" lon="9.199296"><ele>270.0</ele><time>2026-04-25T08:21:51.971Z</time></trkpt><trkpt lat="44.9465052" lon="9.1993322"><ele>270.0</ele><time>2026-04-25T08:21:53.97Z</time></trkpt><trkpt lat="44.9468567" lon="9.1994272"><ele>271.6666666666667</ele><time>2026-04-25T08:22:03.9Z</time></trkpt><trkpt lat="44.9469385" lon="9.1994318"><ele>273.3333333333333</ele><time>2026-04-25T08:22:05.968Z</time></trkpt><trkpt lat="44.9470223" lon="9.1994774"><ele>275.0</ele><time>2026-04-25T08:22:08.968Z</time></trkpt><trkpt lat="44.9470919" lon="9.1994856"><ele>276.66666666666663</ele><time>2026-04-25T08:22:10.961Z</time></trkpt><trkpt lat="44.9471548" lon="9.1994761"><ele>278.3333333333333</ele><time>2026-04-25T08:22:13.026Z</time></trkpt><trkpt lat="44.947246" lon="9.199479"><ele>280.0</ele><time>2026-04-25T08:22:15.971Z</time></trkpt><trkpt lat="44.9473238" lon="9.1994658"><ele>280.0</ele><time>2026-04-25T08:22:17.969Z</time></trkpt><trkpt lat="44.9473904" lon="9.1994538"><ele>280.0</ele><time>2026-04-25T08:22:19.965Z</time></trkpt><trkpt lat="44.9474587" lon="9.1994257"><ele>280.0</ele><time>2026-04-25T08:22:21.968Z</time></trkpt><trkpt lat="44.9475246" lon="9.1993953"><ele>280.0</ele><time>2026-04-25T08:22:23.987Z</time></trkpt><trkpt lat="44.9475928" lon="9.1994055"><ele>280.0</ele><time>2026-04-25T08:22:25.968Z</time></trkpt><trkpt lat="44.9476506" lon="9.1994784"><ele>280.0</ele><time>2026-04-25T08:22:27.971Z</time></trkpt><trkpt lat="44.9476909" lon="9.1995655"><ele>280.0</ele><time>2026-04-25T08:22:29.974Z</time></trkpt><trkpt lat="44.9477204" lon="9.1996743"><ele>282.7142857142857</ele><time>2026-04-25T08:22:31.971Z</time></trkpt><trkpt lat="44.9477538" lon="9.1997653"><ele>285.42857142857144</ele><time>2026-04-25T08:22:33.971Z</time></trkpt><trkpt lat="44.9477826" lon="9.1998547"><ele>288.1428571428571</ele><time>2026-04-25T08:22:35.984Z</time></trkpt><trkpt lat="44.9477992" lon="9.1999467"><ele>290.8571428571429</ele><time>2026-04-25T08:22:37.98Z</time></trkpt><trkpt lat="44.947801" lon="9.2000569"><ele>293.57142857142856</ele><time>2026-04-25T08:22:39.978Z</time></trkpt><trkpt lat="44.9477995" lon="9.2001725"><ele>296.2857142857143</ele><time>2026-04-25T08:22:41.976Z</time></trkpt><trkpt lat="44.9477712" lon="9.2002767"><ele>299.0</ele><time>2026-04-25T08:22:43.977Z</time></trkpt><trkpt lat="44.9477435" lon="9.2003801"><ele>299.1666666666667</ele><time>2026-04-25T08:22:45.973Z</time></trkpt><trkpt lat="44.9477203" lon="9.2004818"><ele>299.33333333333337</ele><time>2026-04-25T08:22:47.974Z</time></trkpt><trkpt lat="44.947694" lon="9.2005651"><ele>299.5</ele><time>2026-04-25T08:22:49.976Z</time></trkpt><trkpt lat="44.9476559" lon="9.2006798"><ele>299.6666666666667</ele><time>2026-04-25T08:22:52.969Z</time></trkpt><trkpt lat="44.9476108" lon="9.2007721"><ele>299.8333333333333</ele><time>2026-04-25T08:22:55.977Z</time></trkpt><trkpt lat="44.9476073" lon="9.2008817"><ele>300.0</ele><time>2026-04-25T08:22:59.972Z</time></trkpt><trkpt lat="44.9476745" lon="9.2009117"><ele>301.5</ele><time>2026-04-25T08:23:01.976Z</time></trkpt><trkpt lat="44.9477612" lon="9.2009636"><ele>303.0</ele><time>2026-04-25T08:23:04.974Z</time></trkpt><trkpt lat="44.9478207" lon="9.2009986"><ele>304.5</ele><time>2026-04-25T08:23:06.97Z</time></trkpt><trkpt lat="44.9479035" lon="9.2010312"><ele>306.0</ele><time>2026-04-25T08:23:09.971Z</time></trkpt><trkpt lat="44.9479769" lon="9.2010354"><ele>307.5</ele><time>2026-04-25T08:23:12.969Z</time></trkpt><trkpt lat="44.9480549" lon="9.2010231"><ele>309.0</ele><time>2026-04-25T08:23:15.973Z</time></trkpt><trkpt lat="44.9481175" lon="9.2010025"><ele>309.0</ele><time>2026-04-25T08:23:17.977Z</time></trkpt><trkpt lat="44.9481694" lon="9.2009031"><ele>309.0</ele><time>2026-04-25T08:23:20.966Z</time></trkpt><trkpt lat="44.9481871" lon="9.2007665"><ele>309.0</ele><time>2026-04-25T08:23:23.971Z</time></trkpt><trkpt lat="44.9481889" lon="9.2006766"><ele>309.0</ele><time>2026-04-25T08:23:25.979Z</time></trkpt><trkpt lat="44.9481898" lon="9.2005411"><ele>309.0</ele><time>2026-04-25T08:23:28.976Z</time></trkpt><trkpt lat="44.9481864" lon="9.200445"><ele>309.0</ele><time>2026-04-25T08:23:30.974Z</time></trkpt><trkpt lat="44.9481908" lon="9.2003456"><ele>307.7142857142857</ele><time>2026-04-25T08:23:32.972Z</time></trkpt><trkpt lat="44.9482048" lon="9.2002512"><ele>306.42857142857144</ele><time>2026-04-25T08:23:34.976Z</time></trkpt><trkpt lat="44.948229" lon="9.2001602"><ele>305.1428571428571</ele><time>2026-04-25T08:23:36.967Z</time></trkpt><trkpt lat="44.9482668" lon="9.2000811"><ele>303.8571428571429</ele><time>2026-04-25T08:23:38.977Z</time></trkpt><trkpt lat="44.9483197" lon="9.2000204"><ele>302.57142857142856</ele><time>2026-04-25T08:23:40.974Z</time></trkpt><trkpt lat="44.9483757" lon="9.1999717"><ele>301.2857142857143</ele><time>2026-04-25T08:23:42.98Z</time></trkpt><trkpt lat="44.9484544" lon="9.1999121"><ele>300.0</ele><time>2026-04-25T08:23:46.048Z</time></trkpt><trkpt lat="44.9485221" lon="9.1998484"><ele>306.6</ele><time>2026-04-25T08:23:48.971Z</time></trkpt><trkpt lat="44.9485661" lon="9.1997601"><ele>313.2</ele><time>2026-04-25T08:23:51.971Z</time></trkpt><trkpt lat="44.9486197" lon="9.1996823"><ele>319.79999999999995</ele><time>2026-04-25T08:23:54.97Z</time></trkpt><trkpt lat="44.9486755" lon="9.1996086"><ele>326.4</ele><time>2026-04-25T08:23:57.971Z</time></trkpt><trkpt lat="44.948739" lon="9.1995874"><ele>333.0</ele><time>2026-04-25T08:24:00.991Z</time></trkpt><trkpt lat="44.9489043" lon="9.199839"><ele>333.0</ele><time>2026-04-25T08:24:10.876Z</time></trkpt><trkpt lat="44.9489501" lon="9.1997745"><ele>333.0</ele><time>2026-04-25T08:24:12.966Z</time></trkpt><trkpt lat="44.9489832" lon="9.1996643"><ele>333.0</ele><time>2026-04-25T08:24:15.974Z</time></trkpt><trkpt lat="44.9489838" lon="9.1995531"><ele>333.0</ele><time>2026-04-25T08:24:18.983Z</time></trkpt><trkpt lat="44.9489815" lon="9.1994293"><ele>333.0</ele><time>2026-04-25T08:24:21.976Z</time></trkpt><trkpt lat="44.9489659" lon="9.1993281"><ele>333.0</ele><time>2026-04-25T08:24:24.979Z</time></trkpt><trkpt lat="44.9489641" lon="9.1992146"><ele>333.0</ele><time>2026-04-25T08:24:27.974Z</time></trkpt><trkpt lat="44.9489839" lon="9.1990804"><ele>333.0</ele><time>2026-04-25T08:24:30.979Z</time></trkpt><trkpt lat="44.9490375" lon="9.1989862"><ele>333.0</ele><time>2026-04-25T08:24:33.968Z</time></trkpt><trkpt lat="44.9490982" lon="9.1989519"><ele>333.0</ele><time>2026-04-25T08:24:36.967Z</time></trkpt><trkpt lat="44.9491903" lon="9.198962"><ele>333.0</ele><time>2026-04-25T08:24:39.976Z</time></trkpt><trkpt lat="44.9492611" lon="9.1989575"><ele>333.0</ele><time>2026-04-25T08:24:42.978Z</time></trkpt><trkpt lat="44.9493444" lon="9.1989418"><ele>332.59999999999997</ele><time>2026-04-25T08:24:46.977Z</time></trkpt><trkpt lat="44.9494121" lon="9.1989408"><ele>332.2</ele><time>2026-04-25T08:24:50.983Z</time></trkpt><trkpt lat="44.9494004" lon="9.1988459"><ele>331.8</ele><time>2026-04-25T08:25:06.965Z</time></trkpt><trkpt lat="44.9493645" lon="9.1987724"><ele>331.4</ele><time>2026-04-25T08:25:09.984Z</time></trkpt><trkpt lat="44.9492965" lon="9.198477"><ele>331.0</ele><time>2026-04-25T08:25:19.788Z</time></trkpt><trkpt lat="44.9492935" lon="9.1981611"><ele>328.5</ele><time>2026-04-25T08:25:28.847Z</time></trkpt><trkpt lat="44.9496053" lon="9.1980877"><ele>326.0</ele><time>2026-04-25T08:25:37.792Z</time></trkpt><trkpt lat="44.9496637" lon="9.1978462"><ele>326.0</ele><time>2026-04-25T08:25:46.8Z</time></trkpt><trkpt lat="44.949881" lon="9.1975784"><ele>326.0</ele><time>2026-04-25T08:25:55.798Z</time></trkpt><trkpt lat="44.9498166" lon="9.197654"><ele>326.0</ele><time>2026-04-25T08:26:04.789Z</time></trkpt><trkpt lat="44.9497469" lon="9.1974342"><ele>315.0</ele><time>2026-04-25T08:26:13.791Z</time></trkpt><trkpt lat="44.9498968" lon="9.1965919"><ele>315.0</ele><time>2026-04-25T08:26:23.963Z</time></trkpt><trkpt lat="44.949832" lon="9.1966017"><ele>315.0</ele><time>2026-04-25T08:26:25.97Z</time></trkpt><trkpt lat="44.9497508" lon="9.1965696"><ele>315.0</ele><time>2026-04-25T08:26:28.965Z</time></trkpt><trkpt lat="44.9496902" lon="9.1965433"><ele>315.0</ele><time>2026-04-25T08:26:30.964Z</time></trkpt><trkpt lat="44.9496217" lon="9.1964973"><ele>315.0</ele><time>2026-04-25T08:26:33.962Z</time></trkpt><trkpt lat="44.9495443" lon="9.1964641"><ele>315.0</ele><time>2026-04-25T08:26:37.967Z</time></trkpt><trkpt lat="44.9494679" lon="9.1964336"><ele>315.0</ele><time>2026-04-25T08:26:40.968Z</time></trkpt><trkpt lat="44.9493914" lon="9.1963946"><ele>314.0</ele><time>2026-04-25T08:26:44.986Z</time></trkpt><trkpt lat="44.9493082" lon="9.1963597"><ele>313.0</ele><time>2026-04-25T08:26:47.965Z</time></trkpt><trkpt lat="44.9492411" lon="9.1963445"><ele>312.0</ele><time>2026-04-25T08:26:49.973Z</time></trkpt><trkpt lat="44.9491679" lon="9.1963334"><ele>311.0</ele><time>2026-04-25T08:26:51.97Z</time></trkpt><trkpt lat="44.9490804" lon="9.1962932"><ele>310.0</ele><time>2026-04-25T08:26:54.974Z</time></trkpt><trkpt lat="44.9490016" lon="9.1962482"><ele>309.0</ele><time>2026-04-25T08:26:56.976Z</time></trkpt><trkpt lat="44.9489005" lon="9.1962204"><ele>309.0</ele><time>2026-04-25T08:26:58.979Z</time></trkpt><trkpt lat="44.9488346" lon="9.196188"><ele>309.0</ele><time>2026-04-25T08:26:59.972Z</time></trkpt><trkpt lat="44.9487569" lon="9.1961327"><ele>309.0</ele><time>2026-04-25T08:27:01.972Z</time></trkpt><trkpt lat="44.9487007" lon="9.1960765"><ele>309.0</ele><time>2026-04-25T08:27:03.977Z</time></trkpt><trkpt lat="44.9486336" lon="9.1960173"><ele>309.0</ele><time>2026-04-25T08:27:05.971Z</time></trkpt><trkpt lat="44.948582" lon="9.195958"><ele>309.0</ele><time>2026-04-25T08:27:07.974Z</time></trkpt><trkpt lat="44.948519" lon="9.1958615"><ele>309.0</ele><time>2026-04-25T08:27:10.962Z</time></trkpt><trkpt lat="44.9484602" lon="9.1957596"><ele>309.0</ele><time>2026-04-25T08:27:13.975Z</time></trkpt><trkpt lat="44.9484009" lon="9.1957009"><ele>309.0</ele><time>2026-04-25T08:27:15.976Z</time></trkpt><trkpt lat="44.9483289" lon="9.1956367"><ele>309.0</ele><time>2026-04-25T08:27:18.969Z</time></trkpt><trkpt lat="44.9482623" lon="9.1955997"><ele>309.0</ele><time>2026-04-25T08:27:21.976Z</time></trkpt><trkpt lat="44.9481888" lon="9.1955452"><ele>309.0</ele><time>2026-04-25T08:27:24.975Z</time></trkpt><trkpt lat="44.9481322" lon="9.1954911"><ele>307.8333333333333</ele><time>2026-04-25T08:27:26.974Z</time></trkpt><trkpt lat="44.9480852" lon="9.1954276"><ele>306.6666666666667</ele><time>2026-04-25T08:27:28.969Z</time></trkpt><trkpt lat="44.9480412" lon="9.1953523"><ele>305.5</ele><time>2026-04-25T08:27:30.976Z</time></trkpt><trkpt lat="44.9479847" lon="9.195253"><ele>304.33333333333337</ele><time>2026-04-25T08:27:33.971Z</time></trkpt><trkpt lat="44.9479484" lon="9.1951436"><ele>303.1666666666667</ele><time>2026-04-25T08:27:36.972Z</time></trkpt><trkpt lat="44.9479346" lon="9.1950205"><ele>302.0</ele><time>2026-04-25T08:27:39.964Z</time></trkpt><trkpt lat="44.9479368" lon="9.1949172"><ele>301.6666666666667</ele><time>2026-04-25T08:27:41.969Z</time></trkpt><trkpt lat="44.9479323" lon="9.1948165"><ele>301.33333333333337</ele><time>2026-04-25T08:27:43.971Z</time></trkpt><trkpt lat="44.9479106" lon="9.1947201"><ele>301.0</ele><time>2026-04-25T08:27:45.966Z</time></trkpt><trkpt lat="44.9478708" lon="9.1946219"><ele>300.6666666666667</ele><time>2026-04-25T08:27:47.968Z</time></trkpt><trkpt lat="44.9478133" lon="9.1945568"><ele>300.3333333333333</ele><time>2026-04-25T08:27:49.968Z</time></trkpt><trkpt lat="44.9477511" lon="9.1945119"><ele>300.0</ele><time>2026-04-25T08:27:51.974Z</time></trkpt><trkpt lat="44.9476758" lon="9.1944531"><ele>300.0</ele><time>2026-04-25T08:27:53.977Z</time></trkpt><trkpt lat="44.9476043" lon="9.1943884"><ele>300.0</ele><time>2026-04-25T08:27:55.972Z</time></trkpt><trkpt lat="44.9475349" lon="9.194331"><ele>300.0</ele><time>2026-04-25T08:27:57.967Z</time></trkpt><trkpt lat="44.9474445" lon="9.1942761"><ele>300.0</ele><time>2026-04-25T08:27:59.971Z</time></trkpt><trkpt lat="44.9473772" lon="9.1942202"><ele>300.0</ele><time>2026-04-25T08:28:01.969Z</time></trkpt><trkpt lat="44.9473173" lon="9.194174"><ele>300.0</ele><time>2026-04-25T08:28:03.97Z</time></trkpt><trkpt lat="44.947265" lon="9.1941193"><ele>295.5</ele><time>2026-04-25T08:28:05.973Z</time></trkpt><trkpt lat="44.9472143" lon="9.1940313"><ele>291.0</ele><time>2026-04-25T08:28:08.972Z</time></trkpt><trkpt lat="44.9472012" lon="9.1939247"><ele>286.5</ele><time>2026-04-25T08:28:11.969Z</time></trkpt><trkpt lat="44.9472108" lon="9.1937953"><ele>282.0</ele><time>2026-04-25T08:28:14.973Z</time></trkpt><trkpt lat="44.9472215" lon="9.1936593"><ele>277.5</ele><time>2026-04-25T08:28:16.968Z</time></trkpt><trkpt lat="44.947254" lon="9.1935381"><ele>273.0</ele><time>2026-04-25T08:28:18.97Z</time></trkpt><trkpt lat="44.947294" lon="9.1934359"><ele>256.0</ele><time>2026-04-25T08:28:20.965Z</time></trkpt><trkpt lat="44.9475932" lon="9.1929244"><ele>256.0</ele><time>2026-04-25T08:28:29.893Z</time></trkpt><trkpt lat="44.9476699" lon="9.1928443"><ele>256.0</ele><time>2026-04-25T08:28:31.965Z</time></trkpt><trkpt lat="44.9477168" lon="9.192749"><ele>256.0</ele><time>2026-04-25T08:28:33.967Z</time></trkpt><trkpt lat="44.947776" lon="9.192662"><ele>256.0</ele><time>2026-04-25T08:28:35.967Z</time></trkpt><trkpt lat="44.9478278" lon="9.1925582"><ele>256.0</ele><time>2026-04-25T08:28:38.024Z</time></trkpt><trkpt lat="44.9478861" lon="9.1924304"><ele>252.4</ele><time>2026-04-25T08:28:39.977Z</time></trkpt><trkpt lat="44.9479426" lon="9.1922894"><ele>248.8</ele><time>2026-04-25T08:28:41.971Z</time></trkpt><trkpt lat="44.9479946" lon="9.1921484"><ele>245.20000000000002</ele><time>2026-04-25T08:28:43.962Z</time></trkpt><trkpt lat="44.9480407" lon="9.1920019"><ele>241.60000000000002</ele><time>2026-04-25T08:28:45.968Z</time></trkpt><trkpt lat="44.9480814" lon="9.1918809"><ele>238.0</ele><time>2026-04-25T08:28:47.976Z</time></trkpt><trkpt lat="44.9481306" lon="9.1917719"><ele>237.99999999999997</ele><time>2026-04-25T08:28:49.971Z</time></trkpt><trkpt lat="44.9481914" lon="9.1917084"><ele>238.0</ele><time>2026-04-25T08:28:51.972Z</time></trkpt><trkpt lat="44.9482684" lon="9.1916969"><ele>238.0</ele><time>2026-04-25T08:28:53.972Z</time></trkpt><trkpt lat="44.9483446" lon="9.1917399"><ele>238.0</ele><time>2026-04-25T08:28:55.966Z</time></trkpt><trkpt lat="44.9484206" lon="9.191817"><ele>237.99999999999997</ele><time>2026-04-25T08:28:57.968Z</time></trkpt><trkpt lat="44.9485191" lon="9.1918842"><ele>238.0</ele><time>2026-04-25T08:28:59.976Z</time></trkpt><trkpt lat="44.9486405" lon="9.1919124"><ele>232.0</ele><time>2026-04-25T08:29:01.97Z</time></trkpt><trkpt lat="44.949015" lon="9.1917315"><ele>226.0</ele><time>2026-04-25T08:29:10.892Z</time></trkpt><trkpt lat="44.9490496" lon="9.1915783"><ele>220.0</ele><time>2026-04-25T08:29:12.976Z</time></trkpt><trkpt lat="44.9490366" lon="9.191444"><ele>214.0</ele><time>2026-04-25T08:29:15.972Z</time></trkpt><trkpt lat="44.9488428" lon="9.1907676"><ele>211.5</ele><time>2026-04-25T08:29:24.848Z</time></trkpt><trkpt lat="44.9486458" lon="9.1902696"><ele>209.0</ele><time>2026-04-25T08:29:33.857Z</time></trkpt><trkpt lat="44.9486814" lon="9.190131"><ele>209.00000000000003</ele><time>2026-04-25T08:29:34.971Z</time></trkpt><trkpt lat="44.9486008" lon="9.1900476"><ele>209.0</ele><time>2026-04-25T08:29:36.983Z</time></trkpt><trkpt lat="44.9485865" lon="9.1899141"><ele>209.0</ele><time>2026-04-25T08:29:38.97Z</time></trkpt><trkpt lat="44.9485848" lon="9.1897985"><ele>209.0</ele><time>2026-04-25T08:29:40.968Z</time></trkpt><trkpt lat="44.9485635" lon="9.1897094"><ele>209.00000000000003</ele><time>2026-04-25T08:29:42.973Z</time></trkpt><trkpt lat="44.9485783" lon="9.1896087"><ele>209.0</ele><time>2026-04-25T08:29:45.975Z</time></trkpt><trkpt lat="44.9486614" lon="9.1896036"><ele>208.39999999999998</ele><time>2026-04-25T08:29:48.971Z</time></trkpt><trkpt lat="44.948735" lon="9.1895959"><ele>207.8</ele><time>2026-04-25T08:29:50.98Z</time></trkpt><trkpt lat="44.9488313" lon="9.1896066"><ele>207.2</ele><time>2026-04-25T08:29:52.974Z</time></trkpt><trkpt lat="44.9489369" lon="9.189603"><ele>206.60000000000002</ele><time>2026-04-25T08:29:54.975Z</time></trkpt><trkpt lat="44.9490527" lon="9.1895859"><ele>206.0</ele><time>2026-04-25T08:29:56.966Z</time></trkpt><trkpt lat="44.9491165" lon="9.1895785"><ele>205.99999999999997</ele><time>2026-04-25T08:29:57.964Z</time></trkpt><trkpt lat="44.9491856" lon="9.189571"><ele>206.0</ele><time>2026-04-25T08:29:58.965Z</time></trkpt><trkpt lat="44.949259" lon="9.1895539"><ele>206.0</ele><time>2026-04-25T08:29:59.964Z</time></trkpt><trkpt lat="44.9493389" lon="9.1895285"><ele>206.0</ele><time>2026-04-25T08:30:00.97Z</time></trkpt><trkpt lat="44.9494113" lon="9.189492"><ele>206.0</ele><time>2026-04-25T08:30:01.969Z</time></trkpt><trkpt lat="44.9494736" lon="9.1894482"><ele>205.99999999999997</ele><time>2026-04-25T08:30:02.968Z</time></trkpt><trkpt lat="44.949528" lon="9.1893969"><ele>206.0</ele><time>2026-04-25T08:30:03.973Z</time></trkpt><trkpt lat="44.9496202" lon="9.1893157"><ele>206.83333333333334</ele><time>2026-04-25T08:30:05.978Z</time></trkpt><trkpt lat="44.9496995" lon="9.1892508"><ele>207.66666666666669</ele><time>2026-04-25T08:30:07.978Z</time></trkpt><trkpt lat="44.9497688" lon="9.1891913"><ele>208.5</ele><time>2026-04-25T08:30:10.97Z</time></trkpt><trkpt lat="44.9498338" lon="9.1891131"><ele>209.33333333333331</ele><time>2026-04-25T08:30:13.974Z</time></trkpt><trkpt lat="44.9498859" lon="9.1890466"><ele>210.16666666666666</ele><time>2026-04-25T08:30:16.97Z</time></trkpt><trkpt lat="44.94994" lon="9.1889855"><ele>211.0</ele><time>2026-04-25T08:30:19.966Z</time></trkpt><trkpt lat="44.9500019" lon="9.1889154"><ele>213.66666666666666</ele><time>2026-04-25T08:30:22.971Z</time></trkpt><trkpt lat="44.9500577" lon="9.1888409"><ele>216.33333333333331</ele><time>2026-04-25T08:30:25.97Z</time></trkpt><trkpt lat="44.9501149" lon="9.1887655"><ele>219.0</ele><time>2026-04-25T08:30:28.986Z</time></trkpt><trkpt lat="44.9501698" lon="9.1886892"><ele>221.66666666666669</ele><time>2026-04-25T08:30:31.973Z</time></trkpt><trkpt lat="44.9502264" lon="9.1886301"><ele>224.33333333333334</ele><time>2026-04-25T08:30:34.973Z</time></trkpt><trkpt lat="44.9502798" lon="9.188571"><ele>227.0</ele><time>2026-04-25T08:30:37.973Z</time></trkpt><trkpt lat="44.950352" lon="9.1885119"><ele>227.0</ele><time>2026-04-25T08:30:40.966Z</time></trkpt><trkpt lat="44.9504153" lon="9.1884554"><ele>227.00000000000003</ele><time>2026-04-25T08:30:43.973Z</time></trkpt><trkpt lat="44.9504829" lon="9.1884029"><ele>227.0</ele><time>2026-04-25T08:30:46.981Z</time></trkpt><trkpt lat="44.9505453" lon="9.1883602"><ele>227.0</ele><time>2026-04-25T08:30:49.974Z</time></trkpt><trkpt lat="44.9506151" lon="9.1883337"><ele>227.00000000000003</ele><time>2026-04-25T08:30:52.966Z</time></trkpt><trkpt lat="44.9506718" lon="9.1882925"><ele>227.0</ele><time>2026-04-25T08:30:55.975Z</time></trkpt><trkpt lat="44.9507308" lon="9.1882477"><ele>227.0</ele><time>2026-04-25T08:30:58.967Z</time></trkpt><trkpt lat="44.9508099" lon="9.1882112"><ele>228.0</ele><time>2026-04-25T08:31:02.973Z</time></trkpt><trkpt lat="44.9508744" lon="9.1881973"><ele>229.00000000000003</ele><time>2026-04-25T08:31:05.976Z</time></trkpt><trkpt lat="44.9509383" lon="9.1881842"><ele>230.0</ele><time>2026-04-25T08:31:08.986Z</time></trkpt><trkpt lat="44.9510044" lon="9.1881724"><ele>231.0</ele><time>2026-04-25T08:31:12.046Z</time></trkpt><trkpt lat="44.9510749" lon="9.1881573"><ele>232.00000000000003</ele><time>2026-04-25T08:31:14.976Z</time></trkpt><trkpt lat="44.9511594" lon="9.1881527"><ele>233.0</ele><time>2026-04-25T08:31:18.978Z</time></trkpt><trkpt lat="44.9512289" lon="9.1881485"><ele>234.0</ele><time>2026-04-25T08:31:21.984Z</time></trkpt><trkpt lat="44.9512926" lon="9.1881528"><ele>234.0</ele><time>2026-04-25T08:31:24.966Z</time></trkpt><trkpt lat="44.9513647" lon="9.1881516"><ele>234.0</ele><time>2026-04-25T08:31:27.973Z</time></trkpt><trkpt lat="44.951439" lon="9.1881772"><ele>234.0</ele><time>2026-04-25T08:31:31.974Z</time></trkpt><trkpt lat="44.9516179" lon="9.1881971"><ele>234.0</ele><time>2026-04-25T08:31:40.787Z</time></trkpt><trkpt lat="44.9517837" lon="9.1883059"><ele>243.66666666666669</ele><time>2026-04-25T08:31:49.785Z</time></trkpt><trkpt lat="44.9519639" lon="9.1883754"><ele>253.33333333333334</ele><time>2026-04-25T08:31:58.784Z</time></trkpt><trkpt lat="44.9521141" lon="9.1883955"><ele>263.0</ele><time>2026-04-25T08:32:07.789Z</time></trkpt><trkpt lat="44.9522957" lon="9.1884592"><ele>263.0</ele><time>2026-04-25T08:32:16.789Z</time></trkpt><trkpt lat="44.9524008" lon="9.188445"><ele>263.0</ele><time>2026-04-25T08:32:34.895Z</time></trkpt><trkpt lat="44.9526926" lon="9.1885095"><ele>263.0</ele><time>2026-04-25T08:32:35.969Z</time></trkpt><trkpt lat="44.9527605" lon="9.188557"><ele>269.33333333333337</ele><time>2026-04-25T08:33:08.977Z</time></trkpt><trkpt lat="44.9529524" lon="9.1886022"><ele>275.6666666666667</ele><time>2026-04-25T08:33:18.788Z</time></trkpt><trkpt lat="44.9531265" lon="9.1886904"><ele>282.0</ele><time>2026-04-25T08:33:27.786Z</time></trkpt><trkpt lat="44.9532193" lon="9.1885788"><ele>287.6666666666667</ele><time>2026-04-25T08:33:36.796Z</time></trkpt><trkpt lat="44.953376" lon="9.1883888"><ele>293.33333333333337</ele><time>2026-04-25T08:33:45.798Z</time></trkpt><trkpt lat="44.953528" lon="9.1882954"><ele>299.0</ele><time>2026-04-25T08:33:54.801Z</time></trkpt><trkpt lat="44.9535234" lon="9.1884195"><ele>299.0</ele><time>2026-04-25T08:34:03.799Z</time></trkpt><trkpt lat="44.9536632" lon="9.1883616"><ele>299.0</ele><time>2026-04-25T08:34:12.799Z</time></trkpt><trkpt lat="44.9538046" lon="9.1883545"><ele>299.0</ele><time>2026-04-25T08:34:21.787Z</time></trkpt><trkpt lat="44.9537352" lon="9.1883531"><ele>299.0</ele><time>2026-04-25T08:34:30.808Z</time></trkpt><trkpt lat="44.9545374" lon="9.1883929"><ele>302.6666666666667</ele><time>2026-04-25T08:34:39.792Z</time></trkpt><trkpt lat="44.954746" lon="9.1885011"><ele>306.3333333333333</ele><time>2026-04-25T08:34:48.797Z</time></trkpt><trkpt lat="44.9549215" lon="9.1886681"><ele>310.0</ele><time>2026-04-25T08:34:57.896Z</time></trkpt><trkpt lat="44.9549857" lon="9.1887057"><ele>311.2857142857143</ele><time>2026-04-25T08:34:59.969Z</time></trkpt><trkpt lat="44.9550447" lon="9.1887555"><ele>312.57142857142856</ele><time>2026-04-25T08:35:03.977Z</time></trkpt><trkpt lat="44.9551122" lon="9.188784"><ele>313.8571428571429</ele><time>2026-04-25T08:35:07.079Z</time></trkpt><trkpt lat="44.9551931" lon="9.1887999"><ele>315.1428571428571</ele><time>2026-04-25T08:35:09.972Z</time></trkpt><trkpt lat="44.9552672" lon="9.1887983"><ele>316.4285714285714</ele><time>2026-04-25T08:35:12.985Z</time></trkpt><trkpt lat="44.9553357" lon="9.1887919"><ele>317.7142857142857</ele><time>2026-04-25T08:35:15.971Z</time></trkpt><trkpt lat="44.9554153" lon="9.188794"><ele>319.0</ele><time>2026-04-25T08:35:18.974Z</time></trkpt><trkpt lat="44.9554926" lon="9.1887777"><ele>319.0</ele><time>2026-04-25T08:35:21.968Z</time></trkpt><trkpt lat="44.9555632" lon="9.1887629"><ele>319.0</ele><time>2026-04-25T08:35:24.97Z</time></trkpt><trkpt lat="44.9556525" lon="9.1887486"><ele>319.0</ele><time>2026-04-25T08:35:27.973Z</time></trkpt><trkpt lat="44.955733" lon="9.1887256"><ele>319.0</ele><time>2026-04-25T08:35:30.975Z</time></trkpt><trkpt lat="44.9557998" lon="9.1887168"><ele>319.0</ele><time>2026-04-25T08:35:32.984Z</time></trkpt><trkpt lat="44.955894" lon="9.1886966"><ele>319.0</ele><time>2026-04-25T08:35:35.981Z</time></trkpt><trkpt lat="44.9559863" lon="9.1886827"><ele>320.16666666666663</ele><time>2026-04-25T08:35:38.981Z</time></trkpt><trkpt lat="44.9560785" lon="9.1886774"><ele>321.3333333333333</ele><time>2026-04-25T08:35:41.974Z</time></trkpt><trkpt lat="44.9561666" lon="9.1886567"><ele>322.5</ele><time>2026-04-25T08:35:44.972Z</time></trkpt><trkpt lat="44.9562561" lon="9.1886287"><ele>323.6666666666667</ele><time>2026-04-25T08:35:47.974Z</time></trkpt><trkpt lat="44.9563189" lon="9.1886175"><ele>324.83333333333337</ele><time>2026-04-25T08:35:49.977Z</time></trkpt><trkpt lat="44.9564043" lon="9.1885961"><ele>326.0</ele><time>2026-04-25T08:35:52.973Z</time></trkpt><trkpt lat="44.9564893" lon="9.1885816"><ele>326.0</ele><time>2026-04-25T08:35:55.974Z</time></trkpt><trkpt lat="44.9565733" lon="9.1885562"><ele>326.0</ele><time>2026-04-25T08:35:58.981Z</time></trkpt><trkpt lat="44.9566572" lon="9.1885318"><ele>326.0</ele><time>2026-04-25T08:36:01.972Z</time></trkpt><trkpt lat="44.9567409" lon="9.1885323"><ele>326.0</ele><time>2026-04-25T08:36:04.966Z</time></trkpt><trkpt lat="44.9568145" lon="9.1885506"><ele>326.0</ele><time>2026-04-25T08:36:07.971Z</time></trkpt><trkpt lat="44.9568711" lon="9.1886174"><ele>326.0</ele><time>2026-04-25T08:36:10.975Z</time></trkpt><trkpt lat="44.9571044" lon="9.188901"><ele>331.0</ele><time>2026-04-25T08:36:21.792Z</time></trkpt><trkpt lat="44.9573239" lon="9.189064"><ele>336.0</ele><time>2026-04-25T08:36:30.832Z</time></trkpt><trkpt lat="44.9575224" lon="9.1891975"><ele>340.0</ele><time>2026-04-25T08:36:39.791Z</time></trkpt><trkpt lat="44.9576768" lon="9.1894573"><ele>344.0</ele><time>2026-04-25T08:36:48.796Z</time></trkpt><trkpt lat="44.9578964" lon="9.1896345"><ele>344.0</ele><time>2026-04-25T08:36:57.788Z</time></trkpt><trkpt lat="44.957846" lon="9.1895167"><ele>344.0</ele><time>2026-04-25T08:37:06.806Z</time></trkpt><trkpt lat="44.9579716" lon="9.1896456"><ele>344.0</ele><time>2026-04-25T08:37:15.785Z</time></trkpt><trkpt lat="44.9580363" lon="9.1898126"><ele>344.0</ele><time>2026-04-25T08:37:33.793Z</time></trkpt><trkpt lat="44.9581158" lon="9.1899098"><ele>350.5</ele><time>2026-04-25T08:37:42.787Z</time></trkpt><trkpt lat="44.9582166" lon="9.1900074"><ele>357.0</ele><time>2026-04-25T08:37:51.781Z</time></trkpt><trkpt lat="44.9586524" lon="9.1912564"><ele>357.6666666666667</ele><time>2026-04-25T08:38:00.81Z</time></trkpt><trkpt lat="44.9587419" lon="9.1914349"><ele>358.33333333333337</ele><time>2026-04-25T08:38:09.79Z</time></trkpt><trkpt lat="44.9588559" lon="9.1917235"><ele>359.0</ele><time>2026-04-25T08:38:18.782Z</time></trkpt><trkpt lat="44.9588788" lon="9.1921223"><ele>358.0</ele><time>2026-04-25T08:38:27.773Z</time></trkpt><trkpt lat="44.9587957" lon="9.1925649"><ele>357.0</ele><time>2026-04-25T08:38:36.793Z</time></trkpt><trkpt lat="44.9587961" lon="9.1929581"><ele>357.0</ele><time>2026-04-25T08:38:45.784Z</time></trkpt><trkpt lat="44.9587779" lon="9.1927393"><ele>357.0</ele><time>2026-04-25T08:38:54.795Z</time></trkpt><trkpt lat="44.9587842" lon="9.1928749"><ele>357.0</ele><time>2026-04-25T08:39:03.785Z</time></trkpt><trkpt lat="44.9587495" lon="9.1931694"><ele>357.0</ele><time>2026-04-25T08:39:12.783Z</time></trkpt><trkpt lat="44.9587411" lon="9.1929458"><ele>357.0</ele><time>2026-04-25T08:39:30.855Z</time></trkpt><trkpt lat="44.9587996" lon="9.1926713"><ele>357.0</ele><time>2026-04-25T08:39:39.779Z</time></trkpt><trkpt lat="44.9588137" lon="9.1923619"><ele>357.5</ele><time>2026-04-25T08:39:48.78Z</time></trkpt><trkpt lat="44.9588237" lon="9.1921759"><ele>358.0</ele><time>2026-04-25T08:40:06.784Z</time></trkpt><trkpt lat="44.9587911" lon="9.1922921"><ele>358.5</ele><time>2026-04-25T08:40:15.788Z</time></trkpt><trkpt lat="44.9587713" lon="9.1921486"><ele>359.0</ele><time>2026-04-25T08:40:24.855Z</time></trkpt><trkpt lat="44.958754" lon="9.1911459"><ele>360.33333333333337</ele><time>2026-04-25T08:40:25.975Z</time></trkpt><trkpt lat="44.9588437" lon="9.1908882"><ele>361.6666666666667</ele><time>2026-04-25T08:40:34.785Z</time></trkpt><trkpt lat="44.9589165" lon="9.1905881"><ele>363.0</ele><time>2026-04-25T08:40:43.784Z</time></trkpt><trkpt lat="44.9589832" lon="9.1903332"><ele>363.5</ele><time>2026-04-25T08:40:52.794Z</time></trkpt><trkpt lat="44.9591243" lon="9.1900543"><ele>364.0</ele><time>2026-04-25T08:41:01.785Z</time></trkpt><trkpt lat="44.9593126" lon="9.1897533"><ele>364.0</ele><time>2026-04-25T08:41:10.785Z</time></trkpt><trkpt lat="44.9595945" lon="9.1894117"><ele>364.0</ele><time>2026-04-25T08:41:19.787Z</time></trkpt><trkpt lat="44.9600177" lon="9.1891108"><ele>365.0</ele><time>2026-04-25T08:41:28.797Z</time></trkpt><trkpt lat="44.960272" lon="9.1889727"><ele>366.0</ele><time>2026-04-25T08:41:37.797Z</time></trkpt><trkpt lat="44.9604247" lon="9.1887972"><ele>366.0</ele><time>2026-04-25T08:41:46.791Z</time></trkpt><trkpt lat="44.9605761" lon="9.1886288"><ele>366.0</ele><time>2026-04-25T08:41:55.788Z</time></trkpt><trkpt lat="44.9607965" lon="9.1883879"><ele>365.0</ele><time>2026-04-25T08:42:04.865Z</time></trkpt><trkpt lat="44.9609837" lon="9.1881439"><ele>364.0</ele><time>2026-04-25T08:42:14.785Z</time></trkpt><trkpt lat="44.9608841" lon="9.1881858"><ele>363.0</ele><time>2026-04-25T08:42:23.783Z</time></trkpt><trkpt lat="44.9612214" lon="9.1875403"><ele>363.0</ele><time>2026-04-25T08:42:35.421Z</time></trkpt><trkpt lat="44.9610019" lon="9.1880218"><ele>363.0</ele><time>2026-04-25T08:42:41.785Z</time></trkpt><trkpt lat="44.9611853" lon="9.1877393"><ele>363.0</ele><time>2026-04-25T08:42:50.791Z</time></trkpt><trkpt lat="44.9612497" lon="9.1877321"><ele>363.0</ele><time>2026-04-25T08:42:59.786Z</time></trkpt><trkpt lat="44.9614836" lon="9.1874444"><ele>363.0</ele><time>2026-04-25T08:43:02.008Z</time></trkpt><trkpt lat="44.9613497" lon="9.1879837"><ele>361.0</ele><time>2026-04-25T08:43:17.786Z</time></trkpt><trkpt lat="44.9614987" lon="9.1881811"><ele>359.0</ele><time>2026-04-25T08:43:26.816Z</time></trkpt><trkpt lat="44.9624389" lon="9.1887551"><ele>347.33333333333337</ele><time>2026-04-25T08:43:35.783Z</time></trkpt><trkpt lat="44.9626833" lon="9.1887473"><ele>335.6666666666667</ele><time>2026-04-25T08:43:44.791Z</time></trkpt><trkpt lat="44.9627877" lon="9.1887136"><ele>324.0</ele><time>2026-04-25T08:43:54.96Z</time></trkpt><trkpt lat="44.9630505" lon="9.1884987"><ele>324.0</ele><time>2026-04-25T08:44:12.908Z</time></trkpt><trkpt lat="44.963181" lon="9.1885276"><ele>324.0</ele><time>2026-04-25T08:44:22.778Z</time></trkpt><trkpt lat="44.9631335" lon="9.1886963"><ele>324.0</ele><time>2026-04-25T08:44:31.779Z</time></trkpt><trkpt lat="44.9632323" lon="9.1888214"><ele>324.0</ele><time>2026-04-25T08:44:40.81Z</time></trkpt><trkpt lat="44.963324" lon="9.1889272"><ele>314.5</ele><time>2026-04-25T08:44:49.784Z</time></trkpt><trkpt lat="44.96345" lon="9.1889695"><ele>305.0</ele><time>2026-04-25T08:44:58.777Z</time></trkpt><trkpt lat="44.9640479" lon="9.1896385"><ele>293.6666666666667</ele><time>2026-04-25T08:45:16.777Z</time></trkpt><trkpt lat="44.9642079" lon="9.1898958"><ele>282.3333333333333</ele><time>2026-04-25T08:45:25.785Z</time></trkpt><trkpt lat="44.9643607" lon="9.1900864"><ele>271.0</ele><time>2026-04-25T08:45:34.78Z</time></trkpt><trkpt lat="44.9645727" lon="9.1903453"><ele>267.0</ele><time>2026-04-25T08:45:43.782Z</time></trkpt><trkpt lat="44.964762" lon="9.1906924"><ele>263.0</ele><time>2026-04-25T08:45:52.775Z</time></trkpt><trkpt lat="44.9650334" lon="9.1909837"><ele>263.0</ele><time>2026-04-25T08:46:01.784Z</time></trkpt><trkpt lat="44.9648261" lon="9.1907282"><ele>263.0</ele><time>2026-04-25T08:46:10.844Z</time></trkpt><trkpt lat="44.9653402" lon="9.1914054"><ele>260.2857142857143</ele><time>2026-04-25T08:46:11.963Z</time></trkpt><trkpt lat="44.9653806" lon="9.1914912"><ele>257.57142857142856</ele><time>2026-04-25T08:46:15.963Z</time></trkpt><trkpt lat="44.965442" lon="9.1915218"><ele>254.85714285714283</ele><time>2026-04-25T08:46:17.966Z</time></trkpt><trkpt lat="44.9654935" lon="9.1915851"><ele>252.1428571428571</ele><time>2026-04-25T08:46:20.03Z</time></trkpt><trkpt lat="44.9655693" lon="9.1916687"><ele>249.42857142857142</ele><time>2026-04-25T08:46:23.028Z</time></trkpt><trkpt lat="44.9656219" lon="9.1917358"><ele>246.71428571428567</ele><time>2026-04-25T08:46:24.991Z</time></trkpt><trkpt lat="44.9656654" lon="9.1918044"><ele>243.99999999999997</ele><time>2026-04-25T08:46:26.959Z</time></trkpt><trkpt lat="44.9658577" lon="9.1921155"><ele>232.5</ele><time>2026-04-25T08:46:35.792Z</time></trkpt><trkpt lat="44.9659456" lon="9.1923334"><ele>221.0</ele><time>2026-04-25T08:46:44.793Z</time></trkpt><trkpt lat="44.9661507" lon="9.1925889"><ele>219.66666666666669</ele><time>2026-04-25T08:47:03.846Z</time></trkpt><trkpt lat="44.9661857" lon="9.1926902"><ele>218.33333333333334</ele><time>2026-04-25T08:47:04.958Z</time></trkpt><trkpt lat="44.9662472" lon="9.1927644"><ele>217.0</ele><time>2026-04-25T08:47:06.972Z</time></trkpt><trkpt lat="44.9662973" lon="9.1928209"><ele>215.66666666666669</ele><time>2026-04-25T08:47:07.961Z</time></trkpt><trkpt lat="44.9663838" lon="9.1929319"><ele>214.33333333333334</ele><time>2026-04-25T08:47:09.961Z</time></trkpt><trkpt lat="44.9664599" lon="9.1930285"><ele>213.0</ele><time>2026-04-25T08:47:11.965Z</time></trkpt><trkpt lat="44.966526" lon="9.1931171"><ele>211.4</ele><time>2026-04-25T08:47:13.962Z</time></trkpt><trkpt lat="44.9665922" lon="9.1932073"><ele>209.8</ele><time>2026-04-25T08:47:15.962Z</time></trkpt><trkpt lat="44.9666598" lon="9.1933001"><ele>208.2</ele><time>2026-04-25T08:47:17.97Z</time></trkpt><trkpt lat="44.9667297" lon="9.1933974"><ele>206.6</ele><time>2026-04-25T08:47:19.968Z</time></trkpt><trkpt lat="44.9668007" lon="9.1935017"><ele>205.0</ele><time>2026-04-25T08:47:21.968Z</time></trkpt><trkpt lat="44.9668853" lon="9.1936187"><ele>203.2</ele><time>2026-04-25T08:47:23.96Z</time></trkpt><trkpt lat="44.9669695" lon="9.1937044"><ele>201.4</ele><time>2026-04-25T08:47:25.967Z</time></trkpt><trkpt lat="44.9670417" lon="9.1937909"><ele>199.60000000000002</ele><time>2026-04-25T08:47:27.963Z</time></trkpt><trkpt lat="44.9671108" lon="9.193888"><ele>197.8</ele><time>2026-04-25T08:47:29.962Z</time></trkpt><trkpt lat="44.9671776" lon="9.1939752"><ele>196.0</ele><time>2026-04-25T08:47:31.967Z</time></trkpt><trkpt lat="44.9672447" lon="9.1940517"><ele>194.66666666666666</ele><time>2026-04-25T08:47:33.971Z</time></trkpt><trkpt lat="44.9672972" lon="9.1941311"><ele>193.33333333333331</ele><time>2026-04-25T08:47:35.969Z</time></trkpt><trkpt lat="44.9673574" lon="9.1942119"><ele>192.0</ele><time>2026-04-25T08:47:37.962Z</time></trkpt><trkpt lat="44.9674333" lon="9.1943031"><ele>190.66666666666666</ele><time>2026-04-25T08:47:39.964Z</time></trkpt><trkpt lat="44.9674958" lon="9.1944026"><ele>189.33333333333331</ele><time>2026-04-25T08:47:41.965Z</time></trkpt><trkpt lat="44.9675319" lon="9.1945216"><ele>188.0</ele><time>2026-04-25T08:47:43.98Z</time></trkpt><trkpt lat="44.9675353" lon="9.1946333"><ele>187.66666666666666</ele><time>2026-04-25T08:47:45.977Z</time></trkpt><trkpt lat="44.9675291" lon="9.1947424"><ele>187.33333333333331</ele><time>2026-04-25T08:47:47.972Z</time></trkpt><trkpt lat="44.9675203" lon="9.1948393"><ele>187.0</ele><time>2026-04-25T08:47:49.965Z</time></trkpt><trkpt lat="44.9675052" lon="9.1949304"><ele>186.66666666666666</ele><time>2026-04-25T08:47:51.968Z</time></trkpt><trkpt lat="44.967481" lon="9.1950365"><ele>186.33333333333334</ele><time>2026-04-25T08:47:54.965Z</time></trkpt><trkpt lat="44.9674697" lon="9.1951272"><ele>186.0</ele><time>2026-04-25T08:47:57.967Z</time></trkpt><trkpt lat="44.9674261" lon="9.1957063"><ele>186.0</ele><time>2026-04-25T08:48:08.829Z</time></trkpt><trkpt lat="44.9673298" lon="9.1959914"><ele>186.0</ele><time>2026-04-25T08:48:17.831Z</time></trkpt><trkpt lat="44.9672381" lon="9.1964217"><ele>186.0</ele><time>2026-04-25T08:48:26.777Z</time></trkpt><trkpt lat="44.9671116" lon="9.1967689"><ele>186.0</ele><time>2026-04-25T08:48:35.823Z</time></trkpt><trkpt lat="44.9669035" lon="9.1969712"><ele>186.0</ele><time>2026-04-25T08:48:44.774Z</time></trkpt><trkpt lat="44.9670742" lon="9.1968161"><ele>186.0</ele><time>2026-04-25T08:48:53.79Z</time></trkpt><trkpt lat="44.9670048" lon="9.1970449"><ele>186.0</ele><time>2026-04-25T08:49:02.777Z</time></trkpt><trkpt lat="44.9668933" lon="9.1972065"><ele>188.0</ele><time>2026-04-25T08:49:11.785Z</time></trkpt><trkpt lat="44.9665026" lon="9.1987667"><ele>188.5</ele><time>2026-04-25T08:49:20.777Z</time></trkpt><trkpt lat="44.9663106" lon="9.1991809"><ele>189.0</ele><time>2026-04-25T08:49:29.776Z</time></trkpt><trkpt lat="44.966035" lon="9.199474"><ele>190.0</ele><time>2026-04-25T08:49:38.789Z</time></trkpt><trkpt lat="44.965809" lon="9.1997852"><ele>191.0</ele><time>2026-04-25T08:49:47.779Z</time></trkpt><trkpt lat="44.9655636" lon="9.2001767"><ele>191.0</ele><time>2026-04-25T08:49:56.786Z</time></trkpt><trkpt lat="44.9653894" lon="9.2005702"><ele>191.0</ele><time>2026-04-25T08:50:05.843Z</time></trkpt><trkpt lat="44.965573" lon="9.2002192"><ele>190.0</ele><time>2026-04-25T08:50:14.774Z</time></trkpt><trkpt lat="44.9651198" lon="9.2012955"><ele>190.5</ele><time>2026-04-25T08:50:23.778Z</time></trkpt><trkpt lat="44.9651255" lon="9.2016841"><ele>191.0</ele><time>2026-04-25T08:50:32.772Z</time></trkpt><trkpt lat="44.9652892" lon="9.2021237"><ele>193.5</ele><time>2026-04-25T08:50:41.781Z</time></trkpt><trkpt lat="44.9654649" lon="9.2025314"><ele>196.0</ele><time>2026-04-25T08:50:50.782Z</time></trkpt><trkpt lat="44.9657215" lon="9.2028838"><ele>196.0</ele><time>2026-04-25T08:50:59.781Z</time></trkpt><trkpt lat="44.9658977" lon="9.2032621"><ele>196.0</ele><time>2026-04-25T08:51:08.799Z</time></trkpt><trkpt lat="44.9657121" lon="9.2029424"><ele>196.0</ele><time>2026-04-25T08:51:17.779Z</time></trkpt><trkpt lat="44.9658327" lon="9.203138"><ele>196.0</ele><time>2026-04-25T08:51:26.834Z</time></trkpt><trkpt lat="44.9659502" lon="9.2032745"><ele>196.0</ele><time>2026-04-25T08:51:35.778Z</time></trkpt><trkpt lat="44.9663633" lon="9.2039007"><ele>200.0</ele><time>2026-04-25T08:51:38.392Z</time></trkpt><trkpt lat="44.9661912" lon="9.2034507"><ele>204.0</ele><time>2026-04-25T08:51:53.784Z</time></trkpt><trkpt lat="44.9663322" lon="9.2034433"><ele>211.0</ele><time>2026-04-25T08:52:02.788Z</time></trkpt><trkpt lat="44.9671509" lon="9.2034108"><ele>204.0</ele><time>2026-04-25T08:52:05.48Z</time></trkpt><trkpt lat="44.9664467" lon="9.2034199"><ele>221.0</ele><time>2026-04-25T08:52:11.776Z</time></trkpt><trkpt lat="44.9677352" lon="9.2034053"><ele>221.0</ele><time>2026-04-25T08:52:20.785Z</time></trkpt><trkpt lat="44.9679676" lon="9.203421"><ele>221.0</ele><time>2026-04-25T08:52:29.781Z</time></trkpt><trkpt lat="44.968326" lon="9.2034485"><ele>224.0</ele><time>2026-04-25T08:52:38.791Z</time></trkpt><trkpt lat="44.968635" lon="9.2035003"><ele>227.0</ele><time>2026-04-25T08:52:47.786Z</time></trkpt><trkpt lat="44.9689273" lon="9.2035143"><ele>227.0</ele><time>2026-04-25T08:52:56.799Z</time></trkpt><trkpt lat="44.9691781" lon="9.2036599"><ele>227.0</ele><time>2026-04-25T08:53:05.778Z</time></trkpt><trkpt lat="44.9689535" lon="9.2035956"><ele>227.0</ele><time>2026-04-25T08:53:14.788Z</time></trkpt><trkpt lat="44.9691292" lon="9.2036191"><ele>227.0</ele><time>2026-04-25T08:53:23.781Z</time></trkpt><trkpt lat="44.9693001" lon="9.2036811"><ele>227.0</ele><time>2026-04-25T08:53:32.832Z</time></trkpt><trkpt lat="44.970309" lon="9.2039881"><ele>240.0</ele><time>2026-04-25T08:53:41.788Z</time></trkpt><trkpt lat="44.9705837" lon="9.2040399"><ele>253.0</ele><time>2026-04-25T08:53:50.784Z</time></trkpt><trkpt lat="44.9708644" lon="9.2040284"><ele>260.0</ele><time>2026-04-25T08:53:59.781Z</time></trkpt><trkpt lat="44.97115" lon="9.2040337"><ele>267.0</ele><time>2026-04-25T08:54:08.782Z</time></trkpt><trkpt lat="44.971445" lon="9.2040632"><ele>267.0</ele><time>2026-04-25T08:54:17.835Z</time></trkpt><trkpt lat="44.9717362" lon="9.2040395"><ele>267.0</ele><time>2026-04-25T08:54:26.782Z</time></trkpt><trkpt lat="44.9716295" lon="9.2040899"><ele>267.0</ele><time>2026-04-25T08:54:35.786Z</time></trkpt><trkpt lat="44.9718" lon="9.2041471"><ele>284.0</ele><time>2026-04-25T08:54:53.789Z</time></trkpt><trkpt lat="44.9725897" lon="9.2047114"><ele>286.5</ele><time>2026-04-25T08:55:02.801Z</time></trkpt><trkpt lat="44.9727353" lon="9.205024"><ele>289.0</ele><time>2026-04-25T08:55:11.777Z</time></trkpt><trkpt lat="44.9728127" lon="9.2053563"><ele>291.0</ele><time>2026-04-25T08:55:20.774Z</time></trkpt><trkpt lat="44.9729954" lon="9.2056702"><ele>293.0</ele><time>2026-04-25T08:55:29.777Z</time></trkpt><trkpt lat="44.9731685" lon="9.2058935"><ele>293.0</ele><time>2026-04-25T08:55:38.78Z</time></trkpt><trkpt lat="44.9734342" lon="9.2061098"><ele>293.0</ele><time>2026-04-25T08:55:47.778Z</time></trkpt><trkpt lat="44.9733544" lon="9.2061098"><ele>293.0</ele><time>2026-04-25T08:55:56.774Z</time></trkpt><trkpt lat="44.9736824" lon="9.2068623"><ele>300.0</ele><time>2026-04-25T08:56:08.418Z</time></trkpt><trkpt lat="44.9734263" lon="9.2063097"><ele>306.0</ele><time>2026-04-25T08:56:14.766Z</time></trkpt><trkpt lat="44.973798" lon="9.2072603"><ele>308.0</ele><time>2026-04-25T08:56:17.489Z</time></trkpt><trkpt lat="44.9739051" lon="9.2076797"><ele>310.0</ele><time>2026-04-25T08:56:23.768Z</time></trkpt><trkpt lat="44.9737875" lon="9.2080089"><ele>313.0</ele><time>2026-04-25T08:56:32.773Z</time></trkpt><trkpt lat="44.9736692" lon="9.2083284"><ele>316.0</ele><time>2026-04-25T08:56:41.77Z</time></trkpt><trkpt lat="44.9738014" lon="9.2088317"><ele>316.0</ele><time>2026-04-25T08:56:50.778Z</time></trkpt><trkpt lat="44.9740361" lon="9.2089915"><ele>316.0</ele><time>2026-04-25T08:56:59.776Z</time></trkpt><trkpt lat="44.9741762" lon="9.2088292"><ele>316.0</ele><time>2026-04-25T08:57:08.774Z</time></trkpt><trkpt lat="44.9744835" lon="9.2087581"><ele>317.0</ele><time>2026-04-25T08:57:20.428Z</time></trkpt><trkpt lat="44.9743846" lon="9.2088119"><ele>318.0</ele><time>2026-04-25T08:57:26.787Z</time></trkpt><trkpt lat="44.9747471" lon="9.2088127"><ele>318.0</ele><time>2026-04-25T08:57:29.435Z</time></trkpt><trkpt lat="44.9743408" lon="9.2088365"><ele>318.0</ele><time>2026-04-25T08:57:35.836Z</time></trkpt><trkpt lat="44.9750467" lon="9.2088986"><ele>323.0</ele><time>2026-04-25T08:57:38.385Z</time></trkpt><trkpt lat="44.9752957" lon="9.2089565"><ele>328.0</ele><time>2026-04-25T08:57:44.79Z</time></trkpt><trkpt lat="44.9755336" lon="9.2089237"><ele>328.0</ele><time>2026-04-25T08:57:53.783Z</time></trkpt><trkpt lat="44.9757918" lon="9.2086645"><ele>328.0</ele><time>2026-04-25T08:58:02.782Z</time></trkpt><trkpt lat="44.9760971" lon="9.2087742"><ele>333.0</ele><time>2026-04-25T08:58:11.775Z</time></trkpt><trkpt lat="44.9763261" lon="9.2089568"><ele>338.0</ele><time>2026-04-25T08:58:20.781Z</time></trkpt><trkpt lat="44.9765518" lon="9.2090103"><ele>342.0</ele><time>2026-04-25T08:58:29.812Z</time></trkpt><trkpt lat="44.9768256" lon="9.2090427"><ele>346.0</ele><time>2026-04-25T08:58:41.488Z</time></trkpt><trkpt lat="44.9765168" lon="9.2090119"><ele>354.0</ele><time>2026-04-25T08:58:47.819Z</time></trkpt><trkpt lat="44.9770878" lon="9.2092185"><ele>354.0</ele><time>2026-04-25T08:58:50.446Z</time></trkpt><trkpt lat="44.9773082" lon="9.2093123"><ele>354.0</ele><time>2026-04-25T08:58:56.769Z</time></trkpt><trkpt lat="44.977594" lon="9.2093347"><ele>359.5</ele><time>2026-04-25T08:59:05.78Z</time></trkpt><trkpt lat="44.9779252" lon="9.2093155"><ele>365.0</ele><time>2026-04-25T08:59:14.777Z</time></trkpt><trkpt lat="44.9781632" lon="9.2093471"><ele>371.5</ele><time>2026-04-25T08:59:23.774Z</time></trkpt><trkpt lat="44.9784855" lon="9.2093733"><ele>378.0</ele><time>2026-04-25T08:59:32.814Z</time></trkpt><trkpt lat="44.9787797" lon="9.2093635"><ele>378.0</ele><time>2026-04-25T08:59:41.824Z</time></trkpt><trkpt lat="44.9785101" lon="9.2093916"><ele>378.0</ele><time>2026-04-25T08:59:50.781Z</time></trkpt><trkpt lat="44.9786978" lon="9.2093942"><ele>375.0</ele><time>2026-04-25T08:59:59.785Z</time></trkpt><trkpt lat="44.9793479" lon="9.2094619"><ele>378.0</ele><time>2026-04-25T09:00:02.918Z</time></trkpt><trkpt lat="44.9788297" lon="9.2093535"><ele>378.0</ele><time>2026-04-25T09:00:08.774Z</time></trkpt><trkpt lat="44.9789641" lon="9.2092398"><ele>378.0</ele><time>2026-04-25T09:00:17.771Z</time></trkpt><trkpt lat="44.9795205" lon="9.2089022"><ele>380.0</ele><time>2026-04-25T09:00:20.121Z</time></trkpt><trkpt lat="44.9796158" lon="9.2085026"><ele>382.0</ele><time>2026-04-25T09:00:26.774Z</time></trkpt><trkpt lat="44.9798272" lon="9.2083185"><ele>379.0</ele><time>2026-04-25T09:00:35.78Z</time></trkpt><trkpt lat="44.9802037" lon="9.2082499"><ele>376.0</ele><time>2026-04-25T09:00:44.932Z</time></trkpt><trkpt lat="44.980626" lon="9.2081788"><ele>381.5</ele><time>2026-04-25T09:00:54.775Z</time></trkpt><trkpt lat="44.9808305" lon="9.2080528"><ele>387.0</ele><time>2026-04-25T09:01:03.782Z</time></trkpt><trkpt lat="44.9811209" lon="9.2079495"><ele>387.25</ele><time>2026-04-25T09:01:12.776Z</time></trkpt><trkpt lat="44.981075" lon="9.2081109"><ele>387.5</ele><time>2026-04-25T09:01:21.875Z</time></trkpt><trkpt lat="44.981045" lon="9.2082188"><ele>387.75</ele><time>2026-04-25T09:01:30.781Z</time></trkpt><trkpt lat="44.9812094" lon="9.2082729"><ele>388.0</ele><time>2026-04-25T09:01:39.848Z</time></trkpt><trkpt lat="44.9821501" lon="9.207582"><ele>389.0</ele><time>2026-04-25T09:01:57.807Z</time></trkpt><trkpt lat="44.9825024" lon="9.207101"><ele>369.0</ele><time>2026-04-25T09:02:06.77Z</time></trkpt><trkpt lat="44.9827471" lon="9.2064848"><ele>369.0</ele><time>2026-04-25T09:02:15.929Z</time></trkpt><trkpt lat="44.9831682" lon="9.205768"><ele>365.0</ele><time>2026-04-25T09:02:24.784Z</time></trkpt><trkpt lat="44.9837522" lon="9.2056588"><ele>351.0</ele><time>2026-04-25T09:02:33.831Z</time></trkpt><trkpt lat="44.9844735" lon="9.2060257"><ele>339.0</ele><time>2026-04-25T09:02:42.801Z</time></trkpt><trkpt lat="44.9851375" lon="9.2064752"><ele>341.0</ele><time>2026-04-25T09:02:51.844Z</time></trkpt><trkpt lat="44.9852294" lon="9.2065601"><ele>343.0</ele><time>2026-04-25T09:02:52.964Z</time></trkpt><trkpt lat="44.9854815" lon="9.2071783"><ele>327.0</ele><time>2026-04-25T09:03:01.771Z</time></trkpt><trkpt lat="44.9859151" lon="9.2078193"><ele>320.0</ele><time>2026-04-25T09:03:10.782Z</time></trkpt><trkpt lat="44.9864494" lon="9.2085945"><ele>299.0</ele><time>2026-04-25T09:03:19.777Z</time></trkpt><trkpt lat="44.9867118" lon="9.2093988"><ele>299.0</ele><time>2026-04-25T09:03:28.774Z</time></trkpt><trkpt lat="44.9872912" lon="9.2097661"><ele>280.0</ele><time>2026-04-25T09:03:37.778Z</time></trkpt><trkpt lat="44.9878301" lon="9.2100441"><ele>263.0</ele><time>2026-04-25T09:03:46.781Z</time></trkpt><trkpt lat="44.9884883" lon="9.2101044"><ele>263.0</ele><time>2026-04-25T09:03:55.779Z</time></trkpt><trkpt lat="44.989087" lon="9.210615"><ele>254.0</ele><time>2026-04-25T09:04:04.779Z</time></trkpt><trkpt lat="44.9897616" lon="9.2110676"><ele>235.0</ele><time>2026-04-25T09:04:13.775Z</time></trkpt><trkpt lat="44.9904488" lon="9.211425"><ele>225.0</ele><time>2026-04-25T09:04:22.776Z</time></trkpt><trkpt lat="44.9910342" lon="9.211809"><ele>211.0</ele><time>2026-04-25T09:04:31.786Z</time></trkpt><trkpt lat="44.9916858" lon="9.2122046"><ele>211.0</ele><time>2026-04-25T09:04:40.774Z</time></trkpt><trkpt lat="44.9920672" lon="9.2122349"><ele>211.0</ele><time>2026-04-25T09:04:49.777Z</time></trkpt><trkpt lat="44.9925127" lon="9.2120768"><ele>209.99999999999997</ele><time>2026-04-25T09:04:58.871Z</time></trkpt><trkpt lat="44.9926247" lon="9.2120956"><ele>209.0</ele><time>2026-04-25T09:04:59.962Z</time></trkpt><trkpt lat="44.9927448" lon="9.2121242"><ele>208.0</ele><time>2026-04-25T09:05:01.957Z</time></trkpt><trkpt lat="44.9928086" lon="9.2121169"><ele>207.0</ele><time>2026-04-25T09:05:02.968Z</time></trkpt><trkpt lat="44.9928766" lon="9.2121103"><ele>205.99999999999997</ele><time>2026-04-25T09:05:03.959Z</time></trkpt><trkpt lat="44.9929414" lon="9.2121028"><ele>205.0</ele><time>2026-04-25T09:05:04.956Z</time></trkpt><trkpt lat="44.9930506" lon="9.2120616"><ele>205.0</ele><time>2026-04-25T09:05:06.967Z</time></trkpt><trkpt lat="44.9931662" lon="9.2120098"><ele>205.0</ele><time>2026-04-25T09:05:08.963Z</time></trkpt><trkpt lat="44.9932589" lon="9.2119517"><ele>205.0</ele><time>2026-04-25T09:05:11.044Z</time></trkpt><trkpt lat="44.9933551" lon="9.2119391"><ele>205.0</ele><time>2026-04-25T09:05:13.039Z</time></trkpt><trkpt lat="44.9934612" lon="9.2119433"><ele>205.0</ele><time>2026-04-25T09:05:14.953Z</time></trkpt><trkpt lat="44.9935487" lon="9.2119384"><ele>203.2857142857143</ele><time>2026-04-25T09:05:16.959Z</time></trkpt><trkpt lat="44.9936538" lon="9.2119162"><ele>201.57142857142856</ele><time>2026-04-25T09:05:18.975Z</time></trkpt><trkpt lat="44.9937174" lon="9.2119179"><ele>199.85714285714286</ele><time>2026-04-25T09:05:19.955Z</time></trkpt><trkpt lat="44.9937826" lon="9.2119206"><ele>198.14285714285717</ele><time>2026-04-25T09:05:20.962Z</time></trkpt><trkpt lat="44.9938489" lon="9.211927"><ele>196.42857142857144</ele><time>2026-04-25T09:05:21.96Z</time></trkpt><trkpt lat="44.9939181" lon="9.2119338"><ele>194.71428571428572</ele><time>2026-04-25T09:05:22.963Z</time></trkpt><trkpt lat="44.9939892" lon="9.2119449"><ele>193.0</ele><time>2026-04-25T09:05:23.964Z</time></trkpt><trkpt lat="44.9940629" lon="9.2119632"><ele>193.00000000000003</ele><time>2026-04-25T09:05:24.963Z</time></trkpt><trkpt lat="44.9941422" lon="9.211978"><ele>193.0</ele><time>2026-04-25T09:05:25.963Z</time></trkpt><trkpt lat="44.9942177" lon="9.2119992"><ele>193.0</ele><time>2026-04-25T09:05:26.956Z</time></trkpt><trkpt lat="44.9942893" lon="9.2120205"><ele>193.0</ele><time>2026-04-25T09:05:27.967Z</time></trkpt><trkpt lat="44.9943593" lon="9.2120314"><ele>193.0</ele><time>2026-04-25T09:05:28.969Z</time></trkpt><trkpt lat="44.9944251" lon="9.2120376"><ele>193.00000000000003</ele><time>2026-04-25T09:05:29.966Z</time></trkpt><trkpt lat="44.9944903" lon="9.212052"><ele>193.0</ele><time>2026-04-25T09:05:30.964Z</time></trkpt><trkpt lat="44.9945596" lon="9.2120719"><ele>191.49999999999997</ele><time>2026-04-25T09:05:31.958Z</time></trkpt><trkpt lat="44.9946266" lon="9.2120993"><ele>190.0</ele><time>2026-04-25T09:05:32.96Z</time></trkpt><trkpt lat="44.9946778" lon="9.2121524"><ele>188.5</ele><time>2026-04-25T09:05:33.965Z</time></trkpt><trkpt lat="44.9947327" lon="9.212215"><ele>187.0</ele><time>2026-04-25T09:05:34.964Z</time></trkpt><trkpt lat="44.9947886" lon="9.2122726"><ele>185.5</ele><time>2026-04-25T09:05:35.963Z</time></trkpt><trkpt lat="44.9948616" lon="9.2123323"><ele>184.0</ele><time>2026-04-25T09:05:37.03Z</time></trkpt><trkpt lat="44.9949357" lon="9.2124103"><ele>183.6</ele><time>2026-04-25T09:05:38.036Z</time></trkpt><trkpt lat="44.994998" lon="9.2124767"><ele>183.2</ele><time>2026-04-25T09:05:39.041Z</time></trkpt><trkpt lat="44.9950515" lon="9.2125248"><ele>182.79999999999998</ele><time>2026-04-25T09:05:39.966Z</time></trkpt><trkpt lat="44.9951581" lon="9.2126614"><ele>182.39999999999998</ele><time>2026-04-25T09:05:41.964Z</time></trkpt><trkpt lat="44.9952263" lon="9.2127126"><ele>182.0</ele><time>2026-04-25T09:05:42.968Z</time></trkpt><trkpt lat="44.995334" lon="9.2127855"><ele>180.5</ele><time>2026-04-25T09:05:44.954Z</time></trkpt><trkpt lat="44.9957124" lon="9.2129704"><ele>179.0</ele><time>2026-04-25T09:05:53.769Z</time></trkpt><trkpt lat="44.995965" lon="9.2128122"><ele>175.0</ele><time>2026-04-25T09:06:02.777Z</time></trkpt><trkpt lat="44.9965237" lon="9.2127224"><ele>176.0</ele><time>2026-04-25T09:06:11.784Z</time></trkpt><trkpt lat="44.997033" lon="9.2124551"><ele>173.0</ele><time>2026-04-25T09:06:20.772Z</time></trkpt><trkpt lat="44.9975119" lon="9.2121365"><ele>173.0</ele><time>2026-04-25T09:06:29.761Z</time></trkpt><trkpt lat="44.9978441" lon="9.2119271"><ele>173.0</ele><time>2026-04-25T09:06:38.772Z</time></trkpt><trkpt lat="44.9982041" lon="9.2116872"><ele>170.5</ele><time>2026-04-25T09:06:47.775Z</time></trkpt><trkpt lat="44.9985532" lon="9.2114666"><ele>168.0</ele><time>2026-04-25T09:06:56.773Z</time></trkpt><trkpt lat="44.9988902" lon="9.2111954"><ele>166.0</ele><time>2026-04-25T09:07:05.767Z</time></trkpt><trkpt lat="44.9994163" lon="9.210928"><ele>165.0</ele><time>2026-04-25T09:07:14.771Z</time></trkpt><trkpt lat="44.9998256" lon="9.2106375"><ele>165.0</ele><time>2026-04-25T09:07:23.769Z</time></trkpt><trkpt lat="45.0001433" lon="9.2104091"><ele>165.0</ele><time>2026-04-25T09:07:32.767Z</time></trkpt><trkpt lat="45.0004239" lon="9.2102692"><ele>165.0</ele><time>2026-04-25T09:07:41.78Z</time></trkpt><trkpt lat="45.0007609" lon="9.2100056"><ele>165.0</ele><time>2026-04-25T09:07:50.782Z</time></trkpt><trkpt lat="45.0011948" lon="9.209857"><ele>165.0</ele><time>2026-04-25T09:07:59.771Z</time></trkpt><trkpt lat="45.0016201" lon="9.2098204"><ele>165.0</ele><time>2026-04-25T09:08:08.781Z</time></trkpt><trkpt lat="45.0016905" lon="9.2098054"><ele>163.5</ele><time>2026-04-25T09:08:11.481Z</time></trkpt><trkpt lat="45.0020466" lon="9.2097477"><ele>162.0</ele><time>2026-04-25T09:08:17.77Z</time></trkpt><trkpt lat="45.0024209" lon="9.2096129"><ele>161.5</ele><time>2026-04-25T09:08:26.778Z</time></trkpt><trkpt lat="45.0026867" lon="9.2094554"><ele>161.0</ele><time>2026-04-25T09:08:35.778Z</time></trkpt><trkpt lat="45.0032669" lon="9.2088596"><ele>162.0</ele><time>2026-04-25T09:08:53.769Z</time></trkpt><trkpt lat="45.0033847" lon="9.209046"><ele>163.0</ele><time>2026-04-25T09:09:02.767Z</time></trkpt><trkpt lat="45.0034742" lon="9.2094014"><ele>164.0</ele><time>2026-04-25T09:09:11.773Z</time></trkpt><trkpt lat="45.0035151" lon="9.2096794"><ele>164.0</ele><time>2026-04-25T09:09:20.768Z</time></trkpt><trkpt lat="45.0035535" lon="9.2097732"><ele>164.0</ele><time>2026-04-25T09:09:23.474Z</time></trkpt><trkpt lat="45.0034941" lon="9.2097153"><ele>164.0</ele><time>2026-04-25T09:09:29.768Z</time></trkpt><trkpt lat="45.0036569" lon="9.2104252"><ele>169.0</ele><time>2026-04-25T09:09:41.511Z</time></trkpt><trkpt lat="45.0037411" lon="9.21081"><ele>174.0</ele><time>2026-04-25T09:09:47.771Z</time></trkpt><trkpt lat="45.0038333" lon="9.2111874"><ele>177.5</ele><time>2026-04-25T09:09:56.767Z</time></trkpt><trkpt lat="45.0038798" lon="9.2115581"><ele>181.0</ele><time>2026-04-25T09:10:05.773Z</time></trkpt><trkpt lat="45.004012" lon="9.2118223"><ele>177.5</ele><time>2026-04-25T09:10:14.77Z</time></trkpt><trkpt lat="45.004236" lon="9.2118015"><ele>174.0</ele><time>2026-04-25T09:10:23.768Z</time></trkpt><trkpt lat="45.0046509" lon="9.2121535"><ele>176.0</ele><time>2026-04-25T09:10:32.768Z</time></trkpt><trkpt lat="45.0050777" lon="9.2124556"><ele>176.0</ele><time>2026-04-25T09:10:41.762Z</time></trkpt><trkpt lat="45.0052774" lon="9.2124991"><ele>176.0</ele><time>2026-04-25T09:10:50.766Z</time></trkpt><trkpt lat="45.0054774" lon="9.2123813"><ele>176.0</ele><time>2026-04-25T09:10:59.765Z</time></trkpt><trkpt lat="45.0056102" lon="9.2127154"><ele>176.0</ele><time>2026-04-25T09:11:08.764Z</time></trkpt><trkpt lat="45.0058209" lon="9.2127138"><ele>176.0</ele><time>2026-04-25T09:11:17.765Z</time></trkpt><trkpt lat="45.0060046" lon="9.2125779"><ele>176.0</ele><time>2026-04-25T09:11:26.79Z</time></trkpt><trkpt lat="45.0058895" lon="9.2128265"><ele>179.33333333333331</ele><time>2026-04-25T09:11:35.767Z</time></trkpt><trkpt lat="45.0060403" lon="9.2129502"><ele>182.66666666666666</ele><time>2026-04-25T09:11:44.767Z</time></trkpt><trkpt lat="45.0062169" lon="9.2129691"><ele>186.0</ele><time>2026-04-25T09:11:53.784Z</time></trkpt><trkpt lat="45.0063062" lon="9.2127663"><ele>186.0</ele><time>2026-04-25T09:12:02.766Z</time></trkpt><trkpt lat="45.0063512" lon="9.2126292"><ele>186.0</ele><time>2026-04-25T09:12:11.774Z</time></trkpt><trkpt lat="45.0062306" lon="9.2125839"><ele>186.0</ele><time>2026-04-25T09:12:20.772Z</time></trkpt><trkpt lat="45.006729" lon="9.2121728"><ele>189.5</ele><time>2026-04-25T09:12:23.402Z</time></trkpt><trkpt lat="45.0068754" lon="9.2116947"><ele>193.0</ele><time>2026-04-25T09:12:29.766Z</time></trkpt><trkpt lat="45.0070154" lon="9.2112464"><ele>193.0</ele><time>2026-04-25T09:12:38.775Z</time></trkpt><trkpt lat="45.0071075" lon="9.2109477"><ele>193.0</ele><time>2026-04-25T09:12:47.773Z</time></trkpt><trkpt lat="45.0071946" lon="9.2105291"><ele>193.0</ele><time>2026-04-25T09:12:56.777Z</time></trkpt><trkpt lat="45.0073598" lon="9.2102321"><ele>193.0</ele><time>2026-04-25T09:13:05.829Z</time></trkpt><trkpt lat="45.0075383" lon="9.2098096"><ele>195.49999999999997</ele><time>2026-04-25T09:13:14.877Z</time></trkpt><trkpt lat="45.0075935" lon="9.2097022"><ele>198.0</ele><time>2026-04-25T09:13:17.963Z</time></trkpt><trkpt lat="45.0076502" lon="9.2096532"><ele>200.5</ele><time>2026-04-25T09:13:19.958Z</time></trkpt><trkpt lat="45.0076999" lon="9.2095841"><ele>203.0</ele><time>2026-04-25T09:13:21.953Z</time></trkpt><trkpt lat="45.0077536" lon="9.2095102"><ele>205.49999999999997</ele><time>2026-04-25T09:13:23.96Z</time></trkpt><trkpt lat="45.0078018" lon="9.2093991"><ele>208.0</ele><time>2026-04-25T09:13:25.96Z</time></trkpt><trkpt lat="45.0078731" lon="9.2092989"><ele>207.99999999999997</ele><time>2026-04-25T09:13:27.955Z</time></trkpt><trkpt lat="45.0079503" lon="9.2092344"><ele>208.0</ele><time>2026-04-25T09:13:29.952Z</time></trkpt><trkpt lat="45.0080181" lon="9.2091576"><ele>208.0</ele><time>2026-04-25T09:13:31.96Z</time></trkpt><trkpt lat="45.008077" lon="9.2090992"><ele>208.0</ele><time>2026-04-25T09:13:33.95Z</time></trkpt><trkpt lat="45.0081251" lon="9.2090326"><ele>207.99999999999997</ele><time>2026-04-25T09:13:35.961Z</time></trkpt><trkpt lat="45.0081792" lon="9.2089577"><ele>208.0</ele><time>2026-04-25T09:13:37.955Z</time></trkpt><trkpt lat="45.0082312" lon="9.2089062"><ele>208.57142857142856</ele><time>2026-04-25T09:13:39.963Z</time></trkpt><trkpt lat="45.0082849" lon="9.2088542"><ele>209.14285714285717</ele><time>2026-04-25T09:13:41.96Z</time></trkpt><trkpt lat="45.0083283" lon="9.2087856"><ele>209.71428571428572</ele><time>2026-04-25T09:13:43.962Z</time></trkpt><trkpt lat="45.0083731" lon="9.2087169"><ele>210.28571428571428</ele><time>2026-04-25T09:13:45.963Z</time></trkpt><trkpt lat="45.0084227" lon="9.2086603"><ele>210.85714285714283</ele><time>2026-04-25T09:13:47.96Z</time></trkpt><trkpt lat="45.0084814" lon="9.2085542"><ele>211.42857142857144</ele><time>2026-04-25T09:13:50.974Z</time></trkpt><trkpt lat="45.0085318" lon="9.2084836"><ele>212.0</ele><time>2026-04-25T09:13:53.024Z</time></trkpt><trkpt lat="45.0085756" lon="9.2084064"><ele>212.00000000000003</ele><time>2026-04-25T09:13:54.966Z</time></trkpt><trkpt lat="45.0086198" lon="9.2083141"><ele>212.0</ele><time>2026-04-25T09:13:56.963Z</time></trkpt><trkpt lat="45.0086767" lon="9.2082147"><ele>212.0</ele><time>2026-04-25T09:13:58.957Z</time></trkpt><trkpt lat="45.0087204" lon="9.2081159"><ele>212.0</ele><time>2026-04-25T09:14:00.963Z</time></trkpt><trkpt lat="45.0087593" lon="9.2080406"><ele>212.00000000000003</ele><time>2026-04-25T09:14:02.964Z</time></trkpt><trkpt lat="45.0088246" lon="9.2079546"><ele>212.0</ele><time>2026-04-25T09:14:05.96Z</time></trkpt><trkpt lat="45.0088781" lon="9.2078993"><ele>211.2857142857143</ele><time>2026-04-25T09:14:07.958Z</time></trkpt><trkpt lat="45.0089287" lon="9.2078441"><ele>210.57142857142856</ele><time>2026-04-25T09:14:09.955Z</time></trkpt><trkpt lat="45.0089856" lon="9.2077824"><ele>209.85714285714286</ele><time>2026-04-25T09:14:11.96Z</time></trkpt><trkpt lat="45.0090422" lon="9.2077235"><ele>209.14285714285717</ele><time>2026-04-25T09:14:13.961Z</time></trkpt><trkpt lat="45.0091018" lon="9.2076718"><ele>208.42857142857144</ele><time>2026-04-25T09:14:15.958Z</time></trkpt><trkpt lat="45.0091589" lon="9.2076232"><ele>207.71428571428572</ele><time>2026-04-25T09:14:17.957Z</time></trkpt><trkpt lat="45.0092451" lon="9.2075652"><ele>207.0</ele><time>2026-04-25T09:14:20.963Z</time></trkpt><trkpt lat="45.0093206" lon="9.2075357"><ele>209.5</ele><time>2026-04-25T09:14:23.961Z</time></trkpt><trkpt lat="45.009384" lon="9.2074734"><ele>212.0</ele><time>2026-04-25T09:14:26.961Z</time></trkpt><trkpt lat="45.0094478" lon="9.207391"><ele>214.5</ele><time>2026-04-25T09:14:29.959Z</time></trkpt><trkpt lat="45.0095159" lon="9.2073038"><ele>217.0</ele><time>2026-04-25T09:14:32.959Z</time></trkpt><trkpt lat="45.0095731" lon="9.2072374"><ele>219.5</ele><time>2026-04-25T09:14:35.963Z</time></trkpt><trkpt lat="45.0096241" lon="9.2071795"><ele>222.0</ele><time>2026-04-25T09:14:38.96Z</time></trkpt><trkpt lat="45.0096749" lon="9.2071246"><ele>222.71428571428572</ele><time>2026-04-25T09:14:41.958Z</time></trkpt><trkpt lat="45.009726" lon="9.2070667"><ele>223.42857142857144</ele><time>2026-04-25T09:14:44.957Z</time></trkpt><trkpt lat="45.0097822" lon="9.2070097"><ele>224.14285714285717</ele><time>2026-04-25T09:14:47.956Z</time></trkpt><trkpt lat="45.0098533" lon="9.2070085"><ele>224.85714285714286</ele><time>2026-04-25T09:14:50.967Z</time></trkpt><trkpt lat="45.0099162" lon="9.2070842"><ele>225.5714285714286</ele><time>2026-04-25T09:14:53.958Z</time></trkpt><trkpt lat="45.009937" lon="9.207171"><ele>226.2857142857143</ele><time>2026-04-25T09:14:55.964Z</time></trkpt><trkpt lat="45.0099749" lon="9.2072541"><ele>227.0</ele><time>2026-04-25T09:14:57.961Z</time></trkpt><trkpt lat="45.0101292" lon="9.2077105"><ele>230.0</ele><time>2026-04-25T09:15:16.848Z</time></trkpt><trkpt lat="45.0101455" lon="9.2081317"><ele>233.0</ele><time>2026-04-25T09:15:17.769Z</time></trkpt><trkpt lat="45.010164" lon="9.2085421"><ele>234.0</ele><time>2026-04-25T09:15:26.905Z</time></trkpt><trkpt lat="45.0100524" lon="9.2089282"><ele>235.0</ele><time>2026-04-25T09:15:36.801Z</time></trkpt><trkpt lat="45.0099088" lon="9.2093388"><ele>235.0</ele><time>2026-04-25T09:15:45.766Z</time></trkpt><trkpt lat="45.0100043" lon="9.2089681"><ele>235.0</ele><time>2026-04-25T09:15:54.764Z</time></trkpt><trkpt lat="45.0099194" lon="9.2091816"><ele>236.0</ele><time>2026-04-25T09:16:03.771Z</time></trkpt><trkpt lat="45.0095113" lon="9.2099364"><ele>229.0</ele><time>2026-04-25T09:16:06.575Z</time></trkpt><trkpt lat="45.0098193" lon="9.2094184"><ele>227.0</ele><time>2026-04-25T09:16:12.769Z</time></trkpt><trkpt lat="45.0091554" lon="9.2106707"><ele>227.0</ele><time>2026-04-25T09:16:21.775Z</time></trkpt><trkpt lat="45.0090537" lon="9.2111634"><ele>227.0</ele><time>2026-04-25T09:16:30.787Z</time></trkpt><trkpt lat="45.0090234" lon="9.2118962"><ele>227.0</ele><time>2026-04-25T09:16:39.778Z</time></trkpt><trkpt lat="45.0090601" lon="9.2122508"><ele>227.0</ele><time>2026-04-25T09:16:48.768Z</time></trkpt><trkpt lat="45.0090201" lon="9.2128061"><ele>228.5</ele><time>2026-04-25T09:16:57.769Z</time></trkpt><trkpt lat="45.0088633" lon="9.2133282"><ele>230.0</ele><time>2026-04-25T09:17:06.771Z</time></trkpt><trkpt lat="45.008973" lon="9.2128364"><ele>230.0</ele><time>2026-04-25T09:17:15.769Z</time></trkpt><trkpt lat="45.0088194" lon="9.2137862"><ele>230.0</ele><time>2026-04-25T09:17:18.333Z</time></trkpt><trkpt lat="45.0087636" lon="9.2142868"><ele>230.0</ele><time>2026-04-25T09:17:24.781Z</time></trkpt><trkpt lat="45.0087541" lon="9.2147714"><ele>232.5</ele><time>2026-04-25T09:17:33.776Z</time></trkpt><trkpt lat="45.0086884" lon="9.2152407"><ele>235.0</ele><time>2026-04-25T09:17:42.773Z</time></trkpt><trkpt lat="45.0086887" lon="9.2157126"><ele>238.0</ele><time>2026-04-25T09:17:51.763Z</time></trkpt><trkpt lat="45.0086232" lon="9.2162148"><ele>241.0</ele><time>2026-04-25T09:18:00.784Z</time></trkpt><trkpt lat="45.0085929" lon="9.2166153"><ele>241.0</ele><time>2026-04-25T09:18:09.772Z</time></trkpt><trkpt lat="45.0086485" lon="9.2162295"><ele>241.0</ele><time>2026-04-25T09:18:18.776Z</time></trkpt><trkpt lat="45.0085935" lon="9.2170481"><ele>243.0</ele><time>2026-04-25T09:18:21.428Z</time></trkpt><trkpt lat="45.008594" lon="9.2165154"><ele>245.0</ele><time>2026-04-25T09:18:27.764Z</time></trkpt><trkpt lat="45.0084876" lon="9.217439"><ele>245.0</ele><time>2026-04-25T09:18:30.429Z</time></trkpt><trkpt lat="45.0085732" lon="9.2167503"><ele>253.0</ele><time>2026-04-25T09:18:36.772Z</time></trkpt><trkpt lat="45.0084324" lon="9.2177479"><ele>253.0</ele><time>2026-04-25T09:18:39.429Z</time></trkpt><trkpt lat="45.0084067" lon="9.2180441"><ele>253.0</ele><time>2026-04-25T09:18:45.771Z</time></trkpt><trkpt lat="45.0083198" lon="9.2183465"><ele>253.0</ele><time>2026-04-25T09:18:54.787Z</time></trkpt><trkpt lat="45.0082231" lon="9.2186234"><ele>251.5</ele><time>2026-04-25T09:19:03.794Z</time></trkpt><trkpt lat="45.0081822" lon="9.2189292"><ele>250.0</ele><time>2026-04-25T09:19:12.778Z</time></trkpt><trkpt lat="45.008183" lon="9.2192553"><ele>254.0</ele><time>2026-04-25T09:19:21.776Z</time></trkpt><trkpt lat="45.0081757" lon="9.2195998"><ele>258.0</ele><time>2026-04-25T09:19:30.77Z</time></trkpt><trkpt lat="45.0082051" lon="9.219974"><ele>258.0</ele><time>2026-04-25T09:19:42.386Z</time></trkpt><trkpt lat="45.0081763" lon="9.2195236"><ele>258.0</ele><time>2026-04-25T09:19:48.888Z</time></trkpt><trkpt lat="45.0081859" lon="9.2203407"><ele>259.5</ele><time>2026-04-25T09:19:49.972Z</time></trkpt><trkpt lat="45.0081662" lon="9.2204516"><ele>261.0</ele><time>2026-04-25T09:19:52.968Z</time></trkpt><trkpt lat="45.0081673" lon="9.2205447"><ele>262.5</ele><time>2026-04-25T09:19:54.961Z</time></trkpt><trkpt lat="45.0081578" lon="9.2206358"><ele>264.0</ele><time>2026-04-25T09:19:56.961Z</time></trkpt><trkpt lat="45.0081635" lon="9.2207577"><ele>265.5</ele><time>2026-04-25T09:19:59.962Z</time></trkpt><trkpt lat="45.008161" lon="9.2208833"><ele>267.0</ele><time>2026-04-25T09:20:02.955Z</time></trkpt><trkpt lat="45.0081535" lon="9.2209745"><ele>267.7142857142857</ele><time>2026-04-25T09:20:04.957Z</time></trkpt><trkpt lat="45.0081554" lon="9.2210716"><ele>268.42857142857144</ele><time>2026-04-25T09:20:06.953Z</time></trkpt><trkpt lat="45.0081596" lon="9.2211737"><ele>269.1428571428571</ele><time>2026-04-25T09:20:08.955Z</time></trkpt><trkpt lat="45.0081598" lon="9.2212689"><ele>269.8571428571429</ele><time>2026-04-25T09:20:10.957Z</time></trkpt><trkpt lat="45.0081481" lon="9.2213688"><ele>270.57142857142856</ele><time>2026-04-25T09:20:12.96Z</time></trkpt><trkpt lat="45.0081392" lon="9.2214588"><ele>271.2857142857143</ele><time>2026-04-25T09:20:14.958Z</time></trkpt><trkpt lat="45.0081382" lon="9.2215532"><ele>272.0</ele><time>2026-04-25T09:20:16.955Z</time></trkpt><trkpt lat="45.0081435" lon="9.2216513"><ele>272.6666666666667</ele><time>2026-04-25T09:20:18.958Z</time></trkpt><trkpt lat="45.008143" lon="9.2217502"><ele>273.33333333333337</ele><time>2026-04-25T09:20:20.96Z</time></trkpt><trkpt lat="45.0081442" lon="9.2218544"><ele>274.0</ele><time>2026-04-25T09:20:22.96Z</time></trkpt><trkpt lat="45.0081429" lon="9.2219483"><ele>274.6666666666667</ele><time>2026-04-25T09:20:24.957Z</time></trkpt><trkpt lat="45.0081437" lon="9.2220406"><ele>275.3333333333333</ele><time>2026-04-25T09:20:26.965Z</time></trkpt><trkpt lat="45.0081415" lon="9.2221693"><ele>276.0</ele><time>2026-04-25T09:20:29.956Z</time></trkpt><trkpt lat="45.0081363" lon="9.2223033"><ele>277.0</ele><time>2026-04-25T09:20:32.971Z</time></trkpt><trkpt lat="45.0081246" lon="9.2224279"><ele>278.0</ele><time>2026-04-25T09:20:35.948Z</time></trkpt><trkpt lat="45.0081215" lon="9.2225496"><ele>279.0</ele><time>2026-04-25T09:20:38.97Z</time></trkpt><trkpt lat="45.0081144" lon="9.222645"><ele>280.0</ele><time>2026-04-25T09:20:40.962Z</time></trkpt><trkpt lat="45.0081079" lon="9.2227371"><ele>281.0</ele><time>2026-04-25T09:20:43.039Z</time></trkpt><trkpt lat="45.0081049" lon="9.2228347"><ele>282.0</ele><time>2026-04-25T09:20:44.966Z</time></trkpt><trkpt lat="45.008095" lon="9.2229257"><ele>283.0</ele><time>2026-04-25T09:20:46.969Z</time></trkpt><trkpt lat="45.0080975" lon="9.2230518"><ele>284.16666666666663</ele><time>2026-04-25T09:20:49.96Z</time></trkpt><trkpt lat="45.0080985" lon="9.2231856"><ele>285.3333333333333</ele><time>2026-04-25T09:20:52.958Z</time></trkpt><trkpt lat="45.0080915" lon="9.2232769"><ele>286.5</ele><time>2026-04-25T09:20:54.96Z</time></trkpt><trkpt lat="45.0080826" lon="9.2234085"><ele>287.6666666666667</ele><time>2026-04-25T09:20:57.963Z</time></trkpt><trkpt lat="45.0080697" lon="9.2235208"><ele>288.83333333333337</ele><time>2026-04-25T09:21:00.959Z</time></trkpt><trkpt lat="45.0080552" lon="9.2236296"><ele>290.0</ele><time>2026-04-25T09:21:03.956Z</time></trkpt><trkpt lat="45.0080499" lon="9.2237431"><ele>290.0</ele><time>2026-04-25T09:21:06.973Z</time></trkpt><trkpt lat="45.008045" lon="9.2238482"><ele>290.0</ele><time>2026-04-25T09:21:09.958Z</time></trkpt><trkpt lat="45.0080357" lon="9.223941"><ele>290.0</ele><time>2026-04-25T09:21:12.97Z</time></trkpt><trkpt lat="45.0080188" lon="9.2240332"><ele>290.0</ele><time>2026-04-25T09:21:15.959Z</time></trkpt><trkpt lat="45.007999" lon="9.2241404"><ele>290.0</ele><time>2026-04-25T09:21:20.031Z</time></trkpt><trkpt lat="45.0079678" lon="9.2242267"><ele>290.0</ele><time>2026-04-25T09:21:22.96Z</time></trkpt><trkpt lat="45.007936" lon="9.2243256"><ele>290.0</ele><time>2026-04-25T09:21:25.961Z</time></trkpt><trkpt lat="45.0079016" lon="9.224416"><ele>291.33333333333337</ele><time>2026-04-25T09:21:28.966Z</time></trkpt><trkpt lat="45.0078707" lon="9.2245154"><ele>292.6666666666667</ele><time>2026-04-25T09:21:31.956Z</time></trkpt><trkpt lat="45.0078379" lon="9.2246056"><ele>294.0</ele><time>2026-04-25T09:21:34.959Z</time></trkpt><trkpt lat="45.0078153" lon="9.224713"><ele>295.3333333333333</ele><time>2026-04-25T09:21:37.957Z</time></trkpt><trkpt lat="45.0077828" lon="9.2248215"><ele>296.66666666666663</ele><time>2026-04-25T09:21:40.963Z</time></trkpt><trkpt lat="45.007751" lon="9.2249268"><ele>298.0</ele><time>2026-04-25T09:21:43.961Z</time></trkpt><trkpt lat="45.0077125" lon="9.2250371"><ele>301.0</ele><time>2026-04-25T09:21:46.961Z</time></trkpt><trkpt lat="45.0075937" lon="9.2253867"><ele>304.0</ele><time>2026-04-25T09:21:55.779Z</time></trkpt><trkpt lat="45.0074565" lon="9.225668"><ele>304.0</ele><time>2026-04-25T09:22:04.771Z</time></trkpt><trkpt lat="45.0073227" lon="9.2259807"><ele>304.0</ele><time>2026-04-25T09:22:13.779Z</time></trkpt><trkpt lat="45.0071953" lon="9.2262708"><ele>306.66666666666663</ele><time>2026-04-25T09:22:22.814Z</time></trkpt><trkpt lat="45.0070188" lon="9.2265393"><ele>309.3333333333333</ele><time>2026-04-25T09:22:31.771Z</time></trkpt><trkpt lat="45.0070929" lon="9.2265144"><ele>312.0</ele><time>2026-04-25T09:22:49.779Z</time></trkpt><trkpt lat="45.0069968" lon="9.2267055"><ele>313.0</ele><time>2026-04-25T09:22:58.776Z</time></trkpt><trkpt lat="45.0066451" lon="9.2279413"><ele>316.0</ele><time>2026-04-25T09:23:07.779Z</time></trkpt><trkpt lat="45.0065548" lon="9.2282831"><ele>319.0</ele><time>2026-04-25T09:23:16.795Z</time></trkpt><trkpt lat="45.0064927" lon="9.2285109"><ele>322.0</ele><time>2026-04-25T09:23:25.766Z</time></trkpt><trkpt lat="45.0062733" lon="9.2285683"><ele>322.0</ele><time>2026-04-25T09:23:34.788Z</time></trkpt><trkpt lat="45.0060357" lon="9.228708"><ele>322.0</ele><time>2026-04-25T09:23:43.766Z</time></trkpt><trkpt lat="45.0057439" lon="9.2287809"><ele>321.66666666666663</ele><time>2026-04-25T09:23:52.774Z</time></trkpt><trkpt lat="45.0058075" lon="9.2287361"><ele>321.3333333333333</ele><time>2026-04-25T09:24:01.764Z</time></trkpt><trkpt lat="45.0056465" lon="9.2287749"><ele>321.0</ele><time>2026-04-25T09:24:19.762Z</time></trkpt><trkpt lat="45.0046147" lon="9.2289131"><ele>322.0</ele><time>2026-04-25T09:24:28.9Z</time></trkpt><trkpt lat="45.0045374" lon="9.2288991"><ele>323.0</ele><time>2026-04-25T09:24:30.978Z</time></trkpt><trkpt lat="45.0044628" lon="9.2289195"><ele>324.0</ele><time>2026-04-25T09:24:33.968Z</time></trkpt><trkpt lat="45.0043969" lon="9.2289322"><ele>325.0</ele><time>2026-04-25T09:24:35.96Z</time></trkpt><trkpt lat="45.0043186" lon="9.2289356"><ele>326.0</ele><time>2026-04-25T09:24:37.959Z</time></trkpt><trkpt lat="45.0042424" lon="9.2289464"><ele>327.0</ele><time>2026-04-25T09:24:39.958Z</time></trkpt><trkpt lat="45.0041638" lon="9.2289457"><ele>328.3333333333333</ele><time>2026-04-25T09:24:41.955Z</time></trkpt><trkpt lat="45.0040943" lon="9.2289434"><ele>329.66666666666663</ele><time>2026-04-25T09:24:43.952Z</time></trkpt><trkpt lat="45.0037909" lon="9.2289728"><ele>331.0</ele><time>2026-04-25T09:24:52.775Z</time></trkpt><trkpt lat="45.003455" lon="9.229066"><ele>337.0</ele><time>2026-04-25T09:25:01.765Z</time></trkpt><trkpt lat="45.003162" lon="9.2290499"><ele>343.0</ele><time>2026-04-25T09:25:10.884Z</time></trkpt><trkpt lat="45.0027973" lon="9.2291477"><ele>343.0</ele><time>2026-04-25T09:25:20.779Z</time></trkpt><trkpt lat="45.0025577" lon="9.2291571"><ele>343.0</ele><time>2026-04-25T09:25:27.905Z</time></trkpt><trkpt lat="45.0027993" lon="9.2291308"><ele>343.0</ele><time>2026-04-25T09:25:36.78Z</time></trkpt><trkpt lat="45.0025908" lon="9.2291667"><ele>343.0</ele><time>2026-04-25T09:25:45.774Z</time></trkpt><trkpt lat="45.0016359" lon="9.2292171"><ele>342.0</ele><time>2026-04-25T09:25:54.777Z</time></trkpt><trkpt lat="45.0013388" lon="9.2293017"><ele>341.0</ele><time>2026-04-25T09:26:03.78Z</time></trkpt><trkpt lat="45.001134" lon="9.2295483"><ele>340.0</ele><time>2026-04-25T09:26:12.768Z</time></trkpt><trkpt lat="45.0007806" lon="9.2300148"><ele>340.0</ele><time>2026-04-25T09:26:21.773Z</time></trkpt><trkpt lat="45.0003959" lon="9.2303438"><ele>340.0</ele><time>2026-04-25T09:26:30.777Z</time></trkpt><trkpt lat="45.0001082" lon="9.2305808"><ele>340.0</ele><time>2026-04-25T09:26:39.778Z</time></trkpt><trkpt lat="45.0003977" lon="9.230334"><ele>342.0</ele><time>2026-04-25T09:26:48.777Z</time></trkpt><trkpt lat="44.9995119" lon="9.2310674"><ele>342.0</ele><time>2026-04-25T09:26:57.769Z</time></trkpt><trkpt lat="44.9991686" lon="9.2312472"><ele>342.0</ele><time>2026-04-25T09:27:06.767Z</time></trkpt><trkpt lat="44.9987633" lon="9.2314758"><ele>344.0</ele><time>2026-04-25T09:27:15.763Z</time></trkpt><trkpt lat="44.9983371" lon="9.2318709"><ele>344.5</ele><time>2026-04-25T09:27:24.769Z</time></trkpt><trkpt lat="44.9979274" lon="9.2321297"><ele>345.0</ele><time>2026-04-25T09:27:33.815Z</time></trkpt><trkpt lat="44.9975886" lon="9.2322834"><ele>345.0</ele><time>2026-04-25T09:27:42.768Z</time></trkpt><trkpt lat="44.9979191" lon="9.2320729"><ele>345.0</ele><time>2026-04-25T09:27:51.765Z</time></trkpt><trkpt lat="44.9969936" lon="9.2323577"><ele>347.0</ele><time>2026-04-25T09:28:00.769Z</time></trkpt><trkpt lat="44.9967594" lon="9.2324912"><ele>349.0</ele><time>2026-04-25T09:28:09.775Z</time></trkpt><trkpt lat="44.9965379" lon="9.2326873"><ele>353.0</ele><time>2026-04-25T09:28:18.784Z</time></trkpt><trkpt lat="44.9963332" lon="9.2328917"><ele>357.0</ele><time>2026-04-25T09:28:27.762Z</time></trkpt><trkpt lat="44.9961116" lon="9.2332086"><ele>357.0</ele><time>2026-04-25T09:28:36.767Z</time></trkpt><trkpt lat="44.9959017" lon="9.2335019"><ele>357.0</ele><time>2026-04-25T09:28:45.816Z</time></trkpt><trkpt lat="44.995982" lon="9.2333778"><ele>357.0</ele><time>2026-04-25T09:28:54.833Z</time></trkpt><trkpt lat="44.9958661" lon="9.2335996"><ele>373.0</ele><time>2026-04-25T09:29:12.763Z</time></trkpt><trkpt lat="44.9952832" lon="9.2346477"><ele>371.0</ele><time>2026-04-25T09:29:21.765Z</time></trkpt><trkpt lat="44.995169" lon="9.2349234"><ele>369.0</ele><time>2026-04-25T09:29:30.82Z</time></trkpt><trkpt lat="44.9950284" lon="9.2352507"><ele>378.5</ele><time>2026-04-25T09:29:39.813Z</time></trkpt><trkpt lat="44.9949388" lon="9.2355116"><ele>388.0</ele><time>2026-04-25T09:29:48.767Z</time></trkpt><trkpt lat="44.9949019" lon="9.2360339"><ele>388.0</ele><time>2026-04-25T09:29:57.784Z</time></trkpt><trkpt lat="44.9949189" lon="9.2366907"><ele>374.0</ele><time>2026-04-25T09:30:06.766Z</time></trkpt><trkpt lat="44.9950046" lon="9.2373408"><ele>374.0</ele><time>2026-04-25T09:30:15.761Z</time></trkpt><trkpt lat="44.9950768" lon="9.2377686"><ele>374.0</ele><time>2026-04-25T09:30:24.766Z</time></trkpt><trkpt lat="44.9950084" lon="9.2382893"><ele>375.0</ele><time>2026-04-25T09:30:33.771Z</time></trkpt><trkpt lat="44.9946671" lon="9.2390464"><ele>367.0</ele><time>2026-04-25T09:30:42.763Z</time></trkpt><trkpt lat="44.9945224" lon="9.2398783"><ele>367.0</ele><time>2026-04-25T09:30:51.767Z</time></trkpt><trkpt lat="44.994567" lon="9.2404657"><ele>367.0</ele><time>2026-04-25T09:31:00.763Z</time></trkpt><trkpt lat="44.9947329" lon="9.2410184"><ele>364.0</ele><time>2026-04-25T09:31:09.768Z</time></trkpt><trkpt lat="44.9949118" lon="9.2416034"><ele>343.0</ele><time>2026-04-25T09:31:18.77Z</time></trkpt><trkpt lat="44.9951831" lon="9.2424242"><ele>351.0</ele><time>2026-04-25T09:31:27.761Z</time></trkpt><trkpt lat="44.9954493" lon="9.2431391"><ele>330.0</ele><time>2026-04-25T09:31:36.774Z</time></trkpt><trkpt lat="44.9959686" lon="9.2434849"><ele>333.0</ele><time>2026-04-25T09:31:45.766Z</time></trkpt><trkpt lat="44.9964414" lon="9.244318"><ele>324.0</ele><time>2026-04-25T09:31:54.763Z</time></trkpt><trkpt lat="44.9968168" lon="9.2451405"><ele>329.0</ele><time>2026-04-25T09:32:03.768Z</time></trkpt><trkpt lat="44.9969844" lon="9.245924"><ele>326.0</ele><time>2026-04-25T09:32:12.772Z</time></trkpt><trkpt lat="44.9971904" lon="9.2466008"><ele>317.0</ele><time>2026-04-25T09:32:21.815Z</time></trkpt><trkpt lat="44.9978274" lon="9.2466827"><ele>304.0</ele><time>2026-04-25T09:32:30.766Z</time></trkpt><trkpt lat="44.9984588" lon="9.2469455"><ele>300.0</ele><time>2026-04-25T09:32:39.757Z</time></trkpt><trkpt lat="44.9992602" lon="9.2471454"><ele>300.0</ele><time>2026-04-25T09:32:48.768Z</time></trkpt><trkpt lat="45.0001393" lon="9.2470676"><ele>299.5</ele><time>2026-04-25T09:32:57.771Z</time></trkpt><trkpt lat="45.0002405" lon="9.247645"><ele>299.0</ele><time>2026-04-25T09:33:06.769Z</time></trkpt><trkpt lat="45.00048" lon="9.2481908"><ele>304.0</ele><time>2026-04-25T09:33:15.764Z</time></trkpt><trkpt lat="45.0010178" lon="9.2479906"><ele>288.0</ele><time>2026-04-25T09:33:24.813Z</time></trkpt><trkpt lat="45.0017296" lon="9.2475772"><ele>288.0</ele><time>2026-04-25T09:33:33.768Z</time></trkpt><trkpt lat="45.0023776" lon="9.2476008"><ele>278.0</ele><time>2026-04-25T09:33:42.765Z</time></trkpt><trkpt lat="45.0030223" lon="9.2478165"><ele>264.0</ele><time>2026-04-25T09:33:51.764Z</time></trkpt><trkpt lat="45.0034913" lon="9.2479859"><ele>276.0</ele><time>2026-04-25T09:34:00.823Z</time></trkpt><trkpt lat="45.0031734" lon="9.2486635"><ele>266.0</ele><time>2026-04-25T09:34:10.767Z</time></trkpt><trkpt lat="45.0037149" lon="9.2485971"><ele>264.0</ele><time>2026-04-25T09:34:19.758Z</time></trkpt><trkpt lat="45.0041478" lon="9.2481204"><ele>259.0</ele><time>2026-04-25T09:34:28.762Z</time></trkpt><trkpt lat="45.0043272" lon="9.2485969"><ele>254.0</ele><time>2026-04-25T09:34:37.768Z</time></trkpt><trkpt lat="45.0045376" lon="9.2494459"><ele>232.0</ele><time>2026-04-25T09:34:46.765Z</time></trkpt><trkpt lat="45.0052852" lon="9.2497746"><ele>222.0</ele><time>2026-04-25T09:34:55.768Z</time></trkpt><trkpt lat="45.0059471" lon="9.2500118"><ele>222.0</ele><time>2026-04-25T09:35:04.783Z</time></trkpt><trkpt lat="45.0060561" lon="9.2505891"><ele>222.0</ele><time>2026-04-25T09:35:13.758Z</time></trkpt><trkpt lat="45.0057688" lon="9.2509016"><ele>218.0</ele><time>2026-04-25T09:35:22.762Z</time></trkpt><trkpt lat="45.0064137" lon="9.2511827"><ele>207.0</ele><time>2026-04-25T09:35:31.763Z</time></trkpt><trkpt lat="45.0069202" lon="9.2508836"><ele>207.0</ele><time>2026-04-25T09:35:40.765Z</time></trkpt><trkpt lat="45.0073049" lon="9.2503577"><ele>207.0</ele><time>2026-04-25T09:35:49.769Z</time></trkpt><trkpt lat="45.0068422" lon="9.2509738"><ele>199.0</ele><time>2026-04-25T09:35:58.766Z</time></trkpt><trkpt lat="45.0073473" lon="9.2521129"><ele>192.5</ele><time>2026-04-25T09:36:07.771Z</time></trkpt><trkpt lat="45.0077342" lon="9.2518699"><ele>186.0</ele><time>2026-04-25T09:36:16.759Z</time></trkpt><trkpt lat="45.0077878" lon="9.2518145"><ele>189.0</ele><time>2026-04-25T09:36:20.589Z</time></trkpt><trkpt lat="45.0082085" lon="9.2511277"><ele>179.0</ele><time>2026-04-25T09:36:25.765Z</time></trkpt><trkpt lat="45.0084626" lon="9.2515462"><ele>169.0</ele><time>2026-04-25T09:36:34.764Z</time></trkpt><trkpt lat="45.0083634" lon="9.2525856"><ele>160.0</ele><time>2026-04-25T09:36:43.762Z</time></trkpt><trkpt lat="45.0085711" lon="9.2531674"><ele>152.0</ele><time>2026-04-25T09:36:52.76Z</time></trkpt><trkpt lat="45.0093007" lon="9.2528775"><ele>141.0</ele><time>2026-04-25T09:37:01.76Z</time></trkpt><trkpt lat="45.0101468" lon="9.2524505"><ele>137.0</ele><time>2026-04-25T09:37:10.764Z</time></trkpt><trkpt lat="45.0109445" lon="9.2521137"><ele>137.0</ele><time>2026-04-25T09:37:19.765Z</time></trkpt><trkpt lat="45.0112629" lon="9.2523481"><ele>137.0</ele><time>2026-04-25T09:37:28.764Z</time></trkpt><trkpt lat="45.0114603" lon="9.2522214"><ele>136.5</ele><time>2026-04-25T09:37:37.762Z</time></trkpt><trkpt lat="45.0117192" lon="9.252072"><ele>136.0</ele><time>2026-04-25T09:37:46.762Z</time></trkpt><trkpt lat="45.0118012" lon="9.2517832"><ele>136.0</ele><time>2026-04-25T09:37:55.766Z</time></trkpt><trkpt lat="45.0119811" lon="9.2517544"><ele>136.0</ele><time>2026-04-25T09:38:04.766Z</time></trkpt></trkseg></trk></gpx>